<?xml version="1.0" encoding="UTF-8" standalone="no" ?>
<gpx xmlns="http://www.topografix.com/GPX/1/1" xmlns:xsi="http://www.w3.org/2001/XMLSchema-instance" xsi:schemaLocation="http://www.topografix.com/GPX/1/1 http://www.topografix.com/GPX/1/1/gpx.xsd" version="1.1" creator="VisuGPX - https://www.visugpx.com">
  <metadata>
    <name>Vtt ZunGroupe </name>
  </metadata>
  <trk>
    <name><![CDATA[Vtt ZunGroupe _1]]></name>
    <trkseg>
      <trkpt lat="43.95355" lon="1.86873">
        <ele>277.8</ele>
        <time>2022-09-01T17:05:55Z</time>
      </trkpt>
      <trkpt lat="43.95355" lon="1.86875">
        <ele>274.4</ele>
        <time>2022-09-01T17:05:56Z</time>
      </trkpt>
      <trkpt lat="43.95353" lon="1.86879">
        <ele>274.6</ele>
        <time>2022-09-01T17:05:58Z</time>
      </trkpt>
      <trkpt lat="43.95352" lon="1.86881">
        <ele>274.6</ele>
        <time>2022-09-01T17:05:59Z</time>
      </trkpt>
      <trkpt lat="43.95351" lon="1.86883">
        <ele>274.4</ele>
        <time>2022-09-01T17:06:00Z</time>
      </trkpt>
      <trkpt lat="43.95349" lon="1.86886">
        <ele>274.4</ele>
        <time>2022-09-01T17:06:01Z</time>
      </trkpt>
      <trkpt lat="43.95348" lon="1.86889">
        <ele>274.6</ele>
        <time>2022-09-01T17:06:02Z</time>
      </trkpt>
      <trkpt lat="43.95342" lon="1.869">
        <ele>274.6</ele>
        <time>2022-09-01T17:06:07Z</time>
      </trkpt>
      <trkpt lat="43.95339" lon="1.86906">
        <ele>274.6</ele>
        <time>2022-09-01T17:06:10Z</time>
      </trkpt>
      <trkpt lat="43.95338" lon="1.86908">
        <ele>274.6</ele>
        <time>2022-09-01T17:06:11Z</time>
      </trkpt>
      <trkpt lat="43.95336" lon="1.86913">
        <ele>274.6</ele>
        <time>2022-09-01T17:06:13Z</time>
      </trkpt>
      <trkpt lat="43.95336" lon="1.86915">
        <ele>274.6</ele>
        <time>2022-09-01T17:06:14Z</time>
      </trkpt>
      <trkpt lat="43.95336" lon="1.86918">
        <ele>274.8</ele>
        <time>2022-09-01T17:06:15Z</time>
      </trkpt>
      <trkpt lat="43.95336" lon="1.8692">
        <ele>274.8</ele>
        <time>2022-09-01T17:06:16Z</time>
      </trkpt>
      <trkpt lat="43.95337" lon="1.86922">
        <ele>274.8</ele>
        <time>2022-09-01T17:06:17Z</time>
      </trkpt>
      <trkpt lat="43.95338" lon="1.86924">
        <ele>274.8</ele>
        <time>2022-09-01T17:06:18Z</time>
      </trkpt>
      <trkpt lat="43.95339" lon="1.86926">
        <ele>274.8</ele>
        <time>2022-09-01T17:06:19Z</time>
      </trkpt>
      <trkpt lat="43.9534" lon="1.86928">
        <ele>274.8</ele>
        <time>2022-09-01T17:06:20Z</time>
      </trkpt>
      <trkpt lat="43.9534" lon="1.8693">
        <ele>275</ele>
        <time>2022-09-01T17:06:21Z</time>
      </trkpt>
      <trkpt lat="43.9534" lon="1.86933">
        <ele>275</ele>
        <time>2022-09-01T17:06:22Z</time>
      </trkpt>
      <trkpt lat="43.95339" lon="1.86935">
        <ele>275</ele>
        <time>2022-09-01T17:06:23Z</time>
      </trkpt>
      <trkpt lat="43.95338" lon="1.8694">
        <ele>275</ele>
        <time>2022-09-01T17:06:25Z</time>
      </trkpt>
      <trkpt lat="43.95338" lon="1.86942">
        <ele>275</ele>
        <time>2022-09-01T17:06:26Z</time>
      </trkpt>
      <trkpt lat="43.95338" lon="1.86945">
        <ele>275.2</ele>
        <time>2022-09-01T17:06:27Z</time>
      </trkpt>
      <trkpt lat="43.95339" lon="1.86947">
        <ele>275.2</ele>
        <time>2022-09-01T17:06:28Z</time>
      </trkpt>
      <trkpt lat="43.9534" lon="1.86948">
        <ele>275.2</ele>
        <time>2022-09-01T17:06:29Z</time>
      </trkpt>
      <trkpt lat="43.95342" lon="1.86949">
        <ele>275.2</ele>
        <time>2022-09-01T17:06:30Z</time>
      </trkpt>
      <trkpt lat="43.95343" lon="1.86951">
        <ele>275.2</ele>
        <time>2022-09-01T17:06:31Z</time>
      </trkpt>
      <trkpt lat="43.95345" lon="1.86952">
        <ele>275.2</ele>
        <time>2022-09-01T17:06:32Z</time>
      </trkpt>
      <trkpt lat="43.95346" lon="1.86954">
        <ele>275.2</ele>
        <time>2022-09-01T17:06:33Z</time>
      </trkpt>
      <trkpt lat="43.9535" lon="1.86958">
        <ele>275.4</ele>
        <time>2022-09-01T17:06:35Z</time>
      </trkpt>
      <trkpt lat="43.95363" lon="1.8697">
        <ele>275.4</ele>
        <time>2022-09-01T17:06:41Z</time>
      </trkpt>
      <trkpt lat="43.9539" lon="1.86996">
        <ele>275.4</ele>
        <time>2022-09-01T17:06:51Z</time>
      </trkpt>
      <trkpt lat="43.95398" lon="1.87003">
        <ele>275.6</ele>
        <time>2022-09-01T17:06:54Z</time>
      </trkpt>
      <trkpt lat="43.954" lon="1.87004">
        <ele>275.6</ele>
        <time>2022-09-01T17:06:55Z</time>
      </trkpt>
      <trkpt lat="43.95403" lon="1.87008">
        <ele>275.8</ele>
        <time>2022-09-01T17:06:56Z</time>
      </trkpt>
      <trkpt lat="43.95408" lon="1.87013">
        <ele>276.2</ele>
        <time>2022-09-01T17:06:58Z</time>
      </trkpt>
      <trkpt lat="43.9541" lon="1.87016">
        <ele>276.2</ele>
        <time>2022-09-01T17:06:59Z</time>
      </trkpt>
      <trkpt lat="43.95413" lon="1.87019">
        <ele>276.4</ele>
        <time>2022-09-01T17:07:00Z</time>
      </trkpt>
      <trkpt lat="43.95415" lon="1.87022">
        <ele>276.4</ele>
        <time>2022-09-01T17:07:01Z</time>
      </trkpt>
      <trkpt lat="43.95417" lon="1.87025">
        <ele>276.4</ele>
        <time>2022-09-01T17:07:02Z</time>
      </trkpt>
      <trkpt lat="43.95418" lon="1.87029">
        <ele>276.4</ele>
        <time>2022-09-01T17:07:03Z</time>
      </trkpt>
      <trkpt lat="43.95419" lon="1.87036">
        <ele>276.4</ele>
        <time>2022-09-01T17:07:05Z</time>
      </trkpt>
      <trkpt lat="43.95419" lon="1.8704">
        <ele>276.4</ele>
        <time>2022-09-01T17:07:06Z</time>
      </trkpt>
      <trkpt lat="43.95419" lon="1.87045">
        <ele>276.4</ele>
        <time>2022-09-01T17:07:07Z</time>
      </trkpt>
      <trkpt lat="43.95413" lon="1.87073">
        <ele>276.6</ele>
        <time>2022-09-01T17:07:14Z</time>
      </trkpt>
      <trkpt lat="43.95412" lon="1.8708">
        <ele>276.8</ele>
        <time>2022-09-01T17:07:16Z</time>
      </trkpt>
      <trkpt lat="43.95409" lon="1.87092">
        <ele>277.2</ele>
        <time>2022-09-01T17:07:19Z</time>
      </trkpt>
      <trkpt lat="43.95409" lon="1.87097">
        <ele>277.4</ele>
        <time>2022-09-01T17:07:20Z</time>
      </trkpt>
      <trkpt lat="43.95404" lon="1.87118">
        <ele>277.8</ele>
        <time>2022-09-01T17:07:25Z</time>
      </trkpt>
      <trkpt lat="43.954" lon="1.8714">
        <ele>278.4</ele>
        <time>2022-09-01T17:07:30Z</time>
      </trkpt>
      <trkpt lat="43.95396" lon="1.87158">
        <ele>278.8</ele>
        <time>2022-09-01T17:07:34Z</time>
      </trkpt>
      <trkpt lat="43.95391" lon="1.8718">
        <ele>279</ele>
        <time>2022-09-01T17:07:39Z</time>
      </trkpt>
      <trkpt lat="43.95389" lon="1.87189">
        <ele>279.2</ele>
        <time>2022-09-01T17:07:41Z</time>
      </trkpt>
      <trkpt lat="43.95387" lon="1.87198">
        <ele>279.6</ele>
        <time>2022-09-01T17:07:43Z</time>
      </trkpt>
      <trkpt lat="43.95385" lon="1.87207">
        <ele>279.8</ele>
        <time>2022-09-01T17:07:45Z</time>
      </trkpt>
      <trkpt lat="43.95383" lon="1.8722">
        <ele>280</ele>
        <time>2022-09-01T17:07:48Z</time>
      </trkpt>
      <trkpt lat="43.95379" lon="1.87238">
        <ele>280.2</ele>
        <time>2022-09-01T17:07:52Z</time>
      </trkpt>
      <trkpt lat="43.95378" lon="1.87242">
        <ele>280.2</ele>
        <time>2022-09-01T17:07:53Z</time>
      </trkpt>
      <trkpt lat="43.95377" lon="1.87246">
        <ele>280.4</ele>
        <time>2022-09-01T17:07:54Z</time>
      </trkpt>
      <trkpt lat="43.95376" lon="1.8725">
        <ele>280.4</ele>
        <time>2022-09-01T17:07:55Z</time>
      </trkpt>
      <trkpt lat="43.95375" lon="1.87253">
        <ele>280.6</ele>
        <time>2022-09-01T17:07:56Z</time>
      </trkpt>
      <trkpt lat="43.95374" lon="1.87256">
        <ele>280.8</ele>
        <time>2022-09-01T17:07:57Z</time>
      </trkpt>
      <trkpt lat="43.95374" lon="1.87259">
        <ele>280.8</ele>
        <time>2022-09-01T17:07:58Z</time>
      </trkpt>
      <trkpt lat="43.95373" lon="1.87263">
        <ele>280.8</ele>
        <time>2022-09-01T17:07:59Z</time>
      </trkpt>
      <trkpt lat="43.95373" lon="1.87265">
        <ele>281</ele>
        <time>2022-09-01T17:08:00Z</time>
      </trkpt>
      <trkpt lat="43.95372" lon="1.87268">
        <ele>281</ele>
        <time>2022-09-01T17:08:01Z</time>
      </trkpt>
      <trkpt lat="43.95372" lon="1.8727">
        <ele>281.2</ele>
        <time>2022-09-01T17:08:02Z</time>
      </trkpt>
      <trkpt lat="43.95372" lon="1.87271">
        <ele>281.2</ele>
        <time>2022-09-01T17:08:03Z</time>
      </trkpt>
      <trkpt lat="43.95372" lon="1.87272">
        <ele>281.4</ele>
        <time>2022-09-01T17:08:04Z</time>
      </trkpt>
      <trkpt lat="43.95372" lon="1.87273">
        <ele>281.4</ele>
        <time>2022-09-01T17:08:05Z</time>
      </trkpt>
      <trkpt lat="43.95372" lon="1.87275">
        <ele>281.6</ele>
        <time>2022-09-01T17:08:06Z</time>
      </trkpt>
      <trkpt lat="43.95371" lon="1.87276">
        <ele>281.8</ele>
        <time>2022-09-01T17:08:07Z</time>
      </trkpt>
      <trkpt lat="43.9537" lon="1.8729">
        <ele>282.4</ele>
        <time>2022-09-01T17:08:12Z</time>
      </trkpt>
      <trkpt lat="43.9537" lon="1.87292">
        <ele>282.6</ele>
        <time>2022-09-01T17:08:13Z</time>
      </trkpt>
      <trkpt lat="43.9537" lon="1.87295">
        <ele>282.6</ele>
        <time>2022-09-01T17:08:14Z</time>
      </trkpt>
      <trkpt lat="43.95369" lon="1.87297">
        <ele>282.6</ele>
        <time>2022-09-01T17:08:15Z</time>
      </trkpt>
      <trkpt lat="43.95368" lon="1.87299">
        <ele>282.8</ele>
        <time>2022-09-01T17:08:16Z</time>
      </trkpt>
      <trkpt lat="43.95367" lon="1.87301">
        <ele>282.8</ele>
        <time>2022-09-01T17:08:17Z</time>
      </trkpt>
      <trkpt lat="43.95367" lon="1.87304">
        <ele>282.8</ele>
        <time>2022-09-01T17:08:18Z</time>
      </trkpt>
      <trkpt lat="43.95368" lon="1.87306">
        <ele>283</ele>
        <time>2022-09-01T17:08:19Z</time>
      </trkpt>
      <trkpt lat="43.95369" lon="1.87308">
        <ele>283</ele>
        <time>2022-09-01T17:08:20Z</time>
      </trkpt>
      <trkpt lat="43.95371" lon="1.8731">
        <ele>283.2</ele>
        <time>2022-09-01T17:08:21Z</time>
      </trkpt>
      <trkpt lat="43.95373" lon="1.87313">
        <ele>283.6</ele>
        <time>2022-09-01T17:08:22Z</time>
      </trkpt>
      <trkpt lat="43.95374" lon="1.87315">
        <ele>283.6</ele>
        <time>2022-09-01T17:08:23Z</time>
      </trkpt>
      <trkpt lat="43.95376" lon="1.87318">
        <ele>283.8</ele>
        <time>2022-09-01T17:08:24Z</time>
      </trkpt>
      <trkpt lat="43.95378" lon="1.87321">
        <ele>283.6</ele>
        <time>2022-09-01T17:08:25Z</time>
      </trkpt>
      <trkpt lat="43.95379" lon="1.87323">
        <ele>283.8</ele>
        <time>2022-09-01T17:08:26Z</time>
      </trkpt>
      <trkpt lat="43.95381" lon="1.87326">
        <ele>284</ele>
        <time>2022-09-01T17:08:27Z</time>
      </trkpt>
      <trkpt lat="43.95383" lon="1.87329">
        <ele>284</ele>
        <time>2022-09-01T17:08:28Z</time>
      </trkpt>
      <trkpt lat="43.95384" lon="1.87331">
        <ele>284</ele>
        <time>2022-09-01T17:08:29Z</time>
      </trkpt>
      <trkpt lat="43.95385" lon="1.87334">
        <ele>283.8</ele>
        <time>2022-09-01T17:08:30Z</time>
      </trkpt>
      <trkpt lat="43.95387" lon="1.87336">
        <ele>284</ele>
        <time>2022-09-01T17:08:31Z</time>
      </trkpt>
      <trkpt lat="43.95389" lon="1.87339">
        <ele>284</ele>
        <time>2022-09-01T17:08:32Z</time>
      </trkpt>
      <trkpt lat="43.9539" lon="1.87342">
        <ele>284</ele>
        <time>2022-09-01T17:08:33Z</time>
      </trkpt>
      <trkpt lat="43.95392" lon="1.87345">
        <ele>284</ele>
        <time>2022-09-01T17:08:34Z</time>
      </trkpt>
      <trkpt lat="43.95394" lon="1.87348">
        <ele>284</ele>
        <time>2022-09-01T17:08:35Z</time>
      </trkpt>
      <trkpt lat="43.95397" lon="1.87353">
        <ele>284.2</ele>
        <time>2022-09-01T17:08:37Z</time>
      </trkpt>
      <trkpt lat="43.95401" lon="1.87362">
        <ele>284.4</ele>
        <time>2022-09-01T17:08:40Z</time>
      </trkpt>
      <trkpt lat="43.95408" lon="1.87373">
        <ele>285</ele>
        <time>2022-09-01T17:08:44Z</time>
      </trkpt>
      <trkpt lat="43.9541" lon="1.87375">
        <ele>285</ele>
        <time>2022-09-01T17:08:45Z</time>
      </trkpt>
      <trkpt lat="43.95413" lon="1.8738">
        <ele>285</ele>
        <time>2022-09-01T17:08:47Z</time>
      </trkpt>
      <trkpt lat="43.95415" lon="1.87383">
        <ele>285.2</ele>
        <time>2022-09-01T17:08:48Z</time>
      </trkpt>
      <trkpt lat="43.95418" lon="1.87392">
        <ele>285.6</ele>
        <time>2022-09-01T17:08:51Z</time>
      </trkpt>
      <trkpt lat="43.95419" lon="1.87395">
        <ele>285.6</ele>
        <time>2022-09-01T17:08:52Z</time>
      </trkpt>
      <trkpt lat="43.95418" lon="1.87398">
        <ele>285.8</ele>
        <time>2022-09-01T17:08:53Z</time>
      </trkpt>
      <trkpt lat="43.95416" lon="1.874">
        <ele>285.8</ele>
        <time>2022-09-01T17:08:54Z</time>
      </trkpt>
      <trkpt lat="43.95396" lon="1.87429">
        <ele>286</ele>
        <time>2022-09-01T17:09:03Z</time>
      </trkpt>
      <trkpt lat="43.95377" lon="1.87454">
        <ele>285.6</ele>
        <time>2022-09-01T17:09:10Z</time>
      </trkpt>
      <trkpt lat="43.95351" lon="1.87492">
        <ele>284.8</ele>
        <time>2022-09-01T17:09:19Z</time>
      </trkpt>
      <trkpt lat="43.95331" lon="1.87519">
        <ele>284.2</ele>
        <time>2022-09-01T17:09:25Z</time>
      </trkpt>
      <trkpt lat="43.95322" lon="1.87533">
        <ele>283.4</ele>
        <time>2022-09-01T17:09:28Z</time>
      </trkpt>
      <trkpt lat="43.95318" lon="1.87537">
        <ele>283.4</ele>
        <time>2022-09-01T17:09:29Z</time>
      </trkpt>
      <trkpt lat="43.95315" lon="1.87541">
        <ele>283.2</ele>
        <time>2022-09-01T17:09:30Z</time>
      </trkpt>
      <trkpt lat="43.95312" lon="1.87545">
        <ele>282.8</ele>
        <time>2022-09-01T17:09:31Z</time>
      </trkpt>
      <trkpt lat="43.95309" lon="1.87549">
        <ele>282.6</ele>
        <time>2022-09-01T17:09:32Z</time>
      </trkpt>
      <trkpt lat="43.95306" lon="1.87553">
        <ele>282.4</ele>
        <time>2022-09-01T17:09:33Z</time>
      </trkpt>
      <trkpt lat="43.95303" lon="1.87557">
        <ele>282.4</ele>
        <time>2022-09-01T17:09:34Z</time>
      </trkpt>
      <trkpt lat="43.95301" lon="1.87561">
        <ele>282.2</ele>
        <time>2022-09-01T17:09:35Z</time>
      </trkpt>
      <trkpt lat="43.95298" lon="1.87564">
        <ele>282</ele>
        <time>2022-09-01T17:09:36Z</time>
      </trkpt>
      <trkpt lat="43.95296" lon="1.87568">
        <ele>282</ele>
        <time>2022-09-01T17:09:37Z</time>
      </trkpt>
      <trkpt lat="43.95294" lon="1.87571">
        <ele>282.2</ele>
        <time>2022-09-01T17:09:38Z</time>
      </trkpt>
      <trkpt lat="43.95293" lon="1.87574">
        <ele>281.6</ele>
        <time>2022-09-01T17:09:39Z</time>
      </trkpt>
      <trkpt lat="43.95294" lon="1.87576">
        <ele>281.6</ele>
        <time>2022-09-01T17:09:40Z</time>
      </trkpt>
      <trkpt lat="43.95295" lon="1.87578">
        <ele>281.4</ele>
        <time>2022-09-01T17:09:41Z</time>
      </trkpt>
      <trkpt lat="43.95296" lon="1.8758">
        <ele>281.4</ele>
        <time>2022-09-01T17:09:42Z</time>
      </trkpt>
      <trkpt lat="43.95297" lon="1.87583">
        <ele>281.4</ele>
        <time>2022-09-01T17:09:43Z</time>
      </trkpt>
      <trkpt lat="43.95298" lon="1.87586">
        <ele>281.2</ele>
        <time>2022-09-01T17:09:44Z</time>
      </trkpt>
      <trkpt lat="43.95299" lon="1.8759">
        <ele>281.2</ele>
        <time>2022-09-01T17:09:45Z</time>
      </trkpt>
      <trkpt lat="43.95295" lon="1.87597">
        <ele>281.2</ele>
        <time>2022-09-01T17:09:47Z</time>
      </trkpt>
      <trkpt lat="43.95293" lon="1.87599">
        <ele>281.2</ele>
        <time>2022-09-01T17:09:48Z</time>
      </trkpt>
      <trkpt lat="43.95291" lon="1.87601">
        <ele>281.2</ele>
        <time>2022-09-01T17:09:49Z</time>
      </trkpt>
      <trkpt lat="43.95288" lon="1.87604">
        <ele>281.2</ele>
        <time>2022-09-01T17:09:50Z</time>
      </trkpt>
      <trkpt lat="43.95287" lon="1.87606">
        <ele>281</ele>
        <time>2022-09-01T17:09:51Z</time>
      </trkpt>
      <trkpt lat="43.95285" lon="1.87608">
        <ele>281</ele>
        <time>2022-09-01T17:09:52Z</time>
      </trkpt>
      <trkpt lat="43.9528" lon="1.87615">
        <ele>280.8</ele>
        <time>2022-09-01T17:09:55Z</time>
      </trkpt>
      <trkpt lat="43.9528" lon="1.87618">
        <ele>280.8</ele>
        <time>2022-09-01T17:09:56Z</time>
      </trkpt>
      <trkpt lat="43.9528" lon="1.87622">
        <ele>280.6</ele>
        <time>2022-09-01T17:09:57Z</time>
      </trkpt>
      <trkpt lat="43.95284" lon="1.87629">
        <ele>280.6</ele>
        <time>2022-09-01T17:09:59Z</time>
      </trkpt>
      <trkpt lat="43.9529" lon="1.87636">
        <ele>280.4</ele>
        <time>2022-09-01T17:10:01Z</time>
      </trkpt>
      <trkpt lat="43.95292" lon="1.8764">
        <ele>280.4</ele>
        <time>2022-09-01T17:10:02Z</time>
      </trkpt>
      <trkpt lat="43.95301" lon="1.87655">
        <ele>280</ele>
        <time>2022-09-01T17:10:05Z</time>
      </trkpt>
      <trkpt lat="43.95307" lon="1.87667">
        <ele>278.4</ele>
        <time>2022-09-01T17:10:07Z</time>
      </trkpt>
      <trkpt lat="43.95312" lon="1.87678">
        <ele>277.6</ele>
        <time>2022-09-01T17:10:09Z</time>
      </trkpt>
      <trkpt lat="43.95315" lon="1.87684">
        <ele>277.4</ele>
        <time>2022-09-01T17:10:10Z</time>
      </trkpt>
      <trkpt lat="43.95322" lon="1.87701">
        <ele>276.4</ele>
        <time>2022-09-01T17:10:13Z</time>
      </trkpt>
      <trkpt lat="43.95327" lon="1.87711">
        <ele>275.8</ele>
        <time>2022-09-01T17:10:15Z</time>
      </trkpt>
      <trkpt lat="43.95331" lon="1.87716">
        <ele>275.6</ele>
        <time>2022-09-01T17:10:16Z</time>
      </trkpt>
      <trkpt lat="43.95338" lon="1.87724">
        <ele>275.2</ele>
        <time>2022-09-01T17:10:18Z</time>
      </trkpt>
      <trkpt lat="43.95342" lon="1.87728">
        <ele>275</ele>
        <time>2022-09-01T17:10:19Z</time>
      </trkpt>
      <trkpt lat="43.95346" lon="1.87731">
        <ele>274.8</ele>
        <time>2022-09-01T17:10:20Z</time>
      </trkpt>
      <trkpt lat="43.95349" lon="1.87735">
        <ele>274.6</ele>
        <time>2022-09-01T17:10:21Z</time>
      </trkpt>
      <trkpt lat="43.95353" lon="1.87738">
        <ele>274.2</ele>
        <time>2022-09-01T17:10:22Z</time>
      </trkpt>
      <trkpt lat="43.95356" lon="1.87741">
        <ele>273.6</ele>
        <time>2022-09-01T17:10:23Z</time>
      </trkpt>
      <trkpt lat="43.95358" lon="1.87745">
        <ele>273.2</ele>
        <time>2022-09-01T17:10:24Z</time>
      </trkpt>
      <trkpt lat="43.9536" lon="1.87749">
        <ele>272.6</ele>
        <time>2022-09-01T17:10:25Z</time>
      </trkpt>
      <trkpt lat="43.95364" lon="1.87759">
        <ele>272</ele>
        <time>2022-09-01T17:10:27Z</time>
      </trkpt>
      <trkpt lat="43.95365" lon="1.87765">
        <ele>271.6</ele>
        <time>2022-09-01T17:10:28Z</time>
      </trkpt>
      <trkpt lat="43.95367" lon="1.8777">
        <ele>271.4</ele>
        <time>2022-09-01T17:10:29Z</time>
      </trkpt>
      <trkpt lat="43.95369" lon="1.87776">
        <ele>271.2</ele>
        <time>2022-09-01T17:10:30Z</time>
      </trkpt>
      <trkpt lat="43.95371" lon="1.87781">
        <ele>270.8</ele>
        <time>2022-09-01T17:10:31Z</time>
      </trkpt>
      <trkpt lat="43.95371" lon="1.87786">
        <ele>269.8</ele>
        <time>2022-09-01T17:10:32Z</time>
      </trkpt>
      <trkpt lat="43.95371" lon="1.87791">
        <ele>269.2</ele>
        <time>2022-09-01T17:10:33Z</time>
      </trkpt>
      <trkpt lat="43.95369" lon="1.87795">
        <ele>268.4</ele>
        <time>2022-09-01T17:10:34Z</time>
      </trkpt>
      <trkpt lat="43.9536" lon="1.87807">
        <ele>267</ele>
        <time>2022-09-01T17:10:37Z</time>
      </trkpt>
      <trkpt lat="43.95358" lon="1.87811">
        <ele>266.4</ele>
        <time>2022-09-01T17:10:38Z</time>
      </trkpt>
      <trkpt lat="43.95357" lon="1.87815">
        <ele>265.6</ele>
        <time>2022-09-01T17:10:39Z</time>
      </trkpt>
      <trkpt lat="43.95357" lon="1.87819">
        <ele>265.2</ele>
        <time>2022-09-01T17:10:40Z</time>
      </trkpt>
      <trkpt lat="43.95359" lon="1.87823">
        <ele>264.2</ele>
        <time>2022-09-01T17:10:41Z</time>
      </trkpt>
      <trkpt lat="43.95361" lon="1.87826">
        <ele>263.8</ele>
        <time>2022-09-01T17:10:42Z</time>
      </trkpt>
      <trkpt lat="43.95362" lon="1.8783">
        <ele>263.4</ele>
        <time>2022-09-01T17:10:43Z</time>
      </trkpt>
      <trkpt lat="43.95364" lon="1.87833">
        <ele>263.2</ele>
        <time>2022-09-01T17:10:44Z</time>
      </trkpt>
      <trkpt lat="43.95366" lon="1.87837">
        <ele>262.4</ele>
        <time>2022-09-01T17:10:45Z</time>
      </trkpt>
      <trkpt lat="43.95371" lon="1.87844">
        <ele>261.6</ele>
        <time>2022-09-01T17:10:47Z</time>
      </trkpt>
      <trkpt lat="43.95378" lon="1.87856">
        <ele>260.2</ele>
        <time>2022-09-01T17:10:50Z</time>
      </trkpt>
      <trkpt lat="43.9538" lon="1.87859">
        <ele>260</ele>
        <time>2022-09-01T17:10:51Z</time>
      </trkpt>
      <trkpt lat="43.95391" lon="1.87879">
        <ele>259.2</ele>
        <time>2022-09-01T17:10:56Z</time>
      </trkpt>
      <trkpt lat="43.95407" lon="1.87904">
        <ele>258.6</ele>
        <time>2022-09-01T17:11:02Z</time>
      </trkpt>
      <trkpt lat="43.95412" lon="1.87913">
        <ele>258</ele>
        <time>2022-09-01T17:11:04Z</time>
      </trkpt>
      <trkpt lat="43.95415" lon="1.87918">
        <ele>257.8</ele>
        <time>2022-09-01T17:11:05Z</time>
      </trkpt>
      <trkpt lat="43.95424" lon="1.87931">
        <ele>256.8</ele>
        <time>2022-09-01T17:11:08Z</time>
      </trkpt>
      <trkpt lat="43.95431" lon="1.87941">
        <ele>256.2</ele>
        <time>2022-09-01T17:11:10Z</time>
      </trkpt>
      <trkpt lat="43.95437" lon="1.87951">
        <ele>255.6</ele>
        <time>2022-09-01T17:11:12Z</time>
      </trkpt>
      <trkpt lat="43.95446" lon="1.87967">
        <ele>254.4</ele>
        <time>2022-09-01T17:11:15Z</time>
      </trkpt>
      <trkpt lat="43.95449" lon="1.87972">
        <ele>254.2</ele>
        <time>2022-09-01T17:11:16Z</time>
      </trkpt>
      <trkpt lat="43.95452" lon="1.87977">
        <ele>253.6</ele>
        <time>2022-09-01T17:11:17Z</time>
      </trkpt>
      <trkpt lat="43.95458" lon="1.87986">
        <ele>252.4</ele>
        <time>2022-09-01T17:11:19Z</time>
      </trkpt>
      <trkpt lat="43.95463" lon="1.87997">
        <ele>251.4</ele>
        <time>2022-09-01T17:11:21Z</time>
      </trkpt>
      <trkpt lat="43.9547" lon="1.88008">
        <ele>250.2</ele>
        <time>2022-09-01T17:11:23Z</time>
      </trkpt>
      <trkpt lat="43.95474" lon="1.88014">
        <ele>249.2</ele>
        <time>2022-09-01T17:11:24Z</time>
      </trkpt>
      <trkpt lat="43.95481" lon="1.88027">
        <ele>248</ele>
        <time>2022-09-01T17:11:26Z</time>
      </trkpt>
      <trkpt lat="43.95485" lon="1.88034">
        <ele>247.2</ele>
        <time>2022-09-01T17:11:27Z</time>
      </trkpt>
      <trkpt lat="43.95489" lon="1.8804">
        <ele>246.4</ele>
        <time>2022-09-01T17:11:28Z</time>
      </trkpt>
      <trkpt lat="43.95493" lon="1.88046">
        <ele>245.4</ele>
        <time>2022-09-01T17:11:29Z</time>
      </trkpt>
      <trkpt lat="43.95496" lon="1.88052">
        <ele>245</ele>
        <time>2022-09-01T17:11:30Z</time>
      </trkpt>
      <trkpt lat="43.955" lon="1.88057">
        <ele>243.8</ele>
        <time>2022-09-01T17:11:31Z</time>
      </trkpt>
      <trkpt lat="43.95503" lon="1.88063">
        <ele>243.2</ele>
        <time>2022-09-01T17:11:32Z</time>
      </trkpt>
      <trkpt lat="43.95506" lon="1.88068">
        <ele>241.8</ele>
        <time>2022-09-01T17:11:33Z</time>
      </trkpt>
      <trkpt lat="43.95509" lon="1.88073">
        <ele>241.4</ele>
        <time>2022-09-01T17:11:34Z</time>
      </trkpt>
      <trkpt lat="43.95511" lon="1.88077">
        <ele>240.6</ele>
        <time>2022-09-01T17:11:35Z</time>
      </trkpt>
      <trkpt lat="43.95513" lon="1.88078">
        <ele>239.8</ele>
        <time>2022-09-01T17:11:36Z</time>
      </trkpt>
      <trkpt lat="43.95515" lon="1.88078">
        <ele>238.8</ele>
        <time>2022-09-01T17:11:37Z</time>
      </trkpt>
      <trkpt lat="43.95517" lon="1.88075">
        <ele>237.6</ele>
        <time>2022-09-01T17:11:38Z</time>
      </trkpt>
      <trkpt lat="43.95519" lon="1.88072">
        <ele>237.4</ele>
        <time>2022-09-01T17:11:39Z</time>
      </trkpt>
      <trkpt lat="43.95521" lon="1.88068">
        <ele>236.6</ele>
        <time>2022-09-01T17:11:40Z</time>
      </trkpt>
      <trkpt lat="43.95523" lon="1.88065">
        <ele>236.6</ele>
        <time>2022-09-01T17:11:41Z</time>
      </trkpt>
      <trkpt lat="43.95525" lon="1.88062">
        <ele>236</ele>
        <time>2022-09-01T17:11:42Z</time>
      </trkpt>
      <trkpt lat="43.95527" lon="1.88059">
        <ele>235.6</ele>
        <time>2022-09-01T17:11:43Z</time>
      </trkpt>
      <trkpt lat="43.95528" lon="1.88055">
        <ele>235.4</ele>
        <time>2022-09-01T17:11:44Z</time>
      </trkpt>
      <trkpt lat="43.9553" lon="1.88051">
        <ele>235</ele>
        <time>2022-09-01T17:11:45Z</time>
      </trkpt>
      <trkpt lat="43.95534" lon="1.88039">
        <ele>234</ele>
        <time>2022-09-01T17:11:48Z</time>
      </trkpt>
      <trkpt lat="43.95538" lon="1.88028">
        <ele>232.4</ele>
        <time>2022-09-01T17:11:51Z</time>
      </trkpt>
      <trkpt lat="43.95539" lon="1.88025">
        <ele>232.2</ele>
        <time>2022-09-01T17:11:52Z</time>
      </trkpt>
      <trkpt lat="43.95541" lon="1.88022">
        <ele>232</ele>
        <time>2022-09-01T17:11:53Z</time>
      </trkpt>
      <trkpt lat="43.95544" lon="1.8802">
        <ele>231.6</ele>
        <time>2022-09-01T17:11:54Z</time>
      </trkpt>
      <trkpt lat="43.95546" lon="1.88019">
        <ele>231.2</ele>
        <time>2022-09-01T17:11:55Z</time>
      </trkpt>
      <trkpt lat="43.95548" lon="1.8802">
        <ele>231</ele>
        <time>2022-09-01T17:11:56Z</time>
      </trkpt>
      <trkpt lat="43.9555" lon="1.88022">
        <ele>230.6</ele>
        <time>2022-09-01T17:11:57Z</time>
      </trkpt>
      <trkpt lat="43.95552" lon="1.88025">
        <ele>230</ele>
        <time>2022-09-01T17:11:58Z</time>
      </trkpt>
      <trkpt lat="43.95552" lon="1.88029">
        <ele>229.6</ele>
        <time>2022-09-01T17:11:59Z</time>
      </trkpt>
      <trkpt lat="43.95551" lon="1.88036">
        <ele>228.6</ele>
        <time>2022-09-01T17:12:01Z</time>
      </trkpt>
      <trkpt lat="43.9555" lon="1.88039">
        <ele>228.4</ele>
        <time>2022-09-01T17:12:02Z</time>
      </trkpt>
      <trkpt lat="43.9555" lon="1.88041">
        <ele>228</ele>
        <time>2022-09-01T17:12:03Z</time>
      </trkpt>
      <trkpt lat="43.95549" lon="1.88044">
        <ele>227.8</ele>
        <time>2022-09-01T17:12:04Z</time>
      </trkpt>
      <trkpt lat="43.95548" lon="1.88047">
        <ele>227.2</ele>
        <time>2022-09-01T17:12:05Z</time>
      </trkpt>
      <trkpt lat="43.95547" lon="1.88055">
        <ele>226.6</ele>
        <time>2022-09-01T17:12:07Z</time>
      </trkpt>
      <trkpt lat="43.95547" lon="1.88059">
        <ele>226.4</ele>
        <time>2022-09-01T17:12:08Z</time>
      </trkpt>
      <trkpt lat="43.95547" lon="1.88063">
        <ele>226.2</ele>
        <time>2022-09-01T17:12:09Z</time>
      </trkpt>
      <trkpt lat="43.95548" lon="1.88067">
        <ele>225.8</ele>
        <time>2022-09-01T17:12:10Z</time>
      </trkpt>
      <trkpt lat="43.95548" lon="1.8807">
        <ele>225.6</ele>
        <time>2022-09-01T17:12:11Z</time>
      </trkpt>
      <trkpt lat="43.95547" lon="1.88073">
        <ele>225</ele>
        <time>2022-09-01T17:12:12Z</time>
      </trkpt>
      <trkpt lat="43.95547" lon="1.88076">
        <ele>224.4</ele>
        <time>2022-09-01T17:12:13Z</time>
      </trkpt>
      <trkpt lat="43.95546" lon="1.88079">
        <ele>223.8</ele>
        <time>2022-09-01T17:12:14Z</time>
      </trkpt>
      <trkpt lat="43.95545" lon="1.88082">
        <ele>223.8</ele>
        <time>2022-09-01T17:12:15Z</time>
      </trkpt>
      <trkpt lat="43.95545" lon="1.88085">
        <ele>223.6</ele>
        <time>2022-09-01T17:12:16Z</time>
      </trkpt>
      <trkpt lat="43.95544" lon="1.88087">
        <ele>223.2</ele>
        <time>2022-09-01T17:12:17Z</time>
      </trkpt>
      <trkpt lat="43.95542" lon="1.88093">
        <ele>223</ele>
        <time>2022-09-01T17:12:20Z</time>
      </trkpt>
      <trkpt lat="43.95542" lon="1.88095">
        <ele>223</ele>
        <time>2022-09-01T17:12:21Z</time>
      </trkpt>
      <trkpt lat="43.95542" lon="1.88096">
        <ele>221.6</ele>
        <time>2022-09-01T17:13:19Z</time>
      </trkpt>
      <trkpt lat="43.95538" lon="1.88109">
        <ele>221.6</ele>
        <time>2022-09-01T17:13:23Z</time>
      </trkpt>
      <trkpt lat="43.95537" lon="1.88122">
        <ele>221.4</ele>
        <time>2022-09-01T17:13:26Z</time>
      </trkpt>
      <trkpt lat="43.95536" lon="1.88126">
        <ele>221.2</ele>
        <time>2022-09-01T17:13:27Z</time>
      </trkpt>
      <trkpt lat="43.95533" lon="1.88151">
        <ele>220.6</ele>
        <time>2022-09-01T17:13:32Z</time>
      </trkpt>
      <trkpt lat="43.95533" lon="1.88163">
        <ele>220</ele>
        <time>2022-09-01T17:13:34Z</time>
      </trkpt>
      <trkpt lat="43.95533" lon="1.88168">
        <ele>220</ele>
        <time>2022-09-01T17:13:35Z</time>
      </trkpt>
      <trkpt lat="43.95534" lon="1.88174">
        <ele>219.8</ele>
        <time>2022-09-01T17:13:36Z</time>
      </trkpt>
      <trkpt lat="43.95535" lon="1.88179">
        <ele>219.6</ele>
        <time>2022-09-01T17:13:37Z</time>
      </trkpt>
      <trkpt lat="43.95536" lon="1.88183">
        <ele>219.2</ele>
        <time>2022-09-01T17:13:38Z</time>
      </trkpt>
      <trkpt lat="43.95536" lon="1.88189">
        <ele>219</ele>
        <time>2022-09-01T17:13:39Z</time>
      </trkpt>
      <trkpt lat="43.95536" lon="1.88195">
        <ele>219</ele>
        <time>2022-09-01T17:13:40Z</time>
      </trkpt>
      <trkpt lat="43.95536" lon="1.882">
        <ele>218.8</ele>
        <time>2022-09-01T17:13:41Z</time>
      </trkpt>
      <trkpt lat="43.95535" lon="1.88205">
        <ele>218.8</ele>
        <time>2022-09-01T17:13:42Z</time>
      </trkpt>
      <trkpt lat="43.95534" lon="1.8821">
        <ele>218.8</ele>
        <time>2022-09-01T17:13:43Z</time>
      </trkpt>
      <trkpt lat="43.95534" lon="1.88216">
        <ele>218.8</ele>
        <time>2022-09-01T17:13:44Z</time>
      </trkpt>
      <trkpt lat="43.95534" lon="1.88225">
        <ele>218.8</ele>
        <time>2022-09-01T17:13:46Z</time>
      </trkpt>
      <trkpt lat="43.95534" lon="1.88235">
        <ele>218.8</ele>
        <time>2022-09-01T17:13:48Z</time>
      </trkpt>
      <trkpt lat="43.95535" lon="1.8824">
        <ele>218.8</ele>
        <time>2022-09-01T17:13:49Z</time>
      </trkpt>
      <trkpt lat="43.95537" lon="1.88245">
        <ele>219</ele>
        <time>2022-09-01T17:13:50Z</time>
      </trkpt>
      <trkpt lat="43.95538" lon="1.8825">
        <ele>219</ele>
        <time>2022-09-01T17:13:51Z</time>
      </trkpt>
      <trkpt lat="43.95539" lon="1.88254">
        <ele>219</ele>
        <time>2022-09-01T17:13:52Z</time>
      </trkpt>
      <trkpt lat="43.95541" lon="1.8827">
        <ele>219.2</ele>
        <time>2022-09-01T17:13:56Z</time>
      </trkpt>
      <trkpt lat="43.9554" lon="1.88272">
        <ele>219.4</ele>
        <time>2022-09-01T17:13:57Z</time>
      </trkpt>
      <trkpt lat="43.95539" lon="1.88276">
        <ele>219.6</ele>
        <time>2022-09-01T17:13:58Z</time>
      </trkpt>
      <trkpt lat="43.95538" lon="1.88279">
        <ele>219.6</ele>
        <time>2022-09-01T17:13:59Z</time>
      </trkpt>
      <trkpt lat="43.95536" lon="1.88282">
        <ele>219.6</ele>
        <time>2022-09-01T17:14:00Z</time>
      </trkpt>
      <trkpt lat="43.95535" lon="1.88285">
        <ele>219.8</ele>
        <time>2022-09-01T17:14:01Z</time>
      </trkpt>
      <trkpt lat="43.95534" lon="1.88287">
        <ele>220</ele>
        <time>2022-09-01T17:14:02Z</time>
      </trkpt>
      <trkpt lat="43.95533" lon="1.8829">
        <ele>220</ele>
        <time>2022-09-01T17:14:03Z</time>
      </trkpt>
      <trkpt lat="43.95531" lon="1.88293">
        <ele>220.2</ele>
        <time>2022-09-01T17:14:04Z</time>
      </trkpt>
      <trkpt lat="43.95523" lon="1.88309">
        <ele>221</ele>
        <time>2022-09-01T17:14:09Z</time>
      </trkpt>
      <trkpt lat="43.95521" lon="1.88312">
        <ele>221.2</ele>
        <time>2022-09-01T17:14:10Z</time>
      </trkpt>
      <trkpt lat="43.9552" lon="1.88316">
        <ele>221.2</ele>
        <time>2022-09-01T17:14:11Z</time>
      </trkpt>
      <trkpt lat="43.95512" lon="1.8833">
        <ele>221.6</ele>
        <time>2022-09-01T17:14:15Z</time>
      </trkpt>
      <trkpt lat="43.95499" lon="1.88357">
        <ele>221.2</ele>
        <time>2022-09-01T17:14:21Z</time>
      </trkpt>
      <trkpt lat="43.95491" lon="1.88371">
        <ele>220.8</ele>
        <time>2022-09-01T17:14:24Z</time>
      </trkpt>
      <trkpt lat="43.95486" lon="1.88382">
        <ele>220.6</ele>
        <time>2022-09-01T17:14:26Z</time>
      </trkpt>
      <trkpt lat="43.95483" lon="1.88389">
        <ele>220.4</ele>
        <time>2022-09-01T17:14:27Z</time>
      </trkpt>
      <trkpt lat="43.95479" lon="1.88395">
        <ele>220.4</ele>
        <time>2022-09-01T17:14:28Z</time>
      </trkpt>
      <trkpt lat="43.95477" lon="1.88401">
        <ele>220</ele>
        <time>2022-09-01T17:14:29Z</time>
      </trkpt>
      <trkpt lat="43.95475" lon="1.88408">
        <ele>219.6</ele>
        <time>2022-09-01T17:14:30Z</time>
      </trkpt>
      <trkpt lat="43.95474" lon="1.88414">
        <ele>219.2</ele>
        <time>2022-09-01T17:14:31Z</time>
      </trkpt>
      <trkpt lat="43.95474" lon="1.8842">
        <ele>219</ele>
        <time>2022-09-01T17:14:32Z</time>
      </trkpt>
      <trkpt lat="43.95473" lon="1.88424">
        <ele>218.8</ele>
        <time>2022-09-01T17:14:33Z</time>
      </trkpt>
      <trkpt lat="43.95471" lon="1.88429">
        <ele>218.6</ele>
        <time>2022-09-01T17:14:34Z</time>
      </trkpt>
      <trkpt lat="43.95469" lon="1.88434">
        <ele>218.2</ele>
        <time>2022-09-01T17:14:35Z</time>
      </trkpt>
      <trkpt lat="43.95467" lon="1.88439">
        <ele>218</ele>
        <time>2022-09-01T17:14:36Z</time>
      </trkpt>
      <trkpt lat="43.95465" lon="1.88443">
        <ele>218</ele>
        <time>2022-09-01T17:14:37Z</time>
      </trkpt>
      <trkpt lat="43.95461" lon="1.88452">
        <ele>217.8</ele>
        <time>2022-09-01T17:14:39Z</time>
      </trkpt>
      <trkpt lat="43.95451" lon="1.88466">
        <ele>217.8</ele>
        <time>2022-09-01T17:14:43Z</time>
      </trkpt>
      <trkpt lat="43.95449" lon="1.88469">
        <ele>217.8</ele>
        <time>2022-09-01T17:14:44Z</time>
      </trkpt>
      <trkpt lat="43.95447" lon="1.88472">
        <ele>217.8</ele>
        <time>2022-09-01T17:14:45Z</time>
      </trkpt>
      <trkpt lat="43.95444" lon="1.88476">
        <ele>218</ele>
        <time>2022-09-01T17:14:46Z</time>
      </trkpt>
      <trkpt lat="43.95443" lon="1.8848">
        <ele>218.2</ele>
        <time>2022-09-01T17:14:47Z</time>
      </trkpt>
      <trkpt lat="43.95441" lon="1.88484">
        <ele>218.4</ele>
        <time>2022-09-01T17:14:48Z</time>
      </trkpt>
      <trkpt lat="43.95437" lon="1.885">
        <ele>219.8</ele>
        <time>2022-09-01T17:14:52Z</time>
      </trkpt>
      <trkpt lat="43.95435" lon="1.88509">
        <ele>220.2</ele>
        <time>2022-09-01T17:14:54Z</time>
      </trkpt>
      <trkpt lat="43.95434" lon="1.88512">
        <ele>220.6</ele>
        <time>2022-09-01T17:14:55Z</time>
      </trkpt>
      <trkpt lat="43.95433" lon="1.88515">
        <ele>221</ele>
        <time>2022-09-01T17:14:56Z</time>
      </trkpt>
      <trkpt lat="43.95431" lon="1.88518">
        <ele>221.2</ele>
        <time>2022-09-01T17:14:57Z</time>
      </trkpt>
      <trkpt lat="43.9543" lon="1.88521">
        <ele>221.4</ele>
        <time>2022-09-01T17:14:58Z</time>
      </trkpt>
      <trkpt lat="43.95429" lon="1.88523">
        <ele>221.8</ele>
        <time>2022-09-01T17:14:59Z</time>
      </trkpt>
      <trkpt lat="43.95428" lon="1.88526">
        <ele>221.8</ele>
        <time>2022-09-01T17:15:00Z</time>
      </trkpt>
      <trkpt lat="43.95427" lon="1.88529">
        <ele>222.2</ele>
        <time>2022-09-01T17:15:01Z</time>
      </trkpt>
      <trkpt lat="43.95426" lon="1.88533">
        <ele>222.4</ele>
        <time>2022-09-01T17:15:02Z</time>
      </trkpt>
      <trkpt lat="43.95425" lon="1.88537">
        <ele>222.6</ele>
        <time>2022-09-01T17:15:03Z</time>
      </trkpt>
      <trkpt lat="43.95423" lon="1.8854">
        <ele>222.8</ele>
        <time>2022-09-01T17:15:04Z</time>
      </trkpt>
      <trkpt lat="43.95422" lon="1.88544">
        <ele>223.2</ele>
        <time>2022-09-01T17:15:05Z</time>
      </trkpt>
      <trkpt lat="43.95421" lon="1.88549">
        <ele>223.4</ele>
        <time>2022-09-01T17:15:06Z</time>
      </trkpt>
      <trkpt lat="43.9542" lon="1.88554">
        <ele>223.4</ele>
        <time>2022-09-01T17:15:07Z</time>
      </trkpt>
      <trkpt lat="43.95419" lon="1.88558">
        <ele>223.4</ele>
        <time>2022-09-01T17:15:08Z</time>
      </trkpt>
      <trkpt lat="43.95417" lon="1.88562">
        <ele>223.4</ele>
        <time>2022-09-01T17:15:09Z</time>
      </trkpt>
      <trkpt lat="43.95416" lon="1.88566">
        <ele>223.4</ele>
        <time>2022-09-01T17:15:10Z</time>
      </trkpt>
      <trkpt lat="43.95414" lon="1.8857">
        <ele>223.4</ele>
        <time>2022-09-01T17:15:11Z</time>
      </trkpt>
      <trkpt lat="43.95413" lon="1.88574">
        <ele>223.2</ele>
        <time>2022-09-01T17:15:12Z</time>
      </trkpt>
      <trkpt lat="43.95412" lon="1.88579">
        <ele>223.2</ele>
        <time>2022-09-01T17:15:13Z</time>
      </trkpt>
      <trkpt lat="43.9541" lon="1.88584">
        <ele>223.4</ele>
        <time>2022-09-01T17:15:14Z</time>
      </trkpt>
      <trkpt lat="43.95407" lon="1.88589">
        <ele>223.4</ele>
        <time>2022-09-01T17:15:15Z</time>
      </trkpt>
      <trkpt lat="43.95405" lon="1.88593">
        <ele>223.2</ele>
        <time>2022-09-01T17:15:16Z</time>
      </trkpt>
      <trkpt lat="43.95402" lon="1.88599">
        <ele>223</ele>
        <time>2022-09-01T17:15:17Z</time>
      </trkpt>
      <trkpt lat="43.954" lon="1.88602">
        <ele>222.8</ele>
        <time>2022-09-01T17:15:18Z</time>
      </trkpt>
      <trkpt lat="43.95396" lon="1.88609">
        <ele>222.8</ele>
        <time>2022-09-01T17:15:19Z</time>
      </trkpt>
      <trkpt lat="43.95394" lon="1.88615">
        <ele>222.4</ele>
        <time>2022-09-01T17:15:20Z</time>
      </trkpt>
      <trkpt lat="43.95392" lon="1.8862">
        <ele>222.4</ele>
        <time>2022-09-01T17:15:21Z</time>
      </trkpt>
      <trkpt lat="43.95391" lon="1.88625">
        <ele>222.2</ele>
        <time>2022-09-01T17:15:22Z</time>
      </trkpt>
      <trkpt lat="43.95389" lon="1.88631">
        <ele>222</ele>
        <time>2022-09-01T17:15:23Z</time>
      </trkpt>
      <trkpt lat="43.95388" lon="1.88636">
        <ele>221.8</ele>
        <time>2022-09-01T17:15:24Z</time>
      </trkpt>
      <trkpt lat="43.95386" lon="1.88642">
        <ele>221.8</ele>
        <time>2022-09-01T17:15:25Z</time>
      </trkpt>
      <trkpt lat="43.95384" lon="1.88647">
        <ele>221.6</ele>
        <time>2022-09-01T17:15:26Z</time>
      </trkpt>
      <trkpt lat="43.95382" lon="1.88652">
        <ele>221.4</ele>
        <time>2022-09-01T17:15:27Z</time>
      </trkpt>
      <trkpt lat="43.95374" lon="1.88666">
        <ele>221.2</ele>
        <time>2022-09-01T17:15:30Z</time>
      </trkpt>
      <trkpt lat="43.95365" lon="1.88678">
        <ele>220.6</ele>
        <time>2022-09-01T17:15:33Z</time>
      </trkpt>
      <trkpt lat="43.95359" lon="1.88686">
        <ele>220.2</ele>
        <time>2022-09-01T17:15:35Z</time>
      </trkpt>
      <trkpt lat="43.95356" lon="1.88689">
        <ele>220</ele>
        <time>2022-09-01T17:15:36Z</time>
      </trkpt>
      <trkpt lat="43.95351" lon="1.88696">
        <ele>219.2</ele>
        <time>2022-09-01T17:15:38Z</time>
      </trkpt>
      <trkpt lat="43.95348" lon="1.88699">
        <ele>219</ele>
        <time>2022-09-01T17:15:39Z</time>
      </trkpt>
      <trkpt lat="43.95345" lon="1.88702">
        <ele>218.6</ele>
        <time>2022-09-01T17:15:40Z</time>
      </trkpt>
      <trkpt lat="43.95343" lon="1.88703">
        <ele>218.2</ele>
        <time>2022-09-01T17:15:41Z</time>
      </trkpt>
      <trkpt lat="43.95339" lon="1.88702">
        <ele>217.8</ele>
        <time>2022-09-01T17:15:42Z</time>
      </trkpt>
      <trkpt lat="43.95335" lon="1.887">
        <ele>217.4</ele>
        <time>2022-09-01T17:15:43Z</time>
      </trkpt>
      <trkpt lat="43.95326" lon="1.88693">
        <ele>216.2</ele>
        <time>2022-09-01T17:15:45Z</time>
      </trkpt>
      <trkpt lat="43.95322" lon="1.8869">
        <ele>215.6</ele>
        <time>2022-09-01T17:15:46Z</time>
      </trkpt>
      <trkpt lat="43.95317" lon="1.88687">
        <ele>214.8</ele>
        <time>2022-09-01T17:15:47Z</time>
      </trkpt>
      <trkpt lat="43.95312" lon="1.88684">
        <ele>214.4</ele>
        <time>2022-09-01T17:15:48Z</time>
      </trkpt>
      <trkpt lat="43.95308" lon="1.88681">
        <ele>213.8</ele>
        <time>2022-09-01T17:15:49Z</time>
      </trkpt>
      <trkpt lat="43.95303" lon="1.8868">
        <ele>213.4</ele>
        <time>2022-09-01T17:15:50Z</time>
      </trkpt>
      <trkpt lat="43.95298" lon="1.88679">
        <ele>213</ele>
        <time>2022-09-01T17:15:51Z</time>
      </trkpt>
      <trkpt lat="43.95293" lon="1.8868">
        <ele>212.8</ele>
        <time>2022-09-01T17:15:52Z</time>
      </trkpt>
      <trkpt lat="43.95289" lon="1.88682">
        <ele>211.6</ele>
        <time>2022-09-01T17:15:53Z</time>
      </trkpt>
      <trkpt lat="43.95284" lon="1.88685">
        <ele>210.2</ele>
        <time>2022-09-01T17:15:54Z</time>
      </trkpt>
      <trkpt lat="43.9528" lon="1.88688">
        <ele>209.8</ele>
        <time>2022-09-01T17:15:55Z</time>
      </trkpt>
      <trkpt lat="43.95275" lon="1.88692">
        <ele>209.2</ele>
        <time>2022-09-01T17:15:56Z</time>
      </trkpt>
      <trkpt lat="43.95271" lon="1.88696">
        <ele>209</ele>
        <time>2022-09-01T17:15:57Z</time>
      </trkpt>
      <trkpt lat="43.95259" lon="1.88711">
        <ele>207.8</ele>
        <time>2022-09-01T17:16:00Z</time>
      </trkpt>
      <trkpt lat="43.95255" lon="1.88717">
        <ele>207</ele>
        <time>2022-09-01T17:16:01Z</time>
      </trkpt>
      <trkpt lat="43.95252" lon="1.88723">
        <ele>206.8</ele>
        <time>2022-09-01T17:16:02Z</time>
      </trkpt>
      <trkpt lat="43.95249" lon="1.88728">
        <ele>206.4</ele>
        <time>2022-09-01T17:16:03Z</time>
      </trkpt>
      <trkpt lat="43.95238" lon="1.88747">
        <ele>206.2</ele>
        <time>2022-09-01T17:16:06Z</time>
      </trkpt>
      <trkpt lat="43.95232" lon="1.88762">
        <ele>206</ele>
        <time>2022-09-01T17:16:08Z</time>
      </trkpt>
      <trkpt lat="43.9523" lon="1.8877">
        <ele>206</ele>
        <time>2022-09-01T17:16:09Z</time>
      </trkpt>
      <trkpt lat="43.95229" lon="1.88778">
        <ele>205.8</ele>
        <time>2022-09-01T17:16:10Z</time>
      </trkpt>
      <trkpt lat="43.95228" lon="1.88786">
        <ele>205.6</ele>
        <time>2022-09-01T17:16:11Z</time>
      </trkpt>
      <trkpt lat="43.95227" lon="1.88793">
        <ele>205.2</ele>
        <time>2022-09-01T17:16:12Z</time>
      </trkpt>
      <trkpt lat="43.95226" lon="1.88801">
        <ele>205.2</ele>
        <time>2022-09-01T17:16:13Z</time>
      </trkpt>
      <trkpt lat="43.95223" lon="1.88824">
        <ele>205</ele>
        <time>2022-09-01T17:16:16Z</time>
      </trkpt>
      <trkpt lat="43.95221" lon="1.88832">
        <ele>204.4</ele>
        <time>2022-09-01T17:16:17Z</time>
      </trkpt>
      <trkpt lat="43.9522" lon="1.88839">
        <ele>204.4</ele>
        <time>2022-09-01T17:16:18Z</time>
      </trkpt>
      <trkpt lat="43.95218" lon="1.88855">
        <ele>204</ele>
        <time>2022-09-01T17:16:20Z</time>
      </trkpt>
      <trkpt lat="43.95216" lon="1.88862">
        <ele>203.6</ele>
        <time>2022-09-01T17:16:21Z</time>
      </trkpt>
      <trkpt lat="43.9521" lon="1.88884">
        <ele>203.4</ele>
        <time>2022-09-01T17:16:24Z</time>
      </trkpt>
      <trkpt lat="43.95206" lon="1.88897">
        <ele>203.2</ele>
        <time>2022-09-01T17:16:26Z</time>
      </trkpt>
      <trkpt lat="43.95198" lon="1.8892">
        <ele>202.8</ele>
        <time>2022-09-01T17:16:29Z</time>
      </trkpt>
      <trkpt lat="43.95196" lon="1.88926">
        <ele>202.6</ele>
        <time>2022-09-01T17:16:30Z</time>
      </trkpt>
      <trkpt lat="43.95188" lon="1.8894">
        <ele>202.4</ele>
        <time>2022-09-01T17:16:32Z</time>
      </trkpt>
      <trkpt lat="43.95185" lon="1.88946">
        <ele>202.2</ele>
        <time>2022-09-01T17:16:33Z</time>
      </trkpt>
      <trkpt lat="43.95182" lon="1.88953">
        <ele>202.2</ele>
        <time>2022-09-01T17:16:34Z</time>
      </trkpt>
      <trkpt lat="43.95174" lon="1.88974">
        <ele>201.6</ele>
        <time>2022-09-01T17:16:37Z</time>
      </trkpt>
      <trkpt lat="43.95172" lon="1.88981">
        <ele>201.4</ele>
        <time>2022-09-01T17:16:38Z</time>
      </trkpt>
      <trkpt lat="43.95171" lon="1.88988">
        <ele>201.4</ele>
        <time>2022-09-01T17:16:39Z</time>
      </trkpt>
      <trkpt lat="43.95168" lon="1.89002">
        <ele>201.2</ele>
        <time>2022-09-01T17:16:41Z</time>
      </trkpt>
      <trkpt lat="43.95166" lon="1.89009">
        <ele>201</ele>
        <time>2022-09-01T17:16:42Z</time>
      </trkpt>
      <trkpt lat="43.95163" lon="1.89016">
        <ele>201</ele>
        <time>2022-09-01T17:16:43Z</time>
      </trkpt>
      <trkpt lat="43.95161" lon="1.89022">
        <ele>200.8</ele>
        <time>2022-09-01T17:16:44Z</time>
      </trkpt>
      <trkpt lat="43.95158" lon="1.89028">
        <ele>200.8</ele>
        <time>2022-09-01T17:16:45Z</time>
      </trkpt>
      <trkpt lat="43.95155" lon="1.89034">
        <ele>200.6</ele>
        <time>2022-09-01T17:16:46Z</time>
      </trkpt>
      <trkpt lat="43.95153" lon="1.89039">
        <ele>200.4</ele>
        <time>2022-09-01T17:16:47Z</time>
      </trkpt>
      <trkpt lat="43.95151" lon="1.89043">
        <ele>200.4</ele>
        <time>2022-09-01T17:16:48Z</time>
      </trkpt>
      <trkpt lat="43.95149" lon="1.8905">
        <ele>200.2</ele>
        <time>2022-09-01T17:16:49Z</time>
      </trkpt>
      <trkpt lat="43.95148" lon="1.89055">
        <ele>200.2</ele>
        <time>2022-09-01T17:16:50Z</time>
      </trkpt>
      <trkpt lat="43.95144" lon="1.89087">
        <ele>200</ele>
        <time>2022-09-01T17:16:55Z</time>
      </trkpt>
      <trkpt lat="43.95142" lon="1.891">
        <ele>199.8</ele>
        <time>2022-09-01T17:16:57Z</time>
      </trkpt>
      <trkpt lat="43.95142" lon="1.89105">
        <ele>199.8</ele>
        <time>2022-09-01T17:16:58Z</time>
      </trkpt>
      <trkpt lat="43.95142" lon="1.89113">
        <ele>199.8</ele>
        <time>2022-09-01T17:16:59Z</time>
      </trkpt>
      <trkpt lat="43.95146" lon="1.89123">
        <ele>199.8</ele>
        <time>2022-09-01T17:17:01Z</time>
      </trkpt>
      <trkpt lat="43.9515" lon="1.89125">
        <ele>199.6</ele>
        <time>2022-09-01T17:17:02Z</time>
      </trkpt>
      <trkpt lat="43.95154" lon="1.89126">
        <ele>199.6</ele>
        <time>2022-09-01T17:17:03Z</time>
      </trkpt>
      <trkpt lat="43.95157" lon="1.89127">
        <ele>199.6</ele>
        <time>2022-09-01T17:17:04Z</time>
      </trkpt>
      <trkpt lat="43.9516" lon="1.89127">
        <ele>199.6</ele>
        <time>2022-09-01T17:17:05Z</time>
      </trkpt>
      <trkpt lat="43.95163" lon="1.89128">
        <ele>199.6</ele>
        <time>2022-09-01T17:17:06Z</time>
      </trkpt>
      <trkpt lat="43.95166" lon="1.89128">
        <ele>199.6</ele>
        <time>2022-09-01T17:17:07Z</time>
      </trkpt>
      <trkpt lat="43.95169" lon="1.89129">
        <ele>199.6</ele>
        <time>2022-09-01T17:17:08Z</time>
      </trkpt>
      <trkpt lat="43.95172" lon="1.89129">
        <ele>199.8</ele>
        <time>2022-09-01T17:17:09Z</time>
      </trkpt>
      <trkpt lat="43.95174" lon="1.8913">
        <ele>199.8</ele>
        <time>2022-09-01T17:17:10Z</time>
      </trkpt>
      <trkpt lat="43.95176" lon="1.8913">
        <ele>200.2</ele>
        <time>2022-09-01T17:17:11Z</time>
      </trkpt>
      <trkpt lat="43.95179" lon="1.8913">
        <ele>200.4</ele>
        <time>2022-09-01T17:17:12Z</time>
      </trkpt>
      <trkpt lat="43.95181" lon="1.8913">
        <ele>200.6</ele>
        <time>2022-09-01T17:17:13Z</time>
      </trkpt>
      <trkpt lat="43.95184" lon="1.8913">
        <ele>200.8</ele>
        <time>2022-09-01T17:17:14Z</time>
      </trkpt>
      <trkpt lat="43.95186" lon="1.89131">
        <ele>201</ele>
        <time>2022-09-01T17:17:15Z</time>
      </trkpt>
      <trkpt lat="43.95188" lon="1.89131">
        <ele>201.8</ele>
        <time>2022-09-01T17:17:16Z</time>
      </trkpt>
      <trkpt lat="43.95191" lon="1.89131">
        <ele>202.2</ele>
        <time>2022-09-01T17:17:17Z</time>
      </trkpt>
      <trkpt lat="43.95193" lon="1.89131">
        <ele>202.6</ele>
        <time>2022-09-01T17:17:18Z</time>
      </trkpt>
      <trkpt lat="43.95195" lon="1.89132">
        <ele>202.8</ele>
        <time>2022-09-01T17:17:19Z</time>
      </trkpt>
      <trkpt lat="43.95197" lon="1.89132">
        <ele>203.2</ele>
        <time>2022-09-01T17:17:20Z</time>
      </trkpt>
      <trkpt lat="43.952" lon="1.89133">
        <ele>203.6</ele>
        <time>2022-09-01T17:17:21Z</time>
      </trkpt>
      <trkpt lat="43.95204" lon="1.89133">
        <ele>204.2</ele>
        <time>2022-09-01T17:17:23Z</time>
      </trkpt>
      <trkpt lat="43.95206" lon="1.89133">
        <ele>204.4</ele>
        <time>2022-09-01T17:17:24Z</time>
      </trkpt>
      <trkpt lat="43.95208" lon="1.89133">
        <ele>204.6</ele>
        <time>2022-09-01T17:17:25Z</time>
      </trkpt>
      <trkpt lat="43.9521" lon="1.89134">
        <ele>204.8</ele>
        <time>2022-09-01T17:17:26Z</time>
      </trkpt>
      <trkpt lat="43.95212" lon="1.89134">
        <ele>205.2</ele>
        <time>2022-09-01T17:17:27Z</time>
      </trkpt>
      <trkpt lat="43.95214" lon="1.89135">
        <ele>205.6</ele>
        <time>2022-09-01T17:17:28Z</time>
      </trkpt>
      <trkpt lat="43.95216" lon="1.89136">
        <ele>205.6</ele>
        <time>2022-09-01T17:17:29Z</time>
      </trkpt>
      <trkpt lat="43.95217" lon="1.89136">
        <ele>206.2</ele>
        <time>2022-09-01T17:17:30Z</time>
      </trkpt>
      <trkpt lat="43.95219" lon="1.89136">
        <ele>206.4</ele>
        <time>2022-09-01T17:17:31Z</time>
      </trkpt>
      <trkpt lat="43.95222" lon="1.89136">
        <ele>206.8</ele>
        <time>2022-09-01T17:17:32Z</time>
      </trkpt>
      <trkpt lat="43.95223" lon="1.89137">
        <ele>207</ele>
        <time>2022-09-01T17:17:33Z</time>
      </trkpt>
      <trkpt lat="43.95226" lon="1.89137">
        <ele>207.4</ele>
        <time>2022-09-01T17:17:34Z</time>
      </trkpt>
      <trkpt lat="43.95228" lon="1.89138">
        <ele>207.8</ele>
        <time>2022-09-01T17:17:35Z</time>
      </trkpt>
      <trkpt lat="43.9523" lon="1.89138">
        <ele>208</ele>
        <time>2022-09-01T17:17:36Z</time>
      </trkpt>
      <trkpt lat="43.95233" lon="1.89139">
        <ele>208.2</ele>
        <time>2022-09-01T17:17:37Z</time>
      </trkpt>
      <trkpt lat="43.95235" lon="1.89139">
        <ele>208.4</ele>
        <time>2022-09-01T17:17:38Z</time>
      </trkpt>
      <trkpt lat="43.95237" lon="1.8914">
        <ele>208.8</ele>
        <time>2022-09-01T17:17:39Z</time>
      </trkpt>
      <trkpt lat="43.95239" lon="1.8914">
        <ele>209</ele>
        <time>2022-09-01T17:17:40Z</time>
      </trkpt>
      <trkpt lat="43.95241" lon="1.89141">
        <ele>209.2</ele>
        <time>2022-09-01T17:17:41Z</time>
      </trkpt>
      <trkpt lat="43.95243" lon="1.89141">
        <ele>209.4</ele>
        <time>2022-09-01T17:17:42Z</time>
      </trkpt>
      <trkpt lat="43.95245" lon="1.89142">
        <ele>210</ele>
        <time>2022-09-01T17:17:43Z</time>
      </trkpt>
      <trkpt lat="43.95247" lon="1.89142">
        <ele>210.6</ele>
        <time>2022-09-01T17:17:44Z</time>
      </trkpt>
      <trkpt lat="43.95248" lon="1.89143">
        <ele>210.8</ele>
        <time>2022-09-01T17:17:45Z</time>
      </trkpt>
      <trkpt lat="43.95251" lon="1.89143">
        <ele>211.2</ele>
        <time>2022-09-01T17:17:46Z</time>
      </trkpt>
      <trkpt lat="43.95253" lon="1.89144">
        <ele>211.4</ele>
        <time>2022-09-01T17:17:47Z</time>
      </trkpt>
      <trkpt lat="43.95254" lon="1.89145">
        <ele>211.8</ele>
        <time>2022-09-01T17:17:48Z</time>
      </trkpt>
      <trkpt lat="43.95256" lon="1.89147">
        <ele>211.8</ele>
        <time>2022-09-01T17:17:49Z</time>
      </trkpt>
      <trkpt lat="43.95257" lon="1.89148">
        <ele>212.2</ele>
        <time>2022-09-01T17:17:50Z</time>
      </trkpt>
      <trkpt lat="43.95259" lon="1.89151">
        <ele>212.6</ele>
        <time>2022-09-01T17:17:51Z</time>
      </trkpt>
      <trkpt lat="43.95261" lon="1.89152">
        <ele>212.8</ele>
        <time>2022-09-01T17:17:52Z</time>
      </trkpt>
      <trkpt lat="43.95262" lon="1.89154">
        <ele>213</ele>
        <time>2022-09-01T17:17:53Z</time>
      </trkpt>
      <trkpt lat="43.95263" lon="1.89155">
        <ele>213</ele>
        <time>2022-09-01T17:17:54Z</time>
      </trkpt>
      <trkpt lat="43.95265" lon="1.89155">
        <ele>213.4</ele>
        <time>2022-09-01T17:17:55Z</time>
      </trkpt>
      <trkpt lat="43.95266" lon="1.89156">
        <ele>213.6</ele>
        <time>2022-09-01T17:17:56Z</time>
      </trkpt>
      <trkpt lat="43.95267" lon="1.89157">
        <ele>213.8</ele>
        <time>2022-09-01T17:17:57Z</time>
      </trkpt>
      <trkpt lat="43.95269" lon="1.89156">
        <ele>213.8</ele>
        <time>2022-09-01T17:17:58Z</time>
      </trkpt>
      <trkpt lat="43.95271" lon="1.89156">
        <ele>214</ele>
        <time>2022-09-01T17:17:59Z</time>
      </trkpt>
      <trkpt lat="43.95271" lon="1.89155">
        <ele>214.2</ele>
        <time>2022-09-01T17:18:00Z</time>
      </trkpt>
      <trkpt lat="43.95272" lon="1.89153">
        <ele>214.4</ele>
        <time>2022-09-01T17:18:01Z</time>
      </trkpt>
      <trkpt lat="43.95272" lon="1.89152">
        <ele>214.8</ele>
        <time>2022-09-01T17:18:02Z</time>
      </trkpt>
      <trkpt lat="43.95273" lon="1.89152">
        <ele>214.8</ele>
        <time>2022-09-01T17:18:03Z</time>
      </trkpt>
      <trkpt lat="43.95274" lon="1.89152">
        <ele>214.8</ele>
        <time>2022-09-01T17:18:04Z</time>
      </trkpt>
      <trkpt lat="43.95274" lon="1.89153">
        <ele>215</ele>
        <time>2022-09-01T17:18:05Z</time>
      </trkpt>
      <trkpt lat="43.95275" lon="1.89153">
        <ele>215.2</ele>
        <time>2022-09-01T17:18:06Z</time>
      </trkpt>
      <trkpt lat="43.95276" lon="1.89154">
        <ele>215.4</ele>
        <time>2022-09-01T17:18:07Z</time>
      </trkpt>
      <trkpt lat="43.95277" lon="1.89155">
        <ele>215.6</ele>
        <time>2022-09-01T17:18:08Z</time>
      </trkpt>
      <trkpt lat="43.95279" lon="1.89156">
        <ele>215.8</ele>
        <time>2022-09-01T17:18:09Z</time>
      </trkpt>
      <trkpt lat="43.95281" lon="1.89157">
        <ele>215.8</ele>
        <time>2022-09-01T17:18:10Z</time>
      </trkpt>
      <trkpt lat="43.95282" lon="1.89157">
        <ele>216</ele>
        <time>2022-09-01T17:18:11Z</time>
      </trkpt>
      <trkpt lat="43.95283" lon="1.89157">
        <ele>216</ele>
        <time>2022-09-01T17:18:12Z</time>
      </trkpt>
      <trkpt lat="43.95286" lon="1.89157">
        <ele>216.2</ele>
        <time>2022-09-01T17:18:13Z</time>
      </trkpt>
      <trkpt lat="43.95288" lon="1.89157">
        <ele>216.4</ele>
        <time>2022-09-01T17:18:14Z</time>
      </trkpt>
      <trkpt lat="43.95289" lon="1.89157">
        <ele>216.6</ele>
        <time>2022-09-01T17:18:15Z</time>
      </trkpt>
      <trkpt lat="43.95291" lon="1.89157">
        <ele>216.6</ele>
        <time>2022-09-01T17:18:16Z</time>
      </trkpt>
      <trkpt lat="43.95292" lon="1.89157">
        <ele>216.8</ele>
        <time>2022-09-01T17:18:17Z</time>
      </trkpt>
      <trkpt lat="43.95294" lon="1.89157">
        <ele>217</ele>
        <time>2022-09-01T17:18:18Z</time>
      </trkpt>
      <trkpt lat="43.95295" lon="1.89157">
        <ele>217</ele>
        <time>2022-09-01T17:18:19Z</time>
      </trkpt>
      <trkpt lat="43.95297" lon="1.89157">
        <ele>217.4</ele>
        <time>2022-09-01T17:18:20Z</time>
      </trkpt>
      <trkpt lat="43.95298" lon="1.89158">
        <ele>217.6</ele>
        <time>2022-09-01T17:18:21Z</time>
      </trkpt>
      <trkpt lat="43.953" lon="1.89158">
        <ele>217.8</ele>
        <time>2022-09-01T17:18:22Z</time>
      </trkpt>
      <trkpt lat="43.953" lon="1.89157">
        <ele>218.2</ele>
        <time>2022-09-01T17:18:23Z</time>
      </trkpt>
      <trkpt lat="43.95301" lon="1.89157">
        <ele>218.4</ele>
        <time>2022-09-01T17:18:24Z</time>
      </trkpt>
      <trkpt lat="43.95301" lon="1.89156">
        <ele>218.6</ele>
        <time>2022-09-01T17:18:25Z</time>
      </trkpt>
      <trkpt lat="43.953" lon="1.89155">
        <ele>218.8</ele>
        <time>2022-09-01T17:18:26Z</time>
      </trkpt>
      <trkpt lat="43.953" lon="1.89155">
        <ele>219</ele>
        <time>2022-09-01T17:18:27Z</time>
      </trkpt>
      <trkpt lat="43.95299" lon="1.89155">
        <ele>219</ele>
        <time>2022-09-01T17:18:28Z</time>
      </trkpt>
      <trkpt lat="43.95297" lon="1.89156">
        <ele>219</ele>
        <time>2022-09-01T17:18:29Z</time>
      </trkpt>
      <trkpt lat="43.95296" lon="1.89156">
        <ele>219</ele>
        <time>2022-09-01T17:18:30Z</time>
      </trkpt>
      <trkpt lat="43.95294" lon="1.89155">
        <ele>219</ele>
        <time>2022-09-01T17:18:31Z</time>
      </trkpt>
      <trkpt lat="43.95293" lon="1.89155">
        <ele>218.8</ele>
        <time>2022-09-01T17:18:32Z</time>
      </trkpt>
      <trkpt lat="43.95291" lon="1.89154">
        <ele>218.8</ele>
        <time>2022-09-01T17:18:33Z</time>
      </trkpt>
      <trkpt lat="43.9529" lon="1.89154">
        <ele>219</ele>
        <time>2022-09-01T17:18:34Z</time>
      </trkpt>
      <trkpt lat="43.95289" lon="1.89152">
        <ele>218.8</ele>
        <time>2022-09-01T17:18:35Z</time>
      </trkpt>
      <trkpt lat="43.95289" lon="1.89151">
        <ele>218.8</ele>
        <time>2022-09-01T17:18:36Z</time>
      </trkpt>
      <trkpt lat="43.95289" lon="1.8915">
        <ele>218.8</ele>
        <time>2022-09-01T17:18:37Z</time>
      </trkpt>
      <trkpt lat="43.95288" lon="1.89149">
        <ele>218.8</ele>
        <time>2022-09-01T17:18:38Z</time>
      </trkpt>
      <trkpt lat="43.95287" lon="1.89148">
        <ele>218.8</ele>
        <time>2022-09-01T17:18:39Z</time>
      </trkpt>
      <trkpt lat="43.95286" lon="1.89148">
        <ele>218.8</ele>
        <time>2022-09-01T17:18:40Z</time>
      </trkpt>
      <trkpt lat="43.95286" lon="1.89146">
        <ele>218.8</ele>
        <time>2022-09-01T17:18:41Z</time>
      </trkpt>
      <trkpt lat="43.95285" lon="1.89145">
        <ele>218.8</ele>
        <time>2022-09-01T17:18:42Z</time>
      </trkpt>
      <trkpt lat="43.95285" lon="1.89144">
        <ele>218.6</ele>
        <time>2022-09-01T17:18:43Z</time>
      </trkpt>
      <trkpt lat="43.95286" lon="1.89145">
        <ele>218.6</ele>
        <time>2022-09-01T17:18:44Z</time>
      </trkpt>
      <trkpt lat="43.95289" lon="1.89152">
        <ele>218.6</ele>
        <time>2022-09-01T17:18:47Z</time>
      </trkpt>
      <trkpt lat="43.95291" lon="1.89154">
        <ele>218.6</ele>
        <time>2022-09-01T17:18:48Z</time>
      </trkpt>
      <trkpt lat="43.95294" lon="1.89156">
        <ele>218.6</ele>
        <time>2022-09-01T17:18:49Z</time>
      </trkpt>
      <trkpt lat="43.95296" lon="1.89156">
        <ele>218.6</ele>
        <time>2022-09-01T17:18:50Z</time>
      </trkpt>
      <trkpt lat="43.95298" lon="1.89156">
        <ele>218.6</ele>
        <time>2022-09-01T17:18:51Z</time>
      </trkpt>
      <trkpt lat="43.953" lon="1.89155">
        <ele>218.6</ele>
        <time>2022-09-01T17:18:52Z</time>
      </trkpt>
      <trkpt lat="43.95302" lon="1.89154">
        <ele>218.8</ele>
        <time>2022-09-01T17:18:53Z</time>
      </trkpt>
      <trkpt lat="43.95309" lon="1.89149">
        <ele>219.2</ele>
        <time>2022-09-01T17:18:57Z</time>
      </trkpt>
      <trkpt lat="43.95311" lon="1.89147">
        <ele>219.2</ele>
        <time>2022-09-01T17:18:58Z</time>
      </trkpt>
      <trkpt lat="43.95312" lon="1.89145">
        <ele>219.4</ele>
        <time>2022-09-01T17:18:59Z</time>
      </trkpt>
      <trkpt lat="43.95313" lon="1.89144">
        <ele>219.4</ele>
        <time>2022-09-01T17:19:00Z</time>
      </trkpt>
      <trkpt lat="43.95315" lon="1.89142">
        <ele>219.8</ele>
        <time>2022-09-01T17:19:01Z</time>
      </trkpt>
      <trkpt lat="43.95318" lon="1.8914">
        <ele>220.2</ele>
        <time>2022-09-01T17:19:03Z</time>
      </trkpt>
      <trkpt lat="43.9532" lon="1.8914">
        <ele>220.4</ele>
        <time>2022-09-01T17:19:04Z</time>
      </trkpt>
      <trkpt lat="43.95322" lon="1.89138">
        <ele>220.6</ele>
        <time>2022-09-01T17:19:05Z</time>
      </trkpt>
      <trkpt lat="43.95324" lon="1.89137">
        <ele>220.8</ele>
        <time>2022-09-01T17:19:06Z</time>
      </trkpt>
      <trkpt lat="43.95328" lon="1.89133">
        <ele>221</ele>
        <time>2022-09-01T17:19:08Z</time>
      </trkpt>
      <trkpt lat="43.95329" lon="1.89131">
        <ele>221.2</ele>
        <time>2022-09-01T17:19:09Z</time>
      </trkpt>
      <trkpt lat="43.95331" lon="1.89129">
        <ele>221.4</ele>
        <time>2022-09-01T17:19:10Z</time>
      </trkpt>
      <trkpt lat="43.95331" lon="1.89126">
        <ele>221.6</ele>
        <time>2022-09-01T17:19:11Z</time>
      </trkpt>
      <trkpt lat="43.95331" lon="1.89123">
        <ele>221.6</ele>
        <time>2022-09-01T17:19:12Z</time>
      </trkpt>
      <trkpt lat="43.95331" lon="1.89121">
        <ele>222</ele>
        <time>2022-09-01T17:19:13Z</time>
      </trkpt>
      <trkpt lat="43.9533" lon="1.89118">
        <ele>222.2</ele>
        <time>2022-09-01T17:19:14Z</time>
      </trkpt>
      <trkpt lat="43.95329" lon="1.89115">
        <ele>222.6</ele>
        <time>2022-09-01T17:19:15Z</time>
      </trkpt>
      <trkpt lat="43.95328" lon="1.89113">
        <ele>222.8</ele>
        <time>2022-09-01T17:19:16Z</time>
      </trkpt>
      <trkpt lat="43.95327" lon="1.8911">
        <ele>223</ele>
        <time>2022-09-01T17:19:17Z</time>
      </trkpt>
      <trkpt lat="43.95325" lon="1.89107">
        <ele>223.6</ele>
        <time>2022-09-01T17:19:18Z</time>
      </trkpt>
      <trkpt lat="43.95324" lon="1.89104">
        <ele>223.8</ele>
        <time>2022-09-01T17:19:19Z</time>
      </trkpt>
      <trkpt lat="43.95323" lon="1.89102">
        <ele>224.4</ele>
        <time>2022-09-01T17:19:20Z</time>
      </trkpt>
      <trkpt lat="43.95322" lon="1.89099">
        <ele>224.8</ele>
        <time>2022-09-01T17:19:21Z</time>
      </trkpt>
      <trkpt lat="43.9532" lon="1.89096">
        <ele>225.4</ele>
        <time>2022-09-01T17:19:22Z</time>
      </trkpt>
      <trkpt lat="43.9532" lon="1.89094">
        <ele>225.6</ele>
        <time>2022-09-01T17:19:23Z</time>
      </trkpt>
      <trkpt lat="43.95319" lon="1.89091">
        <ele>226</ele>
        <time>2022-09-01T17:19:24Z</time>
      </trkpt>
      <trkpt lat="43.95319" lon="1.89089">
        <ele>226.4</ele>
        <time>2022-09-01T17:19:25Z</time>
      </trkpt>
      <trkpt lat="43.95318" lon="1.89087">
        <ele>226.6</ele>
        <time>2022-09-01T17:19:26Z</time>
      </trkpt>
      <trkpt lat="43.95319" lon="1.89084">
        <ele>227</ele>
        <time>2022-09-01T17:19:27Z</time>
      </trkpt>
      <trkpt lat="43.95319" lon="1.89081">
        <ele>227.2</ele>
        <time>2022-09-01T17:19:28Z</time>
      </trkpt>
      <trkpt lat="43.9532" lon="1.89079">
        <ele>227.4</ele>
        <time>2022-09-01T17:19:29Z</time>
      </trkpt>
      <trkpt lat="43.95321" lon="1.89078">
        <ele>227.4</ele>
        <time>2022-09-01T17:19:30Z</time>
      </trkpt>
      <trkpt lat="43.95323" lon="1.89077">
        <ele>227.8</ele>
        <time>2022-09-01T17:19:31Z</time>
      </trkpt>
      <trkpt lat="43.95324" lon="1.89076">
        <ele>227.8</ele>
        <time>2022-09-01T17:19:32Z</time>
      </trkpt>
      <trkpt lat="43.95325" lon="1.89076">
        <ele>228</ele>
        <time>2022-09-01T17:19:33Z</time>
      </trkpt>
      <trkpt lat="43.95326" lon="1.89076">
        <ele>228.2</ele>
        <time>2022-09-01T17:19:34Z</time>
      </trkpt>
      <trkpt lat="43.95327" lon="1.89075">
        <ele>228.2</ele>
        <time>2022-09-01T17:19:35Z</time>
      </trkpt>
      <trkpt lat="43.95329" lon="1.89074">
        <ele>228.4</ele>
        <time>2022-09-01T17:19:36Z</time>
      </trkpt>
      <trkpt lat="43.9533" lon="1.89073">
        <ele>228.6</ele>
        <time>2022-09-01T17:19:37Z</time>
      </trkpt>
      <trkpt lat="43.9533" lon="1.89072">
        <ele>228.8</ele>
        <time>2022-09-01T17:19:38Z</time>
      </trkpt>
      <trkpt lat="43.95331" lon="1.89071">
        <ele>228.8</ele>
        <time>2022-09-01T17:19:39Z</time>
      </trkpt>
      <trkpt lat="43.95333" lon="1.8907">
        <ele>229</ele>
        <time>2022-09-01T17:19:40Z</time>
      </trkpt>
      <trkpt lat="43.95334" lon="1.8907">
        <ele>229</ele>
        <time>2022-09-01T17:19:41Z</time>
      </trkpt>
      <trkpt lat="43.95335" lon="1.89069">
        <ele>229.2</ele>
        <time>2022-09-01T17:19:42Z</time>
      </trkpt>
      <trkpt lat="43.95335" lon="1.89068">
        <ele>229.2</ele>
        <time>2022-09-01T17:19:43Z</time>
      </trkpt>
      <trkpt lat="43.95337" lon="1.89067">
        <ele>229.2</ele>
        <time>2022-09-01T17:19:44Z</time>
      </trkpt>
      <trkpt lat="43.95338" lon="1.89065">
        <ele>229.4</ele>
        <time>2022-09-01T17:19:45Z</time>
      </trkpt>
      <trkpt lat="43.95339" lon="1.89064">
        <ele>229.6</ele>
        <time>2022-09-01T17:19:46Z</time>
      </trkpt>
      <trkpt lat="43.9534" lon="1.89062">
        <ele>229.6</ele>
        <time>2022-09-01T17:19:47Z</time>
      </trkpt>
      <trkpt lat="43.95341" lon="1.8906">
        <ele>229.4</ele>
        <time>2022-09-01T17:19:48Z</time>
      </trkpt>
      <trkpt lat="43.95342" lon="1.89058">
        <ele>229.8</ele>
        <time>2022-09-01T17:19:49Z</time>
      </trkpt>
      <trkpt lat="43.95343" lon="1.89056">
        <ele>229.8</ele>
        <time>2022-09-01T17:19:50Z</time>
      </trkpt>
      <trkpt lat="43.95343" lon="1.89054">
        <ele>229.8</ele>
        <time>2022-09-01T17:19:51Z</time>
      </trkpt>
      <trkpt lat="43.95343" lon="1.89052">
        <ele>230</ele>
        <time>2022-09-01T17:19:52Z</time>
      </trkpt>
      <trkpt lat="43.95344" lon="1.8905">
        <ele>230</ele>
        <time>2022-09-01T17:19:53Z</time>
      </trkpt>
      <trkpt lat="43.95344" lon="1.89048">
        <ele>230.2</ele>
        <time>2022-09-01T17:19:54Z</time>
      </trkpt>
      <trkpt lat="43.95345" lon="1.89045">
        <ele>230.2</ele>
        <time>2022-09-01T17:19:55Z</time>
      </trkpt>
      <trkpt lat="43.95346" lon="1.89042">
        <ele>230.2</ele>
        <time>2022-09-01T17:19:56Z</time>
      </trkpt>
      <trkpt lat="43.95346" lon="1.8904">
        <ele>230.2</ele>
        <time>2022-09-01T17:19:57Z</time>
      </trkpt>
      <trkpt lat="43.95347" lon="1.89037">
        <ele>230.4</ele>
        <time>2022-09-01T17:19:58Z</time>
      </trkpt>
      <trkpt lat="43.95348" lon="1.89035">
        <ele>230.4</ele>
        <time>2022-09-01T17:19:59Z</time>
      </trkpt>
      <trkpt lat="43.95348" lon="1.89032">
        <ele>230.4</ele>
        <time>2022-09-01T17:20:00Z</time>
      </trkpt>
      <trkpt lat="43.95349" lon="1.8903">
        <ele>230.6</ele>
        <time>2022-09-01T17:20:01Z</time>
      </trkpt>
      <trkpt lat="43.95349" lon="1.89027">
        <ele>230.6</ele>
        <time>2022-09-01T17:20:02Z</time>
      </trkpt>
      <trkpt lat="43.9535" lon="1.89025">
        <ele>230.6</ele>
        <time>2022-09-01T17:20:03Z</time>
      </trkpt>
      <trkpt lat="43.95351" lon="1.89022">
        <ele>230.6</ele>
        <time>2022-09-01T17:20:04Z</time>
      </trkpt>
      <trkpt lat="43.95354" lon="1.89012">
        <ele>231</ele>
        <time>2022-09-01T17:20:08Z</time>
      </trkpt>
      <trkpt lat="43.95354" lon="1.89009">
        <ele>231</ele>
        <time>2022-09-01T17:20:09Z</time>
      </trkpt>
      <trkpt lat="43.95355" lon="1.89007">
        <ele>231.2</ele>
        <time>2022-09-01T17:20:10Z</time>
      </trkpt>
      <trkpt lat="43.95355" lon="1.89004">
        <ele>231.2</ele>
        <time>2022-09-01T17:20:11Z</time>
      </trkpt>
      <trkpt lat="43.95356" lon="1.89001">
        <ele>231.4</ele>
        <time>2022-09-01T17:20:12Z</time>
      </trkpt>
      <trkpt lat="43.95364" lon="1.88975">
        <ele>232</ele>
        <time>2022-09-01T17:20:21Z</time>
      </trkpt>
      <trkpt lat="43.95366" lon="1.88972">
        <ele>232.2</ele>
        <time>2022-09-01T17:20:22Z</time>
      </trkpt>
      <trkpt lat="43.95369" lon="1.88966">
        <ele>232.2</ele>
        <time>2022-09-01T17:20:24Z</time>
      </trkpt>
      <trkpt lat="43.95371" lon="1.88963">
        <ele>232.4</ele>
        <time>2022-09-01T17:20:25Z</time>
      </trkpt>
      <trkpt lat="43.95373" lon="1.88961">
        <ele>232.4</ele>
        <time>2022-09-01T17:20:26Z</time>
      </trkpt>
      <trkpt lat="43.95375" lon="1.88958">
        <ele>232.6</ele>
        <time>2022-09-01T17:20:27Z</time>
      </trkpt>
      <trkpt lat="43.95381" lon="1.88952">
        <ele>232.8</ele>
        <time>2022-09-01T17:20:30Z</time>
      </trkpt>
      <trkpt lat="43.95388" lon="1.88944">
        <ele>232.8</ele>
        <time>2022-09-01T17:20:33Z</time>
      </trkpt>
      <trkpt lat="43.9539" lon="1.88942">
        <ele>232.8</ele>
        <time>2022-09-01T17:20:34Z</time>
      </trkpt>
      <trkpt lat="43.95392" lon="1.88939">
        <ele>233</ele>
        <time>2022-09-01T17:20:35Z</time>
      </trkpt>
      <trkpt lat="43.95394" lon="1.88937">
        <ele>233</ele>
        <time>2022-09-01T17:20:36Z</time>
      </trkpt>
      <trkpt lat="43.95396" lon="1.8893">
        <ele>233.2</ele>
        <time>2022-09-01T17:20:38Z</time>
      </trkpt>
      <trkpt lat="43.95397" lon="1.88926">
        <ele>233.2</ele>
        <time>2022-09-01T17:20:39Z</time>
      </trkpt>
      <trkpt lat="43.95398" lon="1.88922">
        <ele>233.2</ele>
        <time>2022-09-01T17:20:40Z</time>
      </trkpt>
      <trkpt lat="43.95399" lon="1.88919">
        <ele>233.2</ele>
        <time>2022-09-01T17:20:41Z</time>
      </trkpt>
      <trkpt lat="43.95403" lon="1.88907">
        <ele>233.2</ele>
        <time>2022-09-01T17:20:44Z</time>
      </trkpt>
      <trkpt lat="43.95405" lon="1.88904">
        <ele>233.2</ele>
        <time>2022-09-01T17:20:45Z</time>
      </trkpt>
      <trkpt lat="43.95407" lon="1.88901">
        <ele>233.2</ele>
        <time>2022-09-01T17:20:46Z</time>
      </trkpt>
      <trkpt lat="43.95409" lon="1.88899">
        <ele>233.2</ele>
        <time>2022-09-01T17:20:47Z</time>
      </trkpt>
      <trkpt lat="43.95411" lon="1.88897">
        <ele>233.4</ele>
        <time>2022-09-01T17:20:48Z</time>
      </trkpt>
      <trkpt lat="43.95413" lon="1.88895">
        <ele>233.4</ele>
        <time>2022-09-01T17:20:49Z</time>
      </trkpt>
      <trkpt lat="43.95415" lon="1.88893">
        <ele>233.4</ele>
        <time>2022-09-01T17:20:50Z</time>
      </trkpt>
      <trkpt lat="43.95424" lon="1.88889">
        <ele>233.6</ele>
        <time>2022-09-01T17:20:54Z</time>
      </trkpt>
      <trkpt lat="43.95429" lon="1.88888">
        <ele>233.6</ele>
        <time>2022-09-01T17:20:56Z</time>
      </trkpt>
      <trkpt lat="43.95434" lon="1.88889">
        <ele>234</ele>
        <time>2022-09-01T17:20:58Z</time>
      </trkpt>
      <trkpt lat="43.95436" lon="1.8889">
        <ele>234</ele>
        <time>2022-09-01T17:20:59Z</time>
      </trkpt>
      <trkpt lat="43.95446" lon="1.88895">
        <ele>234.8</ele>
        <time>2022-09-01T17:21:03Z</time>
      </trkpt>
      <trkpt lat="43.95448" lon="1.88896">
        <ele>235</ele>
        <time>2022-09-01T17:21:04Z</time>
      </trkpt>
      <trkpt lat="43.9546" lon="1.88907">
        <ele>235.8</ele>
        <time>2022-09-01T17:21:09Z</time>
      </trkpt>
      <trkpt lat="43.9547" lon="1.88915">
        <ele>236.8</ele>
        <time>2022-09-01T17:21:13Z</time>
      </trkpt>
      <trkpt lat="43.95473" lon="1.88917">
        <ele>237.2</ele>
        <time>2022-09-01T17:21:14Z</time>
      </trkpt>
      <trkpt lat="43.95476" lon="1.88919">
        <ele>237.2</ele>
        <time>2022-09-01T17:21:15Z</time>
      </trkpt>
      <trkpt lat="43.95479" lon="1.8892">
        <ele>237.4</ele>
        <time>2022-09-01T17:21:16Z</time>
      </trkpt>
      <trkpt lat="43.95482" lon="1.88921">
        <ele>237.8</ele>
        <time>2022-09-01T17:21:17Z</time>
      </trkpt>
      <trkpt lat="43.95485" lon="1.88922">
        <ele>238</ele>
        <time>2022-09-01T17:21:18Z</time>
      </trkpt>
      <trkpt lat="43.95488" lon="1.88922">
        <ele>238.2</ele>
        <time>2022-09-01T17:21:19Z</time>
      </trkpt>
      <trkpt lat="43.95491" lon="1.88921">
        <ele>238.2</ele>
        <time>2022-09-01T17:21:20Z</time>
      </trkpt>
      <trkpt lat="43.95494" lon="1.8892">
        <ele>238.6</ele>
        <time>2022-09-01T17:21:21Z</time>
      </trkpt>
      <trkpt lat="43.95496" lon="1.88918">
        <ele>238.6</ele>
        <time>2022-09-01T17:21:22Z</time>
      </trkpt>
      <trkpt lat="43.95499" lon="1.88917">
        <ele>238.8</ele>
        <time>2022-09-01T17:21:23Z</time>
      </trkpt>
      <trkpt lat="43.95501" lon="1.88914">
        <ele>239</ele>
        <time>2022-09-01T17:21:24Z</time>
      </trkpt>
      <trkpt lat="43.95504" lon="1.88912">
        <ele>239.4</ele>
        <time>2022-09-01T17:21:25Z</time>
      </trkpt>
      <trkpt lat="43.95506" lon="1.8891">
        <ele>239.6</ele>
        <time>2022-09-01T17:21:26Z</time>
      </trkpt>
      <trkpt lat="43.95508" lon="1.88907">
        <ele>239.6</ele>
        <time>2022-09-01T17:21:27Z</time>
      </trkpt>
      <trkpt lat="43.95511" lon="1.88905">
        <ele>240</ele>
        <time>2022-09-01T17:21:28Z</time>
      </trkpt>
      <trkpt lat="43.95513" lon="1.88902">
        <ele>240</ele>
        <time>2022-09-01T17:21:29Z</time>
      </trkpt>
      <trkpt lat="43.95515" lon="1.889">
        <ele>240.2</ele>
        <time>2022-09-01T17:21:30Z</time>
      </trkpt>
      <trkpt lat="43.95517" lon="1.88897">
        <ele>240.4</ele>
        <time>2022-09-01T17:21:31Z</time>
      </trkpt>
      <trkpt lat="43.95518" lon="1.88894">
        <ele>240.6</ele>
        <time>2022-09-01T17:21:32Z</time>
      </trkpt>
      <trkpt lat="43.9552" lon="1.88892">
        <ele>240.8</ele>
        <time>2022-09-01T17:21:33Z</time>
      </trkpt>
      <trkpt lat="43.95522" lon="1.8889">
        <ele>240.8</ele>
        <time>2022-09-01T17:21:34Z</time>
      </trkpt>
      <trkpt lat="43.95524" lon="1.88887">
        <ele>241</ele>
        <time>2022-09-01T17:21:35Z</time>
      </trkpt>
      <trkpt lat="43.95526" lon="1.88885">
        <ele>241</ele>
        <time>2022-09-01T17:21:36Z</time>
      </trkpt>
      <trkpt lat="43.95527" lon="1.88882">
        <ele>241.2</ele>
        <time>2022-09-01T17:21:37Z</time>
      </trkpt>
      <trkpt lat="43.95529" lon="1.8888">
        <ele>241.2</ele>
        <time>2022-09-01T17:21:38Z</time>
      </trkpt>
      <trkpt lat="43.95532" lon="1.88877">
        <ele>241.2</ele>
        <time>2022-09-01T17:21:39Z</time>
      </trkpt>
      <trkpt lat="43.95534" lon="1.88874">
        <ele>241.4</ele>
        <time>2022-09-01T17:21:40Z</time>
      </trkpt>
      <trkpt lat="43.95536" lon="1.88871">
        <ele>241.4</ele>
        <time>2022-09-01T17:21:41Z</time>
      </trkpt>
      <trkpt lat="43.95538" lon="1.88868">
        <ele>241.4</ele>
        <time>2022-09-01T17:21:42Z</time>
      </trkpt>
      <trkpt lat="43.95541" lon="1.88865">
        <ele>241.6</ele>
        <time>2022-09-01T17:21:43Z</time>
      </trkpt>
      <trkpt lat="43.95543" lon="1.88862">
        <ele>241.6</ele>
        <time>2022-09-01T17:21:44Z</time>
      </trkpt>
      <trkpt lat="43.95546" lon="1.8886">
        <ele>241.6</ele>
        <time>2022-09-01T17:21:45Z</time>
      </trkpt>
      <trkpt lat="43.95548" lon="1.88857">
        <ele>241.6</ele>
        <time>2022-09-01T17:21:46Z</time>
      </trkpt>
      <trkpt lat="43.95551" lon="1.88854">
        <ele>241.6</ele>
        <time>2022-09-01T17:21:47Z</time>
      </trkpt>
      <trkpt lat="43.95554" lon="1.88851">
        <ele>241.8</ele>
        <time>2022-09-01T17:21:48Z</time>
      </trkpt>
      <trkpt lat="43.95557" lon="1.88849">
        <ele>241.8</ele>
        <time>2022-09-01T17:21:49Z</time>
      </trkpt>
      <trkpt lat="43.9556" lon="1.88846">
        <ele>241.8</ele>
        <time>2022-09-01T17:21:50Z</time>
      </trkpt>
      <trkpt lat="43.95563" lon="1.88843">
        <ele>242</ele>
        <time>2022-09-01T17:21:51Z</time>
      </trkpt>
      <trkpt lat="43.95566" lon="1.8884">
        <ele>242</ele>
        <time>2022-09-01T17:21:52Z</time>
      </trkpt>
      <trkpt lat="43.95569" lon="1.88837">
        <ele>242.2</ele>
        <time>2022-09-01T17:21:53Z</time>
      </trkpt>
      <trkpt lat="43.95572" lon="1.88835">
        <ele>242.2</ele>
        <time>2022-09-01T17:21:54Z</time>
      </trkpt>
      <trkpt lat="43.95575" lon="1.88832">
        <ele>242.4</ele>
        <time>2022-09-01T17:21:55Z</time>
      </trkpt>
      <trkpt lat="43.95578" lon="1.88828">
        <ele>242.4</ele>
        <time>2022-09-01T17:21:56Z</time>
      </trkpt>
      <trkpt lat="43.95581" lon="1.88825">
        <ele>242.4</ele>
        <time>2022-09-01T17:21:57Z</time>
      </trkpt>
      <trkpt lat="43.95592" lon="1.88813">
        <ele>242.6</ele>
        <time>2022-09-01T17:22:01Z</time>
      </trkpt>
      <trkpt lat="43.9561" lon="1.88791">
        <ele>242.8</ele>
        <time>2022-09-01T17:22:07Z</time>
      </trkpt>
      <trkpt lat="43.95619" lon="1.88781">
        <ele>242.6</ele>
        <time>2022-09-01T17:22:10Z</time>
      </trkpt>
      <trkpt lat="43.95622" lon="1.88777">
        <ele>242.6</ele>
        <time>2022-09-01T17:22:11Z</time>
      </trkpt>
      <trkpt lat="43.95633" lon="1.88762">
        <ele>242.4</ele>
        <time>2022-09-01T17:22:15Z</time>
      </trkpt>
      <trkpt lat="43.95635" lon="1.88758">
        <ele>242.4</ele>
        <time>2022-09-01T17:22:16Z</time>
      </trkpt>
      <trkpt lat="43.95638" lon="1.88754">
        <ele>242.2</ele>
        <time>2022-09-01T17:22:17Z</time>
      </trkpt>
      <trkpt lat="43.9564" lon="1.8875">
        <ele>242.2</ele>
        <time>2022-09-01T17:22:18Z</time>
      </trkpt>
      <trkpt lat="43.95643" lon="1.88746">
        <ele>242.2</ele>
        <time>2022-09-01T17:22:19Z</time>
      </trkpt>
      <trkpt lat="43.95646" lon="1.88743">
        <ele>242.2</ele>
        <time>2022-09-01T17:22:20Z</time>
      </trkpt>
      <trkpt lat="43.95648" lon="1.88739">
        <ele>242.2</ele>
        <time>2022-09-01T17:22:22Z</time>
      </trkpt>
      <trkpt lat="43.95653" lon="1.88731">
        <ele>242.2</ele>
        <time>2022-09-01T17:22:23Z</time>
      </trkpt>
      <trkpt lat="43.95655" lon="1.88727">
        <ele>242.2</ele>
        <time>2022-09-01T17:22:24Z</time>
      </trkpt>
      <trkpt lat="43.95664" lon="1.88711">
        <ele>242.4</ele>
        <time>2022-09-01T17:22:28Z</time>
      </trkpt>
      <trkpt lat="43.95667" lon="1.88707">
        <ele>242.4</ele>
        <time>2022-09-01T17:22:29Z</time>
      </trkpt>
      <trkpt lat="43.95669" lon="1.88703">
        <ele>242.4</ele>
        <time>2022-09-01T17:22:30Z</time>
      </trkpt>
      <trkpt lat="43.95671" lon="1.88699">
        <ele>242.4</ele>
        <time>2022-09-01T17:22:31Z</time>
      </trkpt>
      <trkpt lat="43.95674" lon="1.88695">
        <ele>242.6</ele>
        <time>2022-09-01T17:22:32Z</time>
      </trkpt>
      <trkpt lat="43.95676" lon="1.88691">
        <ele>242.6</ele>
        <time>2022-09-01T17:22:33Z</time>
      </trkpt>
      <trkpt lat="43.95682" lon="1.88679">
        <ele>242.8</ele>
        <time>2022-09-01T17:22:36Z</time>
      </trkpt>
      <trkpt lat="43.95684" lon="1.88675">
        <ele>242.8</ele>
        <time>2022-09-01T17:22:37Z</time>
      </trkpt>
      <trkpt lat="43.95688" lon="1.88668">
        <ele>242.8</ele>
        <time>2022-09-01T17:22:39Z</time>
      </trkpt>
      <trkpt lat="43.95688" lon="1.88668">
        <ele>242.8</ele>
        <time>2022-09-01T17:22:40Z</time>
      </trkpt>
      <trkpt lat="43.95692" lon="1.8866">
        <ele>242.8</ele>
        <time>2022-09-01T17:22:41Z</time>
      </trkpt>
      <trkpt lat="43.95694" lon="1.88657">
        <ele>242.8</ele>
        <time>2022-09-01T17:22:42Z</time>
      </trkpt>
      <trkpt lat="43.95695" lon="1.88653">
        <ele>243</ele>
        <time>2022-09-01T17:22:43Z</time>
      </trkpt>
      <trkpt lat="43.95697" lon="1.8865">
        <ele>243</ele>
        <time>2022-09-01T17:22:44Z</time>
      </trkpt>
      <trkpt lat="43.95699" lon="1.88648">
        <ele>243.2</ele>
        <time>2022-09-01T17:22:45Z</time>
      </trkpt>
      <trkpt lat="43.95701" lon="1.88646">
        <ele>243.2</ele>
        <time>2022-09-01T17:22:46Z</time>
      </trkpt>
      <trkpt lat="43.95702" lon="1.88644">
        <ele>243.2</ele>
        <time>2022-09-01T17:22:47Z</time>
      </trkpt>
      <trkpt lat="43.95705" lon="1.88643">
        <ele>243.2</ele>
        <time>2022-09-01T17:22:48Z</time>
      </trkpt>
      <trkpt lat="43.95707" lon="1.88643">
        <ele>243.4</ele>
        <time>2022-09-01T17:22:49Z</time>
      </trkpt>
      <trkpt lat="43.95708" lon="1.88644">
        <ele>243.6</ele>
        <time>2022-09-01T17:22:50Z</time>
      </trkpt>
      <trkpt lat="43.9571" lon="1.88646">
        <ele>243.8</ele>
        <time>2022-09-01T17:22:51Z</time>
      </trkpt>
      <trkpt lat="43.95711" lon="1.88648">
        <ele>244</ele>
        <time>2022-09-01T17:22:52Z</time>
      </trkpt>
      <trkpt lat="43.95713" lon="1.88654">
        <ele>244.4</ele>
        <time>2022-09-01T17:22:55Z</time>
      </trkpt>
      <trkpt lat="43.95714" lon="1.88655">
        <ele>244.6</ele>
        <time>2022-09-01T17:22:56Z</time>
      </trkpt>
      <trkpt lat="43.95716" lon="1.88658">
        <ele>244.8</ele>
        <time>2022-09-01T17:23:08Z</time>
      </trkpt>
      <trkpt lat="43.95716" lon="1.8866">
        <ele>244.6</ele>
        <time>2022-09-01T17:23:09Z</time>
      </trkpt>
      <trkpt lat="43.95718" lon="1.88662">
        <ele>244.6</ele>
        <time>2022-09-01T17:23:10Z</time>
      </trkpt>
      <trkpt lat="43.95722" lon="1.88666">
        <ele>244.6</ele>
        <time>2022-09-01T17:23:12Z</time>
      </trkpt>
      <trkpt lat="43.95725" lon="1.88668">
        <ele>244.4</ele>
        <time>2022-09-01T17:23:13Z</time>
      </trkpt>
      <trkpt lat="43.95729" lon="1.8867">
        <ele>244.2</ele>
        <time>2022-09-01T17:23:14Z</time>
      </trkpt>
      <trkpt lat="43.95733" lon="1.88674">
        <ele>244.2</ele>
        <time>2022-09-01T17:23:15Z</time>
      </trkpt>
      <trkpt lat="43.95746" lon="1.88685">
        <ele>243.6</ele>
        <time>2022-09-01T17:23:18Z</time>
      </trkpt>
      <trkpt lat="43.95771" lon="1.88706">
        <ele>242.8</ele>
        <time>2022-09-01T17:23:22Z</time>
      </trkpt>
      <trkpt lat="43.95777" lon="1.88712">
        <ele>242.6</ele>
        <time>2022-09-01T17:23:23Z</time>
      </trkpt>
      <trkpt lat="43.95788" lon="1.8873">
        <ele>241.6</ele>
        <time>2022-09-01T17:23:25Z</time>
      </trkpt>
      <trkpt lat="43.95791" lon="1.8874">
        <ele>241.4</ele>
        <time>2022-09-01T17:23:26Z</time>
      </trkpt>
      <trkpt lat="43.95793" lon="1.88752">
        <ele>240.8</ele>
        <time>2022-09-01T17:23:27Z</time>
      </trkpt>
      <trkpt lat="43.95793" lon="1.88763">
        <ele>240.4</ele>
        <time>2022-09-01T17:23:28Z</time>
      </trkpt>
      <trkpt lat="43.95792" lon="1.88775">
        <ele>239.8</ele>
        <time>2022-09-01T17:23:29Z</time>
      </trkpt>
      <trkpt lat="43.95788" lon="1.88787">
        <ele>239.8</ele>
        <time>2022-09-01T17:23:30Z</time>
      </trkpt>
      <trkpt lat="43.95783" lon="1.88797">
        <ele>239.6</ele>
        <time>2022-09-01T17:23:31Z</time>
      </trkpt>
      <trkpt lat="43.95779" lon="1.88806">
        <ele>239.2</ele>
        <time>2022-09-01T17:23:32Z</time>
      </trkpt>
      <trkpt lat="43.95774" lon="1.88817">
        <ele>238.8</ele>
        <time>2022-09-01T17:23:33Z</time>
      </trkpt>
      <trkpt lat="43.9577" lon="1.88828">
        <ele>238</ele>
        <time>2022-09-01T17:23:34Z</time>
      </trkpt>
      <trkpt lat="43.95766" lon="1.88842">
        <ele>237.2</ele>
        <time>2022-09-01T17:23:35Z</time>
      </trkpt>
      <trkpt lat="43.95764" lon="1.88854">
        <ele>236.6</ele>
        <time>2022-09-01T17:23:36Z</time>
      </trkpt>
      <trkpt lat="43.95762" lon="1.88865">
        <ele>236.2</ele>
        <time>2022-09-01T17:23:37Z</time>
      </trkpt>
      <trkpt lat="43.9576" lon="1.88874">
        <ele>235.6</ele>
        <time>2022-09-01T17:23:38Z</time>
      </trkpt>
      <trkpt lat="43.95758" lon="1.88885">
        <ele>235</ele>
        <time>2022-09-01T17:23:39Z</time>
      </trkpt>
      <trkpt lat="43.95755" lon="1.88898">
        <ele>233.6</ele>
        <time>2022-09-01T17:23:40Z</time>
      </trkpt>
      <trkpt lat="43.95753" lon="1.88908">
        <ele>232.4</ele>
        <time>2022-09-01T17:23:41Z</time>
      </trkpt>
      <trkpt lat="43.95751" lon="1.88918">
        <ele>231.8</ele>
        <time>2022-09-01T17:23:42Z</time>
      </trkpt>
      <trkpt lat="43.9575" lon="1.88928">
        <ele>231</ele>
        <time>2022-09-01T17:23:43Z</time>
      </trkpt>
      <trkpt lat="43.95751" lon="1.88948">
        <ele>229.6</ele>
        <time>2022-09-01T17:23:45Z</time>
      </trkpt>
      <trkpt lat="43.95754" lon="1.88958">
        <ele>229</ele>
        <time>2022-09-01T17:23:46Z</time>
      </trkpt>
      <trkpt lat="43.95757" lon="1.88969">
        <ele>228.2</ele>
        <time>2022-09-01T17:23:47Z</time>
      </trkpt>
      <trkpt lat="43.95759" lon="1.8898">
        <ele>227.6</ele>
        <time>2022-09-01T17:23:48Z</time>
      </trkpt>
      <trkpt lat="43.95762" lon="1.8899">
        <ele>226.4</ele>
        <time>2022-09-01T17:23:49Z</time>
      </trkpt>
      <trkpt lat="43.95765" lon="1.89001">
        <ele>225</ele>
        <time>2022-09-01T17:23:50Z</time>
      </trkpt>
      <trkpt lat="43.95767" lon="1.8901">
        <ele>224.4</ele>
        <time>2022-09-01T17:23:51Z</time>
      </trkpt>
      <trkpt lat="43.95769" lon="1.89018">
        <ele>223.4</ele>
        <time>2022-09-01T17:23:52Z</time>
      </trkpt>
      <trkpt lat="43.95772" lon="1.89026">
        <ele>223.2</ele>
        <time>2022-09-01T17:23:53Z</time>
      </trkpt>
      <trkpt lat="43.95776" lon="1.89031">
        <ele>222.8</ele>
        <time>2022-09-01T17:23:54Z</time>
      </trkpt>
      <trkpt lat="43.9578" lon="1.89033">
        <ele>222.6</ele>
        <time>2022-09-01T17:23:55Z</time>
      </trkpt>
      <trkpt lat="43.95784" lon="1.89032">
        <ele>222.4</ele>
        <time>2022-09-01T17:23:56Z</time>
      </trkpt>
      <trkpt lat="43.95788" lon="1.8903">
        <ele>222.4</ele>
        <time>2022-09-01T17:23:57Z</time>
      </trkpt>
      <trkpt lat="43.95791" lon="1.89028">
        <ele>222.2</ele>
        <time>2022-09-01T17:23:58Z</time>
      </trkpt>
      <trkpt lat="43.95794" lon="1.89028">
        <ele>222.2</ele>
        <time>2022-09-01T17:23:59Z</time>
      </trkpt>
      <trkpt lat="43.95797" lon="1.89028">
        <ele>222.2</ele>
        <time>2022-09-01T17:24:00Z</time>
      </trkpt>
      <trkpt lat="43.958" lon="1.89028">
        <ele>222.2</ele>
        <time>2022-09-01T17:24:01Z</time>
      </trkpt>
      <trkpt lat="43.95803" lon="1.89026">
        <ele>222.2</ele>
        <time>2022-09-01T17:24:02Z</time>
      </trkpt>
      <trkpt lat="43.95806" lon="1.89025">
        <ele>222.2</ele>
        <time>2022-09-01T17:24:03Z</time>
      </trkpt>
      <trkpt lat="43.95822" lon="1.89019">
        <ele>222.4</ele>
        <time>2022-09-01T17:24:08Z</time>
      </trkpt>
      <trkpt lat="43.9583" lon="1.89017">
        <ele>222.6</ele>
        <time>2022-09-01T17:24:10Z</time>
      </trkpt>
      <trkpt lat="43.9584" lon="1.89016">
        <ele>222.6</ele>
        <time>2022-09-01T17:24:13Z</time>
      </trkpt>
      <trkpt lat="43.95851" lon="1.89011">
        <ele>223</ele>
        <time>2022-09-01T17:24:16Z</time>
      </trkpt>
      <trkpt lat="43.95853" lon="1.89008">
        <ele>223.4</ele>
        <time>2022-09-01T17:24:17Z</time>
      </trkpt>
      <trkpt lat="43.95856" lon="1.89005">
        <ele>223.4</ele>
        <time>2022-09-01T17:24:18Z</time>
      </trkpt>
      <trkpt lat="43.95859" lon="1.89002">
        <ele>223.6</ele>
        <time>2022-09-01T17:24:19Z</time>
      </trkpt>
      <trkpt lat="43.95873" lon="1.88988">
        <ele>224</ele>
        <time>2022-09-01T17:24:24Z</time>
      </trkpt>
      <trkpt lat="43.95878" lon="1.88982">
        <ele>224.2</ele>
        <time>2022-09-01T17:24:26Z</time>
      </trkpt>
      <trkpt lat="43.95884" lon="1.88976">
        <ele>224.4</ele>
        <time>2022-09-01T17:24:28Z</time>
      </trkpt>
      <trkpt lat="43.95892" lon="1.88968">
        <ele>224.6</ele>
        <time>2022-09-01T17:24:31Z</time>
      </trkpt>
      <trkpt lat="43.95895" lon="1.88965">
        <ele>224.6</ele>
        <time>2022-09-01T17:24:32Z</time>
      </trkpt>
      <trkpt lat="43.95898" lon="1.88962">
        <ele>224.6</ele>
        <time>2022-09-01T17:24:33Z</time>
      </trkpt>
      <trkpt lat="43.95903" lon="1.88957">
        <ele>225</ele>
        <time>2022-09-01T17:24:35Z</time>
      </trkpt>
      <trkpt lat="43.95906" lon="1.88954">
        <ele>225</ele>
        <time>2022-09-01T17:24:36Z</time>
      </trkpt>
      <trkpt lat="43.95909" lon="1.88951">
        <ele>225.2</ele>
        <time>2022-09-01T17:24:37Z</time>
      </trkpt>
      <trkpt lat="43.95911" lon="1.88949">
        <ele>225.4</ele>
        <time>2022-09-01T17:24:38Z</time>
      </trkpt>
      <trkpt lat="43.95913" lon="1.88946">
        <ele>225.4</ele>
        <time>2022-09-01T17:24:39Z</time>
      </trkpt>
      <trkpt lat="43.95916" lon="1.88943">
        <ele>225.8</ele>
        <time>2022-09-01T17:24:40Z</time>
      </trkpt>
      <trkpt lat="43.95918" lon="1.8894">
        <ele>225.8</ele>
        <time>2022-09-01T17:24:41Z</time>
      </trkpt>
      <trkpt lat="43.95925" lon="1.88932">
        <ele>226.4</ele>
        <time>2022-09-01T17:24:44Z</time>
      </trkpt>
      <trkpt lat="43.95932" lon="1.88924">
        <ele>226.8</ele>
        <time>2022-09-01T17:24:47Z</time>
      </trkpt>
      <trkpt lat="43.95934" lon="1.88922">
        <ele>226.8</ele>
        <time>2022-09-01T17:24:48Z</time>
      </trkpt>
      <trkpt lat="43.95937" lon="1.88919">
        <ele>227</ele>
        <time>2022-09-01T17:24:49Z</time>
      </trkpt>
      <trkpt lat="43.95939" lon="1.88916">
        <ele>227.2</ele>
        <time>2022-09-01T17:24:50Z</time>
      </trkpt>
      <trkpt lat="43.95941" lon="1.88913">
        <ele>227.2</ele>
        <time>2022-09-01T17:24:51Z</time>
      </trkpt>
      <trkpt lat="43.95943" lon="1.8891">
        <ele>227.4</ele>
        <time>2022-09-01T17:24:52Z</time>
      </trkpt>
      <trkpt lat="43.95945" lon="1.88907">
        <ele>227.4</ele>
        <time>2022-09-01T17:24:53Z</time>
      </trkpt>
      <trkpt lat="43.95947" lon="1.88903">
        <ele>227.6</ele>
        <time>2022-09-01T17:24:54Z</time>
      </trkpt>
      <trkpt lat="43.9595" lon="1.88901">
        <ele>227.6</ele>
        <time>2022-09-01T17:24:55Z</time>
      </trkpt>
      <trkpt lat="43.95952" lon="1.88898">
        <ele>227.6</ele>
        <time>2022-09-01T17:24:56Z</time>
      </trkpt>
      <trkpt lat="43.95954" lon="1.88894">
        <ele>227.6</ele>
        <time>2022-09-01T17:24:57Z</time>
      </trkpt>
      <trkpt lat="43.95956" lon="1.88891">
        <ele>227.8</ele>
        <time>2022-09-01T17:24:58Z</time>
      </trkpt>
      <trkpt lat="43.95959" lon="1.88888">
        <ele>227.8</ele>
        <time>2022-09-01T17:24:59Z</time>
      </trkpt>
      <trkpt lat="43.95961" lon="1.88884">
        <ele>228</ele>
        <time>2022-09-01T17:25:00Z</time>
      </trkpt>
      <trkpt lat="43.95964" lon="1.88881">
        <ele>228</ele>
        <time>2022-09-01T17:25:01Z</time>
      </trkpt>
      <trkpt lat="43.95966" lon="1.88878">
        <ele>228</ele>
        <time>2022-09-01T17:25:02Z</time>
      </trkpt>
      <trkpt lat="43.95968" lon="1.88875">
        <ele>228.2</ele>
        <time>2022-09-01T17:25:03Z</time>
      </trkpt>
      <trkpt lat="43.95971" lon="1.88872">
        <ele>228.2</ele>
        <time>2022-09-01T17:25:04Z</time>
      </trkpt>
      <trkpt lat="43.95973" lon="1.88869">
        <ele>228.4</ele>
        <time>2022-09-01T17:25:05Z</time>
      </trkpt>
      <trkpt lat="43.95975" lon="1.88866">
        <ele>228.4</ele>
        <time>2022-09-01T17:25:06Z</time>
      </trkpt>
      <trkpt lat="43.95978" lon="1.88864">
        <ele>228.4</ele>
        <time>2022-09-01T17:25:07Z</time>
      </trkpt>
      <trkpt lat="43.9598" lon="1.88861">
        <ele>228.6</ele>
        <time>2022-09-01T17:25:08Z</time>
      </trkpt>
      <trkpt lat="43.95982" lon="1.88858">
        <ele>228.6</ele>
        <time>2022-09-01T17:25:09Z</time>
      </trkpt>
      <trkpt lat="43.95986" lon="1.88855">
        <ele>229</ele>
        <time>2022-09-01T17:25:11Z</time>
      </trkpt>
      <trkpt lat="43.95991" lon="1.88852">
        <ele>229.2</ele>
        <time>2022-09-01T17:25:13Z</time>
      </trkpt>
      <trkpt lat="43.95994" lon="1.8885">
        <ele>229.6</ele>
        <time>2022-09-01T17:25:14Z</time>
      </trkpt>
      <trkpt lat="43.95996" lon="1.88849">
        <ele>229.6</ele>
        <time>2022-09-01T17:25:15Z</time>
      </trkpt>
      <trkpt lat="43.95998" lon="1.88848">
        <ele>229.6</ele>
        <time>2022-09-01T17:25:16Z</time>
      </trkpt>
      <trkpt lat="43.96" lon="1.88847">
        <ele>230</ele>
        <time>2022-09-01T17:25:17Z</time>
      </trkpt>
      <trkpt lat="43.96002" lon="1.88846">
        <ele>229.8</ele>
        <time>2022-09-01T17:25:18Z</time>
      </trkpt>
      <trkpt lat="43.96004" lon="1.88845">
        <ele>230.2</ele>
        <time>2022-09-01T17:25:19Z</time>
      </trkpt>
      <trkpt lat="43.96007" lon="1.88844">
        <ele>230.4</ele>
        <time>2022-09-01T17:25:20Z</time>
      </trkpt>
      <trkpt lat="43.96009" lon="1.88843">
        <ele>230.8</ele>
        <time>2022-09-01T17:25:21Z</time>
      </trkpt>
      <trkpt lat="43.96012" lon="1.88842">
        <ele>230.8</ele>
        <time>2022-09-01T17:25:22Z</time>
      </trkpt>
      <trkpt lat="43.96014" lon="1.88841">
        <ele>231</ele>
        <time>2022-09-01T17:25:23Z</time>
      </trkpt>
      <trkpt lat="43.96016" lon="1.88839">
        <ele>231.4</ele>
        <time>2022-09-01T17:25:24Z</time>
      </trkpt>
      <trkpt lat="43.96019" lon="1.88838">
        <ele>231.6</ele>
        <time>2022-09-01T17:25:25Z</time>
      </trkpt>
      <trkpt lat="43.96021" lon="1.88837">
        <ele>232</ele>
        <time>2022-09-01T17:25:26Z</time>
      </trkpt>
      <trkpt lat="43.96023" lon="1.88836">
        <ele>232.2</ele>
        <time>2022-09-01T17:25:27Z</time>
      </trkpt>
      <trkpt lat="43.96025" lon="1.88835">
        <ele>232.6</ele>
        <time>2022-09-01T17:25:28Z</time>
      </trkpt>
      <trkpt lat="43.96025" lon="1.88835">
        <ele>232.8</ele>
        <time>2022-09-01T17:25:29Z</time>
      </trkpt>
      <trkpt lat="43.96029" lon="1.88832">
        <ele>233</ele>
        <time>2022-09-01T17:25:30Z</time>
      </trkpt>
      <trkpt lat="43.96031" lon="1.8883">
        <ele>233</ele>
        <time>2022-09-01T17:25:31Z</time>
      </trkpt>
      <trkpt lat="43.96033" lon="1.88829">
        <ele>233.4</ele>
        <time>2022-09-01T17:25:32Z</time>
      </trkpt>
      <trkpt lat="43.96036" lon="1.88827">
        <ele>233.4</ele>
        <time>2022-09-01T17:25:33Z</time>
      </trkpt>
      <trkpt lat="43.96038" lon="1.88826">
        <ele>234</ele>
        <time>2022-09-01T17:25:34Z</time>
      </trkpt>
      <trkpt lat="43.9604" lon="1.88825">
        <ele>234</ele>
        <time>2022-09-01T17:25:35Z</time>
      </trkpt>
      <trkpt lat="43.96042" lon="1.88823">
        <ele>234</ele>
        <time>2022-09-01T17:25:36Z</time>
      </trkpt>
      <trkpt lat="43.96045" lon="1.88821">
        <ele>234.6</ele>
        <time>2022-09-01T17:25:37Z</time>
      </trkpt>
      <trkpt lat="43.96047" lon="1.8882">
        <ele>234.6</ele>
        <time>2022-09-01T17:25:38Z</time>
      </trkpt>
      <trkpt lat="43.96049" lon="1.88818">
        <ele>235</ele>
        <time>2022-09-01T17:25:39Z</time>
      </trkpt>
      <trkpt lat="43.96051" lon="1.88817">
        <ele>235.2</ele>
        <time>2022-09-01T17:25:40Z</time>
      </trkpt>
      <trkpt lat="43.96054" lon="1.88816">
        <ele>235.4</ele>
        <time>2022-09-01T17:25:41Z</time>
      </trkpt>
      <trkpt lat="43.96057" lon="1.88815">
        <ele>235.6</ele>
        <time>2022-09-01T17:25:42Z</time>
      </trkpt>
      <trkpt lat="43.9606" lon="1.88813">
        <ele>235.8</ele>
        <time>2022-09-01T17:25:43Z</time>
      </trkpt>
      <trkpt lat="43.96062" lon="1.88812">
        <ele>236</ele>
        <time>2022-09-01T17:25:44Z</time>
      </trkpt>
      <trkpt lat="43.96065" lon="1.8881">
        <ele>236.4</ele>
        <time>2022-09-01T17:25:45Z</time>
      </trkpt>
      <trkpt lat="43.96068" lon="1.88809">
        <ele>236.6</ele>
        <time>2022-09-01T17:25:46Z</time>
      </trkpt>
      <trkpt lat="43.9607" lon="1.88808">
        <ele>236.8</ele>
        <time>2022-09-01T17:25:47Z</time>
      </trkpt>
      <trkpt lat="43.96072" lon="1.88807">
        <ele>237</ele>
        <time>2022-09-01T17:25:48Z</time>
      </trkpt>
      <trkpt lat="43.96075" lon="1.88805">
        <ele>237</ele>
        <time>2022-09-01T17:25:49Z</time>
      </trkpt>
      <trkpt lat="43.96078" lon="1.88803">
        <ele>237.2</ele>
        <time>2022-09-01T17:25:50Z</time>
      </trkpt>
      <trkpt lat="43.9608" lon="1.88801">
        <ele>237.6</ele>
        <time>2022-09-01T17:25:51Z</time>
      </trkpt>
      <trkpt lat="43.96083" lon="1.88799">
        <ele>237.6</ele>
        <time>2022-09-01T17:25:52Z</time>
      </trkpt>
      <trkpt lat="43.96085" lon="1.88798">
        <ele>237.8</ele>
        <time>2022-09-01T17:25:53Z</time>
      </trkpt>
      <trkpt lat="43.96088" lon="1.88796">
        <ele>238</ele>
        <time>2022-09-01T17:25:54Z</time>
      </trkpt>
      <trkpt lat="43.9609" lon="1.88795">
        <ele>238.2</ele>
        <time>2022-09-01T17:25:55Z</time>
      </trkpt>
      <trkpt lat="43.96093" lon="1.88792">
        <ele>238.4</ele>
        <time>2022-09-01T17:25:56Z</time>
      </trkpt>
      <trkpt lat="43.96095" lon="1.88791">
        <ele>238.6</ele>
        <time>2022-09-01T17:25:57Z</time>
      </trkpt>
      <trkpt lat="43.96098" lon="1.88789">
        <ele>238.8</ele>
        <time>2022-09-01T17:25:58Z</time>
      </trkpt>
      <trkpt lat="43.961" lon="1.88787">
        <ele>239</ele>
        <time>2022-09-01T17:25:59Z</time>
      </trkpt>
      <trkpt lat="43.96102" lon="1.88785">
        <ele>239</ele>
        <time>2022-09-01T17:26:00Z</time>
      </trkpt>
      <trkpt lat="43.96104" lon="1.88783">
        <ele>239.2</ele>
        <time>2022-09-01T17:26:01Z</time>
      </trkpt>
      <trkpt lat="43.96107" lon="1.88781">
        <ele>239.2</ele>
        <time>2022-09-01T17:26:02Z</time>
      </trkpt>
      <trkpt lat="43.96109" lon="1.88779">
        <ele>239.2</ele>
        <time>2022-09-01T17:26:03Z</time>
      </trkpt>
      <trkpt lat="43.96111" lon="1.88777">
        <ele>239.6</ele>
        <time>2022-09-01T17:26:04Z</time>
      </trkpt>
      <trkpt lat="43.96113" lon="1.88775">
        <ele>239.8</ele>
        <time>2022-09-01T17:26:05Z</time>
      </trkpt>
      <trkpt lat="43.96115" lon="1.88772">
        <ele>240.4</ele>
        <time>2022-09-01T17:26:06Z</time>
      </trkpt>
      <trkpt lat="43.96117" lon="1.8877">
        <ele>240.6</ele>
        <time>2022-09-01T17:26:07Z</time>
      </trkpt>
      <trkpt lat="43.96118" lon="1.88768">
        <ele>240.8</ele>
        <time>2022-09-01T17:26:08Z</time>
      </trkpt>
      <trkpt lat="43.9612" lon="1.88766">
        <ele>241</ele>
        <time>2022-09-01T17:26:09Z</time>
      </trkpt>
      <trkpt lat="43.96122" lon="1.88764">
        <ele>241.2</ele>
        <time>2022-09-01T17:26:10Z</time>
      </trkpt>
      <trkpt lat="43.96123" lon="1.88762">
        <ele>241.4</ele>
        <time>2022-09-01T17:26:11Z</time>
      </trkpt>
      <trkpt lat="43.96124" lon="1.8876">
        <ele>241.6</ele>
        <time>2022-09-01T17:26:12Z</time>
      </trkpt>
      <trkpt lat="43.96124" lon="1.88758">
        <ele>241.6</ele>
        <time>2022-09-01T17:26:13Z</time>
      </trkpt>
      <trkpt lat="43.96123" lon="1.88757">
        <ele>241.8</ele>
        <time>2022-09-01T17:26:14Z</time>
      </trkpt>
      <trkpt lat="43.96121" lon="1.88756">
        <ele>241.8</ele>
        <time>2022-09-01T17:26:15Z</time>
      </trkpt>
      <trkpt lat="43.9612" lon="1.88756">
        <ele>242.2</ele>
        <time>2022-09-01T17:26:16Z</time>
      </trkpt>
      <trkpt lat="43.96118" lon="1.88755">
        <ele>242.2</ele>
        <time>2022-09-01T17:26:17Z</time>
      </trkpt>
      <trkpt lat="43.96117" lon="1.88754">
        <ele>242.6</ele>
        <time>2022-09-01T17:26:18Z</time>
      </trkpt>
      <trkpt lat="43.96116" lon="1.88752">
        <ele>242.6</ele>
        <time>2022-09-01T17:26:19Z</time>
      </trkpt>
      <trkpt lat="43.96115" lon="1.88751">
        <ele>242.8</ele>
        <time>2022-09-01T17:26:20Z</time>
      </trkpt>
      <trkpt lat="43.96113" lon="1.8875">
        <ele>242.8</ele>
        <time>2022-09-01T17:26:21Z</time>
      </trkpt>
      <trkpt lat="43.96112" lon="1.88749">
        <ele>243</ele>
        <time>2022-09-01T17:26:22Z</time>
      </trkpt>
      <trkpt lat="43.96111" lon="1.88748">
        <ele>243.4</ele>
        <time>2022-09-01T17:26:23Z</time>
      </trkpt>
      <trkpt lat="43.9611" lon="1.88746">
        <ele>243.6</ele>
        <time>2022-09-01T17:26:24Z</time>
      </trkpt>
      <trkpt lat="43.96108" lon="1.88745">
        <ele>243.8</ele>
        <time>2022-09-01T17:26:25Z</time>
      </trkpt>
      <trkpt lat="43.96107" lon="1.88743">
        <ele>243.6</ele>
        <time>2022-09-01T17:26:26Z</time>
      </trkpt>
      <trkpt lat="43.96105" lon="1.88742">
        <ele>243.6</ele>
        <time>2022-09-01T17:26:27Z</time>
      </trkpt>
      <trkpt lat="43.96104" lon="1.88741">
        <ele>243.8</ele>
        <time>2022-09-01T17:26:28Z</time>
      </trkpt>
      <trkpt lat="43.96102" lon="1.8874">
        <ele>244</ele>
        <time>2022-09-01T17:26:29Z</time>
      </trkpt>
      <trkpt lat="43.961" lon="1.88738">
        <ele>244.2</ele>
        <time>2022-09-01T17:26:30Z</time>
      </trkpt>
      <trkpt lat="43.96099" lon="1.88737">
        <ele>244.2</ele>
        <time>2022-09-01T17:26:31Z</time>
      </trkpt>
      <trkpt lat="43.96097" lon="1.88735">
        <ele>244.4</ele>
        <time>2022-09-01T17:26:32Z</time>
      </trkpt>
      <trkpt lat="43.96096" lon="1.88734">
        <ele>244.4</ele>
        <time>2022-09-01T17:26:33Z</time>
      </trkpt>
      <trkpt lat="43.96094" lon="1.88732">
        <ele>244.6</ele>
        <time>2022-09-01T17:26:34Z</time>
      </trkpt>
      <trkpt lat="43.96093" lon="1.88732">
        <ele>244.6</ele>
        <time>2022-09-01T17:26:35Z</time>
      </trkpt>
      <trkpt lat="43.96091" lon="1.8873">
        <ele>244.6</ele>
        <time>2022-09-01T17:26:36Z</time>
      </trkpt>
      <trkpt lat="43.9609" lon="1.88729">
        <ele>244.8</ele>
        <time>2022-09-01T17:26:37Z</time>
      </trkpt>
      <trkpt lat="43.96088" lon="1.88727">
        <ele>245</ele>
        <time>2022-09-01T17:26:38Z</time>
      </trkpt>
      <trkpt lat="43.96086" lon="1.88725">
        <ele>245.2</ele>
        <time>2022-09-01T17:26:39Z</time>
      </trkpt>
      <trkpt lat="43.96085" lon="1.88724">
        <ele>245.2</ele>
        <time>2022-09-01T17:26:40Z</time>
      </trkpt>
      <trkpt lat="43.96083" lon="1.88722">
        <ele>245.4</ele>
        <time>2022-09-01T17:26:41Z</time>
      </trkpt>
      <trkpt lat="43.96082" lon="1.8872">
        <ele>245.6</ele>
        <time>2022-09-01T17:26:42Z</time>
      </trkpt>
      <trkpt lat="43.9608" lon="1.88719">
        <ele>245.6</ele>
        <time>2022-09-01T17:26:43Z</time>
      </trkpt>
      <trkpt lat="43.96079" lon="1.88718">
        <ele>245.8</ele>
        <time>2022-09-01T17:26:44Z</time>
      </trkpt>
      <trkpt lat="43.96078" lon="1.88716">
        <ele>245.8</ele>
        <time>2022-09-01T17:26:45Z</time>
      </trkpt>
      <trkpt lat="43.96076" lon="1.88714">
        <ele>246</ele>
        <time>2022-09-01T17:26:46Z</time>
      </trkpt>
      <trkpt lat="43.96074" lon="1.88712">
        <ele>246</ele>
        <time>2022-09-01T17:26:47Z</time>
      </trkpt>
      <trkpt lat="43.96073" lon="1.8871">
        <ele>246.2</ele>
        <time>2022-09-01T17:26:48Z</time>
      </trkpt>
      <trkpt lat="43.96071" lon="1.88708">
        <ele>246.2</ele>
        <time>2022-09-01T17:26:49Z</time>
      </trkpt>
      <trkpt lat="43.9607" lon="1.88706">
        <ele>246.2</ele>
        <time>2022-09-01T17:26:50Z</time>
      </trkpt>
      <trkpt lat="43.96068" lon="1.88704">
        <ele>246.2</ele>
        <time>2022-09-01T17:26:51Z</time>
      </trkpt>
      <trkpt lat="43.96067" lon="1.88702">
        <ele>246.4</ele>
        <time>2022-09-01T17:26:52Z</time>
      </trkpt>
      <trkpt lat="43.96066" lon="1.88699">
        <ele>246.6</ele>
        <time>2022-09-01T17:26:53Z</time>
      </trkpt>
      <trkpt lat="43.96064" lon="1.88696">
        <ele>246.8</ele>
        <time>2022-09-01T17:26:54Z</time>
      </trkpt>
      <trkpt lat="43.96063" lon="1.88694">
        <ele>247</ele>
        <time>2022-09-01T17:26:55Z</time>
      </trkpt>
      <trkpt lat="43.96062" lon="1.88691">
        <ele>247.2</ele>
        <time>2022-09-01T17:26:56Z</time>
      </trkpt>
      <trkpt lat="43.96062" lon="1.88688">
        <ele>247.4</ele>
        <time>2022-09-01T17:26:57Z</time>
      </trkpt>
      <trkpt lat="43.96061" lon="1.88685">
        <ele>247.4</ele>
        <time>2022-09-01T17:26:58Z</time>
      </trkpt>
      <trkpt lat="43.96061" lon="1.88682">
        <ele>247.4</ele>
        <time>2022-09-01T17:26:59Z</time>
      </trkpt>
      <trkpt lat="43.96061" lon="1.88678">
        <ele>247.4</ele>
        <time>2022-09-01T17:27:00Z</time>
      </trkpt>
      <trkpt lat="43.96061" lon="1.88675">
        <ele>247.6</ele>
        <time>2022-09-01T17:27:01Z</time>
      </trkpt>
      <trkpt lat="43.96061" lon="1.88671">
        <ele>247.6</ele>
        <time>2022-09-01T17:27:02Z</time>
      </trkpt>
      <trkpt lat="43.96061" lon="1.88667">
        <ele>247.6</ele>
        <time>2022-09-01T17:27:03Z</time>
      </trkpt>
      <trkpt lat="43.96061" lon="1.88664">
        <ele>247.6</ele>
        <time>2022-09-01T17:27:04Z</time>
      </trkpt>
      <trkpt lat="43.9606" lon="1.88659">
        <ele>247.8</ele>
        <time>2022-09-01T17:27:05Z</time>
      </trkpt>
      <trkpt lat="43.9606" lon="1.88655">
        <ele>247.8</ele>
        <time>2022-09-01T17:27:06Z</time>
      </trkpt>
      <trkpt lat="43.96059" lon="1.88651">
        <ele>248</ele>
        <time>2022-09-01T17:27:07Z</time>
      </trkpt>
      <trkpt lat="43.96059" lon="1.88647">
        <ele>248</ele>
        <time>2022-09-01T17:27:08Z</time>
      </trkpt>
      <trkpt lat="43.96059" lon="1.88643">
        <ele>248</ele>
        <time>2022-09-01T17:27:09Z</time>
      </trkpt>
      <trkpt lat="43.96058" lon="1.88638">
        <ele>248.2</ele>
        <time>2022-09-01T17:27:10Z</time>
      </trkpt>
      <trkpt lat="43.96057" lon="1.88634">
        <ele>248.4</ele>
        <time>2022-09-01T17:27:11Z</time>
      </trkpt>
      <trkpt lat="43.96057" lon="1.88629">
        <ele>248.4</ele>
        <time>2022-09-01T17:27:12Z</time>
      </trkpt>
      <trkpt lat="43.96056" lon="1.88625">
        <ele>248.4</ele>
        <time>2022-09-01T17:27:13Z</time>
      </trkpt>
      <trkpt lat="43.96055" lon="1.88616">
        <ele>248.6</ele>
        <time>2022-09-01T17:27:15Z</time>
      </trkpt>
      <trkpt lat="43.96052" lon="1.88591">
        <ele>248.6</ele>
        <time>2022-09-01T17:27:20Z</time>
      </trkpt>
      <trkpt lat="43.96051" lon="1.88587">
        <ele>248.6</ele>
        <time>2022-09-01T17:27:21Z</time>
      </trkpt>
      <trkpt lat="43.96051" lon="1.88582">
        <ele>248.4</ele>
        <time>2022-09-01T17:27:22Z</time>
      </trkpt>
      <trkpt lat="43.9605" lon="1.88578">
        <ele>248.4</ele>
        <time>2022-09-01T17:27:23Z</time>
      </trkpt>
      <trkpt lat="43.9605" lon="1.88574">
        <ele>248.6</ele>
        <time>2022-09-01T17:27:24Z</time>
      </trkpt>
      <trkpt lat="43.96049" lon="1.88565">
        <ele>248.4</ele>
        <time>2022-09-01T17:27:26Z</time>
      </trkpt>
      <trkpt lat="43.96049" lon="1.88556">
        <ele>248.4</ele>
        <time>2022-09-01T17:27:28Z</time>
      </trkpt>
      <trkpt lat="43.96051" lon="1.88553">
        <ele>248.4</ele>
        <time>2022-09-01T17:27:29Z</time>
      </trkpt>
      <trkpt lat="43.96053" lon="1.8855">
        <ele>248.6</ele>
        <time>2022-09-01T17:27:30Z</time>
      </trkpt>
      <trkpt lat="43.96055" lon="1.88549">
        <ele>248.6</ele>
        <time>2022-09-01T17:27:31Z</time>
      </trkpt>
      <trkpt lat="43.96057" lon="1.88547">
        <ele>248.6</ele>
        <time>2022-09-01T17:27:32Z</time>
      </trkpt>
      <trkpt lat="43.96058" lon="1.88546">
        <ele>248.8</ele>
        <time>2022-09-01T17:27:33Z</time>
      </trkpt>
      <trkpt lat="43.9606" lon="1.88546">
        <ele>248.8</ele>
        <time>2022-09-01T17:27:34Z</time>
      </trkpt>
      <trkpt lat="43.96062" lon="1.88545">
        <ele>249.2</ele>
        <time>2022-09-01T17:27:35Z</time>
      </trkpt>
      <trkpt lat="43.96064" lon="1.88544">
        <ele>249.4</ele>
        <time>2022-09-01T17:27:36Z</time>
      </trkpt>
      <trkpt lat="43.96068" lon="1.88541">
        <ele>250</ele>
        <time>2022-09-01T17:27:38Z</time>
      </trkpt>
      <trkpt lat="43.9607" lon="1.88541">
        <ele>250.2</ele>
        <time>2022-09-01T17:27:39Z</time>
      </trkpt>
      <trkpt lat="43.96072" lon="1.88541">
        <ele>250.8</ele>
        <time>2022-09-01T17:27:40Z</time>
      </trkpt>
      <trkpt lat="43.96074" lon="1.88541">
        <ele>251</ele>
        <time>2022-09-01T17:27:41Z</time>
      </trkpt>
      <trkpt lat="43.96075" lon="1.88542">
        <ele>251.4</ele>
        <time>2022-09-01T17:27:42Z</time>
      </trkpt>
      <trkpt lat="43.96077" lon="1.88543">
        <ele>251.6</ele>
        <time>2022-09-01T17:27:43Z</time>
      </trkpt>
      <trkpt lat="43.96079" lon="1.88544">
        <ele>251.8</ele>
        <time>2022-09-01T17:27:44Z</time>
      </trkpt>
      <trkpt lat="43.9608" lon="1.88545">
        <ele>252.2</ele>
        <time>2022-09-01T17:27:45Z</time>
      </trkpt>
      <trkpt lat="43.96082" lon="1.88546">
        <ele>252.4</ele>
        <time>2022-09-01T17:27:46Z</time>
      </trkpt>
      <trkpt lat="43.96084" lon="1.88547">
        <ele>253</ele>
        <time>2022-09-01T17:27:47Z</time>
      </trkpt>
      <trkpt lat="43.96086" lon="1.88547">
        <ele>253.4</ele>
        <time>2022-09-01T17:27:48Z</time>
      </trkpt>
      <trkpt lat="43.96088" lon="1.88547">
        <ele>254</ele>
        <time>2022-09-01T17:27:49Z</time>
      </trkpt>
      <trkpt lat="43.9609" lon="1.88547">
        <ele>254.2</ele>
        <time>2022-09-01T17:27:50Z</time>
      </trkpt>
      <trkpt lat="43.96092" lon="1.88547">
        <ele>254.8</ele>
        <time>2022-09-01T17:27:51Z</time>
      </trkpt>
      <trkpt lat="43.96094" lon="1.88547">
        <ele>255.2</ele>
        <time>2022-09-01T17:27:52Z</time>
      </trkpt>
      <trkpt lat="43.96097" lon="1.88548">
        <ele>255.4</ele>
        <time>2022-09-01T17:27:53Z</time>
      </trkpt>
      <trkpt lat="43.961" lon="1.88549">
        <ele>256</ele>
        <time>2022-09-01T17:27:54Z</time>
      </trkpt>
      <trkpt lat="43.96103" lon="1.88548">
        <ele>256.4</ele>
        <time>2022-09-01T17:27:55Z</time>
      </trkpt>
      <trkpt lat="43.96106" lon="1.88548">
        <ele>257</ele>
        <time>2022-09-01T17:27:56Z</time>
      </trkpt>
      <trkpt lat="43.96108" lon="1.88549">
        <ele>257.2</ele>
        <time>2022-09-01T17:27:57Z</time>
      </trkpt>
      <trkpt lat="43.9611" lon="1.88549">
        <ele>257.6</ele>
        <time>2022-09-01T17:27:58Z</time>
      </trkpt>
      <trkpt lat="43.96112" lon="1.88548">
        <ele>258.4</ele>
        <time>2022-09-01T17:27:59Z</time>
      </trkpt>
      <trkpt lat="43.96113" lon="1.88545">
        <ele>258.6</ele>
        <time>2022-09-01T17:28:00Z</time>
      </trkpt>
      <trkpt lat="43.96114" lon="1.88542">
        <ele>259.2</ele>
        <time>2022-09-01T17:28:01Z</time>
      </trkpt>
      <trkpt lat="43.96116" lon="1.8854">
        <ele>259.4</ele>
        <time>2022-09-01T17:28:02Z</time>
      </trkpt>
      <trkpt lat="43.96118" lon="1.88539">
        <ele>260.2</ele>
        <time>2022-09-01T17:28:03Z</time>
      </trkpt>
      <trkpt lat="43.96119" lon="1.88538">
        <ele>260.4</ele>
        <time>2022-09-01T17:28:04Z</time>
      </trkpt>
      <trkpt lat="43.9612" lon="1.88537">
        <ele>260.8</ele>
        <time>2022-09-01T17:28:05Z</time>
      </trkpt>
      <trkpt lat="43.96121" lon="1.88536">
        <ele>261</ele>
        <time>2022-09-01T17:28:06Z</time>
      </trkpt>
      <trkpt lat="43.96123" lon="1.88534">
        <ele>261.4</ele>
        <time>2022-09-01T17:28:07Z</time>
      </trkpt>
      <trkpt lat="43.96123" lon="1.88532">
        <ele>261.8</ele>
        <time>2022-09-01T17:28:08Z</time>
      </trkpt>
      <trkpt lat="43.96124" lon="1.8853">
        <ele>261.8</ele>
        <time>2022-09-01T17:28:09Z</time>
      </trkpt>
      <trkpt lat="43.96126" lon="1.88528">
        <ele>262.2</ele>
        <time>2022-09-01T17:28:10Z</time>
      </trkpt>
      <trkpt lat="43.96128" lon="1.88527">
        <ele>262.4</ele>
        <time>2022-09-01T17:28:11Z</time>
      </trkpt>
      <trkpt lat="43.9613" lon="1.88527">
        <ele>262.8</ele>
        <time>2022-09-01T17:28:12Z</time>
      </trkpt>
      <trkpt lat="43.96132" lon="1.88526">
        <ele>263</ele>
        <time>2022-09-01T17:28:13Z</time>
      </trkpt>
      <trkpt lat="43.96134" lon="1.88527">
        <ele>263</ele>
        <time>2022-09-01T17:28:14Z</time>
      </trkpt>
      <trkpt lat="43.96135" lon="1.88528">
        <ele>263.2</ele>
        <time>2022-09-01T17:28:15Z</time>
      </trkpt>
      <trkpt lat="43.96137" lon="1.88528">
        <ele>263.2</ele>
        <time>2022-09-01T17:28:16Z</time>
      </trkpt>
      <trkpt lat="43.96138" lon="1.88529">
        <ele>263.2</ele>
        <time>2022-09-01T17:28:17Z</time>
      </trkpt>
      <trkpt lat="43.9614" lon="1.8853">
        <ele>263.4</ele>
        <time>2022-09-01T17:28:18Z</time>
      </trkpt>
      <trkpt lat="43.96141" lon="1.88531">
        <ele>263.6</ele>
        <time>2022-09-01T17:28:19Z</time>
      </trkpt>
      <trkpt lat="43.96143" lon="1.88532">
        <ele>263.6</ele>
        <time>2022-09-01T17:28:20Z</time>
      </trkpt>
      <trkpt lat="43.96145" lon="1.88533">
        <ele>263.8</ele>
        <time>2022-09-01T17:28:21Z</time>
      </trkpt>
      <trkpt lat="43.96146" lon="1.88534">
        <ele>263.8</ele>
        <time>2022-09-01T17:28:22Z</time>
      </trkpt>
      <trkpt lat="43.96148" lon="1.88536">
        <ele>263.8</ele>
        <time>2022-09-01T17:28:23Z</time>
      </trkpt>
      <trkpt lat="43.96149" lon="1.88537">
        <ele>264</ele>
        <time>2022-09-01T17:28:24Z</time>
      </trkpt>
      <trkpt lat="43.96151" lon="1.88538">
        <ele>264</ele>
        <time>2022-09-01T17:28:25Z</time>
      </trkpt>
      <trkpt lat="43.96154" lon="1.8854">
        <ele>264</ele>
        <time>2022-09-01T17:28:26Z</time>
      </trkpt>
      <trkpt lat="43.96155" lon="1.88541">
        <ele>264.2</ele>
        <time>2022-09-01T17:28:27Z</time>
      </trkpt>
      <trkpt lat="43.96157" lon="1.88543">
        <ele>264.4</ele>
        <time>2022-09-01T17:28:28Z</time>
      </trkpt>
      <trkpt lat="43.96159" lon="1.88544">
        <ele>264.4</ele>
        <time>2022-09-01T17:28:29Z</time>
      </trkpt>
      <trkpt lat="43.96162" lon="1.88545">
        <ele>264.6</ele>
        <time>2022-09-01T17:28:30Z</time>
      </trkpt>
      <trkpt lat="43.96164" lon="1.88547">
        <ele>264.8</ele>
        <time>2022-09-01T17:28:31Z</time>
      </trkpt>
      <trkpt lat="43.96166" lon="1.88548">
        <ele>265</ele>
        <time>2022-09-01T17:28:32Z</time>
      </trkpt>
      <trkpt lat="43.96168" lon="1.8855">
        <ele>265.2</ele>
        <time>2022-09-01T17:28:33Z</time>
      </trkpt>
      <trkpt lat="43.9617" lon="1.88551">
        <ele>265.2</ele>
        <time>2022-09-01T17:28:34Z</time>
      </trkpt>
      <trkpt lat="43.96172" lon="1.88552">
        <ele>265.2</ele>
        <time>2022-09-01T17:28:35Z</time>
      </trkpt>
      <trkpt lat="43.96174" lon="1.88552">
        <ele>265.4</ele>
        <time>2022-09-01T17:28:36Z</time>
      </trkpt>
      <trkpt lat="43.96176" lon="1.88552">
        <ele>265.4</ele>
        <time>2022-09-01T17:28:37Z</time>
      </trkpt>
      <trkpt lat="43.96177" lon="1.88551">
        <ele>265.4</ele>
        <time>2022-09-01T17:28:38Z</time>
      </trkpt>
      <trkpt lat="43.96178" lon="1.8855">
        <ele>265.6</ele>
        <time>2022-09-01T17:28:39Z</time>
      </trkpt>
      <trkpt lat="43.9618" lon="1.88549">
        <ele>265.6</ele>
        <time>2022-09-01T17:28:40Z</time>
      </trkpt>
      <trkpt lat="43.96182" lon="1.88546">
        <ele>266</ele>
        <time>2022-09-01T17:29:15Z</time>
      </trkpt>
      <trkpt lat="43.96184" lon="1.88544">
        <ele>266</ele>
        <time>2022-09-01T17:29:16Z</time>
      </trkpt>
      <trkpt lat="43.96195" lon="1.88529">
        <ele>267</ele>
        <time>2022-09-01T17:29:23Z</time>
      </trkpt>
      <trkpt lat="43.96199" lon="1.88523">
        <ele>267.4</ele>
        <time>2022-09-01T17:29:26Z</time>
      </trkpt>
      <trkpt lat="43.962" lon="1.88521">
        <ele>267.6</ele>
        <time>2022-09-01T17:29:27Z</time>
      </trkpt>
      <trkpt lat="43.96202" lon="1.8852">
        <ele>267.8</ele>
        <time>2022-09-01T17:29:28Z</time>
      </trkpt>
      <trkpt lat="43.96205" lon="1.88516">
        <ele>268.2</ele>
        <time>2022-09-01T17:29:30Z</time>
      </trkpt>
      <trkpt lat="43.96206" lon="1.88513">
        <ele>268.2</ele>
        <time>2022-09-01T17:29:31Z</time>
      </trkpt>
      <trkpt lat="43.96207" lon="1.88512">
        <ele>268.4</ele>
        <time>2022-09-01T17:29:32Z</time>
      </trkpt>
      <trkpt lat="43.96208" lon="1.8851">
        <ele>268.6</ele>
        <time>2022-09-01T17:29:33Z</time>
      </trkpt>
      <trkpt lat="43.96209" lon="1.88508">
        <ele>268.8</ele>
        <time>2022-09-01T17:29:34Z</time>
      </trkpt>
      <trkpt lat="43.9621" lon="1.88506">
        <ele>269.2</ele>
        <time>2022-09-01T17:29:35Z</time>
      </trkpt>
      <trkpt lat="43.96211" lon="1.88505">
        <ele>269.4</ele>
        <time>2022-09-01T17:29:36Z</time>
      </trkpt>
      <trkpt lat="43.96212" lon="1.88504">
        <ele>270</ele>
        <time>2022-09-01T17:29:37Z</time>
      </trkpt>
      <trkpt lat="43.96213" lon="1.88502">
        <ele>270.4</ele>
        <time>2022-09-01T17:29:38Z</time>
      </trkpt>
      <trkpt lat="43.96214" lon="1.88501">
        <ele>270.6</ele>
        <time>2022-09-01T17:29:39Z</time>
      </trkpt>
      <trkpt lat="43.96215" lon="1.885">
        <ele>270.8</ele>
        <time>2022-09-01T17:29:40Z</time>
      </trkpt>
      <trkpt lat="43.96216" lon="1.88499">
        <ele>271</ele>
        <time>2022-09-01T17:29:41Z</time>
      </trkpt>
      <trkpt lat="43.96218" lon="1.88497">
        <ele>271</ele>
        <time>2022-09-01T17:29:42Z</time>
      </trkpt>
      <trkpt lat="43.9622" lon="1.88496">
        <ele>271.2</ele>
        <time>2022-09-01T17:29:43Z</time>
      </trkpt>
      <trkpt lat="43.96221" lon="1.88495">
        <ele>271.6</ele>
        <time>2022-09-01T17:29:44Z</time>
      </trkpt>
      <trkpt lat="43.96222" lon="1.88493">
        <ele>271.8</ele>
        <time>2022-09-01T17:29:45Z</time>
      </trkpt>
      <trkpt lat="43.96223" lon="1.88492">
        <ele>272.2</ele>
        <time>2022-09-01T17:29:46Z</time>
      </trkpt>
      <trkpt lat="43.96225" lon="1.8849">
        <ele>272.2</ele>
        <time>2022-09-01T17:29:47Z</time>
      </trkpt>
      <trkpt lat="43.96226" lon="1.88489">
        <ele>272.6</ele>
        <time>2022-09-01T17:29:48Z</time>
      </trkpt>
      <trkpt lat="43.96227" lon="1.88488">
        <ele>272.6</ele>
        <time>2022-09-01T17:29:49Z</time>
      </trkpt>
      <trkpt lat="43.96228" lon="1.88487">
        <ele>273</ele>
        <time>2022-09-01T17:29:50Z</time>
      </trkpt>
      <trkpt lat="43.96229" lon="1.88486">
        <ele>273.6</ele>
        <time>2022-09-01T17:29:51Z</time>
      </trkpt>
      <trkpt lat="43.9623" lon="1.88484">
        <ele>273.8</ele>
        <time>2022-09-01T17:29:52Z</time>
      </trkpt>
      <trkpt lat="43.96232" lon="1.88483">
        <ele>274</ele>
        <time>2022-09-01T17:29:53Z</time>
      </trkpt>
      <trkpt lat="43.96233" lon="1.88482">
        <ele>274.2</ele>
        <time>2022-09-01T17:29:54Z</time>
      </trkpt>
      <trkpt lat="43.96234" lon="1.8848">
        <ele>274.4</ele>
        <time>2022-09-01T17:29:55Z</time>
      </trkpt>
      <trkpt lat="43.96235" lon="1.88479">
        <ele>274.4</ele>
        <time>2022-09-01T17:29:56Z</time>
      </trkpt>
      <trkpt lat="43.96236" lon="1.88477">
        <ele>274.6</ele>
        <time>2022-09-01T17:29:57Z</time>
      </trkpt>
      <trkpt lat="43.96237" lon="1.88476">
        <ele>274.8</ele>
        <time>2022-09-01T17:29:58Z</time>
      </trkpt>
      <trkpt lat="43.96238" lon="1.88475">
        <ele>275.2</ele>
        <time>2022-09-01T17:29:59Z</time>
      </trkpt>
      <trkpt lat="43.96239" lon="1.88474">
        <ele>275.6</ele>
        <time>2022-09-01T17:30:00Z</time>
      </trkpt>
      <trkpt lat="43.9624" lon="1.88472">
        <ele>275.8</ele>
        <time>2022-09-01T17:30:01Z</time>
      </trkpt>
      <trkpt lat="43.96241" lon="1.88471">
        <ele>276.2</ele>
        <time>2022-09-01T17:30:02Z</time>
      </trkpt>
      <trkpt lat="43.96243" lon="1.88471">
        <ele>276.4</ele>
        <time>2022-09-01T17:30:03Z</time>
      </trkpt>
      <trkpt lat="43.96244" lon="1.8847">
        <ele>276.8</ele>
        <time>2022-09-01T17:30:04Z</time>
      </trkpt>
      <trkpt lat="43.96246" lon="1.88469">
        <ele>277</ele>
        <time>2022-09-01T17:30:05Z</time>
      </trkpt>
      <trkpt lat="43.96247" lon="1.88469">
        <ele>277.2</ele>
        <time>2022-09-01T17:30:06Z</time>
      </trkpt>
      <trkpt lat="43.96249" lon="1.88468">
        <ele>277.4</ele>
        <time>2022-09-01T17:30:07Z</time>
      </trkpt>
      <trkpt lat="43.9625" lon="1.88467">
        <ele>277.6</ele>
        <time>2022-09-01T17:30:08Z</time>
      </trkpt>
      <trkpt lat="43.96251" lon="1.88467">
        <ele>278</ele>
        <time>2022-09-01T17:30:09Z</time>
      </trkpt>
      <trkpt lat="43.96252" lon="1.88466">
        <ele>278.2</ele>
        <time>2022-09-01T17:30:10Z</time>
      </trkpt>
      <trkpt lat="43.96253" lon="1.88464">
        <ele>278.2</ele>
        <time>2022-09-01T17:30:11Z</time>
      </trkpt>
      <trkpt lat="43.96255" lon="1.88463">
        <ele>278.4</ele>
        <time>2022-09-01T17:30:12Z</time>
      </trkpt>
      <trkpt lat="43.96256" lon="1.88461">
        <ele>278.6</ele>
        <time>2022-09-01T17:30:13Z</time>
      </trkpt>
      <trkpt lat="43.96257" lon="1.88459">
        <ele>278.8</ele>
        <time>2022-09-01T17:30:14Z</time>
      </trkpt>
      <trkpt lat="43.96259" lon="1.88457">
        <ele>279</ele>
        <time>2022-09-01T17:30:15Z</time>
      </trkpt>
      <trkpt lat="43.9626" lon="1.88456">
        <ele>279.2</ele>
        <time>2022-09-01T17:30:16Z</time>
      </trkpt>
      <trkpt lat="43.96261" lon="1.88456">
        <ele>279.4</ele>
        <time>2022-09-01T17:30:17Z</time>
      </trkpt>
      <trkpt lat="43.96262" lon="1.88456">
        <ele>279.8</ele>
        <time>2022-09-01T17:30:18Z</time>
      </trkpt>
      <trkpt lat="43.96263" lon="1.88457">
        <ele>280</ele>
        <time>2022-09-01T17:30:19Z</time>
      </trkpt>
      <trkpt lat="43.96264" lon="1.88458">
        <ele>280.2</ele>
        <time>2022-09-01T17:30:20Z</time>
      </trkpt>
      <trkpt lat="43.96266" lon="1.88459">
        <ele>280.4</ele>
        <time>2022-09-01T17:30:21Z</time>
      </trkpt>
      <trkpt lat="43.96267" lon="1.88459">
        <ele>280.6</ele>
        <time>2022-09-01T17:30:22Z</time>
      </trkpt>
      <trkpt lat="43.96268" lon="1.8846">
        <ele>280.8</ele>
        <time>2022-09-01T17:30:23Z</time>
      </trkpt>
      <trkpt lat="43.96269" lon="1.88461">
        <ele>281</ele>
        <time>2022-09-01T17:30:24Z</time>
      </trkpt>
      <trkpt lat="43.96271" lon="1.88462">
        <ele>281.2</ele>
        <time>2022-09-01T17:30:25Z</time>
      </trkpt>
      <trkpt lat="43.96272" lon="1.88462">
        <ele>281.2</ele>
        <time>2022-09-01T17:30:26Z</time>
      </trkpt>
      <trkpt lat="43.96273" lon="1.88463">
        <ele>281.4</ele>
        <time>2022-09-01T17:30:27Z</time>
      </trkpt>
      <trkpt lat="43.96274" lon="1.88463">
        <ele>281.6</ele>
        <time>2022-09-01T17:30:28Z</time>
      </trkpt>
      <trkpt lat="43.96275" lon="1.88464">
        <ele>281.6</ele>
        <time>2022-09-01T17:30:29Z</time>
      </trkpt>
      <trkpt lat="43.96276" lon="1.88465">
        <ele>281.8</ele>
        <time>2022-09-01T17:30:30Z</time>
      </trkpt>
      <trkpt lat="43.96277" lon="1.88466">
        <ele>281.8</ele>
        <time>2022-09-01T17:30:31Z</time>
      </trkpt>
      <trkpt lat="43.96278" lon="1.88467">
        <ele>282</ele>
        <time>2022-09-01T17:30:32Z</time>
      </trkpt>
      <trkpt lat="43.9628" lon="1.88468">
        <ele>282</ele>
        <time>2022-09-01T17:30:33Z</time>
      </trkpt>
      <trkpt lat="43.96282" lon="1.88469">
        <ele>282</ele>
        <time>2022-09-01T17:30:34Z</time>
      </trkpt>
      <trkpt lat="43.96283" lon="1.8847">
        <ele>282</ele>
        <time>2022-09-01T17:30:35Z</time>
      </trkpt>
      <trkpt lat="43.96285" lon="1.88471">
        <ele>282</ele>
        <time>2022-09-01T17:30:36Z</time>
      </trkpt>
      <trkpt lat="43.96287" lon="1.88472">
        <ele>282.2</ele>
        <time>2022-09-01T17:30:37Z</time>
      </trkpt>
      <trkpt lat="43.96289" lon="1.88471">
        <ele>282.2</ele>
        <time>2022-09-01T17:30:38Z</time>
      </trkpt>
      <trkpt lat="43.96291" lon="1.8847">
        <ele>282.2</ele>
        <time>2022-09-01T17:30:39Z</time>
      </trkpt>
      <trkpt lat="43.96292" lon="1.88469">
        <ele>282.2</ele>
        <time>2022-09-01T17:30:40Z</time>
      </trkpt>
      <trkpt lat="43.96293" lon="1.88467">
        <ele>282.2</ele>
        <time>2022-09-01T17:30:41Z</time>
      </trkpt>
      <trkpt lat="43.96294" lon="1.88465">
        <ele>282.2</ele>
        <time>2022-09-01T17:30:42Z</time>
      </trkpt>
      <trkpt lat="43.96295" lon="1.88463">
        <ele>282.2</ele>
        <time>2022-09-01T17:30:43Z</time>
      </trkpt>
      <trkpt lat="43.96296" lon="1.88461">
        <ele>282.2</ele>
        <time>2022-09-01T17:30:44Z</time>
      </trkpt>
      <trkpt lat="43.96296" lon="1.88459">
        <ele>282.2</ele>
        <time>2022-09-01T17:30:45Z</time>
      </trkpt>
      <trkpt lat="43.96296" lon="1.88456">
        <ele>282.4</ele>
        <time>2022-09-01T17:30:46Z</time>
      </trkpt>
      <trkpt lat="43.96296" lon="1.88454">
        <ele>282.4</ele>
        <time>2022-09-01T17:30:47Z</time>
      </trkpt>
      <trkpt lat="43.96297" lon="1.88451">
        <ele>282.4</ele>
        <time>2022-09-01T17:30:48Z</time>
      </trkpt>
      <trkpt lat="43.96298" lon="1.88444">
        <ele>282.6</ele>
        <time>2022-09-01T17:30:51Z</time>
      </trkpt>
      <trkpt lat="43.96299" lon="1.88439">
        <ele>282.6</ele>
        <time>2022-09-01T17:30:53Z</time>
      </trkpt>
      <trkpt lat="43.96302" lon="1.8843">
        <ele>282.4</ele>
        <time>2022-09-01T17:30:57Z</time>
      </trkpt>
      <trkpt lat="43.96304" lon="1.8843">
        <ele>282.4</ele>
        <time>2022-09-01T17:30:58Z</time>
      </trkpt>
      <trkpt lat="43.96305" lon="1.88429">
        <ele>282.4</ele>
        <time>2022-09-01T17:30:59Z</time>
      </trkpt>
      <trkpt lat="43.96307" lon="1.88433">
        <ele>282.2</ele>
        <time>2022-09-01T17:31:01Z</time>
      </trkpt>
      <trkpt lat="43.96307" lon="1.88435">
        <ele>282.2</ele>
        <time>2022-09-01T17:31:02Z</time>
      </trkpt>
      <trkpt lat="43.96307" lon="1.88438">
        <ele>281.2</ele>
        <time>2022-09-01T17:32:59Z</time>
      </trkpt>
      <trkpt lat="43.96307" lon="1.88443">
        <ele>281.2</ele>
        <time>2022-09-01T17:33:01Z</time>
      </trkpt>
      <trkpt lat="43.96305" lon="1.88455">
        <ele>281</ele>
        <time>2022-09-01T17:33:05Z</time>
      </trkpt>
      <trkpt lat="43.96303" lon="1.8847">
        <ele>280.8</ele>
        <time>2022-09-01T17:33:09Z</time>
      </trkpt>
      <trkpt lat="43.96301" lon="1.88486">
        <ele>280.2</ele>
        <time>2022-09-01T17:33:13Z</time>
      </trkpt>
      <trkpt lat="43.96298" lon="1.885">
        <ele>279.8</ele>
        <time>2022-09-01T17:33:16Z</time>
      </trkpt>
      <trkpt lat="43.96297" lon="1.88505">
        <ele>279.6</ele>
        <time>2022-09-01T17:33:17Z</time>
      </trkpt>
      <trkpt lat="43.96297" lon="1.88517">
        <ele>279</ele>
        <time>2022-09-01T17:33:19Z</time>
      </trkpt>
      <trkpt lat="43.96298" lon="1.88523">
        <ele>278.6</ele>
        <time>2022-09-01T17:33:20Z</time>
      </trkpt>
      <trkpt lat="43.963" lon="1.8853">
        <ele>278</ele>
        <time>2022-09-01T17:33:21Z</time>
      </trkpt>
      <trkpt lat="43.96302" lon="1.88538">
        <ele>277.8</ele>
        <time>2022-09-01T17:33:22Z</time>
      </trkpt>
      <trkpt lat="43.96309" lon="1.88552">
        <ele>277</ele>
        <time>2022-09-01T17:33:24Z</time>
      </trkpt>
      <trkpt lat="43.96315" lon="1.88559">
        <ele>276.8</ele>
        <time>2022-09-01T17:33:25Z</time>
      </trkpt>
      <trkpt lat="43.96321" lon="1.88565">
        <ele>275.6</ele>
        <time>2022-09-01T17:33:26Z</time>
      </trkpt>
      <trkpt lat="43.96328" lon="1.88569">
        <ele>275.2</ele>
        <time>2022-09-01T17:33:27Z</time>
      </trkpt>
      <trkpt lat="43.96334" lon="1.88574">
        <ele>273.8</ele>
        <time>2022-09-01T17:33:28Z</time>
      </trkpt>
      <trkpt lat="43.96339" lon="1.88577">
        <ele>273.2</ele>
        <time>2022-09-01T17:33:29Z</time>
      </trkpt>
      <trkpt lat="43.96343" lon="1.8858">
        <ele>272.4</ele>
        <time>2022-09-01T17:33:30Z</time>
      </trkpt>
      <trkpt lat="43.96345" lon="1.88584">
        <ele>270.8</ele>
        <time>2022-09-01T17:33:31Z</time>
      </trkpt>
      <trkpt lat="43.96348" lon="1.88588">
        <ele>270</ele>
        <time>2022-09-01T17:33:32Z</time>
      </trkpt>
      <trkpt lat="43.96351" lon="1.8859">
        <ele>268.6</ele>
        <time>2022-09-01T17:33:33Z</time>
      </trkpt>
      <trkpt lat="43.96355" lon="1.88589">
        <ele>268.2</ele>
        <time>2022-09-01T17:33:34Z</time>
      </trkpt>
      <trkpt lat="43.96359" lon="1.88588">
        <ele>266.6</ele>
        <time>2022-09-01T17:33:35Z</time>
      </trkpt>
      <trkpt lat="43.96367" lon="1.88583">
        <ele>265</ele>
        <time>2022-09-01T17:33:37Z</time>
      </trkpt>
      <trkpt lat="43.96371" lon="1.88581">
        <ele>264.8</ele>
        <time>2022-09-01T17:33:38Z</time>
      </trkpt>
      <trkpt lat="43.96376" lon="1.8858">
        <ele>264.2</ele>
        <time>2022-09-01T17:33:39Z</time>
      </trkpt>
      <trkpt lat="43.96381" lon="1.88578">
        <ele>263.6</ele>
        <time>2022-09-01T17:33:40Z</time>
      </trkpt>
      <trkpt lat="43.96403" lon="1.88571">
        <ele>262</ele>
        <time>2022-09-01T17:33:44Z</time>
      </trkpt>
      <trkpt lat="43.96409" lon="1.8857">
        <ele>261.8</ele>
        <time>2022-09-01T17:33:45Z</time>
      </trkpt>
      <trkpt lat="43.96416" lon="1.88569">
        <ele>261.2</ele>
        <time>2022-09-01T17:33:46Z</time>
      </trkpt>
      <trkpt lat="43.96422" lon="1.88569">
        <ele>260.8</ele>
        <time>2022-09-01T17:33:47Z</time>
      </trkpt>
      <trkpt lat="43.96444" lon="1.88569">
        <ele>259.8</ele>
        <time>2022-09-01T17:33:50Z</time>
      </trkpt>
      <trkpt lat="43.96451" lon="1.8857">
        <ele>259.4</ele>
        <time>2022-09-01T17:33:51Z</time>
      </trkpt>
      <trkpt lat="43.96474" lon="1.88572">
        <ele>258</ele>
        <time>2022-09-01T17:33:54Z</time>
      </trkpt>
      <trkpt lat="43.96489" lon="1.88574">
        <ele>257.2</ele>
        <time>2022-09-01T17:33:56Z</time>
      </trkpt>
      <trkpt lat="43.96504" lon="1.88576">
        <ele>256.8</ele>
        <time>2022-09-01T17:33:58Z</time>
      </trkpt>
      <trkpt lat="43.96511" lon="1.88577">
        <ele>256.6</ele>
        <time>2022-09-01T17:33:59Z</time>
      </trkpt>
      <trkpt lat="43.96519" lon="1.88578">
        <ele>256.2</ele>
        <time>2022-09-01T17:34:00Z</time>
      </trkpt>
      <trkpt lat="43.96526" lon="1.88578">
        <ele>256</ele>
        <time>2022-09-01T17:34:01Z</time>
      </trkpt>
      <trkpt lat="43.96532" lon="1.88579">
        <ele>255.8</ele>
        <time>2022-09-01T17:34:02Z</time>
      </trkpt>
      <trkpt lat="43.96538" lon="1.88579">
        <ele>255.4</ele>
        <time>2022-09-01T17:34:03Z</time>
      </trkpt>
      <trkpt lat="43.96542" lon="1.8858">
        <ele>255.2</ele>
        <time>2022-09-01T17:34:04Z</time>
      </trkpt>
      <trkpt lat="43.96546" lon="1.8858">
        <ele>255</ele>
        <time>2022-09-01T17:34:05Z</time>
      </trkpt>
      <trkpt lat="43.96549" lon="1.8858">
        <ele>254.8</ele>
        <time>2022-09-01T17:34:06Z</time>
      </trkpt>
      <trkpt lat="43.96552" lon="1.8858">
        <ele>254.6</ele>
        <time>2022-09-01T17:34:07Z</time>
      </trkpt>
      <trkpt lat="43.96555" lon="1.8858">
        <ele>254.4</ele>
        <time>2022-09-01T17:34:08Z</time>
      </trkpt>
      <trkpt lat="43.96557" lon="1.88579">
        <ele>254.2</ele>
        <time>2022-09-01T17:34:09Z</time>
      </trkpt>
      <trkpt lat="43.96559" lon="1.8858">
        <ele>254</ele>
        <time>2022-09-01T17:34:10Z</time>
      </trkpt>
      <trkpt lat="43.96561" lon="1.8858">
        <ele>253.8</ele>
        <time>2022-09-01T17:34:11Z</time>
      </trkpt>
      <trkpt lat="43.96563" lon="1.88579">
        <ele>253.6</ele>
        <time>2022-09-01T17:34:12Z</time>
      </trkpt>
      <trkpt lat="43.96564" lon="1.88579">
        <ele>253.4</ele>
        <time>2022-09-01T17:34:13Z</time>
      </trkpt>
      <trkpt lat="43.96565" lon="1.88578">
        <ele>253.4</ele>
        <time>2022-09-01T17:34:14Z</time>
      </trkpt>
      <trkpt lat="43.96569" lon="1.88578">
        <ele>252.6</ele>
        <time>2022-09-01T17:35:28Z</time>
      </trkpt>
      <trkpt lat="43.96572" lon="1.88578">
        <ele>252.4</ele>
        <time>2022-09-01T17:35:29Z</time>
      </trkpt>
      <trkpt lat="43.96589" lon="1.88578">
        <ele>252.2</ele>
        <time>2022-09-01T17:35:33Z</time>
      </trkpt>
      <trkpt lat="43.96617" lon="1.88578">
        <ele>251.8</ele>
        <time>2022-09-01T17:35:37Z</time>
      </trkpt>
      <trkpt lat="43.96634" lon="1.88578">
        <ele>251</ele>
        <time>2022-09-01T17:35:39Z</time>
      </trkpt>
      <trkpt lat="43.96653" lon="1.88579">
        <ele>249.6</ele>
        <time>2022-09-01T17:35:41Z</time>
      </trkpt>
      <trkpt lat="43.96663" lon="1.88578">
        <ele>249.2</ele>
        <time>2022-09-01T17:35:42Z</time>
      </trkpt>
      <trkpt lat="43.96673" lon="1.88578">
        <ele>248.6</ele>
        <time>2022-09-01T17:35:43Z</time>
      </trkpt>
      <trkpt lat="43.96694" lon="1.88576">
        <ele>247.2</ele>
        <time>2022-09-01T17:35:45Z</time>
      </trkpt>
      <trkpt lat="43.96714" lon="1.88573">
        <ele>246.6</ele>
        <time>2022-09-01T17:35:47Z</time>
      </trkpt>
      <trkpt lat="43.96724" lon="1.8857">
        <ele>245.8</ele>
        <time>2022-09-01T17:35:48Z</time>
      </trkpt>
      <trkpt lat="43.96734" lon="1.88567">
        <ele>245.6</ele>
        <time>2022-09-01T17:35:49Z</time>
      </trkpt>
      <trkpt lat="43.96743" lon="1.88562">
        <ele>244.6</ele>
        <time>2022-09-01T17:35:50Z</time>
      </trkpt>
      <trkpt lat="43.96752" lon="1.88558">
        <ele>244.4</ele>
        <time>2022-09-01T17:35:51Z</time>
      </trkpt>
      <trkpt lat="43.96769" lon="1.88549">
        <ele>243.2</ele>
        <time>2022-09-01T17:35:53Z</time>
      </trkpt>
      <trkpt lat="43.96778" lon="1.88544">
        <ele>242.6</ele>
        <time>2022-09-01T17:35:54Z</time>
      </trkpt>
      <trkpt lat="43.96786" lon="1.8854">
        <ele>242</ele>
        <time>2022-09-01T17:35:55Z</time>
      </trkpt>
      <trkpt lat="43.96794" lon="1.88536">
        <ele>241.8</ele>
        <time>2022-09-01T17:35:56Z</time>
      </trkpt>
      <trkpt lat="43.96802" lon="1.88533">
        <ele>240.8</ele>
        <time>2022-09-01T17:35:57Z</time>
      </trkpt>
      <trkpt lat="43.96809" lon="1.88529">
        <ele>240.6</ele>
        <time>2022-09-01T17:35:58Z</time>
      </trkpt>
      <trkpt lat="43.96816" lon="1.88526">
        <ele>239.8</ele>
        <time>2022-09-01T17:35:59Z</time>
      </trkpt>
      <trkpt lat="43.96823" lon="1.88523">
        <ele>239.2</ele>
        <time>2022-09-01T17:36:00Z</time>
      </trkpt>
      <trkpt lat="43.96839" lon="1.88517">
        <ele>238.6</ele>
        <time>2022-09-01T17:36:02Z</time>
      </trkpt>
      <trkpt lat="43.96855" lon="1.88515">
        <ele>238</ele>
        <time>2022-09-01T17:36:04Z</time>
      </trkpt>
      <trkpt lat="43.96863" lon="1.88516">
        <ele>238</ele>
        <time>2022-09-01T17:36:05Z</time>
      </trkpt>
      <trkpt lat="43.96871" lon="1.88517">
        <ele>237.4</ele>
        <time>2022-09-01T17:36:06Z</time>
      </trkpt>
      <trkpt lat="43.96878" lon="1.88517">
        <ele>237.4</ele>
        <time>2022-09-01T17:36:07Z</time>
      </trkpt>
      <trkpt lat="43.96886" lon="1.88517">
        <ele>237.2</ele>
        <time>2022-09-01T17:36:08Z</time>
      </trkpt>
      <trkpt lat="43.96893" lon="1.88516">
        <ele>236.6</ele>
        <time>2022-09-01T17:36:09Z</time>
      </trkpt>
      <trkpt lat="43.969" lon="1.88515">
        <ele>236</ele>
        <time>2022-09-01T17:36:10Z</time>
      </trkpt>
      <trkpt lat="43.96921" lon="1.88507">
        <ele>234.8</ele>
        <time>2022-09-01T17:36:13Z</time>
      </trkpt>
      <trkpt lat="43.96944" lon="1.88498">
        <ele>234</ele>
        <time>2022-09-01T17:36:16Z</time>
      </trkpt>
      <trkpt lat="43.96952" lon="1.88496">
        <ele>233.6</ele>
        <time>2022-09-01T17:36:17Z</time>
      </trkpt>
      <trkpt lat="43.96977" lon="1.88489">
        <ele>233.4</ele>
        <time>2022-09-01T17:36:20Z</time>
      </trkpt>
      <trkpt lat="43.96983" lon="1.88488">
        <ele>233</ele>
        <time>2022-09-01T17:36:21Z</time>
      </trkpt>
      <trkpt lat="43.96991" lon="1.88486">
        <ele>232.8</ele>
        <time>2022-09-01T17:36:22Z</time>
      </trkpt>
      <trkpt lat="43.96998" lon="1.88484">
        <ele>232.8</ele>
        <time>2022-09-01T17:36:23Z</time>
      </trkpt>
      <trkpt lat="43.97056" lon="1.88469">
        <ele>232.2</ele>
        <time>2022-09-01T17:36:30Z</time>
      </trkpt>
      <trkpt lat="43.97064" lon="1.88466">
        <ele>232</ele>
        <time>2022-09-01T17:36:31Z</time>
      </trkpt>
      <trkpt lat="43.97081" lon="1.88462">
        <ele>231.6</ele>
        <time>2022-09-01T17:36:33Z</time>
      </trkpt>
      <trkpt lat="43.9709" lon="1.88459">
        <ele>231.4</ele>
        <time>2022-09-01T17:36:34Z</time>
      </trkpt>
      <trkpt lat="43.97098" lon="1.88457">
        <ele>231.4</ele>
        <time>2022-09-01T17:36:35Z</time>
      </trkpt>
      <trkpt lat="43.97107" lon="1.88454">
        <ele>231</ele>
        <time>2022-09-01T17:36:36Z</time>
      </trkpt>
      <trkpt lat="43.97115" lon="1.88452">
        <ele>231</ele>
        <time>2022-09-01T17:36:37Z</time>
      </trkpt>
      <trkpt lat="43.97122" lon="1.88449">
        <ele>230.8</ele>
        <time>2022-09-01T17:36:38Z</time>
      </trkpt>
      <trkpt lat="43.97129" lon="1.88447">
        <ele>230.8</ele>
        <time>2022-09-01T17:36:39Z</time>
      </trkpt>
      <trkpt lat="43.97136" lon="1.88443">
        <ele>230.8</ele>
        <time>2022-09-01T17:36:40Z</time>
      </trkpt>
      <trkpt lat="43.97142" lon="1.88439">
        <ele>230.2</ele>
        <time>2022-09-01T17:36:41Z</time>
      </trkpt>
      <trkpt lat="43.97147" lon="1.88435">
        <ele>229.8</ele>
        <time>2022-09-01T17:36:42Z</time>
      </trkpt>
      <trkpt lat="43.97151" lon="1.88431">
        <ele>229.6</ele>
        <time>2022-09-01T17:36:43Z</time>
      </trkpt>
      <trkpt lat="43.97155" lon="1.88429">
        <ele>229.4</ele>
        <time>2022-09-01T17:36:44Z</time>
      </trkpt>
      <trkpt lat="43.97159" lon="1.88429">
        <ele>228.8</ele>
        <time>2022-09-01T17:36:45Z</time>
      </trkpt>
      <trkpt lat="43.97162" lon="1.88431">
        <ele>228.8</ele>
        <time>2022-09-01T17:36:46Z</time>
      </trkpt>
      <trkpt lat="43.97164" lon="1.88435">
        <ele>228.4</ele>
        <time>2022-09-01T17:36:47Z</time>
      </trkpt>
      <trkpt lat="43.97165" lon="1.8844">
        <ele>228.2</ele>
        <time>2022-09-01T17:36:48Z</time>
      </trkpt>
      <trkpt lat="43.97166" lon="1.88446">
        <ele>228.2</ele>
        <time>2022-09-01T17:36:49Z</time>
      </trkpt>
      <trkpt lat="43.97167" lon="1.88452">
        <ele>228.2</ele>
        <time>2022-09-01T17:36:50Z</time>
      </trkpt>
      <trkpt lat="43.97168" lon="1.88457">
        <ele>228.2</ele>
        <time>2022-09-01T17:36:51Z</time>
      </trkpt>
      <trkpt lat="43.97171" lon="1.88475">
        <ele>227.6</ele>
        <time>2022-09-01T17:36:54Z</time>
      </trkpt>
      <trkpt lat="43.97172" lon="1.88482">
        <ele>227.6</ele>
        <time>2022-09-01T17:36:55Z</time>
      </trkpt>
      <trkpt lat="43.97174" lon="1.88502">
        <ele>227.2</ele>
        <time>2022-09-01T17:36:58Z</time>
      </trkpt>
      <trkpt lat="43.97175" lon="1.88517">
        <ele>227.2</ele>
        <time>2022-09-01T17:37:00Z</time>
      </trkpt>
      <trkpt lat="43.97175" lon="1.88524">
        <ele>227.2</ele>
        <time>2022-09-01T17:37:01Z</time>
      </trkpt>
      <trkpt lat="43.97175" lon="1.88531">
        <ele>227.2</ele>
        <time>2022-09-01T17:37:02Z</time>
      </trkpt>
      <trkpt lat="43.97175" lon="1.88538">
        <ele>227.2</ele>
        <time>2022-09-01T17:37:03Z</time>
      </trkpt>
      <trkpt lat="43.97175" lon="1.88545">
        <ele>227</ele>
        <time>2022-09-01T17:37:04Z</time>
      </trkpt>
      <trkpt lat="43.97175" lon="1.8855">
        <ele>227</ele>
        <time>2022-09-01T17:37:05Z</time>
      </trkpt>
      <trkpt lat="43.97175" lon="1.88556">
        <ele>227</ele>
        <time>2022-09-01T17:37:06Z</time>
      </trkpt>
      <trkpt lat="43.97174" lon="1.88576">
        <ele>227</ele>
        <time>2022-09-01T17:37:09Z</time>
      </trkpt>
      <trkpt lat="43.97173" lon="1.88603">
        <ele>226.8</ele>
        <time>2022-09-01T17:37:13Z</time>
      </trkpt>
      <trkpt lat="43.97172" lon="1.88623">
        <ele>226.8</ele>
        <time>2022-09-01T17:37:16Z</time>
      </trkpt>
      <trkpt lat="43.97172" lon="1.88636">
        <ele>227</ele>
        <time>2022-09-01T17:37:18Z</time>
      </trkpt>
      <trkpt lat="43.97173" lon="1.8867">
        <ele>227</ele>
        <time>2022-09-01T17:37:23Z</time>
      </trkpt>
      <trkpt lat="43.97174" lon="1.88676">
        <ele>227</ele>
        <time>2022-09-01T17:37:24Z</time>
      </trkpt>
      <trkpt lat="43.97176" lon="1.88682">
        <ele>227</ele>
        <time>2022-09-01T17:37:25Z</time>
      </trkpt>
      <trkpt lat="43.97178" lon="1.88687">
        <ele>227</ele>
        <time>2022-09-01T17:37:26Z</time>
      </trkpt>
      <trkpt lat="43.9718" lon="1.88692">
        <ele>226.8</ele>
        <time>2022-09-01T17:37:27Z</time>
      </trkpt>
      <trkpt lat="43.97182" lon="1.88697">
        <ele>226.8</ele>
        <time>2022-09-01T17:37:28Z</time>
      </trkpt>
      <trkpt lat="43.97185" lon="1.88702">
        <ele>226.8</ele>
        <time>2022-09-01T17:37:29Z</time>
      </trkpt>
      <trkpt lat="43.97197" lon="1.88726">
        <ele>227.4</ele>
        <time>2022-09-01T17:37:34Z</time>
      </trkpt>
      <trkpt lat="43.972" lon="1.88731">
        <ele>227.4</ele>
        <time>2022-09-01T17:37:35Z</time>
      </trkpt>
      <trkpt lat="43.97202" lon="1.88736">
        <ele>227.4</ele>
        <time>2022-09-01T17:37:36Z</time>
      </trkpt>
      <trkpt lat="43.97203" lon="1.88741">
        <ele>227.6</ele>
        <time>2022-09-01T17:37:37Z</time>
      </trkpt>
      <trkpt lat="43.97205" lon="1.88746">
        <ele>227.6</ele>
        <time>2022-09-01T17:37:38Z</time>
      </trkpt>
      <trkpt lat="43.97214" lon="1.88773">
        <ele>228.2</ele>
        <time>2022-09-01T17:37:43Z</time>
      </trkpt>
      <trkpt lat="43.97218" lon="1.88786">
        <ele>228.4</ele>
        <time>2022-09-01T17:37:45Z</time>
      </trkpt>
      <trkpt lat="43.97225" lon="1.88813">
        <ele>229.2</ele>
        <time>2022-09-01T17:37:49Z</time>
      </trkpt>
      <trkpt lat="43.9723" lon="1.88834">
        <ele>230.2</ele>
        <time>2022-09-01T17:37:52Z</time>
      </trkpt>
      <trkpt lat="43.97232" lon="1.88842">
        <ele>230.4</ele>
        <time>2022-09-01T17:37:53Z</time>
      </trkpt>
      <trkpt lat="43.97233" lon="1.88849">
        <ele>230.4</ele>
        <time>2022-09-01T17:37:54Z</time>
      </trkpt>
      <trkpt lat="43.97235" lon="1.88856">
        <ele>230.6</ele>
        <time>2022-09-01T17:37:55Z</time>
      </trkpt>
      <trkpt lat="43.97236" lon="1.88862">
        <ele>231.2</ele>
        <time>2022-09-01T17:37:56Z</time>
      </trkpt>
      <trkpt lat="43.97238" lon="1.88869">
        <ele>232</ele>
        <time>2022-09-01T17:37:57Z</time>
      </trkpt>
      <trkpt lat="43.97239" lon="1.88875">
        <ele>232.2</ele>
        <time>2022-09-01T17:37:58Z</time>
      </trkpt>
      <trkpt lat="43.9724" lon="1.8888">
        <ele>232.6</ele>
        <time>2022-09-01T17:37:59Z</time>
      </trkpt>
      <trkpt lat="43.97241" lon="1.88886">
        <ele>232.6</ele>
        <time>2022-09-01T17:38:00Z</time>
      </trkpt>
      <trkpt lat="43.97243" lon="1.88891">
        <ele>233.2</ele>
        <time>2022-09-01T17:38:01Z</time>
      </trkpt>
      <trkpt lat="43.97244" lon="1.88897">
        <ele>233.8</ele>
        <time>2022-09-01T17:38:02Z</time>
      </trkpt>
      <trkpt lat="43.97245" lon="1.88901">
        <ele>234.4</ele>
        <time>2022-09-01T17:38:03Z</time>
      </trkpt>
      <trkpt lat="43.97246" lon="1.88906">
        <ele>234.8</ele>
        <time>2022-09-01T17:38:04Z</time>
      </trkpt>
      <trkpt lat="43.97247" lon="1.88911">
        <ele>235.2</ele>
        <time>2022-09-01T17:38:05Z</time>
      </trkpt>
      <trkpt lat="43.97247" lon="1.88916">
        <ele>235.6</ele>
        <time>2022-09-01T17:38:06Z</time>
      </trkpt>
      <trkpt lat="43.97248" lon="1.8892">
        <ele>236</ele>
        <time>2022-09-01T17:38:07Z</time>
      </trkpt>
      <trkpt lat="43.97249" lon="1.88925">
        <ele>236.2</ele>
        <time>2022-09-01T17:38:08Z</time>
      </trkpt>
      <trkpt lat="43.97249" lon="1.88929">
        <ele>236.4</ele>
        <time>2022-09-01T17:38:09Z</time>
      </trkpt>
      <trkpt lat="43.97249" lon="1.88934">
        <ele>237</ele>
        <time>2022-09-01T17:38:10Z</time>
      </trkpt>
      <trkpt lat="43.9725" lon="1.88938">
        <ele>237.2</ele>
        <time>2022-09-01T17:38:11Z</time>
      </trkpt>
      <trkpt lat="43.97251" lon="1.88941">
        <ele>237.4</ele>
        <time>2022-09-01T17:38:12Z</time>
      </trkpt>
      <trkpt lat="43.97251" lon="1.88945">
        <ele>237.8</ele>
        <time>2022-09-01T17:38:13Z</time>
      </trkpt>
      <trkpt lat="43.97252" lon="1.88948">
        <ele>238</ele>
        <time>2022-09-01T17:38:14Z</time>
      </trkpt>
      <trkpt lat="43.97252" lon="1.88952">
        <ele>238.4</ele>
        <time>2022-09-01T17:38:15Z</time>
      </trkpt>
      <trkpt lat="43.97252" lon="1.88956">
        <ele>238.6</ele>
        <time>2022-09-01T17:38:16Z</time>
      </trkpt>
      <trkpt lat="43.97253" lon="1.8896">
        <ele>239</ele>
        <time>2022-09-01T17:38:17Z</time>
      </trkpt>
      <trkpt lat="43.97254" lon="1.88964">
        <ele>239.2</ele>
        <time>2022-09-01T17:38:18Z</time>
      </trkpt>
      <trkpt lat="43.97255" lon="1.88968">
        <ele>239.6</ele>
        <time>2022-09-01T17:38:19Z</time>
      </trkpt>
      <trkpt lat="43.97256" lon="1.88972">
        <ele>239.8</ele>
        <time>2022-09-01T17:38:20Z</time>
      </trkpt>
      <trkpt lat="43.97257" lon="1.88977">
        <ele>240</ele>
        <time>2022-09-01T17:38:21Z</time>
      </trkpt>
      <trkpt lat="43.97257" lon="1.88981">
        <ele>240.4</ele>
        <time>2022-09-01T17:38:22Z</time>
      </trkpt>
      <trkpt lat="43.97258" lon="1.88986">
        <ele>240.4</ele>
        <time>2022-09-01T17:38:23Z</time>
      </trkpt>
      <trkpt lat="43.97259" lon="1.88991">
        <ele>240.8</ele>
        <time>2022-09-01T17:38:24Z</time>
      </trkpt>
      <trkpt lat="43.9726" lon="1.88997">
        <ele>240.8</ele>
        <time>2022-09-01T17:38:25Z</time>
      </trkpt>
      <trkpt lat="43.97262" lon="1.89002">
        <ele>241.2</ele>
        <time>2022-09-01T17:38:26Z</time>
      </trkpt>
      <trkpt lat="43.97263" lon="1.89008">
        <ele>241.2</ele>
        <time>2022-09-01T17:38:27Z</time>
      </trkpt>
      <trkpt lat="43.97265" lon="1.89013">
        <ele>241.4</ele>
        <time>2022-09-01T17:38:28Z</time>
      </trkpt>
      <trkpt lat="43.97266" lon="1.89019">
        <ele>241.6</ele>
        <time>2022-09-01T17:38:29Z</time>
      </trkpt>
      <trkpt lat="43.97267" lon="1.89024">
        <ele>241.6</ele>
        <time>2022-09-01T17:38:30Z</time>
      </trkpt>
      <trkpt lat="43.97268" lon="1.89029">
        <ele>241.8</ele>
        <time>2022-09-01T17:38:31Z</time>
      </trkpt>
      <trkpt lat="43.9727" lon="1.89034">
        <ele>241.8</ele>
        <time>2022-09-01T17:38:32Z</time>
      </trkpt>
      <trkpt lat="43.97271" lon="1.89038">
        <ele>242.2</ele>
        <time>2022-09-01T17:38:33Z</time>
      </trkpt>
      <trkpt lat="43.97272" lon="1.89044">
        <ele>242.4</ele>
        <time>2022-09-01T17:38:34Z</time>
      </trkpt>
      <trkpt lat="43.97273" lon="1.89048">
        <ele>242.6</ele>
        <time>2022-09-01T17:38:35Z</time>
      </trkpt>
      <trkpt lat="43.97274" lon="1.89052">
        <ele>242.8</ele>
        <time>2022-09-01T17:38:36Z</time>
      </trkpt>
      <trkpt lat="43.97275" lon="1.89057">
        <ele>242.8</ele>
        <time>2022-09-01T17:38:37Z</time>
      </trkpt>
      <trkpt lat="43.97276" lon="1.8906">
        <ele>243.4</ele>
        <time>2022-09-01T17:38:38Z</time>
      </trkpt>
      <trkpt lat="43.97277" lon="1.89064">
        <ele>243.4</ele>
        <time>2022-09-01T17:38:39Z</time>
      </trkpt>
      <trkpt lat="43.97278" lon="1.89067">
        <ele>243.8</ele>
        <time>2022-09-01T17:38:40Z</time>
      </trkpt>
      <trkpt lat="43.9728" lon="1.89071">
        <ele>244</ele>
        <time>2022-09-01T17:38:41Z</time>
      </trkpt>
      <trkpt lat="43.97281" lon="1.89075">
        <ele>244.2</ele>
        <time>2022-09-01T17:38:42Z</time>
      </trkpt>
      <trkpt lat="43.97282" lon="1.89079">
        <ele>244.4</ele>
        <time>2022-09-01T17:38:43Z</time>
      </trkpt>
      <trkpt lat="43.97283" lon="1.89083">
        <ele>244.6</ele>
        <time>2022-09-01T17:38:44Z</time>
      </trkpt>
      <trkpt lat="43.97284" lon="1.89087">
        <ele>244.8</ele>
        <time>2022-09-01T17:38:45Z</time>
      </trkpt>
      <trkpt lat="43.97285" lon="1.8909">
        <ele>244.8</ele>
        <time>2022-09-01T17:38:46Z</time>
      </trkpt>
      <trkpt lat="43.97286" lon="1.89094">
        <ele>245</ele>
        <time>2022-09-01T17:38:47Z</time>
      </trkpt>
      <trkpt lat="43.97288" lon="1.89098">
        <ele>245</ele>
        <time>2022-09-01T17:38:48Z</time>
      </trkpt>
      <trkpt lat="43.9729" lon="1.89102">
        <ele>245.4</ele>
        <time>2022-09-01T17:38:49Z</time>
      </trkpt>
      <trkpt lat="43.97291" lon="1.89106">
        <ele>245.4</ele>
        <time>2022-09-01T17:38:50Z</time>
      </trkpt>
      <trkpt lat="43.97292" lon="1.8911">
        <ele>245.8</ele>
        <time>2022-09-01T17:38:51Z</time>
      </trkpt>
      <trkpt lat="43.97294" lon="1.89113">
        <ele>246.2</ele>
        <time>2022-09-01T17:38:52Z</time>
      </trkpt>
      <trkpt lat="43.97295" lon="1.89117">
        <ele>246.4</ele>
        <time>2022-09-01T17:38:53Z</time>
      </trkpt>
      <trkpt lat="43.97296" lon="1.89121">
        <ele>246.6</ele>
        <time>2022-09-01T17:38:54Z</time>
      </trkpt>
      <trkpt lat="43.97297" lon="1.89125">
        <ele>246.6</ele>
        <time>2022-09-01T17:38:55Z</time>
      </trkpt>
      <trkpt lat="43.97298" lon="1.89129">
        <ele>246.8</ele>
        <time>2022-09-01T17:38:56Z</time>
      </trkpt>
      <trkpt lat="43.973" lon="1.89133">
        <ele>247</ele>
        <time>2022-09-01T17:38:57Z</time>
      </trkpt>
      <trkpt lat="43.97301" lon="1.89139">
        <ele>247.2</ele>
        <time>2022-09-01T17:38:58Z</time>
      </trkpt>
      <trkpt lat="43.97302" lon="1.89143">
        <ele>247.6</ele>
        <time>2022-09-01T17:38:59Z</time>
      </trkpt>
      <trkpt lat="43.97303" lon="1.89147">
        <ele>247.6</ele>
        <time>2022-09-01T17:39:00Z</time>
      </trkpt>
      <trkpt lat="43.97304" lon="1.89152">
        <ele>247.8</ele>
        <time>2022-09-01T17:39:01Z</time>
      </trkpt>
      <trkpt lat="43.97305" lon="1.89157">
        <ele>248</ele>
        <time>2022-09-01T17:39:02Z</time>
      </trkpt>
      <trkpt lat="43.97305" lon="1.89161">
        <ele>248.2</ele>
        <time>2022-09-01T17:39:03Z</time>
      </trkpt>
      <trkpt lat="43.97306" lon="1.89165">
        <ele>248.2</ele>
        <time>2022-09-01T17:39:04Z</time>
      </trkpt>
      <trkpt lat="43.97306" lon="1.8917">
        <ele>248.4</ele>
        <time>2022-09-01T17:39:05Z</time>
      </trkpt>
      <trkpt lat="43.97306" lon="1.89174">
        <ele>248.6</ele>
        <time>2022-09-01T17:39:06Z</time>
      </trkpt>
      <trkpt lat="43.97307" lon="1.89179">
        <ele>248.8</ele>
        <time>2022-09-01T17:39:07Z</time>
      </trkpt>
      <trkpt lat="43.97307" lon="1.89183">
        <ele>249</ele>
        <time>2022-09-01T17:39:08Z</time>
      </trkpt>
      <trkpt lat="43.97308" lon="1.89188">
        <ele>249</ele>
        <time>2022-09-01T17:39:09Z</time>
      </trkpt>
      <trkpt lat="43.97308" lon="1.89193">
        <ele>249.2</ele>
        <time>2022-09-01T17:39:10Z</time>
      </trkpt>
      <trkpt lat="43.97308" lon="1.89197">
        <ele>249.2</ele>
        <time>2022-09-01T17:39:11Z</time>
      </trkpt>
      <trkpt lat="43.97309" lon="1.89202">
        <ele>249.4</ele>
        <time>2022-09-01T17:39:12Z</time>
      </trkpt>
      <trkpt lat="43.97309" lon="1.89207">
        <ele>249.6</ele>
        <time>2022-09-01T17:39:13Z</time>
      </trkpt>
      <trkpt lat="43.97309" lon="1.89211">
        <ele>249.8</ele>
        <time>2022-09-01T17:39:14Z</time>
      </trkpt>
      <trkpt lat="43.97309" lon="1.89216">
        <ele>250</ele>
        <time>2022-09-01T17:39:15Z</time>
      </trkpt>
      <trkpt lat="43.9731" lon="1.89221">
        <ele>250</ele>
        <time>2022-09-01T17:39:16Z</time>
      </trkpt>
      <trkpt lat="43.9731" lon="1.89226">
        <ele>250.2</ele>
        <time>2022-09-01T17:39:17Z</time>
      </trkpt>
      <trkpt lat="43.9731" lon="1.89231">
        <ele>250.2</ele>
        <time>2022-09-01T17:39:18Z</time>
      </trkpt>
      <trkpt lat="43.9731" lon="1.89235">
        <ele>250.6</ele>
        <time>2022-09-01T17:39:19Z</time>
      </trkpt>
      <trkpt lat="43.97311" lon="1.8924">
        <ele>250.6</ele>
        <time>2022-09-01T17:39:20Z</time>
      </trkpt>
      <trkpt lat="43.97311" lon="1.89245">
        <ele>250.8</ele>
        <time>2022-09-01T17:39:21Z</time>
      </trkpt>
      <trkpt lat="43.97311" lon="1.8925">
        <ele>251.2</ele>
        <time>2022-09-01T17:39:22Z</time>
      </trkpt>
      <trkpt lat="43.97312" lon="1.89255">
        <ele>251.4</ele>
        <time>2022-09-01T17:39:23Z</time>
      </trkpt>
      <trkpt lat="43.97312" lon="1.8926">
        <ele>251.6</ele>
        <time>2022-09-01T17:39:24Z</time>
      </trkpt>
      <trkpt lat="43.97312" lon="1.89265">
        <ele>251.6</ele>
        <time>2022-09-01T17:39:25Z</time>
      </trkpt>
      <trkpt lat="43.97312" lon="1.8927">
        <ele>252</ele>
        <time>2022-09-01T17:39:26Z</time>
      </trkpt>
      <trkpt lat="43.97313" lon="1.89275">
        <ele>252.2</ele>
        <time>2022-09-01T17:39:27Z</time>
      </trkpt>
      <trkpt lat="43.97313" lon="1.89279">
        <ele>252.4</ele>
        <time>2022-09-01T17:39:28Z</time>
      </trkpt>
      <trkpt lat="43.97313" lon="1.89284">
        <ele>252.4</ele>
        <time>2022-09-01T17:39:29Z</time>
      </trkpt>
      <trkpt lat="43.97313" lon="1.89288">
        <ele>252.6</ele>
        <time>2022-09-01T17:39:30Z</time>
      </trkpt>
      <trkpt lat="43.97313" lon="1.89292">
        <ele>252.8</ele>
        <time>2022-09-01T17:39:31Z</time>
      </trkpt>
      <trkpt lat="43.97313" lon="1.89295">
        <ele>252.8</ele>
        <time>2022-09-01T17:39:32Z</time>
      </trkpt>
      <trkpt lat="43.97312" lon="1.89297">
        <ele>253.2</ele>
        <time>2022-09-01T17:39:33Z</time>
      </trkpt>
      <trkpt lat="43.97312" lon="1.89299">
        <ele>253.4</ele>
        <time>2022-09-01T17:39:34Z</time>
      </trkpt>
      <trkpt lat="43.97312" lon="1.893">
        <ele>253.8</ele>
        <time>2022-09-01T17:39:35Z</time>
      </trkpt>
      <trkpt lat="43.97313" lon="1.893">
        <ele>254</ele>
        <time>2022-09-01T17:39:36Z</time>
      </trkpt>
      <trkpt lat="43.97314" lon="1.89299">
        <ele>254.4</ele>
        <time>2022-09-01T17:39:37Z</time>
      </trkpt>
      <trkpt lat="43.97315" lon="1.89297">
        <ele>254.4</ele>
        <time>2022-09-01T17:39:38Z</time>
      </trkpt>
      <trkpt lat="43.97315" lon="1.89295">
        <ele>254.6</ele>
        <time>2022-09-01T17:39:39Z</time>
      </trkpt>
      <trkpt lat="43.97315" lon="1.89292">
        <ele>254.6</ele>
        <time>2022-09-01T17:39:40Z</time>
      </trkpt>
      <trkpt lat="43.97315" lon="1.89288">
        <ele>254.6</ele>
        <time>2022-09-01T17:39:41Z</time>
      </trkpt>
      <trkpt lat="43.97315" lon="1.89283">
        <ele>254.8</ele>
        <time>2022-09-01T17:39:42Z</time>
      </trkpt>
      <trkpt lat="43.97315" lon="1.89279">
        <ele>254.8</ele>
        <time>2022-09-01T17:39:43Z</time>
      </trkpt>
      <trkpt lat="43.97315" lon="1.89274">
        <ele>254.8</ele>
        <time>2022-09-01T17:39:44Z</time>
      </trkpt>
      <trkpt lat="43.97314" lon="1.89269">
        <ele>254.8</ele>
        <time>2022-09-01T17:39:45Z</time>
      </trkpt>
      <trkpt lat="43.97314" lon="1.89264">
        <ele>254.8</ele>
        <time>2022-09-01T17:39:46Z</time>
      </trkpt>
      <trkpt lat="43.97314" lon="1.89258">
        <ele>254.8</ele>
        <time>2022-09-01T17:39:47Z</time>
      </trkpt>
      <trkpt lat="43.97313" lon="1.89253">
        <ele>254.8</ele>
        <time>2022-09-01T17:39:48Z</time>
      </trkpt>
      <trkpt lat="43.97313" lon="1.89246">
        <ele>254.2</ele>
        <time>2022-09-01T17:39:49Z</time>
      </trkpt>
      <trkpt lat="43.97313" lon="1.8924">
        <ele>254.2</ele>
        <time>2022-09-01T17:39:50Z</time>
      </trkpt>
      <trkpt lat="43.97312" lon="1.89234">
        <ele>254.2</ele>
        <time>2022-09-01T17:39:51Z</time>
      </trkpt>
      <trkpt lat="43.97312" lon="1.89227">
        <ele>254</ele>
        <time>2022-09-01T17:39:52Z</time>
      </trkpt>
      <trkpt lat="43.97311" lon="1.89221">
        <ele>253.6</ele>
        <time>2022-09-01T17:39:53Z</time>
      </trkpt>
      <trkpt lat="43.97311" lon="1.89214">
        <ele>253.4</ele>
        <time>2022-09-01T17:39:54Z</time>
      </trkpt>
      <trkpt lat="43.97311" lon="1.89207">
        <ele>253</ele>
        <time>2022-09-01T17:39:55Z</time>
      </trkpt>
      <trkpt lat="43.9731" lon="1.89201">
        <ele>252.8</ele>
        <time>2022-09-01T17:39:56Z</time>
      </trkpt>
      <trkpt lat="43.9731" lon="1.89195">
        <ele>252.8</ele>
        <time>2022-09-01T17:39:57Z</time>
      </trkpt>
      <trkpt lat="43.97309" lon="1.8919">
        <ele>252.4</ele>
        <time>2022-09-01T17:39:58Z</time>
      </trkpt>
      <trkpt lat="43.97309" lon="1.89185">
        <ele>252.2</ele>
        <time>2022-09-01T17:39:59Z</time>
      </trkpt>
      <trkpt lat="43.97309" lon="1.89182">
        <ele>251.8</ele>
        <time>2022-09-01T17:40:00Z</time>
      </trkpt>
      <trkpt lat="43.97308" lon="1.8918">
        <ele>251.6</ele>
        <time>2022-09-01T17:40:01Z</time>
      </trkpt>
      <trkpt lat="43.97307" lon="1.89179">
        <ele>251.4</ele>
        <time>2022-09-01T17:40:02Z</time>
      </trkpt>
      <trkpt lat="43.97306" lon="1.8918">
        <ele>251</ele>
        <time>2022-09-01T17:40:03Z</time>
      </trkpt>
      <trkpt lat="43.97308" lon="1.89193">
        <ele>250.8</ele>
        <time>2022-09-01T17:40:07Z</time>
      </trkpt>
      <trkpt lat="43.9731" lon="1.89221">
        <ele>250.4</ele>
        <time>2022-09-01T17:40:12Z</time>
      </trkpt>
      <trkpt lat="43.97311" lon="1.89232">
        <ele>250.4</ele>
        <time>2022-09-01T17:40:14Z</time>
      </trkpt>
      <trkpt lat="43.97311" lon="1.89238">
        <ele>250.8</ele>
        <time>2022-09-01T17:40:15Z</time>
      </trkpt>
      <trkpt lat="43.97312" lon="1.89243">
        <ele>251</ele>
        <time>2022-09-01T17:40:16Z</time>
      </trkpt>
      <trkpt lat="43.97312" lon="1.89247">
        <ele>251.6</ele>
        <time>2022-09-01T17:40:17Z</time>
      </trkpt>
      <trkpt lat="43.97312" lon="1.89252">
        <ele>251.6</ele>
        <time>2022-09-01T17:40:18Z</time>
      </trkpt>
      <trkpt lat="43.97313" lon="1.89257">
        <ele>251.8</ele>
        <time>2022-09-01T17:40:19Z</time>
      </trkpt>
      <trkpt lat="43.97314" lon="1.89271">
        <ele>252.2</ele>
        <time>2022-09-01T17:40:22Z</time>
      </trkpt>
      <trkpt lat="43.97314" lon="1.89275">
        <ele>252.2</ele>
        <time>2022-09-01T17:40:23Z</time>
      </trkpt>
      <trkpt lat="43.97314" lon="1.89279">
        <ele>252.2</ele>
        <time>2022-09-01T17:40:24Z</time>
      </trkpt>
      <trkpt lat="43.97314" lon="1.89284">
        <ele>252.8</ele>
        <time>2022-09-01T17:40:25Z</time>
      </trkpt>
      <trkpt lat="43.97314" lon="1.89287">
        <ele>253</ele>
        <time>2022-09-01T17:40:26Z</time>
      </trkpt>
      <trkpt lat="43.97315" lon="1.89296">
        <ele>253.6</ele>
        <time>2022-09-01T17:40:28Z</time>
      </trkpt>
      <trkpt lat="43.97316" lon="1.89308">
        <ele>254.2</ele>
        <time>2022-09-01T17:40:31Z</time>
      </trkpt>
      <trkpt lat="43.97318" lon="1.89322">
        <ele>254.8</ele>
        <time>2022-09-01T17:40:34Z</time>
      </trkpt>
      <trkpt lat="43.97319" lon="1.89326">
        <ele>254.8</ele>
        <time>2022-09-01T17:40:35Z</time>
      </trkpt>
      <trkpt lat="43.9732" lon="1.89329">
        <ele>255</ele>
        <time>2022-09-01T17:40:36Z</time>
      </trkpt>
      <trkpt lat="43.97321" lon="1.89333">
        <ele>255</ele>
        <time>2022-09-01T17:40:37Z</time>
      </trkpt>
      <trkpt lat="43.97323" lon="1.89337">
        <ele>255</ele>
        <time>2022-09-01T17:40:38Z</time>
      </trkpt>
      <trkpt lat="43.97324" lon="1.89341">
        <ele>255.2</ele>
        <time>2022-09-01T17:40:39Z</time>
      </trkpt>
      <trkpt lat="43.97326" lon="1.89344">
        <ele>255.2</ele>
        <time>2022-09-01T17:40:40Z</time>
      </trkpt>
      <trkpt lat="43.97328" lon="1.89348">
        <ele>255.2</ele>
        <time>2022-09-01T17:40:41Z</time>
      </trkpt>
      <trkpt lat="43.97329" lon="1.89352">
        <ele>255.2</ele>
        <time>2022-09-01T17:40:42Z</time>
      </trkpt>
      <trkpt lat="43.97331" lon="1.89356">
        <ele>255.4</ele>
        <time>2022-09-01T17:40:43Z</time>
      </trkpt>
      <trkpt lat="43.97333" lon="1.8936">
        <ele>255.4</ele>
        <time>2022-09-01T17:40:44Z</time>
      </trkpt>
      <trkpt lat="43.97336" lon="1.89364">
        <ele>255.4</ele>
        <time>2022-09-01T17:40:45Z</time>
      </trkpt>
      <trkpt lat="43.97339" lon="1.89368">
        <ele>255.2</ele>
        <time>2022-09-01T17:40:46Z</time>
      </trkpt>
      <trkpt lat="43.97342" lon="1.89372">
        <ele>255.2</ele>
        <time>2022-09-01T17:40:47Z</time>
      </trkpt>
      <trkpt lat="43.97344" lon="1.89377">
        <ele>255.2</ele>
        <time>2022-09-01T17:40:48Z</time>
      </trkpt>
      <trkpt lat="43.97347" lon="1.8938">
        <ele>255.2</ele>
        <time>2022-09-01T17:40:49Z</time>
      </trkpt>
      <trkpt lat="43.97349" lon="1.89384">
        <ele>255.2</ele>
        <time>2022-09-01T17:40:50Z</time>
      </trkpt>
      <trkpt lat="43.97351" lon="1.89386">
        <ele>255</ele>
        <time>2022-09-01T17:40:51Z</time>
      </trkpt>
      <trkpt lat="43.97352" lon="1.89387">
        <ele>255</ele>
        <time>2022-09-01T17:40:52Z</time>
      </trkpt>
      <trkpt lat="43.97354" lon="1.89391">
        <ele>254.2</ele>
        <time>2022-09-01T17:41:03Z</time>
      </trkpt>
      <trkpt lat="43.97356" lon="1.89392">
        <ele>254</ele>
        <time>2022-09-01T17:41:04Z</time>
      </trkpt>
      <trkpt lat="43.97358" lon="1.89393">
        <ele>254</ele>
        <time>2022-09-01T17:41:05Z</time>
      </trkpt>
      <trkpt lat="43.97361" lon="1.89393">
        <ele>254</ele>
        <time>2022-09-01T17:41:06Z</time>
      </trkpt>
      <trkpt lat="43.97364" lon="1.89394">
        <ele>254</ele>
        <time>2022-09-01T17:41:07Z</time>
      </trkpt>
      <trkpt lat="43.97367" lon="1.89395">
        <ele>254</ele>
        <time>2022-09-01T17:41:08Z</time>
      </trkpt>
      <trkpt lat="43.9737" lon="1.89397">
        <ele>253.8</ele>
        <time>2022-09-01T17:41:09Z</time>
      </trkpt>
      <trkpt lat="43.97375" lon="1.89402">
        <ele>253.8</ele>
        <time>2022-09-01T17:41:10Z</time>
      </trkpt>
      <trkpt lat="43.9738" lon="1.89407">
        <ele>253.8</ele>
        <time>2022-09-01T17:41:11Z</time>
      </trkpt>
      <trkpt lat="43.97393" lon="1.89419">
        <ele>253.4</ele>
        <time>2022-09-01T17:41:13Z</time>
      </trkpt>
      <trkpt lat="43.974" lon="1.89426">
        <ele>252.8</ele>
        <time>2022-09-01T17:41:14Z</time>
      </trkpt>
      <trkpt lat="43.97425" lon="1.8945">
        <ele>251.4</ele>
        <time>2022-09-01T17:41:17Z</time>
      </trkpt>
      <trkpt lat="43.97433" lon="1.89458">
        <ele>250.2</ele>
        <time>2022-09-01T17:41:18Z</time>
      </trkpt>
      <trkpt lat="43.97452" lon="1.89475">
        <ele>249.2</ele>
        <time>2022-09-01T17:41:20Z</time>
      </trkpt>
      <trkpt lat="43.97473" lon="1.89494">
        <ele>248</ele>
        <time>2022-09-01T17:41:22Z</time>
      </trkpt>
      <trkpt lat="43.97481" lon="1.89501">
        <ele>247.2</ele>
        <time>2022-09-01T17:41:23Z</time>
      </trkpt>
      <trkpt lat="43.97491" lon="1.8951">
        <ele>246.6</ele>
        <time>2022-09-01T17:41:24Z</time>
      </trkpt>
      <trkpt lat="43.97501" lon="1.8952">
        <ele>245.4</ele>
        <time>2022-09-01T17:41:25Z</time>
      </trkpt>
      <trkpt lat="43.9751" lon="1.89529">
        <ele>244.4</ele>
        <time>2022-09-01T17:41:26Z</time>
      </trkpt>
      <trkpt lat="43.97519" lon="1.89539">
        <ele>243.2</ele>
        <time>2022-09-01T17:41:27Z</time>
      </trkpt>
      <trkpt lat="43.97527" lon="1.89549">
        <ele>242.4</ele>
        <time>2022-09-01T17:41:28Z</time>
      </trkpt>
      <trkpt lat="43.97535" lon="1.8956">
        <ele>242</ele>
        <time>2022-09-01T17:41:29Z</time>
      </trkpt>
      <trkpt lat="43.97542" lon="1.89572">
        <ele>241.4</ele>
        <time>2022-09-01T17:41:30Z</time>
      </trkpt>
      <trkpt lat="43.97548" lon="1.89582">
        <ele>240.6</ele>
        <time>2022-09-01T17:41:31Z</time>
      </trkpt>
      <trkpt lat="43.97553" lon="1.89592">
        <ele>239.8</ele>
        <time>2022-09-01T17:41:32Z</time>
      </trkpt>
      <trkpt lat="43.97558" lon="1.896">
        <ele>239.4</ele>
        <time>2022-09-01T17:41:33Z</time>
      </trkpt>
      <trkpt lat="43.97561" lon="1.89607">
        <ele>238.6</ele>
        <time>2022-09-01T17:41:34Z</time>
      </trkpt>
      <trkpt lat="43.97565" lon="1.89614">
        <ele>238.2</ele>
        <time>2022-09-01T17:41:35Z</time>
      </trkpt>
      <trkpt lat="43.9757" lon="1.89622">
        <ele>237.4</ele>
        <time>2022-09-01T17:41:36Z</time>
      </trkpt>
      <trkpt lat="43.97573" lon="1.89628">
        <ele>236.6</ele>
        <time>2022-09-01T17:41:37Z</time>
      </trkpt>
      <trkpt lat="43.97577" lon="1.89636">
        <ele>236.4</ele>
        <time>2022-09-01T17:41:38Z</time>
      </trkpt>
      <trkpt lat="43.97584" lon="1.8965">
        <ele>235.6</ele>
        <time>2022-09-01T17:41:40Z</time>
      </trkpt>
      <trkpt lat="43.97588" lon="1.89656">
        <ele>234.8</ele>
        <time>2022-09-01T17:41:41Z</time>
      </trkpt>
      <trkpt lat="43.97591" lon="1.89663">
        <ele>234.8</ele>
        <time>2022-09-01T17:41:42Z</time>
      </trkpt>
      <trkpt lat="43.97597" lon="1.89677">
        <ele>234.6</ele>
        <time>2022-09-01T17:41:44Z</time>
      </trkpt>
      <trkpt lat="43.9761" lon="1.89704">
        <ele>233.4</ele>
        <time>2022-09-01T17:41:47Z</time>
      </trkpt>
      <trkpt lat="43.97615" lon="1.89714">
        <ele>233.2</ele>
        <time>2022-09-01T17:41:48Z</time>
      </trkpt>
      <trkpt lat="43.97621" lon="1.89723">
        <ele>233</ele>
        <time>2022-09-01T17:41:49Z</time>
      </trkpt>
      <trkpt lat="43.97635" lon="1.8974">
        <ele>232</ele>
        <time>2022-09-01T17:41:51Z</time>
      </trkpt>
      <trkpt lat="43.97642" lon="1.89748">
        <ele>231.8</ele>
        <time>2022-09-01T17:41:52Z</time>
      </trkpt>
      <trkpt lat="43.97656" lon="1.89762">
        <ele>231</ele>
        <time>2022-09-01T17:41:54Z</time>
      </trkpt>
      <trkpt lat="43.97678" lon="1.89785">
        <ele>229.4</ele>
        <time>2022-09-01T17:41:57Z</time>
      </trkpt>
      <trkpt lat="43.97686" lon="1.89795">
        <ele>229</ele>
        <time>2022-09-01T17:41:58Z</time>
      </trkpt>
      <trkpt lat="43.97694" lon="1.89806">
        <ele>228.2</ele>
        <time>2022-09-01T17:41:59Z</time>
      </trkpt>
      <trkpt lat="43.97698" lon="1.89814">
        <ele>227.4</ele>
        <time>2022-09-01T17:42:00Z</time>
      </trkpt>
      <trkpt lat="43.97702" lon="1.89823">
        <ele>227</ele>
        <time>2022-09-01T17:42:01Z</time>
      </trkpt>
      <trkpt lat="43.97705" lon="1.89833">
        <ele>225.4</ele>
        <time>2022-09-01T17:42:02Z</time>
      </trkpt>
      <trkpt lat="43.97708" lon="1.89844">
        <ele>224.8</ele>
        <time>2022-09-01T17:42:03Z</time>
      </trkpt>
      <trkpt lat="43.97711" lon="1.89853">
        <ele>223.8</ele>
        <time>2022-09-01T17:42:04Z</time>
      </trkpt>
      <trkpt lat="43.97716" lon="1.89862">
        <ele>223.2</ele>
        <time>2022-09-01T17:42:05Z</time>
      </trkpt>
      <trkpt lat="43.9772" lon="1.89871">
        <ele>222</ele>
        <time>2022-09-01T17:42:06Z</time>
      </trkpt>
      <trkpt lat="43.97728" lon="1.8989">
        <ele>220.8</ele>
        <time>2022-09-01T17:42:08Z</time>
      </trkpt>
      <trkpt lat="43.97732" lon="1.899">
        <ele>220</ele>
        <time>2022-09-01T17:42:09Z</time>
      </trkpt>
      <trkpt lat="43.97735" lon="1.8991">
        <ele>219.8</ele>
        <time>2022-09-01T17:42:10Z</time>
      </trkpt>
      <trkpt lat="43.97739" lon="1.8992">
        <ele>219</ele>
        <time>2022-09-01T17:42:11Z</time>
      </trkpt>
      <trkpt lat="43.97743" lon="1.8993">
        <ele>218.8</ele>
        <time>2022-09-01T17:42:12Z</time>
      </trkpt>
      <trkpt lat="43.97748" lon="1.89941">
        <ele>217.8</ele>
        <time>2022-09-01T17:42:13Z</time>
      </trkpt>
      <trkpt lat="43.97752" lon="1.89948">
        <ele>217.2</ele>
        <time>2022-09-01T17:42:14Z</time>
      </trkpt>
      <trkpt lat="43.97758" lon="1.89957">
        <ele>216.4</ele>
        <time>2022-09-01T17:42:15Z</time>
      </trkpt>
      <trkpt lat="43.97763" lon="1.89965">
        <ele>215.6</ele>
        <time>2022-09-01T17:42:16Z</time>
      </trkpt>
      <trkpt lat="43.97769" lon="1.89973">
        <ele>215.4</ele>
        <time>2022-09-01T17:42:17Z</time>
      </trkpt>
      <trkpt lat="43.97774" lon="1.89981">
        <ele>215</ele>
        <time>2022-09-01T17:42:18Z</time>
      </trkpt>
      <trkpt lat="43.97778" lon="1.89989">
        <ele>215</ele>
        <time>2022-09-01T17:42:19Z</time>
      </trkpt>
      <trkpt lat="43.97783" lon="1.89997">
        <ele>214.8</ele>
        <time>2022-09-01T17:42:20Z</time>
      </trkpt>
      <trkpt lat="43.97788" lon="1.90005">
        <ele>214.6</ele>
        <time>2022-09-01T17:42:21Z</time>
      </trkpt>
      <trkpt lat="43.97791" lon="1.90013">
        <ele>214.4</ele>
        <time>2022-09-01T17:42:22Z</time>
      </trkpt>
      <trkpt lat="43.97794" lon="1.9002">
        <ele>213.8</ele>
        <time>2022-09-01T17:42:23Z</time>
      </trkpt>
      <trkpt lat="43.97796" lon="1.90026">
        <ele>213.6</ele>
        <time>2022-09-01T17:42:24Z</time>
      </trkpt>
      <trkpt lat="43.97798" lon="1.90033">
        <ele>213.4</ele>
        <time>2022-09-01T17:42:25Z</time>
      </trkpt>
      <trkpt lat="43.97799" lon="1.90038">
        <ele>213.2</ele>
        <time>2022-09-01T17:42:26Z</time>
      </trkpt>
      <trkpt lat="43.97799" lon="1.90043">
        <ele>213</ele>
        <time>2022-09-01T17:42:27Z</time>
      </trkpt>
      <trkpt lat="43.97798" lon="1.90048">
        <ele>212.8</ele>
        <time>2022-09-01T17:42:28Z</time>
      </trkpt>
      <trkpt lat="43.97797" lon="1.90052">
        <ele>212.6</ele>
        <time>2022-09-01T17:42:29Z</time>
      </trkpt>
      <trkpt lat="43.97795" lon="1.90056">
        <ele>212.4</ele>
        <time>2022-09-01T17:42:30Z</time>
      </trkpt>
      <trkpt lat="43.97794" lon="1.9006">
        <ele>212.2</ele>
        <time>2022-09-01T17:42:31Z</time>
      </trkpt>
      <trkpt lat="43.97792" lon="1.90065">
        <ele>212</ele>
        <time>2022-09-01T17:42:32Z</time>
      </trkpt>
      <trkpt lat="43.9779" lon="1.90069">
        <ele>212</ele>
        <time>2022-09-01T17:42:33Z</time>
      </trkpt>
      <trkpt lat="43.97787" lon="1.90086">
        <ele>211.6</ele>
        <time>2022-09-01T17:42:36Z</time>
      </trkpt>
      <trkpt lat="43.97786" lon="1.90092">
        <ele>211.4</ele>
        <time>2022-09-01T17:42:37Z</time>
      </trkpt>
      <trkpt lat="43.97786" lon="1.90098">
        <ele>211.2</ele>
        <time>2022-09-01T17:42:38Z</time>
      </trkpt>
      <trkpt lat="43.97787" lon="1.90104">
        <ele>211.2</ele>
        <time>2022-09-01T17:42:39Z</time>
      </trkpt>
      <trkpt lat="43.97788" lon="1.90109">
        <ele>211</ele>
        <time>2022-09-01T17:42:40Z</time>
      </trkpt>
      <trkpt lat="43.9779" lon="1.90114">
        <ele>211</ele>
        <time>2022-09-01T17:42:41Z</time>
      </trkpt>
      <trkpt lat="43.97792" lon="1.90119">
        <ele>211</ele>
        <time>2022-09-01T17:42:42Z</time>
      </trkpt>
      <trkpt lat="43.97793" lon="1.90124">
        <ele>210.8</ele>
        <time>2022-09-01T17:42:43Z</time>
      </trkpt>
      <trkpt lat="43.97793" lon="1.90128">
        <ele>210.8</ele>
        <time>2022-09-01T17:42:44Z</time>
      </trkpt>
      <trkpt lat="43.97792" lon="1.90131">
        <ele>210.8</ele>
        <time>2022-09-01T17:42:45Z</time>
      </trkpt>
      <trkpt lat="43.9779" lon="1.90134">
        <ele>210.6</ele>
        <time>2022-09-01T17:42:46Z</time>
      </trkpt>
      <trkpt lat="43.97788" lon="1.90136">
        <ele>210.6</ele>
        <time>2022-09-01T17:42:47Z</time>
      </trkpt>
      <trkpt lat="43.97786" lon="1.90138">
        <ele>210.6</ele>
        <time>2022-09-01T17:42:48Z</time>
      </trkpt>
      <trkpt lat="43.97785" lon="1.90139">
        <ele>210.4</ele>
        <time>2022-09-01T17:42:49Z</time>
      </trkpt>
      <trkpt lat="43.97783" lon="1.9014">
        <ele>210.4</ele>
        <time>2022-09-01T17:42:50Z</time>
      </trkpt>
      <trkpt lat="43.97782" lon="1.90141">
        <ele>210.4</ele>
        <time>2022-09-01T17:42:51Z</time>
      </trkpt>
      <trkpt lat="43.97781" lon="1.90143">
        <ele>210.4</ele>
        <time>2022-09-01T17:42:52Z</time>
      </trkpt>
      <trkpt lat="43.97779" lon="1.90145">
        <ele>210.4</ele>
        <time>2022-09-01T17:42:53Z</time>
      </trkpt>
      <trkpt lat="43.97778" lon="1.90146">
        <ele>210.4</ele>
        <time>2022-09-01T17:42:54Z</time>
      </trkpt>
      <trkpt lat="43.97776" lon="1.90147">
        <ele>210.4</ele>
        <time>2022-09-01T17:42:55Z</time>
      </trkpt>
      <trkpt lat="43.97775" lon="1.90149">
        <ele>210.4</ele>
        <time>2022-09-01T17:42:56Z</time>
      </trkpt>
      <trkpt lat="43.97774" lon="1.90149">
        <ele>210.4</ele>
        <time>2022-09-01T17:42:57Z</time>
      </trkpt>
      <trkpt lat="43.97767" lon="1.90155">
        <ele>210.6</ele>
        <time>2022-09-01T17:43:01Z</time>
      </trkpt>
      <trkpt lat="43.97766" lon="1.90157">
        <ele>210.6</ele>
        <time>2022-09-01T17:43:02Z</time>
      </trkpt>
      <trkpt lat="43.97764" lon="1.90159">
        <ele>210.6</ele>
        <time>2022-09-01T17:43:03Z</time>
      </trkpt>
      <trkpt lat="43.97763" lon="1.9016">
        <ele>210.6</ele>
        <time>2022-09-01T17:43:04Z</time>
      </trkpt>
      <trkpt lat="43.97762" lon="1.90161">
        <ele>210.6</ele>
        <time>2022-09-01T17:43:05Z</time>
      </trkpt>
      <trkpt lat="43.9776" lon="1.90162">
        <ele>210.8</ele>
        <time>2022-09-01T17:43:06Z</time>
      </trkpt>
      <trkpt lat="43.97759" lon="1.90163">
        <ele>210.8</ele>
        <time>2022-09-01T17:43:07Z</time>
      </trkpt>
      <trkpt lat="43.97753" lon="1.90169">
        <ele>211</ele>
        <time>2022-09-01T17:43:12Z</time>
      </trkpt>
      <trkpt lat="43.97741" lon="1.9018">
        <ele>211.2</ele>
        <time>2022-09-01T17:43:19Z</time>
      </trkpt>
      <trkpt lat="43.97739" lon="1.90181">
        <ele>211.2</ele>
        <time>2022-09-01T17:43:20Z</time>
      </trkpt>
      <trkpt lat="43.97738" lon="1.90182">
        <ele>211.2</ele>
        <time>2022-09-01T17:43:21Z</time>
      </trkpt>
      <trkpt lat="43.97736" lon="1.90183">
        <ele>211.4</ele>
        <time>2022-09-01T17:43:22Z</time>
      </trkpt>
      <trkpt lat="43.97735" lon="1.90184">
        <ele>211.4</ele>
        <time>2022-09-01T17:43:23Z</time>
      </trkpt>
      <trkpt lat="43.97733" lon="1.90185">
        <ele>211.4</ele>
        <time>2022-09-01T17:43:24Z</time>
      </trkpt>
      <trkpt lat="43.97732" lon="1.90187">
        <ele>211.4</ele>
        <time>2022-09-01T17:43:25Z</time>
      </trkpt>
      <trkpt lat="43.97733" lon="1.90188">
        <ele>211.4</ele>
        <time>2022-09-01T17:43:26Z</time>
      </trkpt>
      <trkpt lat="43.97733" lon="1.90189">
        <ele>211.4</ele>
        <time>2022-09-01T17:43:27Z</time>
      </trkpt>
      <trkpt lat="43.97735" lon="1.9019">
        <ele>211.6</ele>
        <time>2022-09-01T17:43:52Z</time>
      </trkpt>
      <trkpt lat="43.97739" lon="1.90191">
        <ele>211.6</ele>
        <time>2022-09-01T17:43:54Z</time>
      </trkpt>
      <trkpt lat="43.97743" lon="1.90192">
        <ele>211.8</ele>
        <time>2022-09-01T17:43:57Z</time>
      </trkpt>
      <trkpt lat="43.97749" lon="1.90192">
        <ele>212</ele>
        <time>2022-09-01T17:44:00Z</time>
      </trkpt>
      <trkpt lat="43.97751" lon="1.90192">
        <ele>212.2</ele>
        <time>2022-09-01T17:44:01Z</time>
      </trkpt>
      <trkpt lat="43.9776" lon="1.90189">
        <ele>213</ele>
        <time>2022-09-01T17:44:06Z</time>
      </trkpt>
      <trkpt lat="43.97765" lon="1.90188">
        <ele>213.8</ele>
        <time>2022-09-01T17:44:09Z</time>
      </trkpt>
      <trkpt lat="43.97767" lon="1.90187">
        <ele>214.2</ele>
        <time>2022-09-01T17:44:10Z</time>
      </trkpt>
      <trkpt lat="43.97771" lon="1.90186">
        <ele>214.8</ele>
        <time>2022-09-01T17:44:12Z</time>
      </trkpt>
      <trkpt lat="43.97773" lon="1.90186">
        <ele>214.8</ele>
        <time>2022-09-01T17:44:13Z</time>
      </trkpt>
      <trkpt lat="43.97775" lon="1.90185">
        <ele>215.2</ele>
        <time>2022-09-01T17:44:14Z</time>
      </trkpt>
      <trkpt lat="43.97777" lon="1.90185">
        <ele>215.4</ele>
        <time>2022-09-01T17:44:15Z</time>
      </trkpt>
      <trkpt lat="43.97779" lon="1.90184">
        <ele>215.4</ele>
        <time>2022-09-01T17:44:16Z</time>
      </trkpt>
      <trkpt lat="43.97781" lon="1.90183">
        <ele>215.8</ele>
        <time>2022-09-01T17:44:17Z</time>
      </trkpt>
      <trkpt lat="43.97783" lon="1.90183">
        <ele>216</ele>
        <time>2022-09-01T17:44:18Z</time>
      </trkpt>
      <trkpt lat="43.97785" lon="1.90182">
        <ele>216.4</ele>
        <time>2022-09-01T17:44:19Z</time>
      </trkpt>
      <trkpt lat="43.97788" lon="1.9018">
        <ele>216.4</ele>
        <time>2022-09-01T17:44:20Z</time>
      </trkpt>
      <trkpt lat="43.9779" lon="1.90179">
        <ele>216.6</ele>
        <time>2022-09-01T17:44:21Z</time>
      </trkpt>
      <trkpt lat="43.97792" lon="1.90178">
        <ele>216.8</ele>
        <time>2022-09-01T17:44:22Z</time>
      </trkpt>
      <trkpt lat="43.97795" lon="1.90177">
        <ele>216.8</ele>
        <time>2022-09-01T17:44:23Z</time>
      </trkpt>
      <trkpt lat="43.97798" lon="1.90176">
        <ele>217</ele>
        <time>2022-09-01T17:44:24Z</time>
      </trkpt>
      <trkpt lat="43.97801" lon="1.90175">
        <ele>217</ele>
        <time>2022-09-01T17:44:25Z</time>
      </trkpt>
      <trkpt lat="43.97803" lon="1.90174">
        <ele>217</ele>
        <time>2022-09-01T17:44:26Z</time>
      </trkpt>
      <trkpt lat="43.97806" lon="1.90172">
        <ele>217</ele>
        <time>2022-09-01T17:44:27Z</time>
      </trkpt>
      <trkpt lat="43.97809" lon="1.90171">
        <ele>217</ele>
        <time>2022-09-01T17:44:28Z</time>
      </trkpt>
      <trkpt lat="43.97811" lon="1.90171">
        <ele>217</ele>
        <time>2022-09-01T17:44:29Z</time>
      </trkpt>
      <trkpt lat="43.97814" lon="1.9017">
        <ele>217.2</ele>
        <time>2022-09-01T17:44:30Z</time>
      </trkpt>
      <trkpt lat="43.97817" lon="1.90169">
        <ele>217.2</ele>
        <time>2022-09-01T17:44:31Z</time>
      </trkpt>
      <trkpt lat="43.9782" lon="1.90167">
        <ele>217.4</ele>
        <time>2022-09-01T17:44:32Z</time>
      </trkpt>
      <trkpt lat="43.97823" lon="1.90166">
        <ele>217.4</ele>
        <time>2022-09-01T17:44:33Z</time>
      </trkpt>
      <trkpt lat="43.97827" lon="1.90165">
        <ele>217.4</ele>
        <time>2022-09-01T17:44:34Z</time>
      </trkpt>
      <trkpt lat="43.9783" lon="1.90165">
        <ele>217.6</ele>
        <time>2022-09-01T17:44:35Z</time>
      </trkpt>
      <trkpt lat="43.97833" lon="1.90163">
        <ele>217.6</ele>
        <time>2022-09-01T17:44:36Z</time>
      </trkpt>
      <trkpt lat="43.97836" lon="1.90162">
        <ele>217.6</ele>
        <time>2022-09-01T17:44:37Z</time>
      </trkpt>
      <trkpt lat="43.97838" lon="1.90161">
        <ele>217.6</ele>
        <time>2022-09-01T17:44:38Z</time>
      </trkpt>
      <trkpt lat="43.97841" lon="1.90159">
        <ele>217.8</ele>
        <time>2022-09-01T17:44:39Z</time>
      </trkpt>
      <trkpt lat="43.97844" lon="1.90158">
        <ele>217.8</ele>
        <time>2022-09-01T17:44:40Z</time>
      </trkpt>
      <trkpt lat="43.97847" lon="1.90157">
        <ele>217.8</ele>
        <time>2022-09-01T17:44:41Z</time>
      </trkpt>
      <trkpt lat="43.9785" lon="1.90154">
        <ele>217.8</ele>
        <time>2022-09-01T17:44:42Z</time>
      </trkpt>
      <trkpt lat="43.97856" lon="1.90152">
        <ele>217.8</ele>
        <time>2022-09-01T17:44:43Z</time>
      </trkpt>
      <trkpt lat="43.9786" lon="1.90151">
        <ele>217.8</ele>
        <time>2022-09-01T17:44:44Z</time>
      </trkpt>
      <trkpt lat="43.97863" lon="1.90151">
        <ele>217.8</ele>
        <time>2022-09-01T17:44:45Z</time>
      </trkpt>
      <trkpt lat="43.97866" lon="1.90153">
        <ele>217.8</ele>
        <time>2022-09-01T17:44:46Z</time>
      </trkpt>
      <trkpt lat="43.97869" lon="1.90153">
        <ele>218</ele>
        <time>2022-09-01T17:44:47Z</time>
      </trkpt>
      <trkpt lat="43.97872" lon="1.90154">
        <ele>218</ele>
        <time>2022-09-01T17:44:48Z</time>
      </trkpt>
      <trkpt lat="43.97875" lon="1.90155">
        <ele>218</ele>
        <time>2022-09-01T17:44:49Z</time>
      </trkpt>
      <trkpt lat="43.97887" lon="1.90162">
        <ele>218.4</ele>
        <time>2022-09-01T17:44:53Z</time>
      </trkpt>
      <trkpt lat="43.97896" lon="1.90168">
        <ele>219.4</ele>
        <time>2022-09-01T17:44:56Z</time>
      </trkpt>
      <trkpt lat="43.97899" lon="1.90169">
        <ele>219.4</ele>
        <time>2022-09-01T17:44:57Z</time>
      </trkpt>
      <trkpt lat="43.97902" lon="1.9017">
        <ele>219.8</ele>
        <time>2022-09-01T17:44:58Z</time>
      </trkpt>
      <trkpt lat="43.97905" lon="1.90171">
        <ele>220.2</ele>
        <time>2022-09-01T17:44:59Z</time>
      </trkpt>
      <trkpt lat="43.97907" lon="1.90173">
        <ele>220.6</ele>
        <time>2022-09-01T17:45:00Z</time>
      </trkpt>
      <trkpt lat="43.97909" lon="1.90175">
        <ele>221</ele>
        <time>2022-09-01T17:45:01Z</time>
      </trkpt>
      <trkpt lat="43.97911" lon="1.90177">
        <ele>221</ele>
        <time>2022-09-01T17:45:02Z</time>
      </trkpt>
      <trkpt lat="43.97913" lon="1.90179">
        <ele>221.4</ele>
        <time>2022-09-01T17:45:03Z</time>
      </trkpt>
      <trkpt lat="43.97916" lon="1.90182">
        <ele>221.4</ele>
        <time>2022-09-01T17:45:04Z</time>
      </trkpt>
      <trkpt lat="43.97918" lon="1.90184">
        <ele>221.8</ele>
        <time>2022-09-01T17:45:05Z</time>
      </trkpt>
      <trkpt lat="43.97921" lon="1.90187">
        <ele>222</ele>
        <time>2022-09-01T17:45:06Z</time>
      </trkpt>
      <trkpt lat="43.97923" lon="1.90189">
        <ele>222.2</ele>
        <time>2022-09-01T17:45:07Z</time>
      </trkpt>
      <trkpt lat="43.97925" lon="1.90191">
        <ele>222.2</ele>
        <time>2022-09-01T17:45:08Z</time>
      </trkpt>
      <trkpt lat="43.97928" lon="1.90193">
        <ele>222.4</ele>
        <time>2022-09-01T17:45:09Z</time>
      </trkpt>
      <trkpt lat="43.97931" lon="1.90195">
        <ele>222.6</ele>
        <time>2022-09-01T17:45:10Z</time>
      </trkpt>
      <trkpt lat="43.97933" lon="1.90197">
        <ele>222.6</ele>
        <time>2022-09-01T17:45:11Z</time>
      </trkpt>
      <trkpt lat="43.97936" lon="1.902">
        <ele>222.8</ele>
        <time>2022-09-01T17:45:12Z</time>
      </trkpt>
      <trkpt lat="43.97939" lon="1.90202">
        <ele>222.8</ele>
        <time>2022-09-01T17:45:13Z</time>
      </trkpt>
      <trkpt lat="43.97942" lon="1.90205">
        <ele>222.8</ele>
        <time>2022-09-01T17:45:14Z</time>
      </trkpt>
      <trkpt lat="43.97945" lon="1.90207">
        <ele>222.8</ele>
        <time>2022-09-01T17:45:15Z</time>
      </trkpt>
      <trkpt lat="43.97948" lon="1.9021">
        <ele>223</ele>
        <time>2022-09-01T17:45:16Z</time>
      </trkpt>
      <trkpt lat="43.97951" lon="1.90213">
        <ele>223</ele>
        <time>2022-09-01T17:45:17Z</time>
      </trkpt>
      <trkpt lat="43.97954" lon="1.90215">
        <ele>223</ele>
        <time>2022-09-01T17:45:18Z</time>
      </trkpt>
      <trkpt lat="43.97958" lon="1.90218">
        <ele>223</ele>
        <time>2022-09-01T17:45:19Z</time>
      </trkpt>
      <trkpt lat="43.97961" lon="1.9022">
        <ele>223</ele>
        <time>2022-09-01T17:45:20Z</time>
      </trkpt>
      <trkpt lat="43.97964" lon="1.90222">
        <ele>223</ele>
        <time>2022-09-01T17:45:21Z</time>
      </trkpt>
      <trkpt lat="43.97968" lon="1.90224">
        <ele>223.2</ele>
        <time>2022-09-01T17:45:22Z</time>
      </trkpt>
      <trkpt lat="43.9797" lon="1.90226">
        <ele>223.2</ele>
        <time>2022-09-01T17:45:23Z</time>
      </trkpt>
      <trkpt lat="43.97975" lon="1.90229">
        <ele>223.2</ele>
        <time>2022-09-01T17:45:24Z</time>
      </trkpt>
      <trkpt lat="43.97978" lon="1.90232">
        <ele>223.4</ele>
        <time>2022-09-01T17:45:25Z</time>
      </trkpt>
      <trkpt lat="43.97982" lon="1.90234">
        <ele>223.2</ele>
        <time>2022-09-01T17:45:26Z</time>
      </trkpt>
      <trkpt lat="43.97985" lon="1.90236">
        <ele>223.2</ele>
        <time>2022-09-01T17:45:27Z</time>
      </trkpt>
      <trkpt lat="43.97988" lon="1.90238">
        <ele>223.4</ele>
        <time>2022-09-01T17:45:28Z</time>
      </trkpt>
      <trkpt lat="43.97992" lon="1.90241">
        <ele>223.4</ele>
        <time>2022-09-01T17:45:29Z</time>
      </trkpt>
      <trkpt lat="43.97995" lon="1.90243">
        <ele>223.6</ele>
        <time>2022-09-01T17:45:30Z</time>
      </trkpt>
      <trkpt lat="43.98004" lon="1.9025">
        <ele>223.8</ele>
        <time>2022-09-01T17:45:33Z</time>
      </trkpt>
      <trkpt lat="43.98027" lon="1.90268">
        <ele>224.2</ele>
        <time>2022-09-01T17:45:40Z</time>
      </trkpt>
      <trkpt lat="43.98058" lon="1.90291">
        <ele>225</ele>
        <time>2022-09-01T17:45:49Z</time>
      </trkpt>
      <trkpt lat="43.98061" lon="1.90293">
        <ele>225</ele>
        <time>2022-09-01T17:45:50Z</time>
      </trkpt>
      <trkpt lat="43.98064" lon="1.90294">
        <ele>225</ele>
        <time>2022-09-01T17:45:51Z</time>
      </trkpt>
      <trkpt lat="43.98067" lon="1.90296">
        <ele>225</ele>
        <time>2022-09-01T17:45:52Z</time>
      </trkpt>
      <trkpt lat="43.98069" lon="1.90298">
        <ele>225</ele>
        <time>2022-09-01T17:45:53Z</time>
      </trkpt>
      <trkpt lat="43.98071" lon="1.903">
        <ele>225.2</ele>
        <time>2022-09-01T17:45:54Z</time>
      </trkpt>
      <trkpt lat="43.98073" lon="1.90302">
        <ele>225.2</ele>
        <time>2022-09-01T17:45:55Z</time>
      </trkpt>
      <trkpt lat="43.98075" lon="1.90304">
        <ele>225.2</ele>
        <time>2022-09-01T17:45:56Z</time>
      </trkpt>
      <trkpt lat="43.98076" lon="1.90308">
        <ele>225.2</ele>
        <time>2022-09-01T17:45:57Z</time>
      </trkpt>
      <trkpt lat="43.98076" lon="1.90311">
        <ele>225.4</ele>
        <time>2022-09-01T17:45:58Z</time>
      </trkpt>
      <trkpt lat="43.98075" lon="1.90314">
        <ele>225.4</ele>
        <time>2022-09-01T17:45:59Z</time>
      </trkpt>
      <trkpt lat="43.98074" lon="1.90317">
        <ele>225.4</ele>
        <time>2022-09-01T17:46:00Z</time>
      </trkpt>
      <trkpt lat="43.98073" lon="1.90319">
        <ele>225.6</ele>
        <time>2022-09-01T17:46:01Z</time>
      </trkpt>
      <trkpt lat="43.98072" lon="1.90322">
        <ele>225.6</ele>
        <time>2022-09-01T17:46:02Z</time>
      </trkpt>
      <trkpt lat="43.98071" lon="1.90324">
        <ele>225.6</ele>
        <time>2022-09-01T17:46:03Z</time>
      </trkpt>
      <trkpt lat="43.9807" lon="1.90326">
        <ele>225.6</ele>
        <time>2022-09-01T17:46:04Z</time>
      </trkpt>
      <trkpt lat="43.98069" lon="1.90327">
        <ele>225.6</ele>
        <time>2022-09-01T17:46:05Z</time>
      </trkpt>
      <trkpt lat="43.98068" lon="1.90329">
        <ele>225.6</ele>
        <time>2022-09-01T17:46:06Z</time>
      </trkpt>
      <trkpt lat="43.98067" lon="1.90331">
        <ele>225.6</ele>
        <time>2022-09-01T17:46:07Z</time>
      </trkpt>
      <trkpt lat="43.98067" lon="1.90332">
        <ele>225.6</ele>
        <time>2022-09-01T17:46:08Z</time>
      </trkpt>
      <trkpt lat="43.98066" lon="1.90334">
        <ele>225.6</ele>
        <time>2022-09-01T17:46:09Z</time>
      </trkpt>
      <trkpt lat="43.98065" lon="1.90335">
        <ele>225.6</ele>
        <time>2022-09-01T17:46:10Z</time>
      </trkpt>
      <trkpt lat="43.98063" lon="1.90337">
        <ele>225.6</ele>
        <time>2022-09-01T17:46:12Z</time>
      </trkpt>
      <trkpt lat="43.98061" lon="1.9034">
        <ele>225.8</ele>
        <time>2022-09-01T17:49:59Z</time>
      </trkpt>
      <trkpt lat="43.9806" lon="1.90342">
        <ele>225.8</ele>
        <time>2022-09-01T17:50:00Z</time>
      </trkpt>
      <trkpt lat="43.98051" lon="1.90358">
        <ele>225.8</ele>
        <time>2022-09-01T17:50:06Z</time>
      </trkpt>
      <trkpt lat="43.98038" lon="1.9038">
        <ele>225.4</ele>
        <time>2022-09-01T17:50:12Z</time>
      </trkpt>
      <trkpt lat="43.98034" lon="1.90388">
        <ele>225.4</ele>
        <time>2022-09-01T17:50:14Z</time>
      </trkpt>
      <trkpt lat="43.98029" lon="1.90396">
        <ele>225.4</ele>
        <time>2022-09-01T17:50:16Z</time>
      </trkpt>
      <trkpt lat="43.9802" lon="1.90411">
        <ele>225.6</ele>
        <time>2022-09-01T17:50:20Z</time>
      </trkpt>
      <trkpt lat="43.98014" lon="1.90423">
        <ele>225.6</ele>
        <time>2022-09-01T17:50:23Z</time>
      </trkpt>
      <trkpt lat="43.98008" lon="1.90435">
        <ele>226.2</ele>
        <time>2022-09-01T17:50:26Z</time>
      </trkpt>
      <trkpt lat="43.98006" lon="1.90439">
        <ele>226.4</ele>
        <time>2022-09-01T17:50:27Z</time>
      </trkpt>
      <trkpt lat="43.98004" lon="1.90443">
        <ele>226.4</ele>
        <time>2022-09-01T17:50:28Z</time>
      </trkpt>
      <trkpt lat="43.97999" lon="1.90451">
        <ele>226.6</ele>
        <time>2022-09-01T17:50:30Z</time>
      </trkpt>
      <trkpt lat="43.97997" lon="1.90454">
        <ele>226.6</ele>
        <time>2022-09-01T17:50:31Z</time>
      </trkpt>
      <trkpt lat="43.97988" lon="1.9047">
        <ele>227.2</ele>
        <time>2022-09-01T17:50:35Z</time>
      </trkpt>
      <trkpt lat="43.97986" lon="1.90473">
        <ele>227.2</ele>
        <time>2022-09-01T17:50:36Z</time>
      </trkpt>
      <trkpt lat="43.9798" lon="1.90485">
        <ele>227.6</ele>
        <time>2022-09-01T17:50:39Z</time>
      </trkpt>
      <trkpt lat="43.97973" lon="1.90497">
        <ele>228.2</ele>
        <time>2022-09-01T17:50:42Z</time>
      </trkpt>
      <trkpt lat="43.97962" lon="1.90516">
        <ele>229</ele>
        <time>2022-09-01T17:50:47Z</time>
      </trkpt>
      <trkpt lat="43.97959" lon="1.9052">
        <ele>229.2</ele>
        <time>2022-09-01T17:50:48Z</time>
      </trkpt>
      <trkpt lat="43.97957" lon="1.90524">
        <ele>229.2</ele>
        <time>2022-09-01T17:50:49Z</time>
      </trkpt>
      <trkpt lat="43.97955" lon="1.90528">
        <ele>229.4</ele>
        <time>2022-09-01T17:50:50Z</time>
      </trkpt>
      <trkpt lat="43.97953" lon="1.90532">
        <ele>229.6</ele>
        <time>2022-09-01T17:50:51Z</time>
      </trkpt>
      <trkpt lat="43.9795" lon="1.90537">
        <ele>229.6</ele>
        <time>2022-09-01T17:50:52Z</time>
      </trkpt>
      <trkpt lat="43.97948" lon="1.90541">
        <ele>229.8</ele>
        <time>2022-09-01T17:50:53Z</time>
      </trkpt>
      <trkpt lat="43.97945" lon="1.90545">
        <ele>230</ele>
        <time>2022-09-01T17:50:54Z</time>
      </trkpt>
      <trkpt lat="43.97942" lon="1.90549">
        <ele>230.2</ele>
        <time>2022-09-01T17:50:55Z</time>
      </trkpt>
      <trkpt lat="43.97939" lon="1.90553">
        <ele>230.2</ele>
        <time>2022-09-01T17:50:56Z</time>
      </trkpt>
      <trkpt lat="43.97936" lon="1.90557">
        <ele>230.4</ele>
        <time>2022-09-01T17:50:57Z</time>
      </trkpt>
      <trkpt lat="43.97933" lon="1.90561">
        <ele>230.6</ele>
        <time>2022-09-01T17:50:58Z</time>
      </trkpt>
      <trkpt lat="43.9793" lon="1.90565">
        <ele>230.6</ele>
        <time>2022-09-01T17:50:59Z</time>
      </trkpt>
      <trkpt lat="43.97927" lon="1.90568">
        <ele>230.6</ele>
        <time>2022-09-01T17:51:00Z</time>
      </trkpt>
      <trkpt lat="43.97924" lon="1.90572">
        <ele>230.6</ele>
        <time>2022-09-01T17:51:01Z</time>
      </trkpt>
      <trkpt lat="43.97921" lon="1.90576">
        <ele>230.6</ele>
        <time>2022-09-01T17:51:02Z</time>
      </trkpt>
      <trkpt lat="43.97919" lon="1.90579">
        <ele>230.8</ele>
        <time>2022-09-01T17:51:03Z</time>
      </trkpt>
      <trkpt lat="43.97916" lon="1.90583">
        <ele>230.8</ele>
        <time>2022-09-01T17:51:04Z</time>
      </trkpt>
      <trkpt lat="43.97913" lon="1.90585">
        <ele>230.8</ele>
        <time>2022-09-01T17:51:05Z</time>
      </trkpt>
      <trkpt lat="43.97911" lon="1.90588">
        <ele>230.8</ele>
        <time>2022-09-01T17:51:06Z</time>
      </trkpt>
      <trkpt lat="43.97909" lon="1.90591">
        <ele>231</ele>
        <time>2022-09-01T17:51:07Z</time>
      </trkpt>
      <trkpt lat="43.97907" lon="1.90595">
        <ele>231</ele>
        <time>2022-09-01T17:51:08Z</time>
      </trkpt>
      <trkpt lat="43.97906" lon="1.90597">
        <ele>231.2</ele>
        <time>2022-09-01T17:51:09Z</time>
      </trkpt>
      <trkpt lat="43.97904" lon="1.906">
        <ele>231.2</ele>
        <time>2022-09-01T17:51:10Z</time>
      </trkpt>
      <trkpt lat="43.97903" lon="1.90602">
        <ele>231.6</ele>
        <time>2022-09-01T17:51:11Z</time>
      </trkpt>
      <trkpt lat="43.97901" lon="1.90604">
        <ele>231.6</ele>
        <time>2022-09-01T17:51:12Z</time>
      </trkpt>
      <trkpt lat="43.97899" lon="1.90605">
        <ele>231.8</ele>
        <time>2022-09-01T17:51:13Z</time>
      </trkpt>
      <trkpt lat="43.97897" lon="1.90607">
        <ele>232</ele>
        <time>2022-09-01T17:51:14Z</time>
      </trkpt>
      <trkpt lat="43.97895" lon="1.90609">
        <ele>232</ele>
        <time>2022-09-01T17:51:15Z</time>
      </trkpt>
      <trkpt lat="43.97893" lon="1.9061">
        <ele>232.2</ele>
        <time>2022-09-01T17:51:16Z</time>
      </trkpt>
      <trkpt lat="43.9789" lon="1.90612">
        <ele>232.2</ele>
        <time>2022-09-01T17:51:17Z</time>
      </trkpt>
      <trkpt lat="43.97888" lon="1.90614">
        <ele>232.2</ele>
        <time>2022-09-01T17:51:18Z</time>
      </trkpt>
      <trkpt lat="43.97886" lon="1.90617">
        <ele>232.4</ele>
        <time>2022-09-01T17:51:19Z</time>
      </trkpt>
      <trkpt lat="43.97884" lon="1.90619">
        <ele>232.4</ele>
        <time>2022-09-01T17:51:20Z</time>
      </trkpt>
      <trkpt lat="43.97882" lon="1.90621">
        <ele>232.4</ele>
        <time>2022-09-01T17:51:21Z</time>
      </trkpt>
      <trkpt lat="43.9788" lon="1.90624">
        <ele>232.4</ele>
        <time>2022-09-01T17:51:22Z</time>
      </trkpt>
      <trkpt lat="43.97877" lon="1.90626">
        <ele>232.6</ele>
        <time>2022-09-01T17:51:23Z</time>
      </trkpt>
      <trkpt lat="43.97875" lon="1.90629">
        <ele>232.6</ele>
        <time>2022-09-01T17:51:24Z</time>
      </trkpt>
      <trkpt lat="43.97873" lon="1.90632">
        <ele>233</ele>
        <time>2022-09-01T17:51:25Z</time>
      </trkpt>
      <trkpt lat="43.97871" lon="1.90635">
        <ele>233.2</ele>
        <time>2022-09-01T17:51:26Z</time>
      </trkpt>
      <trkpt lat="43.97867" lon="1.90642">
        <ele>233.4</ele>
        <time>2022-09-01T17:51:28Z</time>
      </trkpt>
      <trkpt lat="43.97865" lon="1.90645">
        <ele>233.6</ele>
        <time>2022-09-01T17:51:29Z</time>
      </trkpt>
      <trkpt lat="43.97863" lon="1.90649">
        <ele>233.6</ele>
        <time>2022-09-01T17:51:30Z</time>
      </trkpt>
      <trkpt lat="43.9786" lon="1.90652">
        <ele>233.8</ele>
        <time>2022-09-01T17:51:31Z</time>
      </trkpt>
      <trkpt lat="43.97858" lon="1.90656">
        <ele>233.8</ele>
        <time>2022-09-01T17:51:32Z</time>
      </trkpt>
      <trkpt lat="43.97857" lon="1.90659">
        <ele>233.8</ele>
        <time>2022-09-01T17:51:33Z</time>
      </trkpt>
      <trkpt lat="43.97855" lon="1.90663">
        <ele>234</ele>
        <time>2022-09-01T17:51:34Z</time>
      </trkpt>
      <trkpt lat="43.97853" lon="1.90666">
        <ele>234</ele>
        <time>2022-09-01T17:51:35Z</time>
      </trkpt>
      <trkpt lat="43.97851" lon="1.90669">
        <ele>234.2</ele>
        <time>2022-09-01T17:51:36Z</time>
      </trkpt>
      <trkpt lat="43.97848" lon="1.90673">
        <ele>234.2</ele>
        <time>2022-09-01T17:51:37Z</time>
      </trkpt>
      <trkpt lat="43.97846" lon="1.90677">
        <ele>234.4</ele>
        <time>2022-09-01T17:51:38Z</time>
      </trkpt>
      <trkpt lat="43.97844" lon="1.9068">
        <ele>234.4</ele>
        <time>2022-09-01T17:51:39Z</time>
      </trkpt>
      <trkpt lat="43.97842" lon="1.90684">
        <ele>234.4</ele>
        <time>2022-09-01T17:51:40Z</time>
      </trkpt>
      <trkpt lat="43.9784" lon="1.90687">
        <ele>234.6</ele>
        <time>2022-09-01T17:51:41Z</time>
      </trkpt>
      <trkpt lat="43.97838" lon="1.90691">
        <ele>234.6</ele>
        <time>2022-09-01T17:51:42Z</time>
      </trkpt>
      <trkpt lat="43.97836" lon="1.90695">
        <ele>234.8</ele>
        <time>2022-09-01T17:51:43Z</time>
      </trkpt>
      <trkpt lat="43.97834" lon="1.90698">
        <ele>234.8</ele>
        <time>2022-09-01T17:51:44Z</time>
      </trkpt>
      <trkpt lat="43.97832" lon="1.90702">
        <ele>235</ele>
        <time>2022-09-01T17:51:45Z</time>
      </trkpt>
      <trkpt lat="43.9783" lon="1.90706">
        <ele>235</ele>
        <time>2022-09-01T17:51:46Z</time>
      </trkpt>
      <trkpt lat="43.97825" lon="1.90713">
        <ele>235.4</ele>
        <time>2022-09-01T17:51:48Z</time>
      </trkpt>
      <trkpt lat="43.97814" lon="1.90734">
        <ele>235.8</ele>
        <time>2022-09-01T17:51:53Z</time>
      </trkpt>
      <trkpt lat="43.97812" lon="1.90738">
        <ele>235.8</ele>
        <time>2022-09-01T17:51:54Z</time>
      </trkpt>
      <trkpt lat="43.97806" lon="1.9075">
        <ele>236</ele>
        <time>2022-09-01T17:51:57Z</time>
      </trkpt>
      <trkpt lat="43.97804" lon="1.90755">
        <ele>236.2</ele>
        <time>2022-09-01T17:51:58Z</time>
      </trkpt>
      <trkpt lat="43.97788" lon="1.90775">
        <ele>236.8</ele>
        <time>2022-09-01T17:52:04Z</time>
      </trkpt>
      <trkpt lat="43.97784" lon="1.90775">
        <ele>237.2</ele>
        <time>2022-09-01T17:52:05Z</time>
      </trkpt>
      <trkpt lat="43.97776" lon="1.90773">
        <ele>237.2</ele>
        <time>2022-09-01T17:52:07Z</time>
      </trkpt>
      <trkpt lat="43.97773" lon="1.9077">
        <ele>237.4</ele>
        <time>2022-09-01T17:52:08Z</time>
      </trkpt>
      <trkpt lat="43.97769" lon="1.90768">
        <ele>237.4</ele>
        <time>2022-09-01T17:52:09Z</time>
      </trkpt>
      <trkpt lat="43.97751" lon="1.90754">
        <ele>238</ele>
        <time>2022-09-01T17:52:14Z</time>
      </trkpt>
      <trkpt lat="43.97742" lon="1.90751">
        <ele>238</ele>
        <time>2022-09-01T17:52:16Z</time>
      </trkpt>
      <trkpt lat="43.97732" lon="1.90753">
        <ele>238</ele>
        <time>2022-09-01T17:52:18Z</time>
      </trkpt>
      <trkpt lat="43.97727" lon="1.90756">
        <ele>238</ele>
        <time>2022-09-01T17:52:19Z</time>
      </trkpt>
      <trkpt lat="43.97722" lon="1.90759">
        <ele>238</ele>
        <time>2022-09-01T17:52:20Z</time>
      </trkpt>
      <trkpt lat="43.97718" lon="1.90764">
        <ele>238</ele>
        <time>2022-09-01T17:52:21Z</time>
      </trkpt>
      <trkpt lat="43.97714" lon="1.90769">
        <ele>237.8</ele>
        <time>2022-09-01T17:52:22Z</time>
      </trkpt>
      <trkpt lat="43.9771" lon="1.90773">
        <ele>237.8</ele>
        <time>2022-09-01T17:52:23Z</time>
      </trkpt>
      <trkpt lat="43.97699" lon="1.90788">
        <ele>237.4</ele>
        <time>2022-09-01T17:52:26Z</time>
      </trkpt>
      <trkpt lat="43.97695" lon="1.90792">
        <ele>237.4</ele>
        <time>2022-09-01T17:52:27Z</time>
      </trkpt>
      <trkpt lat="43.97692" lon="1.90797">
        <ele>237.2</ele>
        <time>2022-09-01T17:52:28Z</time>
      </trkpt>
      <trkpt lat="43.97688" lon="1.90802">
        <ele>237.2</ele>
        <time>2022-09-01T17:52:29Z</time>
      </trkpt>
      <trkpt lat="43.97686" lon="1.90807">
        <ele>237.2</ele>
        <time>2022-09-01T17:52:30Z</time>
      </trkpt>
      <trkpt lat="43.97681" lon="1.9082">
        <ele>237.2</ele>
        <time>2022-09-01T17:52:32Z</time>
      </trkpt>
      <trkpt lat="43.97679" lon="1.90825">
        <ele>237.2</ele>
        <time>2022-09-01T17:52:33Z</time>
      </trkpt>
      <trkpt lat="43.97676" lon="1.90838">
        <ele>237.2</ele>
        <time>2022-09-01T17:52:35Z</time>
      </trkpt>
      <trkpt lat="43.97674" lon="1.90851">
        <ele>237.4</ele>
        <time>2022-09-01T17:52:37Z</time>
      </trkpt>
      <trkpt lat="43.97674" lon="1.90858">
        <ele>237.4</ele>
        <time>2022-09-01T17:52:38Z</time>
      </trkpt>
      <trkpt lat="43.97674" lon="1.90864">
        <ele>237.6</ele>
        <time>2022-09-01T17:52:39Z</time>
      </trkpt>
      <trkpt lat="43.97675" lon="1.90891">
        <ele>238</ele>
        <time>2022-09-01T17:52:43Z</time>
      </trkpt>
      <trkpt lat="43.97673" lon="1.90912">
        <ele>238.4</ele>
        <time>2022-09-01T17:52:46Z</time>
      </trkpt>
      <trkpt lat="43.9767" lon="1.90923">
        <ele>238.4</ele>
        <time>2022-09-01T17:52:48Z</time>
      </trkpt>
      <trkpt lat="43.97668" lon="1.90929">
        <ele>238.4</ele>
        <time>2022-09-01T17:52:49Z</time>
      </trkpt>
      <trkpt lat="43.97665" lon="1.90934">
        <ele>238.6</ele>
        <time>2022-09-01T17:52:50Z</time>
      </trkpt>
      <trkpt lat="43.97659" lon="1.90946">
        <ele>238.6</ele>
        <time>2022-09-01T17:52:52Z</time>
      </trkpt>
      <trkpt lat="43.97656" lon="1.90951">
        <ele>238.6</ele>
        <time>2022-09-01T17:52:53Z</time>
      </trkpt>
      <trkpt lat="43.97654" lon="1.90956">
        <ele>238.6</ele>
        <time>2022-09-01T17:52:54Z</time>
      </trkpt>
      <trkpt lat="43.97651" lon="1.90962">
        <ele>238.8</ele>
        <time>2022-09-01T17:52:55Z</time>
      </trkpt>
      <trkpt lat="43.97646" lon="1.90972">
        <ele>238.8</ele>
        <time>2022-09-01T17:52:57Z</time>
      </trkpt>
      <trkpt lat="43.97635" lon="1.90995">
        <ele>239</ele>
        <time>2022-09-01T17:53:01Z</time>
      </trkpt>
      <trkpt lat="43.97628" lon="1.91014">
        <ele>239.2</ele>
        <time>2022-09-01T17:53:04Z</time>
      </trkpt>
      <trkpt lat="43.97623" lon="1.91035">
        <ele>239</ele>
        <time>2022-09-01T17:53:07Z</time>
      </trkpt>
      <trkpt lat="43.97621" lon="1.91049">
        <ele>238.8</ele>
        <time>2022-09-01T17:53:09Z</time>
      </trkpt>
      <trkpt lat="43.97619" lon="1.91056">
        <ele>238.8</ele>
        <time>2022-09-01T17:53:10Z</time>
      </trkpt>
      <trkpt lat="43.97611" lon="1.91075">
        <ele>238.8</ele>
        <time>2022-09-01T17:53:13Z</time>
      </trkpt>
      <trkpt lat="43.97608" lon="1.9108">
        <ele>238.8</ele>
        <time>2022-09-01T17:53:14Z</time>
      </trkpt>
      <trkpt lat="43.97605" lon="1.91086">
        <ele>239.2</ele>
        <time>2022-09-01T17:53:15Z</time>
      </trkpt>
      <trkpt lat="43.97601" lon="1.91091">
        <ele>239.2</ele>
        <time>2022-09-01T17:53:16Z</time>
      </trkpt>
      <trkpt lat="43.97598" lon="1.91097">
        <ele>239.2</ele>
        <time>2022-09-01T17:53:17Z</time>
      </trkpt>
      <trkpt lat="43.97595" lon="1.91102">
        <ele>239.4</ele>
        <time>2022-09-01T17:53:18Z</time>
      </trkpt>
      <trkpt lat="43.97592" lon="1.91107">
        <ele>239.4</ele>
        <time>2022-09-01T17:53:19Z</time>
      </trkpt>
      <trkpt lat="43.97577" lon="1.91128">
        <ele>240.4</ele>
        <time>2022-09-01T17:53:23Z</time>
      </trkpt>
      <trkpt lat="43.97575" lon="1.91132">
        <ele>240.4</ele>
        <time>2022-09-01T17:53:24Z</time>
      </trkpt>
      <trkpt lat="43.97559" lon="1.9115">
        <ele>241.2</ele>
        <time>2022-09-01T17:53:28Z</time>
      </trkpt>
      <trkpt lat="43.97555" lon="1.91154">
        <ele>241.4</ele>
        <time>2022-09-01T17:53:29Z</time>
      </trkpt>
      <trkpt lat="43.97551" lon="1.91157">
        <ele>241.6</ele>
        <time>2022-09-01T17:53:30Z</time>
      </trkpt>
      <trkpt lat="43.97547" lon="1.9116">
        <ele>241.8</ele>
        <time>2022-09-01T17:53:31Z</time>
      </trkpt>
      <trkpt lat="43.97534" lon="1.91171">
        <ele>242.6</ele>
        <time>2022-09-01T17:53:34Z</time>
      </trkpt>
      <trkpt lat="43.9753" lon="1.91174">
        <ele>243</ele>
        <time>2022-09-01T17:53:35Z</time>
      </trkpt>
      <trkpt lat="43.97525" lon="1.91178">
        <ele>243.2</ele>
        <time>2022-09-01T17:53:36Z</time>
      </trkpt>
      <trkpt lat="43.97521" lon="1.91181">
        <ele>243.4</ele>
        <time>2022-09-01T17:53:37Z</time>
      </trkpt>
      <trkpt lat="43.97517" lon="1.91185">
        <ele>243.8</ele>
        <time>2022-09-01T17:53:38Z</time>
      </trkpt>
      <trkpt lat="43.97513" lon="1.91188">
        <ele>244</ele>
        <time>2022-09-01T17:53:39Z</time>
      </trkpt>
      <trkpt lat="43.97509" lon="1.91191">
        <ele>244.6</ele>
        <time>2022-09-01T17:53:40Z</time>
      </trkpt>
      <trkpt lat="43.97505" lon="1.91195">
        <ele>244.8</ele>
        <time>2022-09-01T17:53:41Z</time>
      </trkpt>
      <trkpt lat="43.97502" lon="1.91198">
        <ele>245.2</ele>
        <time>2022-09-01T17:53:42Z</time>
      </trkpt>
      <trkpt lat="43.97499" lon="1.91202">
        <ele>245.4</ele>
        <time>2022-09-01T17:53:43Z</time>
      </trkpt>
      <trkpt lat="43.97496" lon="1.91206">
        <ele>245.6</ele>
        <time>2022-09-01T17:53:44Z</time>
      </trkpt>
      <trkpt lat="43.97494" lon="1.9121">
        <ele>245.8</ele>
        <time>2022-09-01T17:53:45Z</time>
      </trkpt>
      <trkpt lat="43.97493" lon="1.91215">
        <ele>245.8</ele>
        <time>2022-09-01T17:53:46Z</time>
      </trkpt>
      <trkpt lat="43.97492" lon="1.91219">
        <ele>246</ele>
        <time>2022-09-01T17:53:47Z</time>
      </trkpt>
      <trkpt lat="43.97493" lon="1.91223">
        <ele>246.2</ele>
        <time>2022-09-01T17:53:48Z</time>
      </trkpt>
      <trkpt lat="43.97493" lon="1.91226">
        <ele>246.2</ele>
        <time>2022-09-01T17:53:49Z</time>
      </trkpt>
      <trkpt lat="43.97493" lon="1.9123">
        <ele>246.4</ele>
        <time>2022-09-01T17:53:50Z</time>
      </trkpt>
      <trkpt lat="43.97491" lon="1.91233">
        <ele>246.4</ele>
        <time>2022-09-01T17:53:51Z</time>
      </trkpt>
      <trkpt lat="43.97489" lon="1.91234">
        <ele>246.4</ele>
        <time>2022-09-01T17:53:52Z</time>
      </trkpt>
      <trkpt lat="43.97486" lon="1.91234">
        <ele>246.4</ele>
        <time>2022-09-01T17:53:53Z</time>
      </trkpt>
      <trkpt lat="43.97485" lon="1.91234">
        <ele>246.4</ele>
        <time>2022-09-01T17:53:54Z</time>
      </trkpt>
      <trkpt lat="43.9748" lon="1.91235">
        <ele>246.6</ele>
        <time>2022-09-01T17:54:03Z</time>
      </trkpt>
      <trkpt lat="43.97479" lon="1.91236">
        <ele>246.6</ele>
        <time>2022-09-01T17:54:04Z</time>
      </trkpt>
      <trkpt lat="43.97476" lon="1.91237">
        <ele>246.6</ele>
        <time>2022-09-01T17:54:05Z</time>
      </trkpt>
      <trkpt lat="43.97474" lon="1.91238">
        <ele>246.4</ele>
        <time>2022-09-01T17:54:06Z</time>
      </trkpt>
      <trkpt lat="43.97472" lon="1.91239">
        <ele>246.4</ele>
        <time>2022-09-01T17:54:07Z</time>
      </trkpt>
      <trkpt lat="43.97469" lon="1.9124">
        <ele>246.4</ele>
        <time>2022-09-01T17:54:08Z</time>
      </trkpt>
      <trkpt lat="43.97467" lon="1.91241">
        <ele>246.4</ele>
        <time>2022-09-01T17:54:09Z</time>
      </trkpt>
      <trkpt lat="43.97444" lon="1.91253">
        <ele>246.4</ele>
        <time>2022-09-01T17:54:16Z</time>
      </trkpt>
      <trkpt lat="43.97419" lon="1.91269">
        <ele>246.6</ele>
        <time>2022-09-01T17:54:23Z</time>
      </trkpt>
      <trkpt lat="43.97415" lon="1.91271">
        <ele>246.6</ele>
        <time>2022-09-01T17:54:24Z</time>
      </trkpt>
      <trkpt lat="43.97412" lon="1.91273">
        <ele>246.6</ele>
        <time>2022-09-01T17:54:25Z</time>
      </trkpt>
      <trkpt lat="43.97408" lon="1.91276">
        <ele>246.6</ele>
        <time>2022-09-01T17:54:26Z</time>
      </trkpt>
      <trkpt lat="43.97406" lon="1.91279">
        <ele>246.6</ele>
        <time>2022-09-01T17:54:27Z</time>
      </trkpt>
      <trkpt lat="43.97404" lon="1.91283">
        <ele>246.6</ele>
        <time>2022-09-01T17:54:28Z</time>
      </trkpt>
      <trkpt lat="43.97404" lon="1.91286">
        <ele>246.8</ele>
        <time>2022-09-01T17:54:29Z</time>
      </trkpt>
      <trkpt lat="43.97405" lon="1.91288">
        <ele>246.8</ele>
        <time>2022-09-01T17:54:30Z</time>
      </trkpt>
      <trkpt lat="43.97406" lon="1.91288">
        <ele>246.8</ele>
        <time>2022-09-01T17:54:31Z</time>
      </trkpt>
      <trkpt lat="43.97408" lon="1.91287">
        <ele>246.8</ele>
        <time>2022-09-01T17:54:32Z</time>
      </trkpt>
      <trkpt lat="43.97417" lon="1.9128">
        <ele>247.2</ele>
        <time>2022-09-01T17:54:36Z</time>
      </trkpt>
      <trkpt lat="43.97419" lon="1.91279">
        <ele>247.2</ele>
        <time>2022-09-01T17:54:37Z</time>
      </trkpt>
      <trkpt lat="43.97424" lon="1.91276">
        <ele>247.4</ele>
        <time>2022-09-01T17:54:39Z</time>
      </trkpt>
      <trkpt lat="43.97428" lon="1.91273">
        <ele>247.6</ele>
        <time>2022-09-01T17:54:41Z</time>
      </trkpt>
      <trkpt lat="43.97431" lon="1.91272">
        <ele>247.8</ele>
        <time>2022-09-01T17:54:42Z</time>
      </trkpt>
      <trkpt lat="43.97433" lon="1.91271">
        <ele>247.8</ele>
        <time>2022-09-01T17:54:43Z</time>
      </trkpt>
      <trkpt lat="43.97435" lon="1.9127">
        <ele>247.8</ele>
        <time>2022-09-01T17:54:44Z</time>
      </trkpt>
      <trkpt lat="43.9744" lon="1.91271">
        <ele>247.8</ele>
        <time>2022-09-01T17:54:46Z</time>
      </trkpt>
      <trkpt lat="43.97441" lon="1.91273">
        <ele>247.8</ele>
        <time>2022-09-01T17:54:47Z</time>
      </trkpt>
      <trkpt lat="43.97443" lon="1.91275">
        <ele>247.8</ele>
        <time>2022-09-01T17:54:48Z</time>
      </trkpt>
      <trkpt lat="43.97445" lon="1.91277">
        <ele>247.8</ele>
        <time>2022-09-01T17:54:49Z</time>
      </trkpt>
      <trkpt lat="43.97447" lon="1.9128">
        <ele>247.8</ele>
        <time>2022-09-01T17:54:50Z</time>
      </trkpt>
      <trkpt lat="43.97459" lon="1.913">
        <ele>247.6</ele>
        <time>2022-09-01T17:54:57Z</time>
      </trkpt>
      <trkpt lat="43.97472" lon="1.91321">
        <ele>247.2</ele>
        <time>2022-09-01T17:55:02Z</time>
      </trkpt>
      <trkpt lat="43.97487" lon="1.91345">
        <ele>246.4</ele>
        <time>2022-09-01T17:55:06Z</time>
      </trkpt>
      <trkpt lat="43.97491" lon="1.91353">
        <ele>246.2</ele>
        <time>2022-09-01T17:55:07Z</time>
      </trkpt>
      <trkpt lat="43.97495" lon="1.9136">
        <ele>245.2</ele>
        <time>2022-09-01T17:55:08Z</time>
      </trkpt>
      <trkpt lat="43.97514" lon="1.91391">
        <ele>243.8</ele>
        <time>2022-09-01T17:55:12Z</time>
      </trkpt>
      <trkpt lat="43.97519" lon="1.914">
        <ele>243.6</ele>
        <time>2022-09-01T17:55:13Z</time>
      </trkpt>
      <trkpt lat="43.97529" lon="1.91416">
        <ele>242.2</ele>
        <time>2022-09-01T17:55:15Z</time>
      </trkpt>
      <trkpt lat="43.97534" lon="1.91424">
        <ele>241.6</ele>
        <time>2022-09-01T17:55:16Z</time>
      </trkpt>
      <trkpt lat="43.97538" lon="1.9143">
        <ele>240.6</ele>
        <time>2022-09-01T17:55:17Z</time>
      </trkpt>
      <trkpt lat="43.97541" lon="1.91435">
        <ele>240</ele>
        <time>2022-09-01T17:55:18Z</time>
      </trkpt>
      <trkpt lat="43.97543" lon="1.9144">
        <ele>239.2</ele>
        <time>2022-09-01T17:55:19Z</time>
      </trkpt>
      <trkpt lat="43.97543" lon="1.91444">
        <ele>239</ele>
        <time>2022-09-01T17:55:20Z</time>
      </trkpt>
      <trkpt lat="43.97542" lon="1.91447">
        <ele>238.6</ele>
        <time>2022-09-01T17:55:21Z</time>
      </trkpt>
      <trkpt lat="43.97538" lon="1.91451">
        <ele>237.6</ele>
        <time>2022-09-01T17:56:19Z</time>
      </trkpt>
      <trkpt lat="43.97536" lon="1.91453">
        <ele>237.4</ele>
        <time>2022-09-01T17:56:20Z</time>
      </trkpt>
      <trkpt lat="43.97534" lon="1.91457">
        <ele>237.4</ele>
        <time>2022-09-01T17:56:21Z</time>
      </trkpt>
      <trkpt lat="43.97528" lon="1.91465">
        <ele>237.4</ele>
        <time>2022-09-01T17:56:24Z</time>
      </trkpt>
      <trkpt lat="43.97515" lon="1.91484">
        <ele>237.2</ele>
        <time>2022-09-01T17:56:29Z</time>
      </trkpt>
      <trkpt lat="43.97512" lon="1.91488">
        <ele>237.2</ele>
        <time>2022-09-01T17:56:30Z</time>
      </trkpt>
      <trkpt lat="43.97499" lon="1.91507">
        <ele>237.2</ele>
        <time>2022-09-01T17:56:34Z</time>
      </trkpt>
      <trkpt lat="43.97494" lon="1.91516">
        <ele>237.2</ele>
        <time>2022-09-01T17:56:36Z</time>
      </trkpt>
      <trkpt lat="43.97491" lon="1.9152">
        <ele>237.2</ele>
        <time>2022-09-01T17:56:38Z</time>
      </trkpt>
      <trkpt lat="43.97485" lon="1.91532">
        <ele>237.2</ele>
        <time>2022-09-01T17:56:41Z</time>
      </trkpt>
      <trkpt lat="43.9748" lon="1.9154">
        <ele>237</ele>
        <time>2022-09-01T17:56:43Z</time>
      </trkpt>
      <trkpt lat="43.97478" lon="1.91545">
        <ele>237.2</ele>
        <time>2022-09-01T17:56:44Z</time>
      </trkpt>
      <trkpt lat="43.97476" lon="1.91549">
        <ele>237.2</ele>
        <time>2022-09-01T17:56:45Z</time>
      </trkpt>
      <trkpt lat="43.97471" lon="1.91557">
        <ele>237.6</ele>
        <time>2022-09-01T17:56:47Z</time>
      </trkpt>
      <trkpt lat="43.97469" lon="1.91561">
        <ele>237.6</ele>
        <time>2022-09-01T17:56:48Z</time>
      </trkpt>
      <trkpt lat="43.97467" lon="1.91565">
        <ele>237.6</ele>
        <time>2022-09-01T17:56:49Z</time>
      </trkpt>
      <trkpt lat="43.97464" lon="1.91569">
        <ele>237.6</ele>
        <time>2022-09-01T17:56:50Z</time>
      </trkpt>
      <trkpt lat="43.97463" lon="1.91572">
        <ele>237.8</ele>
        <time>2022-09-01T17:56:51Z</time>
      </trkpt>
      <trkpt lat="43.97463" lon="1.9158">
        <ele>237.8</ele>
        <time>2022-09-01T17:56:52Z</time>
      </trkpt>
      <trkpt lat="43.97463" lon="1.9158">
        <ele>237.8</ele>
        <time>2022-09-01T17:56:53Z</time>
      </trkpt>
      <trkpt lat="43.97465" lon="1.91584">
        <ele>237.8</ele>
        <time>2022-09-01T17:56:54Z</time>
      </trkpt>
      <trkpt lat="43.97466" lon="1.91588">
        <ele>237.8</ele>
        <time>2022-09-01T17:56:55Z</time>
      </trkpt>
      <trkpt lat="43.97463" lon="1.91592">
        <ele>237.8</ele>
        <time>2022-09-01T17:56:56Z</time>
      </trkpt>
      <trkpt lat="43.9746" lon="1.91592">
        <ele>237.6</ele>
        <time>2022-09-01T17:56:57Z</time>
      </trkpt>
      <trkpt lat="43.97457" lon="1.91593">
        <ele>237.2</ele>
        <time>2022-09-01T17:56:58Z</time>
      </trkpt>
      <trkpt lat="43.9745" lon="1.91597">
        <ele>236.8</ele>
        <time>2022-09-01T17:57:01Z</time>
      </trkpt>
      <trkpt lat="43.97447" lon="1.916">
        <ele>236.8</ele>
        <time>2022-09-01T17:57:02Z</time>
      </trkpt>
      <trkpt lat="43.97447" lon="1.916">
        <ele>236.6</ele>
        <time>2022-09-01T17:57:03Z</time>
      </trkpt>
      <trkpt lat="43.97445" lon="1.91603">
        <ele>236.6</ele>
        <time>2022-09-01T17:57:04Z</time>
      </trkpt>
      <trkpt lat="43.97442" lon="1.9161">
        <ele>236.6</ele>
        <time>2022-09-01T17:57:05Z</time>
      </trkpt>
      <trkpt lat="43.9744" lon="1.91613">
        <ele>236.6</ele>
        <time>2022-09-01T17:57:06Z</time>
      </trkpt>
      <trkpt lat="43.97439" lon="1.91616">
        <ele>236.4</ele>
        <time>2022-09-01T17:57:07Z</time>
      </trkpt>
      <trkpt lat="43.97438" lon="1.9162">
        <ele>236.4</ele>
        <time>2022-09-01T17:57:08Z</time>
      </trkpt>
      <trkpt lat="43.97428" lon="1.91643">
        <ele>236.8</ele>
        <time>2022-09-01T17:57:14Z</time>
      </trkpt>
      <trkpt lat="43.97408" lon="1.91688">
        <ele>237</ele>
        <time>2022-09-01T17:57:24Z</time>
      </trkpt>
      <trkpt lat="43.97397" lon="1.91711">
        <ele>237.6</ele>
        <time>2022-09-01T17:57:30Z</time>
      </trkpt>
      <trkpt lat="43.97392" lon="1.9172">
        <ele>237.6</ele>
        <time>2022-09-01T17:57:32Z</time>
      </trkpt>
      <trkpt lat="43.97376" lon="1.91749">
        <ele>237.8</ele>
        <time>2022-09-01T17:57:37Z</time>
      </trkpt>
      <trkpt lat="43.9737" lon="1.91758">
        <ele>238</ele>
        <time>2022-09-01T17:57:39Z</time>
      </trkpt>
      <trkpt lat="43.97367" lon="1.91762">
        <ele>238.2</ele>
        <time>2022-09-01T17:57:40Z</time>
      </trkpt>
      <trkpt lat="43.97364" lon="1.91766">
        <ele>238.2</ele>
        <time>2022-09-01T17:57:41Z</time>
      </trkpt>
      <trkpt lat="43.97355" lon="1.91778">
        <ele>238.6</ele>
        <time>2022-09-01T17:57:44Z</time>
      </trkpt>
      <trkpt lat="43.97352" lon="1.91781">
        <ele>238.6</ele>
        <time>2022-09-01T17:57:45Z</time>
      </trkpt>
      <trkpt lat="43.97352" lon="1.91781">
        <ele>238.8</ele>
        <time>2022-09-01T17:57:46Z</time>
      </trkpt>
      <trkpt lat="43.97345" lon="1.91788">
        <ele>238.8</ele>
        <time>2022-09-01T17:57:47Z</time>
      </trkpt>
      <trkpt lat="43.97341" lon="1.91791">
        <ele>239</ele>
        <time>2022-09-01T17:57:48Z</time>
      </trkpt>
      <trkpt lat="43.97338" lon="1.91793">
        <ele>239.2</ele>
        <time>2022-09-01T17:57:49Z</time>
      </trkpt>
      <trkpt lat="43.97335" lon="1.91795">
        <ele>239.2</ele>
        <time>2022-09-01T17:57:50Z</time>
      </trkpt>
      <trkpt lat="43.9733" lon="1.91796">
        <ele>239.4</ele>
        <time>2022-09-01T17:57:51Z</time>
      </trkpt>
      <trkpt lat="43.97323" lon="1.91798">
        <ele>239.8</ele>
        <time>2022-09-01T17:57:53Z</time>
      </trkpt>
      <trkpt lat="43.97319" lon="1.91799">
        <ele>239.8</ele>
        <time>2022-09-01T17:57:54Z</time>
      </trkpt>
      <trkpt lat="43.97312" lon="1.918">
        <ele>240.4</ele>
        <time>2022-09-01T17:57:56Z</time>
      </trkpt>
      <trkpt lat="43.97307" lon="1.918">
        <ele>240.4</ele>
        <time>2022-09-01T17:57:57Z</time>
      </trkpt>
      <trkpt lat="43.97299" lon="1.918">
        <ele>240.8</ele>
        <time>2022-09-01T17:57:59Z</time>
      </trkpt>
      <trkpt lat="43.97295" lon="1.91799">
        <ele>241</ele>
        <time>2022-09-01T17:58:00Z</time>
      </trkpt>
      <trkpt lat="43.97291" lon="1.91798">
        <ele>241.2</ele>
        <time>2022-09-01T17:58:01Z</time>
      </trkpt>
      <trkpt lat="43.97287" lon="1.91797">
        <ele>241.6</ele>
        <time>2022-09-01T17:58:02Z</time>
      </trkpt>
      <trkpt lat="43.97284" lon="1.91796">
        <ele>241.8</ele>
        <time>2022-09-01T17:58:03Z</time>
      </trkpt>
      <trkpt lat="43.9728" lon="1.91795">
        <ele>242</ele>
        <time>2022-09-01T17:58:04Z</time>
      </trkpt>
      <trkpt lat="43.97277" lon="1.91794">
        <ele>242.2</ele>
        <time>2022-09-01T17:58:05Z</time>
      </trkpt>
      <trkpt lat="43.97273" lon="1.91793">
        <ele>242.4</ele>
        <time>2022-09-01T17:58:06Z</time>
      </trkpt>
      <trkpt lat="43.97268" lon="1.91793">
        <ele>242.6</ele>
        <time>2022-09-01T17:58:07Z</time>
      </trkpt>
      <trkpt lat="43.97265" lon="1.91794">
        <ele>242.6</ele>
        <time>2022-09-01T17:58:08Z</time>
      </trkpt>
      <trkpt lat="43.97265" lon="1.91794">
        <ele>242.8</ele>
        <time>2022-09-01T17:58:09Z</time>
      </trkpt>
      <trkpt lat="43.97259" lon="1.91798">
        <ele>243</ele>
        <time>2022-09-01T17:58:10Z</time>
      </trkpt>
      <trkpt lat="43.97256" lon="1.91802">
        <ele>243.4</ele>
        <time>2022-09-01T17:58:11Z</time>
      </trkpt>
      <trkpt lat="43.97254" lon="1.91806">
        <ele>243.6</ele>
        <time>2022-09-01T17:58:12Z</time>
      </trkpt>
      <trkpt lat="43.97252" lon="1.91811">
        <ele>243.8</ele>
        <time>2022-09-01T17:58:13Z</time>
      </trkpt>
      <trkpt lat="43.9725" lon="1.91816">
        <ele>244.2</ele>
        <time>2022-09-01T17:58:14Z</time>
      </trkpt>
      <trkpt lat="43.97249" lon="1.91821">
        <ele>244.2</ele>
        <time>2022-09-01T17:58:15Z</time>
      </trkpt>
      <trkpt lat="43.97247" lon="1.91825">
        <ele>244.4</ele>
        <time>2022-09-01T17:58:16Z</time>
      </trkpt>
      <trkpt lat="43.97246" lon="1.9183">
        <ele>244.6</ele>
        <time>2022-09-01T17:58:17Z</time>
      </trkpt>
      <trkpt lat="43.97244" lon="1.91834">
        <ele>244.6</ele>
        <time>2022-09-01T17:58:18Z</time>
      </trkpt>
      <trkpt lat="43.97243" lon="1.91838">
        <ele>244.8</ele>
        <time>2022-09-01T17:58:19Z</time>
      </trkpt>
      <trkpt lat="43.97241" lon="1.91843">
        <ele>245</ele>
        <time>2022-09-01T17:58:20Z</time>
      </trkpt>
      <trkpt lat="43.9724" lon="1.91847">
        <ele>245</ele>
        <time>2022-09-01T17:58:21Z</time>
      </trkpt>
      <trkpt lat="43.97238" lon="1.91852">
        <ele>245.2</ele>
        <time>2022-09-01T17:58:22Z</time>
      </trkpt>
      <trkpt lat="43.97237" lon="1.91857">
        <ele>245.4</ele>
        <time>2022-09-01T17:58:23Z</time>
      </trkpt>
      <trkpt lat="43.97235" lon="1.91861">
        <ele>245.6</ele>
        <time>2022-09-01T17:58:24Z</time>
      </trkpt>
      <trkpt lat="43.97233" lon="1.91866">
        <ele>245.6</ele>
        <time>2022-09-01T17:58:25Z</time>
      </trkpt>
      <trkpt lat="43.97231" lon="1.91871">
        <ele>245.6</ele>
        <time>2022-09-01T17:58:26Z</time>
      </trkpt>
      <trkpt lat="43.97229" lon="1.91875">
        <ele>245.8</ele>
        <time>2022-09-01T17:58:27Z</time>
      </trkpt>
      <trkpt lat="43.97229" lon="1.91875">
        <ele>246</ele>
        <time>2022-09-01T17:58:28Z</time>
      </trkpt>
      <trkpt lat="43.97226" lon="1.91884">
        <ele>246.2</ele>
        <time>2022-09-01T17:58:29Z</time>
      </trkpt>
      <trkpt lat="43.97224" lon="1.91889">
        <ele>246.4</ele>
        <time>2022-09-01T17:58:30Z</time>
      </trkpt>
      <trkpt lat="43.97222" lon="1.91893">
        <ele>246.4</ele>
        <time>2022-09-01T17:58:31Z</time>
      </trkpt>
      <trkpt lat="43.97221" lon="1.91898">
        <ele>246.6</ele>
        <time>2022-09-01T17:58:32Z</time>
      </trkpt>
      <trkpt lat="43.97219" lon="1.91902">
        <ele>246.6</ele>
        <time>2022-09-01T17:58:33Z</time>
      </trkpt>
      <trkpt lat="43.97219" lon="1.91907">
        <ele>246.8</ele>
        <time>2022-09-01T17:58:34Z</time>
      </trkpt>
      <trkpt lat="43.9722" lon="1.91911">
        <ele>247</ele>
        <time>2022-09-01T17:58:35Z</time>
      </trkpt>
      <trkpt lat="43.97222" lon="1.91915">
        <ele>247.2</ele>
        <time>2022-09-01T17:58:36Z</time>
      </trkpt>
      <trkpt lat="43.97225" lon="1.91918">
        <ele>247.2</ele>
        <time>2022-09-01T17:58:37Z</time>
      </trkpt>
      <trkpt lat="43.97228" lon="1.91922">
        <ele>247.4</ele>
        <time>2022-09-01T17:58:38Z</time>
      </trkpt>
      <trkpt lat="43.97231" lon="1.91925">
        <ele>247.6</ele>
        <time>2022-09-01T17:58:39Z</time>
      </trkpt>
      <trkpt lat="43.97234" lon="1.91929">
        <ele>247.6</ele>
        <time>2022-09-01T17:58:40Z</time>
      </trkpt>
      <trkpt lat="43.97237" lon="1.91932">
        <ele>247.8</ele>
        <time>2022-09-01T17:58:41Z</time>
      </trkpt>
      <trkpt lat="43.9724" lon="1.91935">
        <ele>247.8</ele>
        <time>2022-09-01T17:58:42Z</time>
      </trkpt>
      <trkpt lat="43.97243" lon="1.91939">
        <ele>247.8</ele>
        <time>2022-09-01T17:58:43Z</time>
      </trkpt>
      <trkpt lat="43.97246" lon="1.91943">
        <ele>247.8</ele>
        <time>2022-09-01T17:58:44Z</time>
      </trkpt>
      <trkpt lat="43.9725" lon="1.91948">
        <ele>247.8</ele>
        <time>2022-09-01T17:58:45Z</time>
      </trkpt>
      <trkpt lat="43.97254" lon="1.91953">
        <ele>247.6</ele>
        <time>2022-09-01T17:58:46Z</time>
      </trkpt>
      <trkpt lat="43.97254" lon="1.91953">
        <ele>247.6</ele>
        <time>2022-09-01T17:58:47Z</time>
      </trkpt>
      <trkpt lat="43.97264" lon="1.91964">
        <ele>247.6</ele>
        <time>2022-09-01T17:58:48Z</time>
      </trkpt>
      <trkpt lat="43.97269" lon="1.9197">
        <ele>247.2</ele>
        <time>2022-09-01T17:58:49Z</time>
      </trkpt>
      <trkpt lat="43.97274" lon="1.91977">
        <ele>247</ele>
        <time>2022-09-01T17:58:50Z</time>
      </trkpt>
      <trkpt lat="43.9728" lon="1.91983">
        <ele>246.6</ele>
        <time>2022-09-01T17:58:51Z</time>
      </trkpt>
      <trkpt lat="43.97303" lon="1.9201">
        <ele>245.2</ele>
        <time>2022-09-01T17:58:55Z</time>
      </trkpt>
      <trkpt lat="43.97309" lon="1.92016">
        <ele>245</ele>
        <time>2022-09-01T17:58:56Z</time>
      </trkpt>
      <trkpt lat="43.97315" lon="1.92023">
        <ele>244.6</ele>
        <time>2022-09-01T17:58:57Z</time>
      </trkpt>
      <trkpt lat="43.9732" lon="1.92028">
        <ele>244.2</ele>
        <time>2022-09-01T17:58:58Z</time>
      </trkpt>
      <trkpt lat="43.97326" lon="1.92034">
        <ele>243.8</ele>
        <time>2022-09-01T17:58:59Z</time>
      </trkpt>
      <trkpt lat="43.97331" lon="1.9204">
        <ele>243.2</ele>
        <time>2022-09-01T17:59:00Z</time>
      </trkpt>
      <trkpt lat="43.97336" lon="1.92045">
        <ele>243</ele>
        <time>2022-09-01T17:59:01Z</time>
      </trkpt>
      <trkpt lat="43.97341" lon="1.9205">
        <ele>242.8</ele>
        <time>2022-09-01T17:59:02Z</time>
      </trkpt>
      <trkpt lat="43.97346" lon="1.92055">
        <ele>242.6</ele>
        <time>2022-09-01T17:59:03Z</time>
      </trkpt>
      <trkpt lat="43.9735" lon="1.9206">
        <ele>242.4</ele>
        <time>2022-09-01T17:59:04Z</time>
      </trkpt>
      <trkpt lat="43.97354" lon="1.92064">
        <ele>242</ele>
        <time>2022-09-01T17:59:05Z</time>
      </trkpt>
      <trkpt lat="43.97354" lon="1.92064">
        <ele>242</ele>
        <time>2022-09-01T17:59:06Z</time>
      </trkpt>
      <trkpt lat="43.97362" lon="1.92073">
        <ele>241.8</ele>
        <time>2022-09-01T17:59:07Z</time>
      </trkpt>
      <trkpt lat="43.97366" lon="1.92078">
        <ele>241.8</ele>
        <time>2022-09-01T17:59:08Z</time>
      </trkpt>
      <trkpt lat="43.97383" lon="1.92098">
        <ele>241.8</ele>
        <time>2022-09-01T17:59:12Z</time>
      </trkpt>
      <trkpt lat="43.97408" lon="1.92127">
        <ele>241.4</ele>
        <time>2022-09-01T17:59:17Z</time>
      </trkpt>
      <trkpt lat="43.97419" lon="1.9214">
        <ele>240.8</ele>
        <time>2022-09-01T17:59:19Z</time>
      </trkpt>
      <trkpt lat="43.97429" lon="1.92154">
        <ele>239.2</ele>
        <time>2022-09-01T17:59:21Z</time>
      </trkpt>
      <trkpt lat="43.97434" lon="1.9216">
        <ele>238.6</ele>
        <time>2022-09-01T17:59:22Z</time>
      </trkpt>
      <trkpt lat="43.97439" lon="1.92166">
        <ele>237.8</ele>
        <time>2022-09-01T17:59:23Z</time>
      </trkpt>
      <trkpt lat="43.97444" lon="1.92172">
        <ele>237.4</ele>
        <time>2022-09-01T17:59:24Z</time>
      </trkpt>
      <trkpt lat="43.97448" lon="1.92178">
        <ele>236.8</ele>
        <time>2022-09-01T17:59:25Z</time>
      </trkpt>
      <trkpt lat="43.97453" lon="1.92183">
        <ele>236.6</ele>
        <time>2022-09-01T17:59:26Z</time>
      </trkpt>
      <trkpt lat="43.97457" lon="1.92187">
        <ele>236.2</ele>
        <time>2022-09-01T17:59:27Z</time>
      </trkpt>
      <trkpt lat="43.97461" lon="1.92191">
        <ele>235.8</ele>
        <time>2022-09-01T17:59:28Z</time>
      </trkpt>
      <trkpt lat="43.97461" lon="1.92191">
        <ele>235.6</ele>
        <time>2022-09-01T17:59:29Z</time>
      </trkpt>
      <trkpt lat="43.97479" lon="1.92213">
        <ele>234.2</ele>
        <time>2022-09-01T17:59:32Z</time>
      </trkpt>
      <trkpt lat="43.97488" lon="1.92221">
        <ele>233.2</ele>
        <time>2022-09-01T17:59:34Z</time>
      </trkpt>
      <trkpt lat="43.97494" lon="1.92227">
        <ele>232.8</ele>
        <time>2022-09-01T17:59:35Z</time>
      </trkpt>
      <trkpt lat="43.97502" lon="1.92237">
        <ele>232</ele>
        <time>2022-09-01T17:59:37Z</time>
      </trkpt>
      <trkpt lat="43.97506" lon="1.92242">
        <ele>231.8</ele>
        <time>2022-09-01T17:59:38Z</time>
      </trkpt>
      <trkpt lat="43.9751" lon="1.92246">
        <ele>231.4</ele>
        <time>2022-09-01T17:59:39Z</time>
      </trkpt>
      <trkpt lat="43.97513" lon="1.9225">
        <ele>231.2</ele>
        <time>2022-09-01T17:59:40Z</time>
      </trkpt>
      <trkpt lat="43.97517" lon="1.92254">
        <ele>230.6</ele>
        <time>2022-09-01T17:59:41Z</time>
      </trkpt>
      <trkpt lat="43.97519" lon="1.92255">
        <ele>230.4</ele>
        <time>2022-09-01T17:59:42Z</time>
      </trkpt>
      <trkpt lat="43.97519" lon="1.92255">
        <ele>230.2</ele>
        <time>2022-09-01T17:59:43Z</time>
      </trkpt>
      <trkpt lat="43.97526" lon="1.92259">
        <ele>229.8</ele>
        <time>2022-09-01T17:59:44Z</time>
      </trkpt>
      <trkpt lat="43.9753" lon="1.92258">
        <ele>229.6</ele>
        <time>2022-09-01T17:59:45Z</time>
      </trkpt>
      <trkpt lat="43.97532" lon="1.92257">
        <ele>229.6</ele>
        <time>2022-09-01T17:59:46Z</time>
      </trkpt>
      <trkpt lat="43.97534" lon="1.92254">
        <ele>229.4</ele>
        <time>2022-09-01T17:59:47Z</time>
      </trkpt>
      <trkpt lat="43.97535" lon="1.92251">
        <ele>229.2</ele>
        <time>2022-09-01T17:59:48Z</time>
      </trkpt>
      <trkpt lat="43.97535" lon="1.92248">
        <ele>229.2</ele>
        <time>2022-09-01T17:59:49Z</time>
      </trkpt>
      <trkpt lat="43.97535" lon="1.92248">
        <ele>229</ele>
        <time>2022-09-01T17:59:50Z</time>
      </trkpt>
      <trkpt lat="43.97535" lon="1.92248">
        <ele>228.6</ele>
        <time>2022-09-01T17:59:51Z</time>
      </trkpt>
      <trkpt lat="43.97535" lon="1.92248">
        <ele>228.4</ele>
        <time>2022-09-01T17:59:52Z</time>
      </trkpt>
      <trkpt lat="43.97536" lon="1.92243">
        <ele>227.8</ele>
        <time>2022-09-01T18:00:33Z</time>
      </trkpt>
      <trkpt lat="43.97537" lon="1.92236">
        <ele>227.8</ele>
        <time>2022-09-01T18:00:35Z</time>
      </trkpt>
      <trkpt lat="43.97539" lon="1.92232">
        <ele>227.8</ele>
        <time>2022-09-01T18:00:36Z</time>
      </trkpt>
      <trkpt lat="43.9754" lon="1.92227">
        <ele>227.8</ele>
        <time>2022-09-01T18:00:37Z</time>
      </trkpt>
      <trkpt lat="43.97543" lon="1.92219">
        <ele>228.2</ele>
        <time>2022-09-01T18:00:39Z</time>
      </trkpt>
      <trkpt lat="43.97543" lon="1.92219">
        <ele>228.2</ele>
        <time>2022-09-01T18:00:40Z</time>
      </trkpt>
      <trkpt lat="43.97548" lon="1.92211">
        <ele>228.2</ele>
        <time>2022-09-01T18:00:41Z</time>
      </trkpt>
      <trkpt lat="43.97551" lon="1.92208">
        <ele>228.2</ele>
        <time>2022-09-01T18:00:42Z</time>
      </trkpt>
      <trkpt lat="43.97554" lon="1.92206">
        <ele>228.2</ele>
        <time>2022-09-01T18:00:43Z</time>
      </trkpt>
      <trkpt lat="43.97557" lon="1.92205">
        <ele>228.2</ele>
        <time>2022-09-01T18:00:44Z</time>
      </trkpt>
      <trkpt lat="43.97557" lon="1.92205">
        <ele>228.2</ele>
        <time>2022-09-01T18:00:45Z</time>
      </trkpt>
      <trkpt lat="43.97562" lon="1.92203">
        <ele>227.8</ele>
        <time>2022-09-01T18:00:46Z</time>
      </trkpt>
      <trkpt lat="43.97565" lon="1.92202">
        <ele>227.4</ele>
        <time>2022-09-01T18:00:47Z</time>
      </trkpt>
      <trkpt lat="43.97574" lon="1.92201">
        <ele>226.4</ele>
        <time>2022-09-01T18:00:50Z</time>
      </trkpt>
      <trkpt lat="43.97574" lon="1.92201">
        <ele>226</ele>
        <time>2022-09-01T18:00:51Z</time>
      </trkpt>
      <trkpt lat="43.9758" lon="1.92201">
        <ele>225.4</ele>
        <time>2022-09-01T18:00:52Z</time>
      </trkpt>
      <trkpt lat="43.97583" lon="1.92201">
        <ele>224.2</ele>
        <time>2022-09-01T18:00:54Z</time>
      </trkpt>
      <trkpt lat="43.97592" lon="1.92206">
        <ele>223.2</ele>
        <time>2022-09-01T18:00:55Z</time>
      </trkpt>
      <trkpt lat="43.97597" lon="1.92209">
        <ele>223</ele>
        <time>2022-09-01T18:00:56Z</time>
      </trkpt>
      <trkpt lat="43.976" lon="1.92211">
        <ele>222.2</ele>
        <time>2022-09-01T18:00:57Z</time>
      </trkpt>
      <trkpt lat="43.97603" lon="1.92212">
        <ele>221.6</ele>
        <time>2022-09-01T18:00:58Z</time>
      </trkpt>
      <trkpt lat="43.97603" lon="1.92212">
        <ele>220.8</ele>
        <time>2022-09-01T18:00:59Z</time>
      </trkpt>
      <trkpt lat="43.97609" lon="1.92217">
        <ele>220.2</ele>
        <time>2022-09-01T18:01:00Z</time>
      </trkpt>
      <trkpt lat="43.97611" lon="1.92221">
        <ele>218.8</ele>
        <time>2022-09-01T18:01:01Z</time>
      </trkpt>
      <trkpt lat="43.97612" lon="1.92225">
        <ele>217.8</ele>
        <time>2022-09-01T18:01:02Z</time>
      </trkpt>
      <trkpt lat="43.97613" lon="1.92229">
        <ele>217.4</ele>
        <time>2022-09-01T18:01:03Z</time>
      </trkpt>
      <trkpt lat="43.97614" lon="1.92236">
        <ele>216.4</ele>
        <time>2022-09-01T18:01:04Z</time>
      </trkpt>
      <trkpt lat="43.97615" lon="1.92241">
        <ele>216</ele>
        <time>2022-09-01T18:01:05Z</time>
      </trkpt>
      <trkpt lat="43.97617" lon="1.9225">
        <ele>214.8</ele>
        <time>2022-09-01T18:01:06Z</time>
      </trkpt>
      <trkpt lat="43.97621" lon="1.92264">
        <ele>213.4</ele>
        <time>2022-09-01T18:01:08Z</time>
      </trkpt>
      <trkpt lat="43.97623" lon="1.92272">
        <ele>212.8</ele>
        <time>2022-09-01T18:01:09Z</time>
      </trkpt>
      <trkpt lat="43.97623" lon="1.92272">
        <ele>212.4</ele>
        <time>2022-09-01T18:01:10Z</time>
      </trkpt>
      <trkpt lat="43.97622" lon="1.92281">
        <ele>211.8</ele>
        <time>2022-09-01T18:01:11Z</time>
      </trkpt>
      <trkpt lat="43.97621" lon="1.92283">
        <ele>211.6</ele>
        <time>2022-09-01T18:01:12Z</time>
      </trkpt>
      <trkpt lat="43.97621" lon="1.92283">
        <ele>210.8</ele>
        <time>2022-09-01T18:01:13Z</time>
      </trkpt>
      <trkpt lat="43.97621" lon="1.92285">
        <ele>210.4</ele>
        <time>2022-09-01T18:01:14Z</time>
      </trkpt>
      <trkpt lat="43.97621" lon="1.92285">
        <ele>210.2</ele>
        <time>2022-09-01T18:01:15Z</time>
      </trkpt>
      <trkpt lat="43.97621" lon="1.92285">
        <ele>210</ele>
        <time>2022-09-01T18:01:16Z</time>
      </trkpt>
      <trkpt lat="43.97621" lon="1.92285">
        <ele>210</ele>
        <time>2022-09-01T18:01:19Z</time>
      </trkpt>
      <trkpt lat="43.97619" lon="1.92285">
        <ele>209.8</ele>
        <time>2022-09-01T18:01:21Z</time>
      </trkpt>
      <trkpt lat="43.97616" lon="1.92285">
        <ele>209.8</ele>
        <time>2022-09-01T18:01:23Z</time>
      </trkpt>
      <trkpt lat="43.97614" lon="1.92286">
        <ele>209.8</ele>
        <time>2022-09-01T18:01:24Z</time>
      </trkpt>
      <trkpt lat="43.97603" lon="1.92292">
        <ele>209.2</ele>
        <time>2022-09-01T18:01:30Z</time>
      </trkpt>
      <trkpt lat="43.97601" lon="1.92294">
        <ele>209.2</ele>
        <time>2022-09-01T18:01:31Z</time>
      </trkpt>
      <trkpt lat="43.97598" lon="1.92296">
        <ele>209.2</ele>
        <time>2022-09-01T18:01:32Z</time>
      </trkpt>
      <trkpt lat="43.9759" lon="1.92305">
        <ele>209.6</ele>
        <time>2022-09-01T18:01:36Z</time>
      </trkpt>
      <trkpt lat="43.97588" lon="1.92307">
        <ele>209.6</ele>
        <time>2022-09-01T18:01:37Z</time>
      </trkpt>
      <trkpt lat="43.97585" lon="1.92309">
        <ele>209.8</ele>
        <time>2022-09-01T18:01:38Z</time>
      </trkpt>
      <trkpt lat="43.97583" lon="1.92311">
        <ele>209.8</ele>
        <time>2022-09-01T18:01:39Z</time>
      </trkpt>
      <trkpt lat="43.97579" lon="1.92319">
        <ele>210.2</ele>
        <time>2022-09-01T18:01:42Z</time>
      </trkpt>
      <trkpt lat="43.97577" lon="1.92321">
        <ele>210.4</ele>
        <time>2022-09-01T18:01:43Z</time>
      </trkpt>
      <trkpt lat="43.97576" lon="1.92322">
        <ele>210.4</ele>
        <time>2022-09-01T18:01:44Z</time>
      </trkpt>
      <trkpt lat="43.97576" lon="1.92323">
        <ele>210.6</ele>
        <time>2022-09-01T18:01:45Z</time>
      </trkpt>
      <trkpt lat="43.97575" lon="1.92325">
        <ele>210.4</ele>
        <time>2022-09-01T18:01:46Z</time>
      </trkpt>
      <trkpt lat="43.97575" lon="1.92325">
        <ele>210.6</ele>
        <time>2022-09-01T18:01:47Z</time>
      </trkpt>
      <trkpt lat="43.97569" lon="1.92336">
        <ele>210.8</ele>
        <time>2022-09-01T18:01:52Z</time>
      </trkpt>
      <trkpt lat="43.97569" lon="1.92338">
        <ele>210.8</ele>
        <time>2022-09-01T18:01:53Z</time>
      </trkpt>
      <trkpt lat="43.97569" lon="1.92341">
        <ele>210.8</ele>
        <time>2022-09-01T18:01:54Z</time>
      </trkpt>
      <trkpt lat="43.97569" lon="1.92343">
        <ele>211</ele>
        <time>2022-09-01T18:01:55Z</time>
      </trkpt>
      <trkpt lat="43.97569" lon="1.92343">
        <ele>211</ele>
        <time>2022-09-01T18:01:56Z</time>
      </trkpt>
      <trkpt lat="43.97568" lon="1.92348">
        <ele>211.4</ele>
        <time>2022-09-01T18:01:57Z</time>
      </trkpt>
      <trkpt lat="43.97566" lon="1.9235">
        <ele>211.4</ele>
        <time>2022-09-01T18:01:58Z</time>
      </trkpt>
      <trkpt lat="43.97564" lon="1.92352">
        <ele>211.6</ele>
        <time>2022-09-01T18:01:59Z</time>
      </trkpt>
      <trkpt lat="43.97563" lon="1.92354">
        <ele>211.8</ele>
        <time>2022-09-01T18:02:00Z</time>
      </trkpt>
      <trkpt lat="43.97563" lon="1.92354">
        <ele>211.8</ele>
        <time>2022-09-01T18:02:01Z</time>
      </trkpt>
      <trkpt lat="43.97558" lon="1.92362">
        <ele>213.2</ele>
        <time>2022-09-01T18:02:04Z</time>
      </trkpt>
      <trkpt lat="43.97555" lon="1.92366">
        <ele>213.4</ele>
        <time>2022-09-01T18:02:06Z</time>
      </trkpt>
      <trkpt lat="43.97553" lon="1.92367">
        <ele>213.6</ele>
        <time>2022-09-01T18:02:07Z</time>
      </trkpt>
      <trkpt lat="43.97552" lon="1.92369">
        <ele>213.8</ele>
        <time>2022-09-01T18:02:08Z</time>
      </trkpt>
      <trkpt lat="43.9755" lon="1.92371">
        <ele>214</ele>
        <time>2022-09-01T18:02:09Z</time>
      </trkpt>
      <trkpt lat="43.97549" lon="1.92373">
        <ele>214.2</ele>
        <time>2022-09-01T18:02:10Z</time>
      </trkpt>
      <trkpt lat="43.97549" lon="1.92373">
        <ele>214.4</ele>
        <time>2022-09-01T18:02:11Z</time>
      </trkpt>
      <trkpt lat="43.97545" lon="1.92376">
        <ele>214.4</ele>
        <time>2022-09-01T18:02:12Z</time>
      </trkpt>
      <trkpt lat="43.97543" lon="1.92379">
        <ele>214.6</ele>
        <time>2022-09-01T18:02:13Z</time>
      </trkpt>
      <trkpt lat="43.9754" lon="1.92381">
        <ele>214.6</ele>
        <time>2022-09-01T18:02:14Z</time>
      </trkpt>
      <trkpt lat="43.97538" lon="1.92382">
        <ele>214.6</ele>
        <time>2022-09-01T18:02:15Z</time>
      </trkpt>
      <trkpt lat="43.97536" lon="1.92383">
        <ele>214.8</ele>
        <time>2022-09-01T18:02:16Z</time>
      </trkpt>
      <trkpt lat="43.97534" lon="1.92384">
        <ele>214.8</ele>
        <time>2022-09-01T18:02:17Z</time>
      </trkpt>
      <trkpt lat="43.97532" lon="1.92386">
        <ele>214.8</ele>
        <time>2022-09-01T18:02:18Z</time>
      </trkpt>
      <trkpt lat="43.97529" lon="1.92389">
        <ele>215</ele>
        <time>2022-09-01T18:02:19Z</time>
      </trkpt>
      <trkpt lat="43.97526" lon="1.9239">
        <ele>215</ele>
        <time>2022-09-01T18:02:20Z</time>
      </trkpt>
      <trkpt lat="43.97524" lon="1.92391">
        <ele>215</ele>
        <time>2022-09-01T18:02:21Z</time>
      </trkpt>
      <trkpt lat="43.97521" lon="1.92391">
        <ele>215.2</ele>
        <time>2022-09-01T18:02:22Z</time>
      </trkpt>
      <trkpt lat="43.97519" lon="1.92393">
        <ele>215.2</ele>
        <time>2022-09-01T18:02:23Z</time>
      </trkpt>
      <trkpt lat="43.97516" lon="1.92393">
        <ele>215.2</ele>
        <time>2022-09-01T18:02:24Z</time>
      </trkpt>
      <trkpt lat="43.97514" lon="1.92393">
        <ele>215.2</ele>
        <time>2022-09-01T18:02:25Z</time>
      </trkpt>
      <trkpt lat="43.97512" lon="1.92394">
        <ele>215.2</ele>
        <time>2022-09-01T18:02:26Z</time>
      </trkpt>
      <trkpt lat="43.97509" lon="1.92394">
        <ele>215.2</ele>
        <time>2022-09-01T18:02:27Z</time>
      </trkpt>
      <trkpt lat="43.97509" lon="1.92394">
        <ele>215.2</ele>
        <time>2022-09-01T18:02:28Z</time>
      </trkpt>
      <trkpt lat="43.97505" lon="1.92395">
        <ele>215.4</ele>
        <time>2022-09-01T18:02:29Z</time>
      </trkpt>
      <trkpt lat="43.97502" lon="1.92395">
        <ele>215.4</ele>
        <time>2022-09-01T18:02:30Z</time>
      </trkpt>
      <trkpt lat="43.975" lon="1.92396">
        <ele>215.4</ele>
        <time>2022-09-01T18:02:31Z</time>
      </trkpt>
      <trkpt lat="43.97497" lon="1.92397">
        <ele>215.6</ele>
        <time>2022-09-01T18:02:32Z</time>
      </trkpt>
      <trkpt lat="43.97495" lon="1.92397">
        <ele>215.6</ele>
        <time>2022-09-01T18:02:33Z</time>
      </trkpt>
      <trkpt lat="43.97492" lon="1.924">
        <ele>215.6</ele>
        <time>2022-09-01T18:02:35Z</time>
      </trkpt>
      <trkpt lat="43.9749" lon="1.92401">
        <ele>215.8</ele>
        <time>2022-09-01T18:02:36Z</time>
      </trkpt>
      <trkpt lat="43.97488" lon="1.92402">
        <ele>216</ele>
        <time>2022-09-01T18:02:37Z</time>
      </trkpt>
      <trkpt lat="43.97487" lon="1.92404">
        <ele>216.2</ele>
        <time>2022-09-01T18:02:38Z</time>
      </trkpt>
      <trkpt lat="43.97485" lon="1.92406">
        <ele>216.6</ele>
        <time>2022-09-01T18:02:40Z</time>
      </trkpt>
      <trkpt lat="43.97483" lon="1.92409">
        <ele>216.6</ele>
        <time>2022-09-01T18:02:41Z</time>
      </trkpt>
      <trkpt lat="43.97479" lon="1.92415">
        <ele>217.2</ele>
        <time>2022-09-01T18:02:45Z</time>
      </trkpt>
      <trkpt lat="43.97474" lon="1.92421">
        <ele>217.2</ele>
        <time>2022-09-01T18:02:47Z</time>
      </trkpt>
      <trkpt lat="43.97472" lon="1.92423">
        <ele>217.2</ele>
        <time>2022-09-01T18:02:48Z</time>
      </trkpt>
      <trkpt lat="43.97471" lon="1.92425">
        <ele>217.2</ele>
        <time>2022-09-01T18:02:49Z</time>
      </trkpt>
      <trkpt lat="43.9747" lon="1.92426">
        <ele>217.2</ele>
        <time>2022-09-01T18:02:50Z</time>
      </trkpt>
      <trkpt lat="43.97469" lon="1.92428">
        <ele>217.4</ele>
        <time>2022-09-01T18:02:51Z</time>
      </trkpt>
      <trkpt lat="43.97469" lon="1.92428">
        <ele>217.6</ele>
        <time>2022-09-01T18:02:52Z</time>
      </trkpt>
      <trkpt lat="43.97468" lon="1.9243">
        <ele>218</ele>
        <time>2022-09-01T18:03:16Z</time>
      </trkpt>
      <trkpt lat="43.97467" lon="1.92432">
        <ele>218</ele>
        <time>2022-09-01T18:03:17Z</time>
      </trkpt>
      <trkpt lat="43.97466" lon="1.92434">
        <ele>218</ele>
        <time>2022-09-01T18:03:18Z</time>
      </trkpt>
      <trkpt lat="43.97464" lon="1.92439">
        <ele>218.2</ele>
        <time>2022-09-01T18:03:20Z</time>
      </trkpt>
      <trkpt lat="43.97463" lon="1.92441">
        <ele>218.2</ele>
        <time>2022-09-01T18:03:21Z</time>
      </trkpt>
      <trkpt lat="43.97458" lon="1.92447">
        <ele>218.4</ele>
        <time>2022-09-01T18:03:24Z</time>
      </trkpt>
      <trkpt lat="43.97451" lon="1.92458">
        <ele>218.8</ele>
        <time>2022-09-01T18:03:29Z</time>
      </trkpt>
      <trkpt lat="43.97449" lon="1.92461">
        <ele>218.8</ele>
        <time>2022-09-01T18:03:30Z</time>
      </trkpt>
      <trkpt lat="43.97446" lon="1.92466">
        <ele>219.2</ele>
        <time>2022-09-01T18:03:32Z</time>
      </trkpt>
      <trkpt lat="43.97443" lon="1.92468">
        <ele>219.2</ele>
        <time>2022-09-01T18:03:33Z</time>
      </trkpt>
      <trkpt lat="43.97437" lon="1.92475">
        <ele>219.8</ele>
        <time>2022-09-01T18:03:36Z</time>
      </trkpt>
      <trkpt lat="43.97435" lon="1.92478">
        <ele>219.8</ele>
        <time>2022-09-01T18:03:37Z</time>
      </trkpt>
      <trkpt lat="43.97432" lon="1.9248">
        <ele>220.2</ele>
        <time>2022-09-01T18:03:38Z</time>
      </trkpt>
      <trkpt lat="43.9743" lon="1.92483">
        <ele>220.4</ele>
        <time>2022-09-01T18:03:39Z</time>
      </trkpt>
      <trkpt lat="43.97428" lon="1.92485">
        <ele>220.8</ele>
        <time>2022-09-01T18:03:40Z</time>
      </trkpt>
      <trkpt lat="43.97425" lon="1.92488">
        <ele>221</ele>
        <time>2022-09-01T18:03:41Z</time>
      </trkpt>
      <trkpt lat="43.97424" lon="1.9249">
        <ele>221.4</ele>
        <time>2022-09-01T18:03:42Z</time>
      </trkpt>
      <trkpt lat="43.97423" lon="1.92492">
        <ele>221.6</ele>
        <time>2022-09-01T18:03:43Z</time>
      </trkpt>
      <trkpt lat="43.97421" lon="1.92495">
        <ele>221.8</ele>
        <time>2022-09-01T18:03:44Z</time>
      </trkpt>
      <trkpt lat="43.9742" lon="1.92497">
        <ele>222.2</ele>
        <time>2022-09-01T18:03:45Z</time>
      </trkpt>
      <trkpt lat="43.97417" lon="1.92498">
        <ele>222.4</ele>
        <time>2022-09-01T18:03:46Z</time>
      </trkpt>
      <trkpt lat="43.97417" lon="1.92498">
        <ele>222.6</ele>
        <time>2022-09-01T18:03:47Z</time>
      </trkpt>
      <trkpt lat="43.97414" lon="1.92501">
        <ele>223</ele>
        <time>2022-09-01T18:03:48Z</time>
      </trkpt>
      <trkpt lat="43.97413" lon="1.92502">
        <ele>223.4</ele>
        <time>2022-09-01T18:03:49Z</time>
      </trkpt>
      <trkpt lat="43.97412" lon="1.92502">
        <ele>223.6</ele>
        <time>2022-09-01T18:03:50Z</time>
      </trkpt>
      <trkpt lat="43.97411" lon="1.92501">
        <ele>224.4</ele>
        <time>2022-09-01T18:03:51Z</time>
      </trkpt>
      <trkpt lat="43.9741" lon="1.92501">
        <ele>224.6</ele>
        <time>2022-09-01T18:03:52Z</time>
      </trkpt>
      <trkpt lat="43.97409" lon="1.92501">
        <ele>224.6</ele>
        <time>2022-09-01T18:03:53Z</time>
      </trkpt>
      <trkpt lat="43.97408" lon="1.92502">
        <ele>225</ele>
        <time>2022-09-01T18:03:54Z</time>
      </trkpt>
      <trkpt lat="43.97407" lon="1.92503">
        <ele>225.2</ele>
        <time>2022-09-01T18:03:55Z</time>
      </trkpt>
      <trkpt lat="43.97406" lon="1.92504">
        <ele>225.6</ele>
        <time>2022-09-01T18:03:56Z</time>
      </trkpt>
      <trkpt lat="43.97405" lon="1.92505">
        <ele>225.8</ele>
        <time>2022-09-01T18:03:57Z</time>
      </trkpt>
      <trkpt lat="43.97404" lon="1.92506">
        <ele>226</ele>
        <time>2022-09-01T18:03:58Z</time>
      </trkpt>
      <trkpt lat="43.97403" lon="1.92507">
        <ele>226.2</ele>
        <time>2022-09-01T18:03:59Z</time>
      </trkpt>
      <trkpt lat="43.97403" lon="1.92509">
        <ele>226.2</ele>
        <time>2022-09-01T18:04:00Z</time>
      </trkpt>
      <trkpt lat="43.97402" lon="1.9251">
        <ele>226.2</ele>
        <time>2022-09-01T18:04:01Z</time>
      </trkpt>
      <trkpt lat="43.97401" lon="1.92512">
        <ele>226.2</ele>
        <time>2022-09-01T18:04:02Z</time>
      </trkpt>
      <trkpt lat="43.974" lon="1.92514">
        <ele>226.4</ele>
        <time>2022-09-01T18:04:03Z</time>
      </trkpt>
      <trkpt lat="43.97399" lon="1.92516">
        <ele>226.4</ele>
        <time>2022-09-01T18:04:04Z</time>
      </trkpt>
      <trkpt lat="43.97398" lon="1.92518">
        <ele>226.4</ele>
        <time>2022-09-01T18:04:05Z</time>
      </trkpt>
      <trkpt lat="43.97397" lon="1.9252">
        <ele>226.4</ele>
        <time>2022-09-01T18:04:06Z</time>
      </trkpt>
      <trkpt lat="43.97395" lon="1.92522">
        <ele>226.4</ele>
        <time>2022-09-01T18:04:07Z</time>
      </trkpt>
      <trkpt lat="43.97394" lon="1.92524">
        <ele>226.6</ele>
        <time>2022-09-01T18:04:08Z</time>
      </trkpt>
      <trkpt lat="43.97393" lon="1.92526">
        <ele>226.6</ele>
        <time>2022-09-01T18:04:09Z</time>
      </trkpt>
      <trkpt lat="43.97392" lon="1.92528">
        <ele>226.6</ele>
        <time>2022-09-01T18:04:10Z</time>
      </trkpt>
      <trkpt lat="43.97391" lon="1.9253">
        <ele>226.6</ele>
        <time>2022-09-01T18:04:11Z</time>
      </trkpt>
      <trkpt lat="43.9739" lon="1.92533">
        <ele>226.6</ele>
        <time>2022-09-01T18:04:12Z</time>
      </trkpt>
      <trkpt lat="43.97388" lon="1.92535">
        <ele>226.6</ele>
        <time>2022-09-01T18:04:13Z</time>
      </trkpt>
      <trkpt lat="43.97387" lon="1.92537">
        <ele>226.6</ele>
        <time>2022-09-01T18:04:14Z</time>
      </trkpt>
      <trkpt lat="43.97386" lon="1.9254">
        <ele>226.6</ele>
        <time>2022-09-01T18:04:15Z</time>
      </trkpt>
      <trkpt lat="43.97384" lon="1.92542">
        <ele>226.6</ele>
        <time>2022-09-01T18:04:16Z</time>
      </trkpt>
      <trkpt lat="43.97383" lon="1.92545">
        <ele>226.6</ele>
        <time>2022-09-01T18:04:17Z</time>
      </trkpt>
      <trkpt lat="43.97382" lon="1.92547">
        <ele>226.6</ele>
        <time>2022-09-01T18:04:18Z</time>
      </trkpt>
      <trkpt lat="43.9738" lon="1.9255">
        <ele>226.6</ele>
        <time>2022-09-01T18:04:19Z</time>
      </trkpt>
      <trkpt lat="43.97379" lon="1.92552">
        <ele>226.6</ele>
        <time>2022-09-01T18:04:20Z</time>
      </trkpt>
      <trkpt lat="43.97378" lon="1.92555">
        <ele>226.6</ele>
        <time>2022-09-01T18:04:21Z</time>
      </trkpt>
      <trkpt lat="43.97377" lon="1.92558">
        <ele>226.6</ele>
        <time>2022-09-01T18:04:22Z</time>
      </trkpt>
      <trkpt lat="43.97376" lon="1.92562">
        <ele>226.6</ele>
        <time>2022-09-01T18:04:23Z</time>
      </trkpt>
      <trkpt lat="43.97375" lon="1.92564">
        <ele>226.8</ele>
        <time>2022-09-01T18:04:24Z</time>
      </trkpt>
      <trkpt lat="43.97374" lon="1.92567">
        <ele>226.8</ele>
        <time>2022-09-01T18:04:25Z</time>
      </trkpt>
      <trkpt lat="43.97373" lon="1.92568">
        <ele>226.8</ele>
        <time>2022-09-01T18:04:26Z</time>
      </trkpt>
      <trkpt lat="43.97372" lon="1.92569">
        <ele>226.6</ele>
        <time>2022-09-01T18:04:27Z</time>
      </trkpt>
      <trkpt lat="43.97372" lon="1.92569">
        <ele>226.6</ele>
        <time>2022-09-01T18:04:28Z</time>
      </trkpt>
      <trkpt lat="43.97372" lon="1.92569">
        <ele>226.6</ele>
        <time>2022-09-01T18:06:28Z</time>
      </trkpt>
      <trkpt lat="43.97372" lon="1.92569">
        <ele>226.6</ele>
        <time>2022-09-01T18:06:29Z</time>
      </trkpt>
      <trkpt lat="43.97371" lon="1.92569">
        <ele>226.4</ele>
        <time>2022-09-01T18:09:05Z</time>
      </trkpt>
      <trkpt lat="43.97371" lon="1.9257">
        <ele>226.4</ele>
        <time>2022-09-01T18:09:06Z</time>
      </trkpt>
      <trkpt lat="43.97368" lon="1.92574">
        <ele>226.4</ele>
        <time>2022-09-01T18:09:08Z</time>
      </trkpt>
      <trkpt lat="43.97367" lon="1.92577">
        <ele>226.4</ele>
        <time>2022-09-01T18:09:09Z</time>
      </trkpt>
      <trkpt lat="43.97366" lon="1.92579">
        <ele>226.4</ele>
        <time>2022-09-01T18:09:10Z</time>
      </trkpt>
      <trkpt lat="43.97364" lon="1.92583">
        <ele>226.4</ele>
        <time>2022-09-01T18:09:11Z</time>
      </trkpt>
      <trkpt lat="43.9736" lon="1.92591">
        <ele>226.4</ele>
        <time>2022-09-01T18:09:14Z</time>
      </trkpt>
      <trkpt lat="43.97351" lon="1.92605">
        <ele>226.4</ele>
        <time>2022-09-01T18:09:19Z</time>
      </trkpt>
      <trkpt lat="43.97336" lon="1.92624">
        <ele>226.8</ele>
        <time>2022-09-01T18:09:26Z</time>
      </trkpt>
      <trkpt lat="43.97332" lon="1.92629">
        <ele>226.8</ele>
        <time>2022-09-01T18:09:28Z</time>
      </trkpt>
      <trkpt lat="43.97323" lon="1.92644">
        <ele>226.8</ele>
        <time>2022-09-01T18:09:33Z</time>
      </trkpt>
      <trkpt lat="43.97322" lon="1.92648">
        <ele>226.8</ele>
        <time>2022-09-01T18:09:34Z</time>
      </trkpt>
      <trkpt lat="43.97322" lon="1.92652">
        <ele>226.8</ele>
        <time>2022-09-01T18:09:35Z</time>
      </trkpt>
      <trkpt lat="43.97322" lon="1.92656">
        <ele>227</ele>
        <time>2022-09-01T18:09:36Z</time>
      </trkpt>
      <trkpt lat="43.97322" lon="1.92659">
        <ele>227</ele>
        <time>2022-09-01T18:09:37Z</time>
      </trkpt>
      <trkpt lat="43.97323" lon="1.92663">
        <ele>227.2</ele>
        <time>2022-09-01T18:09:38Z</time>
      </trkpt>
      <trkpt lat="43.97324" lon="1.92665">
        <ele>227.2</ele>
        <time>2022-09-01T18:09:39Z</time>
      </trkpt>
      <trkpt lat="43.97326" lon="1.92669">
        <ele>227.4</ele>
        <time>2022-09-01T18:09:40Z</time>
      </trkpt>
      <trkpt lat="43.97328" lon="1.92671">
        <ele>227.4</ele>
        <time>2022-09-01T18:09:41Z</time>
      </trkpt>
      <trkpt lat="43.97329" lon="1.92674">
        <ele>227.4</ele>
        <time>2022-09-01T18:09:42Z</time>
      </trkpt>
      <trkpt lat="43.97333" lon="1.92681">
        <ele>227.6</ele>
        <time>2022-09-01T18:09:44Z</time>
      </trkpt>
      <trkpt lat="43.97338" lon="1.9269">
        <ele>227.8</ele>
        <time>2022-09-01T18:09:47Z</time>
      </trkpt>
      <trkpt lat="43.97347" lon="1.92704">
        <ele>228</ele>
        <time>2022-09-01T18:09:52Z</time>
      </trkpt>
      <trkpt lat="43.97349" lon="1.92707">
        <ele>228</ele>
        <time>2022-09-01T18:09:53Z</time>
      </trkpt>
      <trkpt lat="43.97351" lon="1.9271">
        <ele>228</ele>
        <time>2022-09-01T18:09:54Z</time>
      </trkpt>
      <trkpt lat="43.97354" lon="1.92713">
        <ele>228</ele>
        <time>2022-09-01T18:09:55Z</time>
      </trkpt>
      <trkpt lat="43.97356" lon="1.92715">
        <ele>228.2</ele>
        <time>2022-09-01T18:09:56Z</time>
      </trkpt>
      <trkpt lat="43.97358" lon="1.92717">
        <ele>228.2</ele>
        <time>2022-09-01T18:09:57Z</time>
      </trkpt>
      <trkpt lat="43.97359" lon="1.92718">
        <ele>228.2</ele>
        <time>2022-09-01T18:09:58Z</time>
      </trkpt>
      <trkpt lat="43.97361" lon="1.9272">
        <ele>228.2</ele>
        <time>2022-09-01T18:09:59Z</time>
      </trkpt>
      <trkpt lat="43.97364" lon="1.92724">
        <ele>228.4</ele>
        <time>2022-09-01T18:10:01Z</time>
      </trkpt>
      <trkpt lat="43.97366" lon="1.92727">
        <ele>228.4</ele>
        <time>2022-09-01T18:10:02Z</time>
      </trkpt>
      <trkpt lat="43.97368" lon="1.92731">
        <ele>228.6</ele>
        <time>2022-09-01T18:10:04Z</time>
      </trkpt>
      <trkpt lat="43.97367" lon="1.92736">
        <ele>228.6</ele>
        <time>2022-09-01T18:10:06Z</time>
      </trkpt>
      <trkpt lat="43.97366" lon="1.92738">
        <ele>228.6</ele>
        <time>2022-09-01T18:10:07Z</time>
      </trkpt>
      <trkpt lat="43.97365" lon="1.92744">
        <ele>228.6</ele>
        <time>2022-09-01T18:10:09Z</time>
      </trkpt>
      <trkpt lat="43.97366" lon="1.9275">
        <ele>228.8</ele>
        <time>2022-09-01T18:10:11Z</time>
      </trkpt>
      <trkpt lat="43.97367" lon="1.92753">
        <ele>229</ele>
        <time>2022-09-01T18:10:12Z</time>
      </trkpt>
      <trkpt lat="43.97367" lon="1.92757">
        <ele>229</ele>
        <time>2022-09-01T18:10:13Z</time>
      </trkpt>
      <trkpt lat="43.97369" lon="1.92768">
        <ele>229.4</ele>
        <time>2022-09-01T18:10:17Z</time>
      </trkpt>
      <trkpt lat="43.97369" lon="1.92771">
        <ele>229.4</ele>
        <time>2022-09-01T18:10:18Z</time>
      </trkpt>
      <trkpt lat="43.9737" lon="1.92775">
        <ele>229.6</ele>
        <time>2022-09-01T18:10:19Z</time>
      </trkpt>
      <trkpt lat="43.97371" lon="1.92779">
        <ele>229.6</ele>
        <time>2022-09-01T18:10:20Z</time>
      </trkpt>
      <trkpt lat="43.97377" lon="1.92803">
        <ele>230.2</ele>
        <time>2022-09-01T18:10:27Z</time>
      </trkpt>
      <trkpt lat="43.97379" lon="1.92809">
        <ele>230.4</ele>
        <time>2022-09-01T18:10:29Z</time>
      </trkpt>
      <trkpt lat="43.9738" lon="1.92812">
        <ele>230.4</ele>
        <time>2022-09-01T18:10:30Z</time>
      </trkpt>
      <trkpt lat="43.97381" lon="1.92816">
        <ele>230.4</ele>
        <time>2022-09-01T18:10:31Z</time>
      </trkpt>
      <trkpt lat="43.97383" lon="1.92823">
        <ele>230.6</ele>
        <time>2022-09-01T18:10:33Z</time>
      </trkpt>
      <trkpt lat="43.97389" lon="1.92845">
        <ele>231</ele>
        <time>2022-09-01T18:10:39Z</time>
      </trkpt>
      <trkpt lat="43.9739" lon="1.92848">
        <ele>231</ele>
        <time>2022-09-01T18:10:40Z</time>
      </trkpt>
      <trkpt lat="43.97396" lon="1.9287">
        <ele>231.2</ele>
        <time>2022-09-01T18:10:46Z</time>
      </trkpt>
      <trkpt lat="43.97397" lon="1.92873">
        <ele>231.2</ele>
        <time>2022-09-01T18:10:47Z</time>
      </trkpt>
      <trkpt lat="43.97399" lon="1.92881">
        <ele>231.4</ele>
        <time>2022-09-01T18:10:49Z</time>
      </trkpt>
      <trkpt lat="43.97401" lon="1.92884">
        <ele>231.4</ele>
        <time>2022-09-01T18:10:50Z</time>
      </trkpt>
      <trkpt lat="43.97403" lon="1.92892">
        <ele>231.8</ele>
        <time>2022-09-01T18:10:52Z</time>
      </trkpt>
      <trkpt lat="43.97411" lon="1.92915">
        <ele>232.2</ele>
        <time>2022-09-01T18:10:58Z</time>
      </trkpt>
      <trkpt lat="43.97412" lon="1.92919">
        <ele>232.2</ele>
        <time>2022-09-01T18:10:59Z</time>
      </trkpt>
      <trkpt lat="43.97413" lon="1.92923">
        <ele>232.2</ele>
        <time>2022-09-01T18:11:00Z</time>
      </trkpt>
      <trkpt lat="43.97414" lon="1.92931">
        <ele>232.2</ele>
        <time>2022-09-01T18:11:02Z</time>
      </trkpt>
      <trkpt lat="43.97415" lon="1.92939">
        <ele>232.4</ele>
        <time>2022-09-01T18:11:04Z</time>
      </trkpt>
      <trkpt lat="43.97416" lon="1.92948">
        <ele>232.6</ele>
        <time>2022-09-01T18:11:06Z</time>
      </trkpt>
      <trkpt lat="43.97417" lon="1.92952">
        <ele>232.6</ele>
        <time>2022-09-01T18:11:07Z</time>
      </trkpt>
      <trkpt lat="43.97417" lon="1.92961">
        <ele>232.8</ele>
        <time>2022-09-01T18:11:09Z</time>
      </trkpt>
      <trkpt lat="43.97419" lon="1.92977">
        <ele>233</ele>
        <time>2022-09-01T18:11:13Z</time>
      </trkpt>
      <trkpt lat="43.97419" lon="1.92982">
        <ele>233</ele>
        <time>2022-09-01T18:11:14Z</time>
      </trkpt>
      <trkpt lat="43.9742" lon="1.92994">
        <ele>233.2</ele>
        <time>2022-09-01T18:11:17Z</time>
      </trkpt>
      <trkpt lat="43.97421" lon="1.93007">
        <ele>233.6</ele>
        <time>2022-09-01T18:11:20Z</time>
      </trkpt>
      <trkpt lat="43.97421" lon="1.93011">
        <ele>233.8</ele>
        <time>2022-09-01T18:11:21Z</time>
      </trkpt>
      <trkpt lat="43.97422" lon="1.93015">
        <ele>234</ele>
        <time>2022-09-01T18:11:22Z</time>
      </trkpt>
      <trkpt lat="43.97422" lon="1.93024">
        <ele>234.2</ele>
        <time>2022-09-01T18:11:24Z</time>
      </trkpt>
      <trkpt lat="43.97423" lon="1.93033">
        <ele>234.4</ele>
        <time>2022-09-01T18:11:26Z</time>
      </trkpt>
      <trkpt lat="43.97424" lon="1.93046">
        <ele>234.8</ele>
        <time>2022-09-01T18:11:29Z</time>
      </trkpt>
      <trkpt lat="43.97424" lon="1.9305">
        <ele>235</ele>
        <time>2022-09-01T18:11:30Z</time>
      </trkpt>
      <trkpt lat="43.97423" lon="1.93059">
        <ele>235.4</ele>
        <time>2022-09-01T18:11:32Z</time>
      </trkpt>
      <trkpt lat="43.97423" lon="1.93069">
        <ele>236</ele>
        <time>2022-09-01T18:11:34Z</time>
      </trkpt>
      <trkpt lat="43.97423" lon="1.93074">
        <ele>236.2</ele>
        <time>2022-09-01T18:11:35Z</time>
      </trkpt>
      <trkpt lat="43.97422" lon="1.93078">
        <ele>236.4</ele>
        <time>2022-09-01T18:11:36Z</time>
      </trkpt>
      <trkpt lat="43.97422" lon="1.93083">
        <ele>236.6</ele>
        <time>2022-09-01T18:11:37Z</time>
      </trkpt>
      <trkpt lat="43.97422" lon="1.93087">
        <ele>236.6</ele>
        <time>2022-09-01T18:11:38Z</time>
      </trkpt>
      <trkpt lat="43.97421" lon="1.93092">
        <ele>236.8</ele>
        <time>2022-09-01T18:11:39Z</time>
      </trkpt>
      <trkpt lat="43.9742" lon="1.93097">
        <ele>236.8</ele>
        <time>2022-09-01T18:11:40Z</time>
      </trkpt>
      <trkpt lat="43.9742" lon="1.93102">
        <ele>237.2</ele>
        <time>2022-09-01T18:11:41Z</time>
      </trkpt>
      <trkpt lat="43.9742" lon="1.93107">
        <ele>237.2</ele>
        <time>2022-09-01T18:11:42Z</time>
      </trkpt>
      <trkpt lat="43.9742" lon="1.93113">
        <ele>237.2</ele>
        <time>2022-09-01T18:11:43Z</time>
      </trkpt>
      <trkpt lat="43.9742" lon="1.93119">
        <ele>237.2</ele>
        <time>2022-09-01T18:11:44Z</time>
      </trkpt>
      <trkpt lat="43.9742" lon="1.93125">
        <ele>237.4</ele>
        <time>2022-09-01T18:11:45Z</time>
      </trkpt>
      <trkpt lat="43.97419" lon="1.93131">
        <ele>237.4</ele>
        <time>2022-09-01T18:11:46Z</time>
      </trkpt>
      <trkpt lat="43.97419" lon="1.93137">
        <ele>237.2</ele>
        <time>2022-09-01T18:11:47Z</time>
      </trkpt>
      <trkpt lat="43.97419" lon="1.93143">
        <ele>237.2</ele>
        <time>2022-09-01T18:11:48Z</time>
      </trkpt>
      <trkpt lat="43.97418" lon="1.9315">
        <ele>237.2</ele>
        <time>2022-09-01T18:11:49Z</time>
      </trkpt>
      <trkpt lat="43.97418" lon="1.93156">
        <ele>237.2</ele>
        <time>2022-09-01T18:11:50Z</time>
      </trkpt>
      <trkpt lat="43.97417" lon="1.93162">
        <ele>237.2</ele>
        <time>2022-09-01T18:11:51Z</time>
      </trkpt>
      <trkpt lat="43.97417" lon="1.93169">
        <ele>237.2</ele>
        <time>2022-09-01T18:11:52Z</time>
      </trkpt>
      <trkpt lat="43.97416" lon="1.93176">
        <ele>237</ele>
        <time>2022-09-01T18:11:53Z</time>
      </trkpt>
      <trkpt lat="43.97416" lon="1.93182">
        <ele>237</ele>
        <time>2022-09-01T18:11:54Z</time>
      </trkpt>
      <trkpt lat="43.97415" lon="1.93189">
        <ele>236.8</ele>
        <time>2022-09-01T18:11:55Z</time>
      </trkpt>
      <trkpt lat="43.97413" lon="1.93214">
        <ele>236.4</ele>
        <time>2022-09-01T18:11:59Z</time>
      </trkpt>
      <trkpt lat="43.97411" lon="1.93247">
        <ele>236.2</ele>
        <time>2022-09-01T18:12:04Z</time>
      </trkpt>
      <trkpt lat="43.97409" lon="1.93261">
        <ele>235.8</ele>
        <time>2022-09-01T18:12:06Z</time>
      </trkpt>
      <trkpt lat="43.97409" lon="1.93268">
        <ele>235.6</ele>
        <time>2022-09-01T18:12:07Z</time>
      </trkpt>
      <trkpt lat="43.97408" lon="1.93275">
        <ele>235.4</ele>
        <time>2022-09-01T18:12:08Z</time>
      </trkpt>
      <trkpt lat="43.97407" lon="1.93281">
        <ele>235.4</ele>
        <time>2022-09-01T18:12:09Z</time>
      </trkpt>
      <trkpt lat="43.97407" lon="1.93287">
        <ele>235.4</ele>
        <time>2022-09-01T18:12:10Z</time>
      </trkpt>
      <trkpt lat="43.97406" lon="1.93292">
        <ele>235.4</ele>
        <time>2022-09-01T18:12:11Z</time>
      </trkpt>
      <trkpt lat="43.97406" lon="1.93298">
        <ele>235.4</ele>
        <time>2022-09-01T18:12:12Z</time>
      </trkpt>
      <trkpt lat="43.97406" lon="1.93303">
        <ele>235.4</ele>
        <time>2022-09-01T18:12:13Z</time>
      </trkpt>
      <trkpt lat="43.97405" lon="1.93307">
        <ele>235.4</ele>
        <time>2022-09-01T18:12:14Z</time>
      </trkpt>
      <trkpt lat="43.97402" lon="1.93328">
        <ele>235.2</ele>
        <time>2022-09-01T18:12:18Z</time>
      </trkpt>
      <trkpt lat="43.974" lon="1.93345">
        <ele>235.4</ele>
        <time>2022-09-01T18:12:21Z</time>
      </trkpt>
      <trkpt lat="43.97398" lon="1.93357">
        <ele>235.4</ele>
        <time>2022-09-01T18:12:23Z</time>
      </trkpt>
      <trkpt lat="43.97397" lon="1.9337">
        <ele>235.4</ele>
        <time>2022-09-01T18:12:25Z</time>
      </trkpt>
      <trkpt lat="43.97398" lon="1.93376">
        <ele>235.4</ele>
        <time>2022-09-01T18:12:26Z</time>
      </trkpt>
      <trkpt lat="43.97401" lon="1.93403">
        <ele>235.6</ele>
        <time>2022-09-01T18:12:30Z</time>
      </trkpt>
      <trkpt lat="43.97402" lon="1.93409">
        <ele>235.6</ele>
        <time>2022-09-01T18:12:31Z</time>
      </trkpt>
      <trkpt lat="43.97403" lon="1.93416">
        <ele>235.6</ele>
        <time>2022-09-01T18:12:32Z</time>
      </trkpt>
      <trkpt lat="43.97409" lon="1.9345">
        <ele>234.8</ele>
        <time>2022-09-01T18:12:37Z</time>
      </trkpt>
      <trkpt lat="43.9741" lon="1.93457">
        <ele>234.8</ele>
        <time>2022-09-01T18:12:38Z</time>
      </trkpt>
      <trkpt lat="43.97411" lon="1.93464">
        <ele>234.6</ele>
        <time>2022-09-01T18:12:39Z</time>
      </trkpt>
      <trkpt lat="43.97412" lon="1.9347">
        <ele>234.6</ele>
        <time>2022-09-01T18:12:40Z</time>
      </trkpt>
      <trkpt lat="43.97413" lon="1.93476">
        <ele>234.6</ele>
        <time>2022-09-01T18:12:41Z</time>
      </trkpt>
      <trkpt lat="43.97414" lon="1.93482">
        <ele>234.4</ele>
        <time>2022-09-01T18:12:42Z</time>
      </trkpt>
      <trkpt lat="43.97414" lon="1.93487">
        <ele>234.4</ele>
        <time>2022-09-01T18:12:43Z</time>
      </trkpt>
      <trkpt lat="43.97415" lon="1.93493">
        <ele>234.2</ele>
        <time>2022-09-01T18:12:44Z</time>
      </trkpt>
      <trkpt lat="43.97415" lon="1.93497">
        <ele>234.2</ele>
        <time>2022-09-01T18:12:45Z</time>
      </trkpt>
      <trkpt lat="43.97416" lon="1.935">
        <ele>234.2</ele>
        <time>2022-09-01T18:12:46Z</time>
      </trkpt>
      <trkpt lat="43.97417" lon="1.93502">
        <ele>234.2</ele>
        <time>2022-09-01T18:12:47Z</time>
      </trkpt>
      <trkpt lat="43.97419" lon="1.93504">
        <ele>234</ele>
        <time>2022-09-01T18:12:48Z</time>
      </trkpt>
      <trkpt lat="43.97421" lon="1.93505">
        <ele>234</ele>
        <time>2022-09-01T18:12:49Z</time>
      </trkpt>
      <trkpt lat="43.97423" lon="1.93504">
        <ele>234</ele>
        <time>2022-09-01T18:12:50Z</time>
      </trkpt>
      <trkpt lat="43.97432" lon="1.93494">
        <ele>234</ele>
        <time>2022-09-01T18:12:54Z</time>
      </trkpt>
      <trkpt lat="43.97434" lon="1.93491">
        <ele>234</ele>
        <time>2022-09-01T18:12:55Z</time>
      </trkpt>
      <trkpt lat="43.9744" lon="1.93483">
        <ele>233.6</ele>
        <time>2022-09-01T18:12:58Z</time>
      </trkpt>
      <trkpt lat="43.97448" lon="1.93475">
        <ele>233.2</ele>
        <time>2022-09-01T18:13:01Z</time>
      </trkpt>
      <trkpt lat="43.9745" lon="1.93473">
        <ele>233.2</ele>
        <time>2022-09-01T18:13:02Z</time>
      </trkpt>
      <trkpt lat="43.97453" lon="1.9347">
        <ele>233</ele>
        <time>2022-09-01T18:13:03Z</time>
      </trkpt>
      <trkpt lat="43.97455" lon="1.93468">
        <ele>233</ele>
        <time>2022-09-01T18:13:04Z</time>
      </trkpt>
      <trkpt lat="43.97457" lon="1.93466">
        <ele>233</ele>
        <time>2022-09-01T18:13:05Z</time>
      </trkpt>
      <trkpt lat="43.97459" lon="1.93464">
        <ele>232.8</ele>
        <time>2022-09-01T18:13:06Z</time>
      </trkpt>
      <trkpt lat="43.97462" lon="1.93461">
        <ele>232.8</ele>
        <time>2022-09-01T18:13:07Z</time>
      </trkpt>
      <trkpt lat="43.97464" lon="1.93459">
        <ele>232.8</ele>
        <time>2022-09-01T18:13:08Z</time>
      </trkpt>
      <trkpt lat="43.97466" lon="1.93457">
        <ele>232.6</ele>
        <time>2022-09-01T18:13:09Z</time>
      </trkpt>
      <trkpt lat="43.97468" lon="1.93455">
        <ele>232.6</ele>
        <time>2022-09-01T18:13:10Z</time>
      </trkpt>
      <trkpt lat="43.97495" lon="1.93432">
        <ele>231.8</ele>
        <time>2022-09-01T18:13:20Z</time>
      </trkpt>
      <trkpt lat="43.97504" lon="1.93425">
        <ele>231.8</ele>
        <time>2022-09-01T18:13:23Z</time>
      </trkpt>
      <trkpt lat="43.9752" lon="1.93413">
        <ele>231.6</ele>
        <time>2022-09-01T18:13:28Z</time>
      </trkpt>
      <trkpt lat="43.97523" lon="1.9341">
        <ele>231.6</ele>
        <time>2022-09-01T18:13:29Z</time>
      </trkpt>
      <trkpt lat="43.97526" lon="1.93407">
        <ele>231.6</ele>
        <time>2022-09-01T18:13:30Z</time>
      </trkpt>
      <trkpt lat="43.97532" lon="1.93403">
        <ele>231.4</ele>
        <time>2022-09-01T18:13:32Z</time>
      </trkpt>
      <trkpt lat="43.9754" lon="1.93395">
        <ele>231.2</ele>
        <time>2022-09-01T18:13:35Z</time>
      </trkpt>
      <trkpt lat="43.97543" lon="1.93393">
        <ele>231.2</ele>
        <time>2022-09-01T18:13:36Z</time>
      </trkpt>
      <trkpt lat="43.97563" lon="1.93379">
        <ele>231</ele>
        <time>2022-09-01T18:13:42Z</time>
      </trkpt>
      <trkpt lat="43.97568" lon="1.93375">
        <ele>230.8</ele>
        <time>2022-09-01T18:13:44Z</time>
      </trkpt>
      <trkpt lat="43.97586" lon="1.93363">
        <ele>230.6</ele>
        <time>2022-09-01T18:13:49Z</time>
      </trkpt>
      <trkpt lat="43.97589" lon="1.9336">
        <ele>230.6</ele>
        <time>2022-09-01T18:13:50Z</time>
      </trkpt>
      <trkpt lat="43.97602" lon="1.93349">
        <ele>230.2</ele>
        <time>2022-09-01T18:13:54Z</time>
      </trkpt>
      <trkpt lat="43.97606" lon="1.93346">
        <ele>230.2</ele>
        <time>2022-09-01T18:13:55Z</time>
      </trkpt>
      <trkpt lat="43.97609" lon="1.93344">
        <ele>230.2</ele>
        <time>2022-09-01T18:13:56Z</time>
      </trkpt>
      <trkpt lat="43.97611" lon="1.93342">
        <ele>230.2</ele>
        <time>2022-09-01T18:13:57Z</time>
      </trkpt>
      <trkpt lat="43.97614" lon="1.93339">
        <ele>230.2</ele>
        <time>2022-09-01T18:13:58Z</time>
      </trkpt>
      <trkpt lat="43.97618" lon="1.93335">
        <ele>230.2</ele>
        <time>2022-09-01T18:13:59Z</time>
      </trkpt>
      <trkpt lat="43.97621" lon="1.93332">
        <ele>230</ele>
        <time>2022-09-01T18:14:00Z</time>
      </trkpt>
      <trkpt lat="43.97633" lon="1.9332">
        <ele>230</ele>
        <time>2022-09-01T18:14:04Z</time>
      </trkpt>
      <trkpt lat="43.97644" lon="1.93306">
        <ele>229.8</ele>
        <time>2022-09-01T18:14:08Z</time>
      </trkpt>
      <trkpt lat="43.97662" lon="1.93283">
        <ele>229.6</ele>
        <time>2022-09-01T18:14:14Z</time>
      </trkpt>
      <trkpt lat="43.97664" lon="1.9328">
        <ele>229.6</ele>
        <time>2022-09-01T18:14:15Z</time>
      </trkpt>
      <trkpt lat="43.97667" lon="1.93276">
        <ele>229.6</ele>
        <time>2022-09-01T18:14:16Z</time>
      </trkpt>
      <trkpt lat="43.9767" lon="1.93271">
        <ele>229.6</ele>
        <time>2022-09-01T18:14:17Z</time>
      </trkpt>
      <trkpt lat="43.97673" lon="1.93268">
        <ele>229.6</ele>
        <time>2022-09-01T18:14:18Z</time>
      </trkpt>
      <trkpt lat="43.97691" lon="1.93237">
        <ele>229.2</ele>
        <time>2022-09-01T18:14:25Z</time>
      </trkpt>
      <trkpt lat="43.97713" lon="1.93197">
        <ele>229.2</ele>
        <time>2022-09-01T18:14:33Z</time>
      </trkpt>
      <trkpt lat="43.97715" lon="1.93192">
        <ele>229.2</ele>
        <time>2022-09-01T18:14:34Z</time>
      </trkpt>
      <trkpt lat="43.97718" lon="1.93187">
        <ele>229.2</ele>
        <time>2022-09-01T18:14:35Z</time>
      </trkpt>
      <trkpt lat="43.9772" lon="1.93182">
        <ele>229.2</ele>
        <time>2022-09-01T18:14:36Z</time>
      </trkpt>
      <trkpt lat="43.97723" lon="1.93177">
        <ele>229.2</ele>
        <time>2022-09-01T18:14:37Z</time>
      </trkpt>
      <trkpt lat="43.97725" lon="1.93172">
        <ele>229.2</ele>
        <time>2022-09-01T18:14:38Z</time>
      </trkpt>
      <trkpt lat="43.97728" lon="1.93168">
        <ele>229.2</ele>
        <time>2022-09-01T18:14:39Z</time>
      </trkpt>
      <trkpt lat="43.9773" lon="1.93164">
        <ele>229.2</ele>
        <time>2022-09-01T18:14:40Z</time>
      </trkpt>
      <trkpt lat="43.97733" lon="1.93159">
        <ele>229.2</ele>
        <time>2022-09-01T18:14:41Z</time>
      </trkpt>
      <trkpt lat="43.97735" lon="1.93156">
        <ele>229.2</ele>
        <time>2022-09-01T18:14:42Z</time>
      </trkpt>
      <trkpt lat="43.97737" lon="1.93152">
        <ele>229.2</ele>
        <time>2022-09-01T18:14:43Z</time>
      </trkpt>
      <trkpt lat="43.97739" lon="1.93148">
        <ele>229</ele>
        <time>2022-09-01T18:14:44Z</time>
      </trkpt>
      <trkpt lat="43.97753" lon="1.93123">
        <ele>229</ele>
        <time>2022-09-01T18:14:50Z</time>
      </trkpt>
      <trkpt lat="43.97769" lon="1.93097">
        <ele>228.6</ele>
        <time>2022-09-01T18:14:56Z</time>
      </trkpt>
      <trkpt lat="43.97778" lon="1.93084">
        <ele>228.4</ele>
        <time>2022-09-01T18:14:59Z</time>
      </trkpt>
      <trkpt lat="43.97781" lon="1.9308">
        <ele>228.2</ele>
        <time>2022-09-01T18:15:00Z</time>
      </trkpt>
      <trkpt lat="43.97783" lon="1.93077">
        <ele>228.2</ele>
        <time>2022-09-01T18:15:01Z</time>
      </trkpt>
      <trkpt lat="43.97785" lon="1.93074">
        <ele>228.2</ele>
        <time>2022-09-01T18:15:02Z</time>
      </trkpt>
      <trkpt lat="43.97788" lon="1.93071">
        <ele>228.2</ele>
        <time>2022-09-01T18:15:03Z</time>
      </trkpt>
      <trkpt lat="43.9779" lon="1.93069">
        <ele>228.2</ele>
        <time>2022-09-01T18:15:04Z</time>
      </trkpt>
      <trkpt lat="43.97792" lon="1.93068">
        <ele>227.8</ele>
        <time>2022-09-01T18:15:05Z</time>
      </trkpt>
      <trkpt lat="43.97793" lon="1.93067">
        <ele>227.8</ele>
        <time>2022-09-01T18:15:06Z</time>
      </trkpt>
      <trkpt lat="43.97795" lon="1.93067">
        <ele>227.6</ele>
        <time>2022-09-01T18:15:07Z</time>
      </trkpt>
      <trkpt lat="43.97797" lon="1.93066">
        <ele>227.6</ele>
        <time>2022-09-01T18:15:08Z</time>
      </trkpt>
      <trkpt lat="43.97799" lon="1.93064">
        <ele>227.4</ele>
        <time>2022-09-01T18:15:09Z</time>
      </trkpt>
      <trkpt lat="43.97799" lon="1.93062">
        <ele>227.4</ele>
        <time>2022-09-01T18:15:10Z</time>
      </trkpt>
      <trkpt lat="43.97798" lon="1.9306">
        <ele>227.4</ele>
        <time>2022-09-01T18:15:11Z</time>
      </trkpt>
      <trkpt lat="43.97796" lon="1.93058">
        <ele>227.2</ele>
        <time>2022-09-01T18:15:12Z</time>
      </trkpt>
      <trkpt lat="43.97795" lon="1.93058">
        <ele>227</ele>
        <time>2022-09-01T18:15:13Z</time>
      </trkpt>
      <trkpt lat="43.97794" lon="1.93059">
        <ele>227</ele>
        <time>2022-09-01T18:15:14Z</time>
      </trkpt>
      <trkpt lat="43.97793" lon="1.9306">
        <ele>227</ele>
        <time>2022-09-01T18:15:15Z</time>
      </trkpt>
      <trkpt lat="43.97793" lon="1.93062">
        <ele>226.8</ele>
        <time>2022-09-01T18:15:16Z</time>
      </trkpt>
      <trkpt lat="43.97793" lon="1.93063">
        <ele>226.8</ele>
        <time>2022-09-01T18:15:17Z</time>
      </trkpt>
      <trkpt lat="43.97794" lon="1.93065">
        <ele>226.8</ele>
        <time>2022-09-01T18:15:18Z</time>
      </trkpt>
      <trkpt lat="43.97794" lon="1.93067">
        <ele>226.8</ele>
        <time>2022-09-01T18:15:19Z</time>
      </trkpt>
      <trkpt lat="43.97794" lon="1.9307">
        <ele>226.8</ele>
        <time>2022-09-01T18:15:20Z</time>
      </trkpt>
      <trkpt lat="43.97795" lon="1.93074">
        <ele>226.8</ele>
        <time>2022-09-01T18:15:21Z</time>
      </trkpt>
      <trkpt lat="43.97796" lon="1.93086">
        <ele>226.8</ele>
        <time>2022-09-01T18:15:24Z</time>
      </trkpt>
      <trkpt lat="43.97799" lon="1.93116">
        <ele>226.8</ele>
        <time>2022-09-01T18:15:30Z</time>
      </trkpt>
      <trkpt lat="43.97803" lon="1.93157">
        <ele>226.4</ele>
        <time>2022-09-01T18:15:36Z</time>
      </trkpt>
      <trkpt lat="43.97805" lon="1.93186">
        <ele>226</ele>
        <time>2022-09-01T18:15:40Z</time>
      </trkpt>
      <trkpt lat="43.97804" lon="1.93194">
        <ele>225.8</ele>
        <time>2022-09-01T18:15:41Z</time>
      </trkpt>
      <trkpt lat="43.97801" lon="1.93201">
        <ele>225.6</ele>
        <time>2022-09-01T18:15:42Z</time>
      </trkpt>
      <trkpt lat="43.97799" lon="1.93208">
        <ele>225.4</ele>
        <time>2022-09-01T18:15:43Z</time>
      </trkpt>
      <trkpt lat="43.97797" lon="1.93216">
        <ele>225.2</ele>
        <time>2022-09-01T18:15:44Z</time>
      </trkpt>
      <trkpt lat="43.97795" lon="1.93226">
        <ele>225</ele>
        <time>2022-09-01T18:15:45Z</time>
      </trkpt>
      <trkpt lat="43.97797" lon="1.93234">
        <ele>224.4</ele>
        <time>2022-09-01T18:15:46Z</time>
      </trkpt>
      <trkpt lat="43.97799" lon="1.93241">
        <ele>223.8</ele>
        <time>2022-09-01T18:15:47Z</time>
      </trkpt>
      <trkpt lat="43.97803" lon="1.93247">
        <ele>223.6</ele>
        <time>2022-09-01T18:15:48Z</time>
      </trkpt>
      <trkpt lat="43.97807" lon="1.93251">
        <ele>223.2</ele>
        <time>2022-09-01T18:15:49Z</time>
      </trkpt>
      <trkpt lat="43.97812" lon="1.93255">
        <ele>222.6</ele>
        <time>2022-09-01T18:15:50Z</time>
      </trkpt>
      <trkpt lat="43.97816" lon="1.93258">
        <ele>221.2</ele>
        <time>2022-09-01T18:15:51Z</time>
      </trkpt>
      <trkpt lat="43.97819" lon="1.93263">
        <ele>220.6</ele>
        <time>2022-09-01T18:15:52Z</time>
      </trkpt>
      <trkpt lat="43.97824" lon="1.93272">
        <ele>219.6</ele>
        <time>2022-09-01T18:15:53Z</time>
      </trkpt>
      <trkpt lat="43.97827" lon="1.9328">
        <ele>219</ele>
        <time>2022-09-01T18:15:54Z</time>
      </trkpt>
      <trkpt lat="43.97831" lon="1.93287">
        <ele>218.4</ele>
        <time>2022-09-01T18:15:55Z</time>
      </trkpt>
      <trkpt lat="43.97835" lon="1.93293">
        <ele>217.6</ele>
        <time>2022-09-01T18:15:56Z</time>
      </trkpt>
      <trkpt lat="43.97838" lon="1.93297">
        <ele>217.2</ele>
        <time>2022-09-01T18:15:57Z</time>
      </trkpt>
      <trkpt lat="43.97842" lon="1.93301">
        <ele>216.6</ele>
        <time>2022-09-01T18:15:58Z</time>
      </trkpt>
      <trkpt lat="43.97844" lon="1.93304">
        <ele>216.4</ele>
        <time>2022-09-01T18:15:59Z</time>
      </trkpt>
      <trkpt lat="43.97846" lon="1.93306">
        <ele>215.4</ele>
        <time>2022-09-01T18:16:00Z</time>
      </trkpt>
      <trkpt lat="43.97846" lon="1.93307">
        <ele>215</ele>
        <time>2022-09-01T18:16:01Z</time>
      </trkpt>
      <trkpt lat="43.97847" lon="1.93308">
        <ele>214.2</ele>
        <time>2022-09-01T18:16:02Z</time>
      </trkpt>
      <trkpt lat="43.97847" lon="1.93308">
        <ele>213.6</ele>
        <time>2022-09-01T18:16:04Z</time>
      </trkpt>
      <trkpt lat="43.97847" lon="1.93308">
        <ele>213.2</ele>
        <time>2022-09-01T18:16:05Z</time>
      </trkpt>
      <trkpt lat="43.97847" lon="1.93308">
        <ele>212.2</ele>
        <time>2022-09-01T18:16:52Z</time>
      </trkpt>
      <trkpt lat="43.97847" lon="1.93308">
        <ele>212.2</ele>
        <time>2022-09-01T18:16:53Z</time>
      </trkpt>
      <trkpt lat="43.97863" lon="1.93361">
        <ele>212.6</ele>
        <time>2022-09-01T18:17:06Z</time>
      </trkpt>
      <trkpt lat="43.97868" lon="1.93364">
        <ele>212.8</ele>
        <time>2022-09-01T18:17:07Z</time>
      </trkpt>
      <trkpt lat="43.97875" lon="1.93362">
        <ele>213</ele>
        <time>2022-09-01T18:17:10Z</time>
      </trkpt>
      <trkpt lat="43.97878" lon="1.9336">
        <ele>213.2</ele>
        <time>2022-09-01T18:17:11Z</time>
      </trkpt>
      <trkpt lat="43.97879" lon="1.9336">
        <ele>213.4</ele>
        <time>2022-09-01T18:17:12Z</time>
      </trkpt>
      <trkpt lat="43.9788" lon="1.9336">
        <ele>213.6</ele>
        <time>2022-09-01T18:17:13Z</time>
      </trkpt>
      <trkpt lat="43.97882" lon="1.93362">
        <ele>214</ele>
        <time>2022-09-01T18:17:14Z</time>
      </trkpt>
      <trkpt lat="43.97883" lon="1.93365">
        <ele>214</ele>
        <time>2022-09-01T18:17:15Z</time>
      </trkpt>
      <trkpt lat="43.97883" lon="1.93369">
        <ele>214.4</ele>
        <time>2022-09-01T18:17:16Z</time>
      </trkpt>
      <trkpt lat="43.97882" lon="1.93372">
        <ele>214.6</ele>
        <time>2022-09-01T18:17:17Z</time>
      </trkpt>
      <trkpt lat="43.97875" lon="1.9338">
        <ele>215.2</ele>
        <time>2022-09-01T18:17:20Z</time>
      </trkpt>
      <trkpt lat="43.97873" lon="1.93382">
        <ele>215.6</ele>
        <time>2022-09-01T18:17:21Z</time>
      </trkpt>
      <trkpt lat="43.97868" lon="1.93389">
        <ele>216.4</ele>
        <time>2022-09-01T18:17:23Z</time>
      </trkpt>
      <trkpt lat="43.97866" lon="1.93392">
        <ele>216.8</ele>
        <time>2022-09-01T18:17:24Z</time>
      </trkpt>
      <trkpt lat="43.97865" lon="1.93395">
        <ele>217.2</ele>
        <time>2022-09-01T18:17:25Z</time>
      </trkpt>
      <trkpt lat="43.97863" lon="1.93398">
        <ele>217.4</ele>
        <time>2022-09-01T18:17:26Z</time>
      </trkpt>
      <trkpt lat="43.97862" lon="1.93401">
        <ele>217.8</ele>
        <time>2022-09-01T18:17:27Z</time>
      </trkpt>
      <trkpt lat="43.97861" lon="1.93403">
        <ele>218</ele>
        <time>2022-09-01T18:17:28Z</time>
      </trkpt>
      <trkpt lat="43.9786" lon="1.93406">
        <ele>218.6</ele>
        <time>2022-09-01T18:17:29Z</time>
      </trkpt>
      <trkpt lat="43.97858" lon="1.93408">
        <ele>219</ele>
        <time>2022-09-01T18:17:30Z</time>
      </trkpt>
      <trkpt lat="43.97857" lon="1.93409">
        <ele>219.2</ele>
        <time>2022-09-01T18:17:31Z</time>
      </trkpt>
      <trkpt lat="43.97856" lon="1.93411">
        <ele>219.8</ele>
        <time>2022-09-01T18:17:32Z</time>
      </trkpt>
      <trkpt lat="43.97855" lon="1.93413">
        <ele>220</ele>
        <time>2022-09-01T18:17:33Z</time>
      </trkpt>
      <trkpt lat="43.97854" lon="1.93414">
        <ele>220.2</ele>
        <time>2022-09-01T18:17:34Z</time>
      </trkpt>
      <trkpt lat="43.97852" lon="1.93415">
        <ele>220.4</ele>
        <time>2022-09-01T18:17:35Z</time>
      </trkpt>
      <trkpt lat="43.97851" lon="1.93417">
        <ele>220.8</ele>
        <time>2022-09-01T18:17:36Z</time>
      </trkpt>
      <trkpt lat="43.9785" lon="1.93418">
        <ele>221.2</ele>
        <time>2022-09-01T18:17:37Z</time>
      </trkpt>
      <trkpt lat="43.9785" lon="1.93419">
        <ele>221.4</ele>
        <time>2022-09-01T18:17:38Z</time>
      </trkpt>
      <trkpt lat="43.97849" lon="1.9342">
        <ele>222</ele>
        <time>2022-09-01T18:17:39Z</time>
      </trkpt>
      <trkpt lat="43.97848" lon="1.93421">
        <ele>222</ele>
        <time>2022-09-01T18:17:40Z</time>
      </trkpt>
      <trkpt lat="43.97847" lon="1.93422">
        <ele>222.4</ele>
        <time>2022-09-01T18:17:41Z</time>
      </trkpt>
      <trkpt lat="43.97846" lon="1.93423">
        <ele>222.6</ele>
        <time>2022-09-01T18:17:42Z</time>
      </trkpt>
      <trkpt lat="43.97845" lon="1.93425">
        <ele>223</ele>
        <time>2022-09-01T18:17:43Z</time>
      </trkpt>
      <trkpt lat="43.97844" lon="1.93426">
        <ele>223.2</ele>
        <time>2022-09-01T18:17:44Z</time>
      </trkpt>
      <trkpt lat="43.97843" lon="1.93427">
        <ele>223.4</ele>
        <time>2022-09-01T18:17:45Z</time>
      </trkpt>
      <trkpt lat="43.97843" lon="1.93428">
        <ele>223.6</ele>
        <time>2022-09-01T18:17:46Z</time>
      </trkpt>
      <trkpt lat="43.97841" lon="1.93429">
        <ele>223.6</ele>
        <time>2022-09-01T18:17:47Z</time>
      </trkpt>
      <trkpt lat="43.9784" lon="1.9343">
        <ele>223.8</ele>
        <time>2022-09-01T18:17:48Z</time>
      </trkpt>
      <trkpt lat="43.97839" lon="1.93431">
        <ele>223.8</ele>
        <time>2022-09-01T18:17:49Z</time>
      </trkpt>
      <trkpt lat="43.97837" lon="1.93433">
        <ele>224</ele>
        <time>2022-09-01T18:17:50Z</time>
      </trkpt>
      <trkpt lat="43.97836" lon="1.93434">
        <ele>224</ele>
        <time>2022-09-01T18:17:51Z</time>
      </trkpt>
      <trkpt lat="43.97835" lon="1.93436">
        <ele>224.2</ele>
        <time>2022-09-01T18:17:52Z</time>
      </trkpt>
      <trkpt lat="43.97834" lon="1.93437">
        <ele>224.4</ele>
        <time>2022-09-01T18:17:53Z</time>
      </trkpt>
      <trkpt lat="43.97832" lon="1.93439">
        <ele>224.6</ele>
        <time>2022-09-01T18:17:54Z</time>
      </trkpt>
      <trkpt lat="43.97831" lon="1.93441">
        <ele>224.6</ele>
        <time>2022-09-01T18:17:55Z</time>
      </trkpt>
      <trkpt lat="43.9783" lon="1.93442">
        <ele>224.8</ele>
        <time>2022-09-01T18:17:56Z</time>
      </trkpt>
      <trkpt lat="43.97828" lon="1.93444">
        <ele>224.8</ele>
        <time>2022-09-01T18:17:57Z</time>
      </trkpt>
      <trkpt lat="43.97826" lon="1.93447">
        <ele>225</ele>
        <time>2022-09-01T18:17:58Z</time>
      </trkpt>
      <trkpt lat="43.97824" lon="1.93449">
        <ele>225.2</ele>
        <time>2022-09-01T18:17:59Z</time>
      </trkpt>
      <trkpt lat="43.97823" lon="1.9345">
        <ele>225.4</ele>
        <time>2022-09-01T18:18:00Z</time>
      </trkpt>
      <trkpt lat="43.97821" lon="1.93452">
        <ele>225.4</ele>
        <time>2022-09-01T18:18:01Z</time>
      </trkpt>
      <trkpt lat="43.9782" lon="1.93453">
        <ele>225.6</ele>
        <time>2022-09-01T18:18:02Z</time>
      </trkpt>
      <trkpt lat="43.97818" lon="1.93455">
        <ele>225.8</ele>
        <time>2022-09-01T18:18:03Z</time>
      </trkpt>
      <trkpt lat="43.97816" lon="1.93457">
        <ele>226</ele>
        <time>2022-09-01T18:18:04Z</time>
      </trkpt>
      <trkpt lat="43.97815" lon="1.93459">
        <ele>226</ele>
        <time>2022-09-01T18:18:05Z</time>
      </trkpt>
      <trkpt lat="43.97813" lon="1.9346">
        <ele>226.2</ele>
        <time>2022-09-01T18:18:06Z</time>
      </trkpt>
      <trkpt lat="43.97811" lon="1.93461">
        <ele>226.4</ele>
        <time>2022-09-01T18:18:07Z</time>
      </trkpt>
      <trkpt lat="43.97809" lon="1.93461">
        <ele>226.6</ele>
        <time>2022-09-01T18:18:08Z</time>
      </trkpt>
      <trkpt lat="43.97807" lon="1.93462">
        <ele>226.8</ele>
        <time>2022-09-01T18:18:09Z</time>
      </trkpt>
      <trkpt lat="43.97805" lon="1.93465">
        <ele>227</ele>
        <time>2022-09-01T18:18:10Z</time>
      </trkpt>
      <trkpt lat="43.97803" lon="1.93467">
        <ele>227</ele>
        <time>2022-09-01T18:18:11Z</time>
      </trkpt>
      <trkpt lat="43.97801" lon="1.93471">
        <ele>227.2</ele>
        <time>2022-09-01T18:18:12Z</time>
      </trkpt>
      <trkpt lat="43.978" lon="1.93474">
        <ele>227.4</ele>
        <time>2022-09-01T18:18:13Z</time>
      </trkpt>
      <trkpt lat="43.97799" lon="1.93477">
        <ele>227.6</ele>
        <time>2022-09-01T18:18:14Z</time>
      </trkpt>
      <trkpt lat="43.97797" lon="1.9348">
        <ele>227.8</ele>
        <time>2022-09-01T18:18:15Z</time>
      </trkpt>
      <trkpt lat="43.97795" lon="1.93484">
        <ele>228.2</ele>
        <time>2022-09-01T18:18:16Z</time>
      </trkpt>
      <trkpt lat="43.97794" lon="1.93487">
        <ele>228.2</ele>
        <time>2022-09-01T18:18:17Z</time>
      </trkpt>
      <trkpt lat="43.97793" lon="1.9349">
        <ele>228.6</ele>
        <time>2022-09-01T18:18:18Z</time>
      </trkpt>
      <trkpt lat="43.97792" lon="1.93493">
        <ele>228.6</ele>
        <time>2022-09-01T18:18:19Z</time>
      </trkpt>
      <trkpt lat="43.97791" lon="1.93496">
        <ele>228.8</ele>
        <time>2022-09-01T18:18:20Z</time>
      </trkpt>
      <trkpt lat="43.9779" lon="1.93499">
        <ele>229</ele>
        <time>2022-09-01T18:18:21Z</time>
      </trkpt>
      <trkpt lat="43.97789" lon="1.93503">
        <ele>229.2</ele>
        <time>2022-09-01T18:18:22Z</time>
      </trkpt>
      <trkpt lat="43.97787" lon="1.93505">
        <ele>229.2</ele>
        <time>2022-09-01T18:18:23Z</time>
      </trkpt>
      <trkpt lat="43.97786" lon="1.93507">
        <ele>229.6</ele>
        <time>2022-09-01T18:18:24Z</time>
      </trkpt>
      <trkpt lat="43.97785" lon="1.93509">
        <ele>229.8</ele>
        <time>2022-09-01T18:18:25Z</time>
      </trkpt>
      <trkpt lat="43.97786" lon="1.93512">
        <ele>229.8</ele>
        <time>2022-09-01T18:18:26Z</time>
      </trkpt>
      <trkpt lat="43.97787" lon="1.93514">
        <ele>230</ele>
        <time>2022-09-01T18:18:27Z</time>
      </trkpt>
      <trkpt lat="43.97789" lon="1.93516">
        <ele>230</ele>
        <time>2022-09-01T18:18:28Z</time>
      </trkpt>
      <trkpt lat="43.97791" lon="1.93517">
        <ele>230.2</ele>
        <time>2022-09-01T18:18:29Z</time>
      </trkpt>
      <trkpt lat="43.97794" lon="1.93517">
        <ele>230.2</ele>
        <time>2022-09-01T18:18:30Z</time>
      </trkpt>
      <trkpt lat="43.97797" lon="1.93517">
        <ele>230.4</ele>
        <time>2022-09-01T18:18:31Z</time>
      </trkpt>
      <trkpt lat="43.978" lon="1.93517">
        <ele>230.6</ele>
        <time>2022-09-01T18:18:32Z</time>
      </trkpt>
      <trkpt lat="43.97804" lon="1.93517">
        <ele>230.6</ele>
        <time>2022-09-01T18:18:33Z</time>
      </trkpt>
      <trkpt lat="43.97807" lon="1.93517">
        <ele>230.6</ele>
        <time>2022-09-01T18:18:34Z</time>
      </trkpt>
      <trkpt lat="43.97811" lon="1.93517">
        <ele>230.6</ele>
        <time>2022-09-01T18:18:35Z</time>
      </trkpt>
      <trkpt lat="43.97815" lon="1.93517">
        <ele>230.6</ele>
        <time>2022-09-01T18:18:36Z</time>
      </trkpt>
      <trkpt lat="43.97819" lon="1.93517">
        <ele>230.6</ele>
        <time>2022-09-01T18:18:37Z</time>
      </trkpt>
      <trkpt lat="43.97823" lon="1.93517">
        <ele>230.4</ele>
        <time>2022-09-01T18:18:38Z</time>
      </trkpt>
      <trkpt lat="43.97826" lon="1.93516">
        <ele>230.4</ele>
        <time>2022-09-01T18:18:39Z</time>
      </trkpt>
      <trkpt lat="43.97831" lon="1.93515">
        <ele>230.4</ele>
        <time>2022-09-01T18:18:40Z</time>
      </trkpt>
      <trkpt lat="43.97835" lon="1.93514">
        <ele>230.2</ele>
        <time>2022-09-01T18:18:41Z</time>
      </trkpt>
      <trkpt lat="43.97839" lon="1.93513">
        <ele>230.2</ele>
        <time>2022-09-01T18:18:42Z</time>
      </trkpt>
      <trkpt lat="43.97842" lon="1.93511">
        <ele>230</ele>
        <time>2022-09-01T18:18:43Z</time>
      </trkpt>
      <trkpt lat="43.97846" lon="1.93509">
        <ele>229.8</ele>
        <time>2022-09-01T18:18:44Z</time>
      </trkpt>
      <trkpt lat="43.97849" lon="1.93508">
        <ele>229.6</ele>
        <time>2022-09-01T18:18:45Z</time>
      </trkpt>
      <trkpt lat="43.97852" lon="1.93506">
        <ele>229.4</ele>
        <time>2022-09-01T18:18:46Z</time>
      </trkpt>
      <trkpt lat="43.97855" lon="1.93504">
        <ele>229.2</ele>
        <time>2022-09-01T18:18:47Z</time>
      </trkpt>
      <trkpt lat="43.97857" lon="1.93503">
        <ele>228.8</ele>
        <time>2022-09-01T18:18:48Z</time>
      </trkpt>
      <trkpt lat="43.97859" lon="1.93503">
        <ele>228.6</ele>
        <time>2022-09-01T18:18:49Z</time>
      </trkpt>
      <trkpt lat="43.97865" lon="1.93504">
        <ele>228.2</ele>
        <time>2022-09-01T18:18:51Z</time>
      </trkpt>
      <trkpt lat="43.97868" lon="1.93505">
        <ele>228</ele>
        <time>2022-09-01T18:18:52Z</time>
      </trkpt>
      <trkpt lat="43.97871" lon="1.93507">
        <ele>227.8</ele>
        <time>2022-09-01T18:18:53Z</time>
      </trkpt>
      <trkpt lat="43.97875" lon="1.93508">
        <ele>227.4</ele>
        <time>2022-09-01T18:18:54Z</time>
      </trkpt>
      <trkpt lat="43.97887" lon="1.93508">
        <ele>227</ele>
        <time>2022-09-01T18:18:57Z</time>
      </trkpt>
      <trkpt lat="43.97897" lon="1.93507">
        <ele>226.4</ele>
        <time>2022-09-01T18:18:59Z</time>
      </trkpt>
      <trkpt lat="43.97906" lon="1.93511">
        <ele>226</ele>
        <time>2022-09-01T18:19:01Z</time>
      </trkpt>
      <trkpt lat="43.9791" lon="1.93513">
        <ele>226</ele>
        <time>2022-09-01T18:19:02Z</time>
      </trkpt>
      <trkpt lat="43.97914" lon="1.93514">
        <ele>225.6</ele>
        <time>2022-09-01T18:19:03Z</time>
      </trkpt>
      <trkpt lat="43.97918" lon="1.93515">
        <ele>225.4</ele>
        <time>2022-09-01T18:19:04Z</time>
      </trkpt>
      <trkpt lat="43.97922" lon="1.93517">
        <ele>225.2</ele>
        <time>2022-09-01T18:19:05Z</time>
      </trkpt>
      <trkpt lat="43.97926" lon="1.9352">
        <ele>225</ele>
        <time>2022-09-01T18:19:06Z</time>
      </trkpt>
      <trkpt lat="43.97928" lon="1.93524">
        <ele>224.8</ele>
        <time>2022-09-01T18:19:07Z</time>
      </trkpt>
      <trkpt lat="43.9793" lon="1.93527">
        <ele>224.8</ele>
        <time>2022-09-01T18:19:08Z</time>
      </trkpt>
      <trkpt lat="43.97933" lon="1.93531">
        <ele>224.8</ele>
        <time>2022-09-01T18:19:09Z</time>
      </trkpt>
      <trkpt lat="43.97935" lon="1.93534">
        <ele>224.6</ele>
        <time>2022-09-01T18:19:10Z</time>
      </trkpt>
      <trkpt lat="43.97939" lon="1.93541">
        <ele>224.6</ele>
        <time>2022-09-01T18:19:12Z</time>
      </trkpt>
      <trkpt lat="43.97943" lon="1.93548">
        <ele>224.6</ele>
        <time>2022-09-01T18:19:14Z</time>
      </trkpt>
      <trkpt lat="43.97946" lon="1.93552">
        <ele>224.6</ele>
        <time>2022-09-01T18:19:15Z</time>
      </trkpt>
      <trkpt lat="43.97951" lon="1.93558">
        <ele>224.6</ele>
        <time>2022-09-01T18:19:17Z</time>
      </trkpt>
      <trkpt lat="43.97953" lon="1.9356">
        <ele>224.6</ele>
        <time>2022-09-01T18:19:18Z</time>
      </trkpt>
      <trkpt lat="43.97955" lon="1.93563">
        <ele>224.6</ele>
        <time>2022-09-01T18:19:19Z</time>
      </trkpt>
      <trkpt lat="43.97957" lon="1.93566">
        <ele>224.6</ele>
        <time>2022-09-01T18:19:20Z</time>
      </trkpt>
      <trkpt lat="43.97963" lon="1.93575">
        <ele>224.8</ele>
        <time>2022-09-01T18:19:23Z</time>
      </trkpt>
      <trkpt lat="43.97964" lon="1.93578">
        <ele>224.8</ele>
        <time>2022-09-01T18:19:24Z</time>
      </trkpt>
      <trkpt lat="43.97966" lon="1.9358">
        <ele>224.8</ele>
        <time>2022-09-01T18:19:25Z</time>
      </trkpt>
      <trkpt lat="43.97968" lon="1.93583">
        <ele>225</ele>
        <time>2022-09-01T18:19:26Z</time>
      </trkpt>
      <trkpt lat="43.9797" lon="1.93585">
        <ele>225</ele>
        <time>2022-09-01T18:19:27Z</time>
      </trkpt>
      <trkpt lat="43.97972" lon="1.93587">
        <ele>225</ele>
        <time>2022-09-01T18:19:28Z</time>
      </trkpt>
      <trkpt lat="43.97973" lon="1.93589">
        <ele>225</ele>
        <time>2022-09-01T18:19:29Z</time>
      </trkpt>
      <trkpt lat="43.97974" lon="1.93591">
        <ele>225.2</ele>
        <time>2022-09-01T18:19:30Z</time>
      </trkpt>
      <trkpt lat="43.97976" lon="1.93593">
        <ele>225.2</ele>
        <time>2022-09-01T18:19:31Z</time>
      </trkpt>
      <trkpt lat="43.97977" lon="1.93594">
        <ele>225.2</ele>
        <time>2022-09-01T18:19:32Z</time>
      </trkpt>
      <trkpt lat="43.97978" lon="1.93593">
        <ele>225.4</ele>
        <time>2022-09-01T18:19:33Z</time>
      </trkpt>
      <trkpt lat="43.97978" lon="1.93591">
        <ele>225.4</ele>
        <time>2022-09-01T18:19:34Z</time>
      </trkpt>
      <trkpt lat="43.97977" lon="1.9359">
        <ele>225.4</ele>
        <time>2022-09-01T18:19:35Z</time>
      </trkpt>
      <trkpt lat="43.97976" lon="1.93589">
        <ele>225.4</ele>
        <time>2022-09-01T18:19:36Z</time>
      </trkpt>
      <trkpt lat="43.97975" lon="1.93588">
        <ele>225.4</ele>
        <time>2022-09-01T18:19:37Z</time>
      </trkpt>
      <trkpt lat="43.97969" lon="1.93584">
        <ele>225.4</ele>
        <time>2022-09-01T18:19:40Z</time>
      </trkpt>
      <trkpt lat="43.97966" lon="1.93578">
        <ele>225.4</ele>
        <time>2022-09-01T18:19:42Z</time>
      </trkpt>
      <trkpt lat="43.97964" lon="1.93575">
        <ele>225.4</ele>
        <time>2022-09-01T18:19:43Z</time>
      </trkpt>
      <trkpt lat="43.97959" lon="1.93565">
        <ele>225.4</ele>
        <time>2022-09-01T18:19:46Z</time>
      </trkpt>
      <trkpt lat="43.97954" lon="1.93559">
        <ele>225.4</ele>
        <time>2022-09-01T18:19:48Z</time>
      </trkpt>
      <trkpt lat="43.97938" lon="1.93536">
        <ele>225.4</ele>
        <time>2022-09-01T18:19:54Z</time>
      </trkpt>
      <trkpt lat="43.97935" lon="1.93532">
        <ele>225.2</ele>
        <time>2022-09-01T18:19:55Z</time>
      </trkpt>
      <trkpt lat="43.97932" lon="1.93529">
        <ele>225</ele>
        <time>2022-09-01T18:19:56Z</time>
      </trkpt>
      <trkpt lat="43.9793" lon="1.93525">
        <ele>225</ele>
        <time>2022-09-01T18:19:57Z</time>
      </trkpt>
      <trkpt lat="43.97928" lon="1.93522">
        <ele>225</ele>
        <time>2022-09-01T18:19:58Z</time>
      </trkpt>
      <trkpt lat="43.97926" lon="1.93519">
        <ele>224.8</ele>
        <time>2022-09-01T18:19:59Z</time>
      </trkpt>
      <trkpt lat="43.97923" lon="1.93516">
        <ele>224.8</ele>
        <time>2022-09-01T18:20:00Z</time>
      </trkpt>
      <trkpt lat="43.9792" lon="1.93514">
        <ele>224.6</ele>
        <time>2022-09-01T18:20:01Z</time>
      </trkpt>
      <trkpt lat="43.97917" lon="1.93512">
        <ele>224.6</ele>
        <time>2022-09-01T18:20:02Z</time>
      </trkpt>
      <trkpt lat="43.97911" lon="1.9351">
        <ele>224.6</ele>
        <time>2022-09-01T18:20:04Z</time>
      </trkpt>
      <trkpt lat="43.97907" lon="1.93509">
        <ele>224.4</ele>
        <time>2022-09-01T18:20:05Z</time>
      </trkpt>
      <trkpt lat="43.979" lon="1.93506">
        <ele>224.4</ele>
        <time>2022-09-01T18:20:07Z</time>
      </trkpt>
      <trkpt lat="43.97897" lon="1.93505">
        <ele>224.4</ele>
        <time>2022-09-01T18:20:08Z</time>
      </trkpt>
      <trkpt lat="43.97894" lon="1.93504">
        <ele>224.4</ele>
        <time>2022-09-01T18:20:09Z</time>
      </trkpt>
      <trkpt lat="43.97891" lon="1.93504">
        <ele>224.4</ele>
        <time>2022-09-01T18:20:10Z</time>
      </trkpt>
      <trkpt lat="43.97889" lon="1.93504">
        <ele>224.4</ele>
        <time>2022-09-01T18:20:11Z</time>
      </trkpt>
      <trkpt lat="43.97886" lon="1.93505">
        <ele>224.4</ele>
        <time>2022-09-01T18:20:12Z</time>
      </trkpt>
      <trkpt lat="43.97885" lon="1.93505">
        <ele>224.6</ele>
        <time>2022-09-01T18:20:13Z</time>
      </trkpt>
      <trkpt lat="43.97883" lon="1.93506">
        <ele>224.6</ele>
        <time>2022-09-01T18:20:14Z</time>
      </trkpt>
      <trkpt lat="43.97881" lon="1.93506">
        <ele>224.6</ele>
        <time>2022-09-01T18:20:15Z</time>
      </trkpt>
      <trkpt lat="43.9788" lon="1.93506">
        <ele>224.6</ele>
        <time>2022-09-01T18:20:16Z</time>
      </trkpt>
      <trkpt lat="43.97879" lon="1.93505">
        <ele>224.6</ele>
        <time>2022-09-01T18:20:17Z</time>
      </trkpt>
      <trkpt lat="43.97878" lon="1.93505">
        <ele>224.6</ele>
        <time>2022-09-01T18:20:18Z</time>
      </trkpt>
      <trkpt lat="43.97878" lon="1.93505">
        <ele>224.6</ele>
        <time>2022-09-01T18:20:19Z</time>
      </trkpt>
      <trkpt lat="43.97877" lon="1.93503">
        <ele>224.8</ele>
        <time>2022-09-01T18:20:34Z</time>
      </trkpt>
      <trkpt lat="43.97875" lon="1.93502">
        <ele>224.8</ele>
        <time>2022-09-01T18:20:35Z</time>
      </trkpt>
      <trkpt lat="43.97873" lon="1.93501">
        <ele>224.8</ele>
        <time>2022-09-01T18:20:36Z</time>
      </trkpt>
      <trkpt lat="43.97864" lon="1.93502">
        <ele>225</ele>
        <time>2022-09-01T18:20:39Z</time>
      </trkpt>
      <trkpt lat="43.97861" lon="1.93502">
        <ele>225</ele>
        <time>2022-09-01T18:20:40Z</time>
      </trkpt>
      <trkpt lat="43.97855" lon="1.93503">
        <ele>225.4</ele>
        <time>2022-09-01T18:20:42Z</time>
      </trkpt>
      <trkpt lat="43.97841" lon="1.93509">
        <ele>225.6</ele>
        <time>2022-09-01T18:20:46Z</time>
      </trkpt>
      <trkpt lat="43.97837" lon="1.9351">
        <ele>226</ele>
        <time>2022-09-01T18:20:47Z</time>
      </trkpt>
      <trkpt lat="43.97834" lon="1.93511">
        <ele>226.2</ele>
        <time>2022-09-01T18:20:48Z</time>
      </trkpt>
      <trkpt lat="43.97831" lon="1.93511">
        <ele>226.2</ele>
        <time>2022-09-01T18:20:49Z</time>
      </trkpt>
      <trkpt lat="43.97828" lon="1.93512">
        <ele>226.4</ele>
        <time>2022-09-01T18:20:50Z</time>
      </trkpt>
      <trkpt lat="43.97825" lon="1.93512">
        <ele>226.8</ele>
        <time>2022-09-01T18:20:51Z</time>
      </trkpt>
      <trkpt lat="43.97822" lon="1.93512">
        <ele>227</ele>
        <time>2022-09-01T18:20:52Z</time>
      </trkpt>
      <trkpt lat="43.97818" lon="1.93513">
        <ele>227.4</ele>
        <time>2022-09-01T18:20:53Z</time>
      </trkpt>
      <trkpt lat="43.97815" lon="1.93513">
        <ele>227.6</ele>
        <time>2022-09-01T18:20:54Z</time>
      </trkpt>
      <trkpt lat="43.97812" lon="1.93514">
        <ele>227.8</ele>
        <time>2022-09-01T18:20:55Z</time>
      </trkpt>
      <trkpt lat="43.97809" lon="1.93514">
        <ele>228.4</ele>
        <time>2022-09-01T18:20:56Z</time>
      </trkpt>
      <trkpt lat="43.97803" lon="1.93515">
        <ele>228.8</ele>
        <time>2022-09-01T18:20:58Z</time>
      </trkpt>
      <trkpt lat="43.978" lon="1.93515">
        <ele>229</ele>
        <time>2022-09-01T18:20:59Z</time>
      </trkpt>
      <trkpt lat="43.97797" lon="1.93515">
        <ele>229.2</ele>
        <time>2022-09-01T18:21:00Z</time>
      </trkpt>
      <trkpt lat="43.97795" lon="1.93514">
        <ele>229.2</ele>
        <time>2022-09-01T18:21:01Z</time>
      </trkpt>
      <trkpt lat="43.97792" lon="1.93514">
        <ele>229.4</ele>
        <time>2022-09-01T18:21:02Z</time>
      </trkpt>
      <trkpt lat="43.9779" lon="1.93512">
        <ele>229.6</ele>
        <time>2022-09-01T18:21:03Z</time>
      </trkpt>
      <trkpt lat="43.97789" lon="1.9351">
        <ele>229.8</ele>
        <time>2022-09-01T18:21:04Z</time>
      </trkpt>
      <trkpt lat="43.97789" lon="1.93506">
        <ele>230.2</ele>
        <time>2022-09-01T18:21:05Z</time>
      </trkpt>
      <trkpt lat="43.97789" lon="1.93502">
        <ele>230.2</ele>
        <time>2022-09-01T18:21:06Z</time>
      </trkpt>
      <trkpt lat="43.97791" lon="1.93498">
        <ele>230.4</ele>
        <time>2022-09-01T18:21:07Z</time>
      </trkpt>
      <trkpt lat="43.97793" lon="1.93494">
        <ele>230.6</ele>
        <time>2022-09-01T18:21:08Z</time>
      </trkpt>
      <trkpt lat="43.97795" lon="1.9349">
        <ele>230.6</ele>
        <time>2022-09-01T18:21:09Z</time>
      </trkpt>
      <trkpt lat="43.97797" lon="1.93486">
        <ele>230.6</ele>
        <time>2022-09-01T18:21:10Z</time>
      </trkpt>
      <trkpt lat="43.97799" lon="1.93481">
        <ele>230.6</ele>
        <time>2022-09-01T18:21:11Z</time>
      </trkpt>
      <trkpt lat="43.97802" lon="1.93477">
        <ele>230.6</ele>
        <time>2022-09-01T18:21:12Z</time>
      </trkpt>
      <trkpt lat="43.97805" lon="1.93473">
        <ele>230.6</ele>
        <time>2022-09-01T18:21:13Z</time>
      </trkpt>
      <trkpt lat="43.97808" lon="1.93469">
        <ele>230.6</ele>
        <time>2022-09-01T18:21:14Z</time>
      </trkpt>
      <trkpt lat="43.97811" lon="1.93466">
        <ele>230.6</ele>
        <time>2022-09-01T18:21:15Z</time>
      </trkpt>
      <trkpt lat="43.97815" lon="1.93463">
        <ele>230.4</ele>
        <time>2022-09-01T18:21:16Z</time>
      </trkpt>
      <trkpt lat="43.97819" lon="1.9346">
        <ele>230.2</ele>
        <time>2022-09-01T18:21:17Z</time>
      </trkpt>
      <trkpt lat="43.97822" lon="1.93456">
        <ele>229.8</ele>
        <time>2022-09-01T18:21:18Z</time>
      </trkpt>
      <trkpt lat="43.97826" lon="1.93451">
        <ele>229.4</ele>
        <time>2022-09-01T18:21:19Z</time>
      </trkpt>
      <trkpt lat="43.9783" lon="1.93447">
        <ele>229.2</ele>
        <time>2022-09-01T18:21:20Z</time>
      </trkpt>
      <trkpt lat="43.97834" lon="1.93442">
        <ele>228.8</ele>
        <time>2022-09-01T18:21:21Z</time>
      </trkpt>
      <trkpt lat="43.97837" lon="1.93438">
        <ele>228.6</ele>
        <time>2022-09-01T18:21:22Z</time>
      </trkpt>
      <trkpt lat="43.97841" lon="1.93433">
        <ele>228.2</ele>
        <time>2022-09-01T18:21:23Z</time>
      </trkpt>
      <trkpt lat="43.97849" lon="1.93425">
        <ele>227.4</ele>
        <time>2022-09-01T18:21:25Z</time>
      </trkpt>
      <trkpt lat="43.97852" lon="1.93421">
        <ele>226.8</ele>
        <time>2022-09-01T18:21:26Z</time>
      </trkpt>
      <trkpt lat="43.97856" lon="1.93417">
        <ele>226.6</ele>
        <time>2022-09-01T18:21:27Z</time>
      </trkpt>
      <trkpt lat="43.97859" lon="1.93412">
        <ele>226</ele>
        <time>2022-09-01T18:21:28Z</time>
      </trkpt>
      <trkpt lat="43.97862" lon="1.93407">
        <ele>226</ele>
        <time>2022-09-01T18:21:29Z</time>
      </trkpt>
      <trkpt lat="43.97865" lon="1.93402">
        <ele>225.4</ele>
        <time>2022-09-01T18:21:30Z</time>
      </trkpt>
      <trkpt lat="43.97869" lon="1.9339">
        <ele>224.4</ele>
        <time>2022-09-01T18:21:32Z</time>
      </trkpt>
      <trkpt lat="43.97872" lon="1.93384">
        <ele>224</ele>
        <time>2022-09-01T18:21:33Z</time>
      </trkpt>
      <trkpt lat="43.97875" lon="1.93379">
        <ele>223.6</ele>
        <time>2022-09-01T18:21:34Z</time>
      </trkpt>
      <trkpt lat="43.97878" lon="1.93374">
        <ele>222.8</ele>
        <time>2022-09-01T18:21:35Z</time>
      </trkpt>
      <trkpt lat="43.97881" lon="1.9337">
        <ele>222.6</ele>
        <time>2022-09-01T18:21:36Z</time>
      </trkpt>
      <trkpt lat="43.97883" lon="1.93365">
        <ele>221.4</ele>
        <time>2022-09-01T18:21:37Z</time>
      </trkpt>
      <trkpt lat="43.97883" lon="1.93361">
        <ele>221</ele>
        <time>2022-09-01T18:21:38Z</time>
      </trkpt>
      <trkpt lat="43.97881" lon="1.93358">
        <ele>220.4</ele>
        <time>2022-09-01T18:21:39Z</time>
      </trkpt>
      <trkpt lat="43.97873" lon="1.93356">
        <ele>219.4</ele>
        <time>2022-09-01T18:21:41Z</time>
      </trkpt>
      <trkpt lat="43.97869" lon="1.93357">
        <ele>218.6</ele>
        <time>2022-09-01T18:21:42Z</time>
      </trkpt>
      <trkpt lat="43.97865" lon="1.93357">
        <ele>218.2</ele>
        <time>2022-09-01T18:21:43Z</time>
      </trkpt>
      <trkpt lat="43.97862" lon="1.93356">
        <ele>217.4</ele>
        <time>2022-09-01T18:21:44Z</time>
      </trkpt>
      <trkpt lat="43.97859" lon="1.93354">
        <ele>217.2</ele>
        <time>2022-09-01T18:21:45Z</time>
      </trkpt>
      <trkpt lat="43.97859" lon="1.93351">
        <ele>216.4</ele>
        <time>2022-09-01T18:21:46Z</time>
      </trkpt>
      <trkpt lat="43.9785" lon="1.93298">
        <ele>213.2</ele>
        <time>2022-09-01T18:21:56Z</time>
      </trkpt>
      <trkpt lat="43.97853" lon="1.93295">
        <ele>213.2</ele>
        <time>2022-09-01T18:21:57Z</time>
      </trkpt>
      <trkpt lat="43.97858" lon="1.93292">
        <ele>213</ele>
        <time>2022-09-01T18:21:58Z</time>
      </trkpt>
      <trkpt lat="43.97869" lon="1.93285">
        <ele>212.6</ele>
        <time>2022-09-01T18:22:01Z</time>
      </trkpt>
      <trkpt lat="43.97878" lon="1.9328">
        <ele>212.4</ele>
        <time>2022-09-01T18:22:03Z</time>
      </trkpt>
      <trkpt lat="43.97898" lon="1.93279">
        <ele>211.6</ele>
        <time>2022-09-01T18:22:07Z</time>
      </trkpt>
      <trkpt lat="43.97909" lon="1.93277">
        <ele>211.2</ele>
        <time>2022-09-01T18:22:09Z</time>
      </trkpt>
      <trkpt lat="43.97921" lon="1.93271">
        <ele>210.8</ele>
        <time>2022-09-01T18:22:11Z</time>
      </trkpt>
      <trkpt lat="43.97927" lon="1.93268">
        <ele>210.4</ele>
        <time>2022-09-01T18:22:12Z</time>
      </trkpt>
      <trkpt lat="43.97937" lon="1.93259">
        <ele>209.8</ele>
        <time>2022-09-01T18:22:14Z</time>
      </trkpt>
      <trkpt lat="43.97949" lon="1.93246">
        <ele>209.4</ele>
        <time>2022-09-01T18:22:16Z</time>
      </trkpt>
      <trkpt lat="43.97975" lon="1.93215">
        <ele>208.4</ele>
        <time>2022-09-01T18:22:21Z</time>
      </trkpt>
      <trkpt lat="43.97979" lon="1.93209">
        <ele>208.4</ele>
        <time>2022-09-01T18:22:22Z</time>
      </trkpt>
      <trkpt lat="43.97983" lon="1.93202">
        <ele>208.2</ele>
        <time>2022-09-01T18:22:23Z</time>
      </trkpt>
      <trkpt lat="43.97987" lon="1.93196">
        <ele>208.2</ele>
        <time>2022-09-01T18:22:24Z</time>
      </trkpt>
      <trkpt lat="43.98001" lon="1.93168">
        <ele>207.4</ele>
        <time>2022-09-01T18:22:28Z</time>
      </trkpt>
      <trkpt lat="43.98004" lon="1.93161">
        <ele>207.2</ele>
        <time>2022-09-01T18:22:29Z</time>
      </trkpt>
      <trkpt lat="43.98007" lon="1.93155">
        <ele>207</ele>
        <time>2022-09-01T18:22:30Z</time>
      </trkpt>
      <trkpt lat="43.9801" lon="1.93149">
        <ele>207</ele>
        <time>2022-09-01T18:22:31Z</time>
      </trkpt>
      <trkpt lat="43.98013" lon="1.93145">
        <ele>207</ele>
        <time>2022-09-01T18:22:32Z</time>
      </trkpt>
      <trkpt lat="43.98015" lon="1.93142">
        <ele>207</ele>
        <time>2022-09-01T18:22:33Z</time>
      </trkpt>
      <trkpt lat="43.98017" lon="1.93141">
        <ele>206.8</ele>
        <time>2022-09-01T18:22:34Z</time>
      </trkpt>
      <trkpt lat="43.98019" lon="1.93142">
        <ele>206.8</ele>
        <time>2022-09-01T18:22:35Z</time>
      </trkpt>
      <trkpt lat="43.9802" lon="1.93145">
        <ele>206.6</ele>
        <time>2022-09-01T18:22:36Z</time>
      </trkpt>
      <trkpt lat="43.9802" lon="1.93148">
        <ele>206.4</ele>
        <time>2022-09-01T18:22:37Z</time>
      </trkpt>
      <trkpt lat="43.98021" lon="1.9315">
        <ele>206.4</ele>
        <time>2022-09-01T18:22:38Z</time>
      </trkpt>
      <trkpt lat="43.98021" lon="1.93152">
        <ele>206.4</ele>
        <time>2022-09-01T18:22:39Z</time>
      </trkpt>
      <trkpt lat="43.98021" lon="1.93152">
        <ele>206</ele>
        <time>2022-09-01T18:23:08Z</time>
      </trkpt>
      <trkpt lat="43.98023" lon="1.93156">
        <ele>206</ele>
        <time>2022-09-01T18:23:10Z</time>
      </trkpt>
      <trkpt lat="43.98024" lon="1.93159">
        <ele>206.2</ele>
        <time>2022-09-01T18:23:11Z</time>
      </trkpt>
      <trkpt lat="43.98025" lon="1.93162">
        <ele>206.2</ele>
        <time>2022-09-01T18:23:12Z</time>
      </trkpt>
      <trkpt lat="43.98026" lon="1.93165">
        <ele>206.2</ele>
        <time>2022-09-01T18:23:13Z</time>
      </trkpt>
      <trkpt lat="43.9803" lon="1.93178">
        <ele>206.6</ele>
        <time>2022-09-01T18:23:17Z</time>
      </trkpt>
      <trkpt lat="43.98032" lon="1.93181">
        <ele>207</ele>
        <time>2022-09-01T18:23:18Z</time>
      </trkpt>
      <trkpt lat="43.98033" lon="1.93184">
        <ele>207</ele>
        <time>2022-09-01T18:23:19Z</time>
      </trkpt>
      <trkpt lat="43.98034" lon="1.93186">
        <ele>207.2</ele>
        <time>2022-09-01T18:23:20Z</time>
      </trkpt>
      <trkpt lat="43.98037" lon="1.93191">
        <ele>207.6</ele>
        <time>2022-09-01T18:23:22Z</time>
      </trkpt>
      <trkpt lat="43.98041" lon="1.93199">
        <ele>208.4</ele>
        <time>2022-09-01T18:23:25Z</time>
      </trkpt>
      <trkpt lat="43.98043" lon="1.93201">
        <ele>208.6</ele>
        <time>2022-09-01T18:23:26Z</time>
      </trkpt>
      <trkpt lat="43.98051" lon="1.9321">
        <ele>209.6</ele>
        <time>2022-09-01T18:23:30Z</time>
      </trkpt>
      <trkpt lat="43.98053" lon="1.93211">
        <ele>209.8</ele>
        <time>2022-09-01T18:23:31Z</time>
      </trkpt>
      <trkpt lat="43.98056" lon="1.93212">
        <ele>210.6</ele>
        <time>2022-09-01T18:23:32Z</time>
      </trkpt>
      <trkpt lat="43.98059" lon="1.93212">
        <ele>210.8</ele>
        <time>2022-09-01T18:23:33Z</time>
      </trkpt>
      <trkpt lat="43.98062" lon="1.93212">
        <ele>211.2</ele>
        <time>2022-09-01T18:23:34Z</time>
      </trkpt>
      <trkpt lat="43.98064" lon="1.93212">
        <ele>211.4</ele>
        <time>2022-09-01T18:23:35Z</time>
      </trkpt>
      <trkpt lat="43.98067" lon="1.93212">
        <ele>212</ele>
        <time>2022-09-01T18:23:36Z</time>
      </trkpt>
      <trkpt lat="43.98069" lon="1.93212">
        <ele>212.2</ele>
        <time>2022-09-01T18:23:37Z</time>
      </trkpt>
      <trkpt lat="43.98071" lon="1.93212">
        <ele>212.6</ele>
        <time>2022-09-01T18:23:38Z</time>
      </trkpt>
      <trkpt lat="43.98073" lon="1.93212">
        <ele>213.4</ele>
        <time>2022-09-01T18:23:39Z</time>
      </trkpt>
      <trkpt lat="43.98076" lon="1.93212">
        <ele>213.6</ele>
        <time>2022-09-01T18:23:40Z</time>
      </trkpt>
      <trkpt lat="43.98078" lon="1.93213">
        <ele>214</ele>
        <time>2022-09-01T18:23:41Z</time>
      </trkpt>
      <trkpt lat="43.98081" lon="1.93213">
        <ele>214.4</ele>
        <time>2022-09-01T18:23:42Z</time>
      </trkpt>
      <trkpt lat="43.98084" lon="1.93213">
        <ele>215.2</ele>
        <time>2022-09-01T18:23:43Z</time>
      </trkpt>
      <trkpt lat="43.98088" lon="1.93213">
        <ele>215.6</ele>
        <time>2022-09-01T18:23:44Z</time>
      </trkpt>
      <trkpt lat="43.9809" lon="1.93214">
        <ele>216.4</ele>
        <time>2022-09-01T18:23:45Z</time>
      </trkpt>
      <trkpt lat="43.98092" lon="1.93214">
        <ele>217.2</ele>
        <time>2022-09-01T18:23:46Z</time>
      </trkpt>
      <trkpt lat="43.98094" lon="1.93215">
        <ele>217.8</ele>
        <time>2022-09-01T18:23:47Z</time>
      </trkpt>
      <trkpt lat="43.98095" lon="1.93215">
        <ele>218.4</ele>
        <time>2022-09-01T18:23:48Z</time>
      </trkpt>
      <trkpt lat="43.98097" lon="1.93215">
        <ele>218.8</ele>
        <time>2022-09-01T18:23:49Z</time>
      </trkpt>
      <trkpt lat="43.98098" lon="1.93215">
        <ele>219.4</ele>
        <time>2022-09-01T18:23:50Z</time>
      </trkpt>
      <trkpt lat="43.98099" lon="1.93216">
        <ele>219.6</ele>
        <time>2022-09-01T18:23:51Z</time>
      </trkpt>
      <trkpt lat="43.981" lon="1.93216">
        <ele>220</ele>
        <time>2022-09-01T18:23:52Z</time>
      </trkpt>
      <trkpt lat="43.98102" lon="1.93217">
        <ele>220.6</ele>
        <time>2022-09-01T18:23:53Z</time>
      </trkpt>
      <trkpt lat="43.98103" lon="1.93217">
        <ele>220.6</ele>
        <time>2022-09-01T18:23:54Z</time>
      </trkpt>
      <trkpt lat="43.98105" lon="1.93217">
        <ele>221.2</ele>
        <time>2022-09-01T18:23:55Z</time>
      </trkpt>
      <trkpt lat="43.98106" lon="1.93218">
        <ele>221.2</ele>
        <time>2022-09-01T18:23:56Z</time>
      </trkpt>
      <trkpt lat="43.98107" lon="1.93218">
        <ele>221.6</ele>
        <time>2022-09-01T18:23:57Z</time>
      </trkpt>
      <trkpt lat="43.98109" lon="1.93218">
        <ele>221.8</ele>
        <time>2022-09-01T18:23:58Z</time>
      </trkpt>
      <trkpt lat="43.9811" lon="1.93219">
        <ele>222</ele>
        <time>2022-09-01T18:23:59Z</time>
      </trkpt>
      <trkpt lat="43.98111" lon="1.93219">
        <ele>222.2</ele>
        <time>2022-09-01T18:24:00Z</time>
      </trkpt>
      <trkpt lat="43.98112" lon="1.93218">
        <ele>222.4</ele>
        <time>2022-09-01T18:24:01Z</time>
      </trkpt>
      <trkpt lat="43.98113" lon="1.93218">
        <ele>222.6</ele>
        <time>2022-09-01T18:24:02Z</time>
      </trkpt>
      <trkpt lat="43.98115" lon="1.93218">
        <ele>222.6</ele>
        <time>2022-09-01T18:24:03Z</time>
      </trkpt>
      <trkpt lat="43.98116" lon="1.93218">
        <ele>222.8</ele>
        <time>2022-09-01T18:24:04Z</time>
      </trkpt>
      <trkpt lat="43.98118" lon="1.93218">
        <ele>222.8</ele>
        <time>2022-09-01T18:24:05Z</time>
      </trkpt>
      <trkpt lat="43.9812" lon="1.93219">
        <ele>223</ele>
        <time>2022-09-01T18:24:06Z</time>
      </trkpt>
      <trkpt lat="43.98121" lon="1.93219">
        <ele>223.2</ele>
        <time>2022-09-01T18:24:07Z</time>
      </trkpt>
      <trkpt lat="43.98123" lon="1.93219">
        <ele>223.4</ele>
        <time>2022-09-01T18:24:08Z</time>
      </trkpt>
      <trkpt lat="43.98125" lon="1.9322">
        <ele>223.6</ele>
        <time>2022-09-01T18:24:09Z</time>
      </trkpt>
      <trkpt lat="43.98127" lon="1.93221">
        <ele>223.6</ele>
        <time>2022-09-01T18:24:10Z</time>
      </trkpt>
      <trkpt lat="43.98129" lon="1.93221">
        <ele>224</ele>
        <time>2022-09-01T18:24:11Z</time>
      </trkpt>
      <trkpt lat="43.9813" lon="1.93221">
        <ele>224</ele>
        <time>2022-09-01T18:24:12Z</time>
      </trkpt>
      <trkpt lat="43.98132" lon="1.93221">
        <ele>224.2</ele>
        <time>2022-09-01T18:24:13Z</time>
      </trkpt>
      <trkpt lat="43.98134" lon="1.93222">
        <ele>224.2</ele>
        <time>2022-09-01T18:24:14Z</time>
      </trkpt>
      <trkpt lat="43.98135" lon="1.93223">
        <ele>224.6</ele>
        <time>2022-09-01T18:24:15Z</time>
      </trkpt>
      <trkpt lat="43.98137" lon="1.93223">
        <ele>224.6</ele>
        <time>2022-09-01T18:24:16Z</time>
      </trkpt>
      <trkpt lat="43.98139" lon="1.93223">
        <ele>224.8</ele>
        <time>2022-09-01T18:24:17Z</time>
      </trkpt>
      <trkpt lat="43.98141" lon="1.93224">
        <ele>225.2</ele>
        <time>2022-09-01T18:24:18Z</time>
      </trkpt>
      <trkpt lat="43.98142" lon="1.93224">
        <ele>225.4</ele>
        <time>2022-09-01T18:24:19Z</time>
      </trkpt>
      <trkpt lat="43.98143" lon="1.93225">
        <ele>225.4</ele>
        <time>2022-09-01T18:24:20Z</time>
      </trkpt>
      <trkpt lat="43.98145" lon="1.93226">
        <ele>225.6</ele>
        <time>2022-09-01T18:24:21Z</time>
      </trkpt>
      <trkpt lat="43.98147" lon="1.93227">
        <ele>225.8</ele>
        <time>2022-09-01T18:24:22Z</time>
      </trkpt>
      <trkpt lat="43.98149" lon="1.93227">
        <ele>225.8</ele>
        <time>2022-09-01T18:24:23Z</time>
      </trkpt>
      <trkpt lat="43.98151" lon="1.93227">
        <ele>226</ele>
        <time>2022-09-01T18:24:24Z</time>
      </trkpt>
      <trkpt lat="43.98153" lon="1.93228">
        <ele>226.2</ele>
        <time>2022-09-01T18:24:25Z</time>
      </trkpt>
      <trkpt lat="43.98155" lon="1.93229">
        <ele>226.2</ele>
        <time>2022-09-01T18:24:26Z</time>
      </trkpt>
      <trkpt lat="43.98157" lon="1.93229">
        <ele>226.4</ele>
        <time>2022-09-01T18:24:27Z</time>
      </trkpt>
      <trkpt lat="43.9816" lon="1.9323">
        <ele>226.6</ele>
        <time>2022-09-01T18:24:28Z</time>
      </trkpt>
      <trkpt lat="43.98162" lon="1.9323">
        <ele>226.6</ele>
        <time>2022-09-01T18:24:29Z</time>
      </trkpt>
      <trkpt lat="43.98164" lon="1.93231">
        <ele>226.8</ele>
        <time>2022-09-01T18:24:30Z</time>
      </trkpt>
      <trkpt lat="43.98167" lon="1.93231">
        <ele>227</ele>
        <time>2022-09-01T18:24:31Z</time>
      </trkpt>
      <trkpt lat="43.98171" lon="1.93233">
        <ele>227</ele>
        <time>2022-09-01T18:24:32Z</time>
      </trkpt>
      <trkpt lat="43.98174" lon="1.93234">
        <ele>227.2</ele>
        <time>2022-09-01T18:24:33Z</time>
      </trkpt>
      <trkpt lat="43.98177" lon="1.93236">
        <ele>227.2</ele>
        <time>2022-09-01T18:24:34Z</time>
      </trkpt>
      <trkpt lat="43.9818" lon="1.93237">
        <ele>227.2</ele>
        <time>2022-09-01T18:24:35Z</time>
      </trkpt>
      <trkpt lat="43.98183" lon="1.93237">
        <ele>227.4</ele>
        <time>2022-09-01T18:24:36Z</time>
      </trkpt>
      <trkpt lat="43.98186" lon="1.93239">
        <ele>227.6</ele>
        <time>2022-09-01T18:24:37Z</time>
      </trkpt>
      <trkpt lat="43.98188" lon="1.93239">
        <ele>227.6</ele>
        <time>2022-09-01T18:24:38Z</time>
      </trkpt>
      <trkpt lat="43.9819" lon="1.9324">
        <ele>227.8</ele>
        <time>2022-09-01T18:24:39Z</time>
      </trkpt>
      <trkpt lat="43.98193" lon="1.93241">
        <ele>227.8</ele>
        <time>2022-09-01T18:24:40Z</time>
      </trkpt>
      <trkpt lat="43.98195" lon="1.93242">
        <ele>228</ele>
        <time>2022-09-01T18:24:41Z</time>
      </trkpt>
      <trkpt lat="43.98196" lon="1.93242">
        <ele>228</ele>
        <time>2022-09-01T18:24:42Z</time>
      </trkpt>
      <trkpt lat="43.98198" lon="1.93243">
        <ele>228.2</ele>
        <time>2022-09-01T18:24:43Z</time>
      </trkpt>
      <trkpt lat="43.982" lon="1.93244">
        <ele>228.4</ele>
        <time>2022-09-01T18:24:44Z</time>
      </trkpt>
      <trkpt lat="43.98202" lon="1.93244">
        <ele>228.6</ele>
        <time>2022-09-01T18:24:45Z</time>
      </trkpt>
      <trkpt lat="43.98204" lon="1.93246">
        <ele>228.6</ele>
        <time>2022-09-01T18:24:46Z</time>
      </trkpt>
      <trkpt lat="43.98206" lon="1.93247">
        <ele>228.6</ele>
        <time>2022-09-01T18:24:47Z</time>
      </trkpt>
      <trkpt lat="43.98208" lon="1.93249">
        <ele>228.8</ele>
        <time>2022-09-01T18:24:48Z</time>
      </trkpt>
      <trkpt lat="43.98211" lon="1.9325">
        <ele>228.8</ele>
        <time>2022-09-01T18:24:49Z</time>
      </trkpt>
      <trkpt lat="43.98212" lon="1.93251">
        <ele>228.8</ele>
        <time>2022-09-01T18:24:50Z</time>
      </trkpt>
      <trkpt lat="43.98214" lon="1.93251">
        <ele>228.8</ele>
        <time>2022-09-01T18:24:51Z</time>
      </trkpt>
      <trkpt lat="43.98216" lon="1.93252">
        <ele>229</ele>
        <time>2022-09-01T18:24:52Z</time>
      </trkpt>
      <trkpt lat="43.98218" lon="1.93253">
        <ele>229</ele>
        <time>2022-09-01T18:24:53Z</time>
      </trkpt>
      <trkpt lat="43.9822" lon="1.93253">
        <ele>229</ele>
        <time>2022-09-01T18:24:54Z</time>
      </trkpt>
      <trkpt lat="43.98222" lon="1.93254">
        <ele>229</ele>
        <time>2022-09-01T18:24:55Z</time>
      </trkpt>
      <trkpt lat="43.98224" lon="1.93255">
        <ele>229.2</ele>
        <time>2022-09-01T18:24:56Z</time>
      </trkpt>
      <trkpt lat="43.98226" lon="1.93256">
        <ele>229.2</ele>
        <time>2022-09-01T18:24:57Z</time>
      </trkpt>
      <trkpt lat="43.98228" lon="1.93258">
        <ele>229.2</ele>
        <time>2022-09-01T18:24:58Z</time>
      </trkpt>
      <trkpt lat="43.98231" lon="1.9326">
        <ele>229.4</ele>
        <time>2022-09-01T18:24:59Z</time>
      </trkpt>
      <trkpt lat="43.98242" lon="1.93265">
        <ele>229.6</ele>
        <time>2022-09-01T18:25:03Z</time>
      </trkpt>
      <trkpt lat="43.98259" lon="1.93276">
        <ele>229.4</ele>
        <time>2022-09-01T18:25:08Z</time>
      </trkpt>
      <trkpt lat="43.98267" lon="1.93276">
        <ele>229.4</ele>
        <time>2022-09-01T18:25:10Z</time>
      </trkpt>
      <trkpt lat="43.9827" lon="1.93273">
        <ele>229.2</ele>
        <time>2022-09-01T18:25:11Z</time>
      </trkpt>
      <trkpt lat="43.98274" lon="1.93269">
        <ele>229</ele>
        <time>2022-09-01T18:25:12Z</time>
      </trkpt>
      <trkpt lat="43.98281" lon="1.93256">
        <ele>227.8</ele>
        <time>2022-09-01T18:25:15Z</time>
      </trkpt>
      <trkpt lat="43.98283" lon="1.93253">
        <ele>227.6</ele>
        <time>2022-09-01T18:25:16Z</time>
      </trkpt>
      <trkpt lat="43.98286" lon="1.93252">
        <ele>227</ele>
        <time>2022-09-01T18:25:17Z</time>
      </trkpt>
      <trkpt lat="43.98288" lon="1.93253">
        <ele>226.8</ele>
        <time>2022-09-01T18:25:18Z</time>
      </trkpt>
      <trkpt lat="43.9829" lon="1.93256">
        <ele>226.4</ele>
        <time>2022-09-01T18:25:19Z</time>
      </trkpt>
      <trkpt lat="43.98291" lon="1.9326">
        <ele>225.8</ele>
        <time>2022-09-01T18:25:20Z</time>
      </trkpt>
      <trkpt lat="43.98293" lon="1.93265">
        <ele>225.6</ele>
        <time>2022-09-01T18:25:21Z</time>
      </trkpt>
      <trkpt lat="43.98296" lon="1.93272">
        <ele>225.2</ele>
        <time>2022-09-01T18:25:22Z</time>
      </trkpt>
      <trkpt lat="43.983" lon="1.93279">
        <ele>225</ele>
        <time>2022-09-01T18:25:23Z</time>
      </trkpt>
      <trkpt lat="43.98303" lon="1.93287">
        <ele>224.2</ele>
        <time>2022-09-01T18:25:24Z</time>
      </trkpt>
      <trkpt lat="43.98305" lon="1.93293">
        <ele>223.6</ele>
        <time>2022-09-01T18:25:25Z</time>
      </trkpt>
      <trkpt lat="43.98307" lon="1.933">
        <ele>222.6</ele>
        <time>2022-09-01T18:25:26Z</time>
      </trkpt>
      <trkpt lat="43.98309" lon="1.93308">
        <ele>221.8</ele>
        <time>2022-09-01T18:25:27Z</time>
      </trkpt>
      <trkpt lat="43.9831" lon="1.93314">
        <ele>220.8</ele>
        <time>2022-09-01T18:25:28Z</time>
      </trkpt>
      <trkpt lat="43.98311" lon="1.9332">
        <ele>220</ele>
        <time>2022-09-01T18:25:29Z</time>
      </trkpt>
      <trkpt lat="43.98312" lon="1.93325">
        <ele>219.8</ele>
        <time>2022-09-01T18:25:30Z</time>
      </trkpt>
      <trkpt lat="43.98312" lon="1.93329">
        <ele>219.2</ele>
        <time>2022-09-01T18:25:31Z</time>
      </trkpt>
      <trkpt lat="43.98312" lon="1.93332">
        <ele>219</ele>
        <time>2022-09-01T18:25:32Z</time>
      </trkpt>
      <trkpt lat="43.98312" lon="1.93334">
        <ele>218.4</ele>
        <time>2022-09-01T18:25:33Z</time>
      </trkpt>
      <trkpt lat="43.98313" lon="1.93336">
        <ele>217.8</ele>
        <time>2022-09-01T18:25:34Z</time>
      </trkpt>
      <trkpt lat="43.98313" lon="1.93336">
        <ele>215.2</ele>
        <time>2022-09-01T18:27:02Z</time>
      </trkpt>
      <trkpt lat="43.98315" lon="1.93339">
        <ele>215.2</ele>
        <time>2022-09-01T18:27:03Z</time>
      </trkpt>
      <trkpt lat="43.9832" lon="1.93354">
        <ele>215</ele>
        <time>2022-09-01T18:27:07Z</time>
      </trkpt>
      <trkpt lat="43.98324" lon="1.93363">
        <ele>215</ele>
        <time>2022-09-01T18:27:09Z</time>
      </trkpt>
      <trkpt lat="43.98336" lon="1.93381">
        <ele>214.4</ele>
        <time>2022-09-01T18:27:12Z</time>
      </trkpt>
      <trkpt lat="43.98339" lon="1.93386">
        <ele>214.2</ele>
        <time>2022-09-01T18:27:13Z</time>
      </trkpt>
      <trkpt lat="43.98344" lon="1.93392">
        <ele>214</ele>
        <time>2022-09-01T18:27:14Z</time>
      </trkpt>
      <trkpt lat="43.98349" lon="1.93398">
        <ele>214</ele>
        <time>2022-09-01T18:27:15Z</time>
      </trkpt>
      <trkpt lat="43.98354" lon="1.93407">
        <ele>213.4</ele>
        <time>2022-09-01T18:27:16Z</time>
      </trkpt>
      <trkpt lat="43.98358" lon="1.93414">
        <ele>213</ele>
        <time>2022-09-01T18:27:17Z</time>
      </trkpt>
      <trkpt lat="43.98381" lon="1.93449">
        <ele>211.4</ele>
        <time>2022-09-01T18:27:21Z</time>
      </trkpt>
      <trkpt lat="43.98386" lon="1.93458">
        <ele>211</ele>
        <time>2022-09-01T18:27:22Z</time>
      </trkpt>
      <trkpt lat="43.98403" lon="1.93485">
        <ele>210</ele>
        <time>2022-09-01T18:27:25Z</time>
      </trkpt>
      <trkpt lat="43.98422" lon="1.93522">
        <ele>209.2</ele>
        <time>2022-09-01T18:27:29Z</time>
      </trkpt>
      <trkpt lat="43.98427" lon="1.93532">
        <ele>208.8</ele>
        <time>2022-09-01T18:27:30Z</time>
      </trkpt>
      <trkpt lat="43.98433" lon="1.93543">
        <ele>208.6</ele>
        <time>2022-09-01T18:27:31Z</time>
      </trkpt>
      <trkpt lat="43.98438" lon="1.93551">
        <ele>208.2</ele>
        <time>2022-09-01T18:27:32Z</time>
      </trkpt>
      <trkpt lat="43.98443" lon="1.9356">
        <ele>207.6</ele>
        <time>2022-09-01T18:27:33Z</time>
      </trkpt>
      <trkpt lat="43.98448" lon="1.93567">
        <ele>207.2</ele>
        <time>2022-09-01T18:27:34Z</time>
      </trkpt>
      <trkpt lat="43.98452" lon="1.93574">
        <ele>206.2</ele>
        <time>2022-09-01T18:27:35Z</time>
      </trkpt>
      <trkpt lat="43.98458" lon="1.93579">
        <ele>206</ele>
        <time>2022-09-01T18:27:36Z</time>
      </trkpt>
      <trkpt lat="43.98464" lon="1.93584">
        <ele>205.4</ele>
        <time>2022-09-01T18:27:37Z</time>
      </trkpt>
      <trkpt lat="43.9847" lon="1.93589">
        <ele>205.2</ele>
        <time>2022-09-01T18:27:38Z</time>
      </trkpt>
      <trkpt lat="43.98477" lon="1.93593">
        <ele>205</ele>
        <time>2022-09-01T18:27:39Z</time>
      </trkpt>
      <trkpt lat="43.98483" lon="1.93595">
        <ele>204.4</ele>
        <time>2022-09-01T18:27:40Z</time>
      </trkpt>
      <trkpt lat="43.98489" lon="1.93595">
        <ele>204.2</ele>
        <time>2022-09-01T18:27:41Z</time>
      </trkpt>
      <trkpt lat="43.98495" lon="1.93596">
        <ele>203.8</ele>
        <time>2022-09-01T18:27:42Z</time>
      </trkpt>
      <trkpt lat="43.98501" lon="1.93596">
        <ele>203.8</ele>
        <time>2022-09-01T18:27:43Z</time>
      </trkpt>
      <trkpt lat="43.98506" lon="1.93596">
        <ele>203.4</ele>
        <time>2022-09-01T18:27:44Z</time>
      </trkpt>
      <trkpt lat="43.98511" lon="1.93596">
        <ele>203.4</ele>
        <time>2022-09-01T18:27:45Z</time>
      </trkpt>
      <trkpt lat="43.98515" lon="1.93596">
        <ele>203.2</ele>
        <time>2022-09-01T18:27:46Z</time>
      </trkpt>
      <trkpt lat="43.98518" lon="1.93597">
        <ele>203.2</ele>
        <time>2022-09-01T18:27:47Z</time>
      </trkpt>
      <trkpt lat="43.98521" lon="1.93597">
        <ele>203</ele>
        <time>2022-09-01T18:27:48Z</time>
      </trkpt>
      <trkpt lat="43.98524" lon="1.93597">
        <ele>203</ele>
        <time>2022-09-01T18:27:49Z</time>
      </trkpt>
      <trkpt lat="43.98527" lon="1.93597">
        <ele>203</ele>
        <time>2022-09-01T18:27:50Z</time>
      </trkpt>
      <trkpt lat="43.98537" lon="1.93597">
        <ele>203</ele>
        <time>2022-09-01T18:27:53Z</time>
      </trkpt>
      <trkpt lat="43.98546" lon="1.93594">
        <ele>203</ele>
        <time>2022-09-01T18:27:55Z</time>
      </trkpt>
      <trkpt lat="43.98559" lon="1.9359">
        <ele>202.8</ele>
        <time>2022-09-01T18:27:58Z</time>
      </trkpt>
      <trkpt lat="43.98589" lon="1.93576">
        <ele>202.4</ele>
        <time>2022-09-01T18:28:05Z</time>
      </trkpt>
      <trkpt lat="43.98616" lon="1.93561">
        <ele>202</ele>
        <time>2022-09-01T18:28:11Z</time>
      </trkpt>
      <trkpt lat="43.9862" lon="1.93559">
        <ele>202</ele>
        <time>2022-09-01T18:28:12Z</time>
      </trkpt>
      <trkpt lat="43.98624" lon="1.93557">
        <ele>202</ele>
        <time>2022-09-01T18:28:13Z</time>
      </trkpt>
      <trkpt lat="43.98628" lon="1.93554">
        <ele>202</ele>
        <time>2022-09-01T18:28:14Z</time>
      </trkpt>
      <trkpt lat="43.98641" lon="1.93545">
        <ele>202</ele>
        <time>2022-09-01T18:28:17Z</time>
      </trkpt>
      <trkpt lat="43.98663" lon="1.93527">
        <ele>202.2</ele>
        <time>2022-09-01T18:28:22Z</time>
      </trkpt>
      <trkpt lat="43.98668" lon="1.93523">
        <ele>202.2</ele>
        <time>2022-09-01T18:28:23Z</time>
      </trkpt>
      <trkpt lat="43.98671" lon="1.9352">
        <ele>202.2</ele>
        <time>2022-09-01T18:28:24Z</time>
      </trkpt>
      <trkpt lat="43.98676" lon="1.93517">
        <ele>202.2</ele>
        <time>2022-09-01T18:28:25Z</time>
      </trkpt>
      <trkpt lat="43.98679" lon="1.93514">
        <ele>202.2</ele>
        <time>2022-09-01T18:28:26Z</time>
      </trkpt>
      <trkpt lat="43.98683" lon="1.9351">
        <ele>202.2</ele>
        <time>2022-09-01T18:28:27Z</time>
      </trkpt>
      <trkpt lat="43.98687" lon="1.93506">
        <ele>202.2</ele>
        <time>2022-09-01T18:28:28Z</time>
      </trkpt>
      <trkpt lat="43.98691" lon="1.93503">
        <ele>202.2</ele>
        <time>2022-09-01T18:28:29Z</time>
      </trkpt>
      <trkpt lat="43.98694" lon="1.93499">
        <ele>202.2</ele>
        <time>2022-09-01T18:28:30Z</time>
      </trkpt>
      <trkpt lat="43.98698" lon="1.93496">
        <ele>202.2</ele>
        <time>2022-09-01T18:28:31Z</time>
      </trkpt>
      <trkpt lat="43.98701" lon="1.93493">
        <ele>202.2</ele>
        <time>2022-09-01T18:28:32Z</time>
      </trkpt>
      <trkpt lat="43.98705" lon="1.93492">
        <ele>202.2</ele>
        <time>2022-09-01T18:28:33Z</time>
      </trkpt>
      <trkpt lat="43.98708" lon="1.93492">
        <ele>202.2</ele>
        <time>2022-09-01T18:28:34Z</time>
      </trkpt>
      <trkpt lat="43.98711" lon="1.93491">
        <ele>202.4</ele>
        <time>2022-09-01T18:28:35Z</time>
      </trkpt>
      <trkpt lat="43.98714" lon="1.93491">
        <ele>202.4</ele>
        <time>2022-09-01T18:28:36Z</time>
      </trkpt>
      <trkpt lat="43.98717" lon="1.9349">
        <ele>202.6</ele>
        <time>2022-09-01T18:28:37Z</time>
      </trkpt>
      <trkpt lat="43.9872" lon="1.9349">
        <ele>202.6</ele>
        <time>2022-09-01T18:28:38Z</time>
      </trkpt>
      <trkpt lat="43.98723" lon="1.93489">
        <ele>202.8</ele>
        <time>2022-09-01T18:28:39Z</time>
      </trkpt>
      <trkpt lat="43.98726" lon="1.93489">
        <ele>203</ele>
        <time>2022-09-01T18:28:40Z</time>
      </trkpt>
      <trkpt lat="43.9873" lon="1.93488">
        <ele>203.2</ele>
        <time>2022-09-01T18:28:41Z</time>
      </trkpt>
      <trkpt lat="43.98733" lon="1.93487">
        <ele>203.2</ele>
        <time>2022-09-01T18:28:42Z</time>
      </trkpt>
      <trkpt lat="43.98735" lon="1.93486">
        <ele>203.6</ele>
        <time>2022-09-01T18:28:43Z</time>
      </trkpt>
      <trkpt lat="43.98737" lon="1.93485">
        <ele>203.8</ele>
        <time>2022-09-01T18:28:44Z</time>
      </trkpt>
      <trkpt lat="43.98738" lon="1.93485">
        <ele>203.8</ele>
        <time>2022-09-01T18:28:45Z</time>
      </trkpt>
      <trkpt lat="43.9874" lon="1.93484">
        <ele>204</ele>
        <time>2022-09-01T18:28:46Z</time>
      </trkpt>
      <trkpt lat="43.98743" lon="1.93483">
        <ele>204.4</ele>
        <time>2022-09-01T18:28:48Z</time>
      </trkpt>
      <trkpt lat="43.98745" lon="1.93482">
        <ele>204.6</ele>
        <time>2022-09-01T18:28:49Z</time>
      </trkpt>
      <trkpt lat="43.98747" lon="1.93482">
        <ele>204.8</ele>
        <time>2022-09-01T18:28:50Z</time>
      </trkpt>
      <trkpt lat="43.98748" lon="1.93482">
        <ele>205.2</ele>
        <time>2022-09-01T18:28:51Z</time>
      </trkpt>
      <trkpt lat="43.98749" lon="1.93482">
        <ele>205.2</ele>
        <time>2022-09-01T18:28:52Z</time>
      </trkpt>
      <trkpt lat="43.98751" lon="1.93482">
        <ele>205.4</ele>
        <time>2022-09-01T18:28:53Z</time>
      </trkpt>
      <trkpt lat="43.98753" lon="1.93483">
        <ele>205.6</ele>
        <time>2022-09-01T18:28:54Z</time>
      </trkpt>
      <trkpt lat="43.98756" lon="1.93483">
        <ele>205.8</ele>
        <time>2022-09-01T18:28:55Z</time>
      </trkpt>
      <trkpt lat="43.98759" lon="1.93483">
        <ele>206</ele>
        <time>2022-09-01T18:28:56Z</time>
      </trkpt>
      <trkpt lat="43.98762" lon="1.93484">
        <ele>206.2</ele>
        <time>2022-09-01T18:28:57Z</time>
      </trkpt>
      <trkpt lat="43.98764" lon="1.93484">
        <ele>206.6</ele>
        <time>2022-09-01T18:28:58Z</time>
      </trkpt>
      <trkpt lat="43.98766" lon="1.93485">
        <ele>206.8</ele>
        <time>2022-09-01T18:28:59Z</time>
      </trkpt>
      <trkpt lat="43.98768" lon="1.93485">
        <ele>207</ele>
        <time>2022-09-01T18:29:00Z</time>
      </trkpt>
      <trkpt lat="43.9877" lon="1.93485">
        <ele>207.2</ele>
        <time>2022-09-01T18:29:01Z</time>
      </trkpt>
      <trkpt lat="43.98772" lon="1.93485">
        <ele>207.4</ele>
        <time>2022-09-01T18:29:02Z</time>
      </trkpt>
      <trkpt lat="43.98774" lon="1.93485">
        <ele>207.6</ele>
        <time>2022-09-01T18:29:03Z</time>
      </trkpt>
      <trkpt lat="43.98776" lon="1.93485">
        <ele>208</ele>
        <time>2022-09-01T18:29:04Z</time>
      </trkpt>
      <trkpt lat="43.98779" lon="1.93485">
        <ele>208</ele>
        <time>2022-09-01T18:29:05Z</time>
      </trkpt>
      <trkpt lat="43.98781" lon="1.93485">
        <ele>208.2</ele>
        <time>2022-09-01T18:29:06Z</time>
      </trkpt>
      <trkpt lat="43.98784" lon="1.93485">
        <ele>208.4</ele>
        <time>2022-09-01T18:29:07Z</time>
      </trkpt>
      <trkpt lat="43.98786" lon="1.93485">
        <ele>208.6</ele>
        <time>2022-09-01T18:29:08Z</time>
      </trkpt>
      <trkpt lat="43.98789" lon="1.93485">
        <ele>209</ele>
        <time>2022-09-01T18:29:09Z</time>
      </trkpt>
      <trkpt lat="43.98792" lon="1.93486">
        <ele>209.2</ele>
        <time>2022-09-01T18:29:10Z</time>
      </trkpt>
      <trkpt lat="43.98794" lon="1.93486">
        <ele>209.4</ele>
        <time>2022-09-01T18:29:11Z</time>
      </trkpt>
      <trkpt lat="43.98797" lon="1.93487">
        <ele>209.4</ele>
        <time>2022-09-01T18:29:12Z</time>
      </trkpt>
      <trkpt lat="43.98799" lon="1.93488">
        <ele>209.6</ele>
        <time>2022-09-01T18:29:13Z</time>
      </trkpt>
      <trkpt lat="43.98803" lon="1.93489">
        <ele>209.6</ele>
        <time>2022-09-01T18:29:14Z</time>
      </trkpt>
      <trkpt lat="43.98805" lon="1.9349">
        <ele>209.8</ele>
        <time>2022-09-01T18:29:15Z</time>
      </trkpt>
      <trkpt lat="43.98808" lon="1.9349">
        <ele>210</ele>
        <time>2022-09-01T18:29:16Z</time>
      </trkpt>
      <trkpt lat="43.98811" lon="1.93491">
        <ele>210.2</ele>
        <time>2022-09-01T18:29:17Z</time>
      </trkpt>
      <trkpt lat="43.98813" lon="1.9349">
        <ele>210.2</ele>
        <time>2022-09-01T18:29:18Z</time>
      </trkpt>
      <trkpt lat="43.98816" lon="1.9349">
        <ele>210.4</ele>
        <time>2022-09-01T18:29:19Z</time>
      </trkpt>
      <trkpt lat="43.98818" lon="1.9349">
        <ele>210.8</ele>
        <time>2022-09-01T18:29:20Z</time>
      </trkpt>
      <trkpt lat="43.98821" lon="1.9349">
        <ele>211.2</ele>
        <time>2022-09-01T18:29:21Z</time>
      </trkpt>
      <trkpt lat="43.98822" lon="1.93491">
        <ele>211.4</ele>
        <time>2022-09-01T18:29:22Z</time>
      </trkpt>
      <trkpt lat="43.98824" lon="1.93492">
        <ele>211.6</ele>
        <time>2022-09-01T18:29:23Z</time>
      </trkpt>
      <trkpt lat="43.98825" lon="1.93493">
        <ele>211.6</ele>
        <time>2022-09-01T18:29:24Z</time>
      </trkpt>
      <trkpt lat="43.98826" lon="1.93494">
        <ele>212</ele>
        <time>2022-09-01T18:29:25Z</time>
      </trkpt>
      <trkpt lat="43.98828" lon="1.93495">
        <ele>212</ele>
        <time>2022-09-01T18:29:26Z</time>
      </trkpt>
      <trkpt lat="43.98829" lon="1.93495">
        <ele>212.2</ele>
        <time>2022-09-01T18:29:27Z</time>
      </trkpt>
      <trkpt lat="43.98831" lon="1.93496">
        <ele>212.2</ele>
        <time>2022-09-01T18:29:28Z</time>
      </trkpt>
      <trkpt lat="43.98833" lon="1.93497">
        <ele>212.4</ele>
        <time>2022-09-01T18:29:29Z</time>
      </trkpt>
      <trkpt lat="43.98835" lon="1.93498">
        <ele>212.8</ele>
        <time>2022-09-01T18:29:30Z</time>
      </trkpt>
      <trkpt lat="43.98836" lon="1.93499">
        <ele>212.8</ele>
        <time>2022-09-01T18:29:31Z</time>
      </trkpt>
      <trkpt lat="43.98837" lon="1.93499">
        <ele>213.2</ele>
        <time>2022-09-01T18:29:32Z</time>
      </trkpt>
      <trkpt lat="43.98838" lon="1.935">
        <ele>213.2</ele>
        <time>2022-09-01T18:29:33Z</time>
      </trkpt>
      <trkpt lat="43.98841" lon="1.93502">
        <ele>213.2</ele>
        <time>2022-09-01T18:29:34Z</time>
      </trkpt>
      <trkpt lat="43.98844" lon="1.93504">
        <ele>213.4</ele>
        <time>2022-09-01T18:29:35Z</time>
      </trkpt>
      <trkpt lat="43.98845" lon="1.93505">
        <ele>213.6</ele>
        <time>2022-09-01T18:29:36Z</time>
      </trkpt>
      <trkpt lat="43.98847" lon="1.93505">
        <ele>213.8</ele>
        <time>2022-09-01T18:29:37Z</time>
      </trkpt>
      <trkpt lat="43.98848" lon="1.93507">
        <ele>214</ele>
        <time>2022-09-01T18:29:38Z</time>
      </trkpt>
      <trkpt lat="43.9885" lon="1.93508">
        <ele>214.2</ele>
        <time>2022-09-01T18:29:39Z</time>
      </trkpt>
      <trkpt lat="43.98852" lon="1.93509">
        <ele>214.4</ele>
        <time>2022-09-01T18:29:40Z</time>
      </trkpt>
      <trkpt lat="43.98854" lon="1.9351">
        <ele>214.8</ele>
        <time>2022-09-01T18:29:41Z</time>
      </trkpt>
      <trkpt lat="43.98856" lon="1.93511">
        <ele>214.8</ele>
        <time>2022-09-01T18:29:42Z</time>
      </trkpt>
      <trkpt lat="43.9886" lon="1.93514">
        <ele>215</ele>
        <time>2022-09-01T18:29:43Z</time>
      </trkpt>
      <trkpt lat="43.98862" lon="1.93515">
        <ele>215</ele>
        <time>2022-09-01T18:29:44Z</time>
      </trkpt>
      <trkpt lat="43.98864" lon="1.93516">
        <ele>215.2</ele>
        <time>2022-09-01T18:29:45Z</time>
      </trkpt>
      <trkpt lat="43.98866" lon="1.93517">
        <ele>215.2</ele>
        <time>2022-09-01T18:29:46Z</time>
      </trkpt>
      <trkpt lat="43.98868" lon="1.93519">
        <ele>215.4</ele>
        <time>2022-09-01T18:29:47Z</time>
      </trkpt>
      <trkpt lat="43.9887" lon="1.9352">
        <ele>216</ele>
        <time>2022-09-01T18:29:48Z</time>
      </trkpt>
      <trkpt lat="43.98873" lon="1.93522">
        <ele>216.2</ele>
        <time>2022-09-01T18:29:49Z</time>
      </trkpt>
      <trkpt lat="43.98875" lon="1.93523">
        <ele>216.4</ele>
        <time>2022-09-01T18:29:50Z</time>
      </trkpt>
      <trkpt lat="43.98877" lon="1.93524">
        <ele>216.6</ele>
        <time>2022-09-01T18:29:51Z</time>
      </trkpt>
      <trkpt lat="43.98879" lon="1.93526">
        <ele>216.6</ele>
        <time>2022-09-01T18:29:52Z</time>
      </trkpt>
      <trkpt lat="43.98881" lon="1.93527">
        <ele>216.8</ele>
        <time>2022-09-01T18:29:53Z</time>
      </trkpt>
      <trkpt lat="43.98882" lon="1.93529">
        <ele>217</ele>
        <time>2022-09-01T18:29:54Z</time>
      </trkpt>
      <trkpt lat="43.98884" lon="1.9353">
        <ele>217.2</ele>
        <time>2022-09-01T18:29:55Z</time>
      </trkpt>
      <trkpt lat="43.98888" lon="1.93532">
        <ele>217.4</ele>
        <time>2022-09-01T18:29:56Z</time>
      </trkpt>
      <trkpt lat="43.98891" lon="1.93533">
        <ele>217.8</ele>
        <time>2022-09-01T18:29:57Z</time>
      </trkpt>
      <trkpt lat="43.98894" lon="1.93533">
        <ele>217.8</ele>
        <time>2022-09-01T18:29:58Z</time>
      </trkpt>
      <trkpt lat="43.98895" lon="1.93533">
        <ele>218.2</ele>
        <time>2022-09-01T18:29:59Z</time>
      </trkpt>
      <trkpt lat="43.98898" lon="1.93536">
        <ele>218.4</ele>
        <time>2022-09-01T18:30:00Z</time>
      </trkpt>
      <trkpt lat="43.98899" lon="1.93536">
        <ele>218.4</ele>
        <time>2022-09-01T18:30:01Z</time>
      </trkpt>
      <trkpt lat="43.98902" lon="1.93537">
        <ele>218.6</ele>
        <time>2022-09-01T18:30:02Z</time>
      </trkpt>
      <trkpt lat="43.98903" lon="1.93537">
        <ele>218.8</ele>
        <time>2022-09-01T18:30:03Z</time>
      </trkpt>
      <trkpt lat="43.98905" lon="1.93536">
        <ele>219</ele>
        <time>2022-09-01T18:30:04Z</time>
      </trkpt>
      <trkpt lat="43.98908" lon="1.93537">
        <ele>219</ele>
        <time>2022-09-01T18:30:05Z</time>
      </trkpt>
      <trkpt lat="43.9891" lon="1.93537">
        <ele>219.2</ele>
        <time>2022-09-01T18:30:06Z</time>
      </trkpt>
      <trkpt lat="43.98912" lon="1.93538">
        <ele>219.4</ele>
        <time>2022-09-01T18:30:07Z</time>
      </trkpt>
      <trkpt lat="43.98914" lon="1.93538">
        <ele>219.8</ele>
        <time>2022-09-01T18:30:08Z</time>
      </trkpt>
      <trkpt lat="43.98916" lon="1.93537">
        <ele>220</ele>
        <time>2022-09-01T18:30:09Z</time>
      </trkpt>
      <trkpt lat="43.9892" lon="1.93538">
        <ele>220</ele>
        <time>2022-09-01T18:30:10Z</time>
      </trkpt>
      <trkpt lat="43.98923" lon="1.93539">
        <ele>220.4</ele>
        <time>2022-09-01T18:30:11Z</time>
      </trkpt>
      <trkpt lat="43.98925" lon="1.93539">
        <ele>220.4</ele>
        <time>2022-09-01T18:30:12Z</time>
      </trkpt>
      <trkpt lat="43.98928" lon="1.93539">
        <ele>220.8</ele>
        <time>2022-09-01T18:30:13Z</time>
      </trkpt>
      <trkpt lat="43.9893" lon="1.93538">
        <ele>221</ele>
        <time>2022-09-01T18:30:14Z</time>
      </trkpt>
      <trkpt lat="43.98933" lon="1.93537">
        <ele>221.2</ele>
        <time>2022-09-01T18:30:15Z</time>
      </trkpt>
      <trkpt lat="43.98936" lon="1.93536">
        <ele>221.4</ele>
        <time>2022-09-01T18:30:16Z</time>
      </trkpt>
      <trkpt lat="43.98939" lon="1.93536">
        <ele>221.6</ele>
        <time>2022-09-01T18:30:17Z</time>
      </trkpt>
      <trkpt lat="43.98941" lon="1.93535">
        <ele>221.8</ele>
        <time>2022-09-01T18:30:18Z</time>
      </trkpt>
      <trkpt lat="43.98943" lon="1.93534">
        <ele>222</ele>
        <time>2022-09-01T18:30:19Z</time>
      </trkpt>
      <trkpt lat="43.98944" lon="1.93533">
        <ele>222</ele>
        <time>2022-09-01T18:30:20Z</time>
      </trkpt>
      <trkpt lat="43.98947" lon="1.93532">
        <ele>222.2</ele>
        <time>2022-09-01T18:30:21Z</time>
      </trkpt>
      <trkpt lat="43.98949" lon="1.93532">
        <ele>222.4</ele>
        <time>2022-09-01T18:30:22Z</time>
      </trkpt>
      <trkpt lat="43.98952" lon="1.93532">
        <ele>222.8</ele>
        <time>2022-09-01T18:30:23Z</time>
      </trkpt>
      <trkpt lat="43.98954" lon="1.93532">
        <ele>222.8</ele>
        <time>2022-09-01T18:30:24Z</time>
      </trkpt>
      <trkpt lat="43.98957" lon="1.93532">
        <ele>223.2</ele>
        <time>2022-09-01T18:30:25Z</time>
      </trkpt>
      <trkpt lat="43.98959" lon="1.93532">
        <ele>223.4</ele>
        <time>2022-09-01T18:30:26Z</time>
      </trkpt>
      <trkpt lat="43.98961" lon="1.93533">
        <ele>223.8</ele>
        <time>2022-09-01T18:30:27Z</time>
      </trkpt>
      <trkpt lat="43.98964" lon="1.93532">
        <ele>223.8</ele>
        <time>2022-09-01T18:30:28Z</time>
      </trkpt>
      <trkpt lat="43.98967" lon="1.93532">
        <ele>224.2</ele>
        <time>2022-09-01T18:30:29Z</time>
      </trkpt>
      <trkpt lat="43.9897" lon="1.93532">
        <ele>224.2</ele>
        <time>2022-09-01T18:30:30Z</time>
      </trkpt>
      <trkpt lat="43.9897" lon="1.93532">
        <ele>224.4</ele>
        <time>2022-09-01T18:30:31Z</time>
      </trkpt>
      <trkpt lat="43.98972" lon="1.93531">
        <ele>224.8</ele>
        <time>2022-09-01T18:30:32Z</time>
      </trkpt>
      <trkpt lat="43.98973" lon="1.93531">
        <ele>224.8</ele>
        <time>2022-09-01T18:30:33Z</time>
      </trkpt>
      <trkpt lat="43.98975" lon="1.93531">
        <ele>225</ele>
        <time>2022-09-01T18:30:34Z</time>
      </trkpt>
      <trkpt lat="43.98976" lon="1.93531">
        <ele>225.2</ele>
        <time>2022-09-01T18:30:35Z</time>
      </trkpt>
      <trkpt lat="43.98978" lon="1.93531">
        <ele>225.4</ele>
        <time>2022-09-01T18:30:36Z</time>
      </trkpt>
      <trkpt lat="43.9898" lon="1.93531">
        <ele>225.4</ele>
        <time>2022-09-01T18:30:37Z</time>
      </trkpt>
      <trkpt lat="43.98981" lon="1.93531">
        <ele>225.8</ele>
        <time>2022-09-01T18:30:38Z</time>
      </trkpt>
      <trkpt lat="43.98983" lon="1.93531">
        <ele>226</ele>
        <time>2022-09-01T18:30:39Z</time>
      </trkpt>
      <trkpt lat="43.98985" lon="1.93531">
        <ele>226.2</ele>
        <time>2022-09-01T18:30:40Z</time>
      </trkpt>
      <trkpt lat="43.98987" lon="1.93531">
        <ele>226.4</ele>
        <time>2022-09-01T18:30:41Z</time>
      </trkpt>
      <trkpt lat="43.98989" lon="1.93531">
        <ele>226.6</ele>
        <time>2022-09-01T18:30:42Z</time>
      </trkpt>
      <trkpt lat="43.98991" lon="1.93532">
        <ele>226.8</ele>
        <time>2022-09-01T18:30:43Z</time>
      </trkpt>
      <trkpt lat="43.98993" lon="1.93532">
        <ele>226.8</ele>
        <time>2022-09-01T18:30:44Z</time>
      </trkpt>
      <trkpt lat="43.98995" lon="1.93532">
        <ele>227</ele>
        <time>2022-09-01T18:30:45Z</time>
      </trkpt>
      <trkpt lat="43.98996" lon="1.93532">
        <ele>227.2</ele>
        <time>2022-09-01T18:30:46Z</time>
      </trkpt>
      <trkpt lat="43.98998" lon="1.93532">
        <ele>227.2</ele>
        <time>2022-09-01T18:30:47Z</time>
      </trkpt>
      <trkpt lat="43.99" lon="1.93533">
        <ele>227.4</ele>
        <time>2022-09-01T18:30:48Z</time>
      </trkpt>
      <trkpt lat="43.99003" lon="1.93534">
        <ele>227.4</ele>
        <time>2022-09-01T18:30:49Z</time>
      </trkpt>
      <trkpt lat="43.99006" lon="1.93535">
        <ele>227.8</ele>
        <time>2022-09-01T18:30:50Z</time>
      </trkpt>
      <trkpt lat="43.99008" lon="1.93536">
        <ele>228</ele>
        <time>2022-09-01T18:30:51Z</time>
      </trkpt>
      <trkpt lat="43.99011" lon="1.93536">
        <ele>228.2</ele>
        <time>2022-09-01T18:30:52Z</time>
      </trkpt>
      <trkpt lat="43.99013" lon="1.93537">
        <ele>228.2</ele>
        <time>2022-09-01T18:30:53Z</time>
      </trkpt>
      <trkpt lat="43.99016" lon="1.93537">
        <ele>228.6</ele>
        <time>2022-09-01T18:30:54Z</time>
      </trkpt>
      <trkpt lat="43.99019" lon="1.93537">
        <ele>228.8</ele>
        <time>2022-09-01T18:30:55Z</time>
      </trkpt>
      <trkpt lat="43.99022" lon="1.93536">
        <ele>228.8</ele>
        <time>2022-09-01T18:30:56Z</time>
      </trkpt>
      <trkpt lat="43.99024" lon="1.93536">
        <ele>229.2</ele>
        <time>2022-09-01T18:30:57Z</time>
      </trkpt>
      <trkpt lat="43.99026" lon="1.93537">
        <ele>229.4</ele>
        <time>2022-09-01T18:30:58Z</time>
      </trkpt>
      <trkpt lat="43.99029" lon="1.93537">
        <ele>229.6</ele>
        <time>2022-09-01T18:30:59Z</time>
      </trkpt>
      <trkpt lat="43.99032" lon="1.93538">
        <ele>229.8</ele>
        <time>2022-09-01T18:31:00Z</time>
      </trkpt>
      <trkpt lat="43.99035" lon="1.93539">
        <ele>229.8</ele>
        <time>2022-09-01T18:31:01Z</time>
      </trkpt>
      <trkpt lat="43.99038" lon="1.9354">
        <ele>230.2</ele>
        <time>2022-09-01T18:31:02Z</time>
      </trkpt>
      <trkpt lat="43.99041" lon="1.93539">
        <ele>230.2</ele>
        <time>2022-09-01T18:31:03Z</time>
      </trkpt>
      <trkpt lat="43.99045" lon="1.93538">
        <ele>230.4</ele>
        <time>2022-09-01T18:31:04Z</time>
      </trkpt>
      <trkpt lat="43.99048" lon="1.93538">
        <ele>230.6</ele>
        <time>2022-09-01T18:31:05Z</time>
      </trkpt>
      <trkpt lat="43.99052" lon="1.93539">
        <ele>230.8</ele>
        <time>2022-09-01T18:31:06Z</time>
      </trkpt>
      <trkpt lat="43.99055" lon="1.93538">
        <ele>231</ele>
        <time>2022-09-01T18:31:07Z</time>
      </trkpt>
      <trkpt lat="43.99057" lon="1.93537">
        <ele>231.2</ele>
        <time>2022-09-01T18:31:08Z</time>
      </trkpt>
      <trkpt lat="43.9906" lon="1.93535">
        <ele>231.4</ele>
        <time>2022-09-01T18:31:09Z</time>
      </trkpt>
      <trkpt lat="43.99063" lon="1.93534">
        <ele>231.6</ele>
        <time>2022-09-01T18:31:10Z</time>
      </trkpt>
      <trkpt lat="43.99065" lon="1.93532">
        <ele>231.8</ele>
        <time>2022-09-01T18:31:11Z</time>
      </trkpt>
      <trkpt lat="43.99068" lon="1.93529">
        <ele>232</ele>
        <time>2022-09-01T18:31:12Z</time>
      </trkpt>
      <trkpt lat="43.9907" lon="1.93526">
        <ele>232.4</ele>
        <time>2022-09-01T18:31:13Z</time>
      </trkpt>
      <trkpt lat="43.99072" lon="1.93524">
        <ele>232.6</ele>
        <time>2022-09-01T18:31:14Z</time>
      </trkpt>
      <trkpt lat="43.99074" lon="1.93522">
        <ele>232.8</ele>
        <time>2022-09-01T18:31:15Z</time>
      </trkpt>
      <trkpt lat="43.99076" lon="1.93521">
        <ele>233</ele>
        <time>2022-09-01T18:31:16Z</time>
      </trkpt>
      <trkpt lat="43.99077" lon="1.93519">
        <ele>233.2</ele>
        <time>2022-09-01T18:31:17Z</time>
      </trkpt>
      <trkpt lat="43.99078" lon="1.93516">
        <ele>233.2</ele>
        <time>2022-09-01T18:31:18Z</time>
      </trkpt>
      <trkpt lat="43.99079" lon="1.93513">
        <ele>233.4</ele>
        <time>2022-09-01T18:31:19Z</time>
      </trkpt>
      <trkpt lat="43.9908" lon="1.9351">
        <ele>233.4</ele>
        <time>2022-09-01T18:31:20Z</time>
      </trkpt>
      <trkpt lat="43.9908" lon="1.93507">
        <ele>233.4</ele>
        <time>2022-09-01T18:31:21Z</time>
      </trkpt>
      <trkpt lat="43.9908" lon="1.93503">
        <ele>233.6</ele>
        <time>2022-09-01T18:31:22Z</time>
      </trkpt>
      <trkpt lat="43.9908" lon="1.935">
        <ele>233.6</ele>
        <time>2022-09-01T18:31:23Z</time>
      </trkpt>
      <trkpt lat="43.99079" lon="1.93496">
        <ele>233.6</ele>
        <time>2022-09-01T18:31:24Z</time>
      </trkpt>
      <trkpt lat="43.99079" lon="1.93492">
        <ele>233.6</ele>
        <time>2022-09-01T18:31:25Z</time>
      </trkpt>
      <trkpt lat="43.99078" lon="1.93488">
        <ele>233.6</ele>
        <time>2022-09-01T18:31:26Z</time>
      </trkpt>
      <trkpt lat="43.99077" lon="1.93484">
        <ele>233.6</ele>
        <time>2022-09-01T18:31:27Z</time>
      </trkpt>
      <trkpt lat="43.99076" lon="1.93481">
        <ele>233.6</ele>
        <time>2022-09-01T18:31:28Z</time>
      </trkpt>
      <trkpt lat="43.99075" lon="1.93477">
        <ele>233.6</ele>
        <time>2022-09-01T18:31:29Z</time>
      </trkpt>
      <trkpt lat="43.99073" lon="1.93474">
        <ele>233.6</ele>
        <time>2022-09-01T18:31:30Z</time>
      </trkpt>
      <trkpt lat="43.99072" lon="1.9347">
        <ele>233.6</ele>
        <time>2022-09-01T18:31:31Z</time>
      </trkpt>
      <trkpt lat="43.99071" lon="1.93467">
        <ele>233.6</ele>
        <time>2022-09-01T18:31:32Z</time>
      </trkpt>
      <trkpt lat="43.9907" lon="1.93464">
        <ele>233.6</ele>
        <time>2022-09-01T18:31:33Z</time>
      </trkpt>
      <trkpt lat="43.99069" lon="1.93461">
        <ele>233.6</ele>
        <time>2022-09-01T18:31:34Z</time>
      </trkpt>
      <trkpt lat="43.99068" lon="1.93458">
        <ele>233.8</ele>
        <time>2022-09-01T18:31:35Z</time>
      </trkpt>
      <trkpt lat="43.99067" lon="1.93454">
        <ele>233.8</ele>
        <time>2022-09-01T18:31:36Z</time>
      </trkpt>
      <trkpt lat="43.99066" lon="1.93451">
        <ele>233.8</ele>
        <time>2022-09-01T18:31:37Z</time>
      </trkpt>
      <trkpt lat="43.99065" lon="1.93448">
        <ele>234</ele>
        <time>2022-09-01T18:31:38Z</time>
      </trkpt>
      <trkpt lat="43.99064" lon="1.93444">
        <ele>234</ele>
        <time>2022-09-01T18:31:39Z</time>
      </trkpt>
      <trkpt lat="43.99063" lon="1.93441">
        <ele>234</ele>
        <time>2022-09-01T18:31:40Z</time>
      </trkpt>
      <trkpt lat="43.99059" lon="1.93423">
        <ele>234.6</ele>
        <time>2022-09-01T18:31:45Z</time>
      </trkpt>
      <trkpt lat="43.99056" lon="1.93405">
        <ele>235</ele>
        <time>2022-09-01T18:31:50Z</time>
      </trkpt>
      <trkpt lat="43.99056" lon="1.93401">
        <ele>235</ele>
        <time>2022-09-01T18:31:51Z</time>
      </trkpt>
      <trkpt lat="43.99054" lon="1.93389">
        <ele>235.2</ele>
        <time>2022-09-01T18:31:54Z</time>
      </trkpt>
      <trkpt lat="43.99053" lon="1.93354">
        <ele>235.8</ele>
        <time>2022-09-01T18:32:02Z</time>
      </trkpt>
      <trkpt lat="43.99053" lon="1.9335">
        <ele>236</ele>
        <time>2022-09-01T18:32:03Z</time>
      </trkpt>
      <trkpt lat="43.99054" lon="1.93345">
        <ele>236</ele>
        <time>2022-09-01T18:32:04Z</time>
      </trkpt>
      <trkpt lat="43.99054" lon="1.93341">
        <ele>236.2</ele>
        <time>2022-09-01T18:32:05Z</time>
      </trkpt>
      <trkpt lat="43.99054" lon="1.93302">
        <ele>236.6</ele>
        <time>2022-09-01T18:32:14Z</time>
      </trkpt>
      <trkpt lat="43.99055" lon="1.93246">
        <ele>236.8</ele>
        <time>2022-09-01T18:32:24Z</time>
      </trkpt>
      <trkpt lat="43.99055" lon="1.93182">
        <ele>236</ele>
        <time>2022-09-01T18:32:34Z</time>
      </trkpt>
      <trkpt lat="43.99055" lon="1.93176">
        <ele>235.8</ele>
        <time>2022-09-01T18:32:35Z</time>
      </trkpt>
      <trkpt lat="43.99055" lon="1.93163">
        <ele>235.6</ele>
        <time>2022-09-01T18:32:37Z</time>
      </trkpt>
      <trkpt lat="43.99055" lon="1.93156">
        <ele>235.6</ele>
        <time>2022-09-01T18:32:38Z</time>
      </trkpt>
      <trkpt lat="43.99055" lon="1.9315">
        <ele>235.4</ele>
        <time>2022-09-01T18:32:39Z</time>
      </trkpt>
      <trkpt lat="43.99055" lon="1.93144">
        <ele>235.4</ele>
        <time>2022-09-01T18:32:40Z</time>
      </trkpt>
      <trkpt lat="43.99056" lon="1.93138">
        <ele>235.2</ele>
        <time>2022-09-01T18:32:41Z</time>
      </trkpt>
      <trkpt lat="43.99057" lon="1.93132">
        <ele>235.2</ele>
        <time>2022-09-01T18:32:42Z</time>
      </trkpt>
      <trkpt lat="43.99057" lon="1.93127">
        <ele>235.2</ele>
        <time>2022-09-01T18:32:43Z</time>
      </trkpt>
      <trkpt lat="43.9906" lon="1.93115">
        <ele>234.8</ele>
        <time>2022-09-01T18:32:45Z</time>
      </trkpt>
      <trkpt lat="43.99067" lon="1.93094">
        <ele>234.6</ele>
        <time>2022-09-01T18:32:49Z</time>
      </trkpt>
      <trkpt lat="43.99077" lon="1.93043">
        <ele>234.4</ele>
        <time>2022-09-01T18:32:57Z</time>
      </trkpt>
      <trkpt lat="43.99077" lon="1.93037">
        <ele>234.4</ele>
        <time>2022-09-01T18:32:58Z</time>
      </trkpt>
      <trkpt lat="43.99076" lon="1.9303">
        <ele>234.4</ele>
        <time>2022-09-01T18:32:59Z</time>
      </trkpt>
      <trkpt lat="43.99075" lon="1.93024">
        <ele>234.4</ele>
        <time>2022-09-01T18:33:00Z</time>
      </trkpt>
      <trkpt lat="43.99073" lon="1.93018">
        <ele>234.4</ele>
        <time>2022-09-01T18:33:01Z</time>
      </trkpt>
      <trkpt lat="43.99071" lon="1.93011">
        <ele>234.4</ele>
        <time>2022-09-01T18:33:02Z</time>
      </trkpt>
      <trkpt lat="43.99067" lon="1.92995">
        <ele>234.2</ele>
        <time>2022-09-01T18:33:05Z</time>
      </trkpt>
      <trkpt lat="43.99059" lon="1.92962">
        <ele>234</ele>
        <time>2022-09-01T18:33:10Z</time>
      </trkpt>
      <trkpt lat="43.99055" lon="1.92945">
        <ele>233.8</ele>
        <time>2022-09-01T18:33:12Z</time>
      </trkpt>
      <trkpt lat="43.99053" lon="1.92937">
        <ele>233.8</ele>
        <time>2022-09-01T18:33:13Z</time>
      </trkpt>
      <trkpt lat="43.99051" lon="1.9293">
        <ele>233.4</ele>
        <time>2022-09-01T18:33:14Z</time>
      </trkpt>
      <trkpt lat="43.9905" lon="1.92922">
        <ele>233.2</ele>
        <time>2022-09-01T18:33:15Z</time>
      </trkpt>
      <trkpt lat="43.99049" lon="1.92915">
        <ele>233</ele>
        <time>2022-09-01T18:33:16Z</time>
      </trkpt>
      <trkpt lat="43.99048" lon="1.92909">
        <ele>232.4</ele>
        <time>2022-09-01T18:33:17Z</time>
      </trkpt>
      <trkpt lat="43.99047" lon="1.92903">
        <ele>232.4</ele>
        <time>2022-09-01T18:33:18Z</time>
      </trkpt>
      <trkpt lat="43.99047" lon="1.92897">
        <ele>232</ele>
        <time>2022-09-01T18:33:19Z</time>
      </trkpt>
      <trkpt lat="43.99047" lon="1.92891">
        <ele>231.8</ele>
        <time>2022-09-01T18:33:20Z</time>
      </trkpt>
      <trkpt lat="43.99048" lon="1.92885">
        <ele>231.4</ele>
        <time>2022-09-01T18:33:21Z</time>
      </trkpt>
      <trkpt lat="43.9905" lon="1.9287">
        <ele>230.8</ele>
        <time>2022-09-01T18:33:23Z</time>
      </trkpt>
      <trkpt lat="43.99052" lon="1.92864">
        <ele>230.4</ele>
        <time>2022-09-01T18:33:24Z</time>
      </trkpt>
      <trkpt lat="43.99054" lon="1.92858">
        <ele>230</ele>
        <time>2022-09-01T18:33:25Z</time>
      </trkpt>
      <trkpt lat="43.99055" lon="1.92853">
        <ele>229.4</ele>
        <time>2022-09-01T18:33:26Z</time>
      </trkpt>
      <trkpt lat="43.99057" lon="1.92849">
        <ele>229.2</ele>
        <time>2022-09-01T18:33:27Z</time>
      </trkpt>
      <trkpt lat="43.99058" lon="1.92845">
        <ele>228.6</ele>
        <time>2022-09-01T18:33:28Z</time>
      </trkpt>
      <trkpt lat="43.99059" lon="1.92843">
        <ele>228.2</ele>
        <time>2022-09-01T18:33:29Z</time>
      </trkpt>
      <trkpt lat="43.9906" lon="1.9284">
        <ele>228</ele>
        <time>2022-09-01T18:33:30Z</time>
      </trkpt>
      <trkpt lat="43.99061" lon="1.92838">
        <ele>227.6</ele>
        <time>2022-09-01T18:33:31Z</time>
      </trkpt>
      <trkpt lat="43.99061" lon="1.92837">
        <ele>227.4</ele>
        <time>2022-09-01T18:33:32Z</time>
      </trkpt>
      <trkpt lat="43.99061" lon="1.92837">
        <ele>226.8</ele>
        <time>2022-09-01T18:33:33Z</time>
      </trkpt>
      <trkpt lat="43.99064" lon="1.92833">
        <ele>225.2</ele>
        <time>2022-09-01T18:33:40Z</time>
      </trkpt>
      <trkpt lat="43.99066" lon="1.9283">
        <ele>225.2</ele>
        <time>2022-09-01T18:33:41Z</time>
      </trkpt>
      <trkpt lat="43.99071" lon="1.92819">
        <ele>225</ele>
        <time>2022-09-01T18:33:43Z</time>
      </trkpt>
      <trkpt lat="43.99073" lon="1.92813">
        <ele>224.8</ele>
        <time>2022-09-01T18:33:44Z</time>
      </trkpt>
      <trkpt lat="43.99074" lon="1.92806">
        <ele>224.4</ele>
        <time>2022-09-01T18:33:45Z</time>
      </trkpt>
      <trkpt lat="43.99075" lon="1.928">
        <ele>224.2</ele>
        <time>2022-09-01T18:33:46Z</time>
      </trkpt>
      <trkpt lat="43.99075" lon="1.92791">
        <ele>224</ele>
        <time>2022-09-01T18:33:47Z</time>
      </trkpt>
      <trkpt lat="43.99075" lon="1.9278">
        <ele>223.8</ele>
        <time>2022-09-01T18:33:48Z</time>
      </trkpt>
      <trkpt lat="43.99074" lon="1.92756">
        <ele>223.2</ele>
        <time>2022-09-01T18:33:50Z</time>
      </trkpt>
      <trkpt lat="43.99073" lon="1.92742">
        <ele>222</ele>
        <time>2022-09-01T18:33:51Z</time>
      </trkpt>
      <trkpt lat="43.99074" lon="1.92719">
        <ele>220.8</ele>
        <time>2022-09-01T18:33:53Z</time>
      </trkpt>
      <trkpt lat="43.99076" lon="1.92707">
        <ele>219.6</ele>
        <time>2022-09-01T18:33:54Z</time>
      </trkpt>
      <trkpt lat="43.99077" lon="1.92698">
        <ele>219</ele>
        <time>2022-09-01T18:33:55Z</time>
      </trkpt>
      <trkpt lat="43.99076" lon="1.92689">
        <ele>217.8</ele>
        <time>2022-09-01T18:33:56Z</time>
      </trkpt>
      <trkpt lat="43.99074" lon="1.92682">
        <ele>217.2</ele>
        <time>2022-09-01T18:33:57Z</time>
      </trkpt>
      <trkpt lat="43.9907" lon="1.92676">
        <ele>215.4</ele>
        <time>2022-09-01T18:33:58Z</time>
      </trkpt>
      <trkpt lat="43.99065" lon="1.92668">
        <ele>214.6</ele>
        <time>2022-09-01T18:33:59Z</time>
      </trkpt>
      <trkpt lat="43.99061" lon="1.92663">
        <ele>212.8</ele>
        <time>2022-09-01T18:34:00Z</time>
      </trkpt>
      <trkpt lat="43.99055" lon="1.92656">
        <ele>211.2</ele>
        <time>2022-09-01T18:34:01Z</time>
      </trkpt>
      <trkpt lat="43.99051" lon="1.92652">
        <ele>210.8</ele>
        <time>2022-09-01T18:34:02Z</time>
      </trkpt>
      <trkpt lat="43.99045" lon="1.92648">
        <ele>209.8</ele>
        <time>2022-09-01T18:34:03Z</time>
      </trkpt>
      <trkpt lat="43.9904" lon="1.92645">
        <ele>209.2</ele>
        <time>2022-09-01T18:34:04Z</time>
      </trkpt>
      <trkpt lat="43.99035" lon="1.92642">
        <ele>208.2</ele>
        <time>2022-09-01T18:34:05Z</time>
      </trkpt>
      <trkpt lat="43.99031" lon="1.9264">
        <ele>208</ele>
        <time>2022-09-01T18:34:06Z</time>
      </trkpt>
      <trkpt lat="43.99028" lon="1.92637">
        <ele>207.6</ele>
        <time>2022-09-01T18:34:07Z</time>
      </trkpt>
      <trkpt lat="43.99024" lon="1.92634">
        <ele>207.4</ele>
        <time>2022-09-01T18:34:08Z</time>
      </trkpt>
      <trkpt lat="43.99018" lon="1.92626">
        <ele>207.2</ele>
        <time>2022-09-01T18:34:10Z</time>
      </trkpt>
      <trkpt lat="43.99015" lon="1.92621">
        <ele>207</ele>
        <time>2022-09-01T18:34:11Z</time>
      </trkpt>
      <trkpt lat="43.99005" lon="1.92607">
        <ele>207</ele>
        <time>2022-09-01T18:34:14Z</time>
      </trkpt>
      <trkpt lat="43.99002" lon="1.92602">
        <ele>207</ele>
        <time>2022-09-01T18:34:15Z</time>
      </trkpt>
      <trkpt lat="43.99" lon="1.92597">
        <ele>207.2</ele>
        <time>2022-09-01T18:34:16Z</time>
      </trkpt>
      <trkpt lat="43.98997" lon="1.92593">
        <ele>207.6</ele>
        <time>2022-09-01T18:34:17Z</time>
      </trkpt>
      <trkpt lat="43.98995" lon="1.92588">
        <ele>207.6</ele>
        <time>2022-09-01T18:34:18Z</time>
      </trkpt>
      <trkpt lat="43.98994" lon="1.92585">
        <ele>207.8</ele>
        <time>2022-09-01T18:34:19Z</time>
      </trkpt>
      <trkpt lat="43.98993" lon="1.92581">
        <ele>208</ele>
        <time>2022-09-01T18:34:20Z</time>
      </trkpt>
      <trkpt lat="43.98992" lon="1.92577">
        <ele>208.4</ele>
        <time>2022-09-01T18:34:21Z</time>
      </trkpt>
      <trkpt lat="43.98991" lon="1.92574">
        <ele>208.6</ele>
        <time>2022-09-01T18:34:22Z</time>
      </trkpt>
      <trkpt lat="43.9899" lon="1.92569">
        <ele>209</ele>
        <time>2022-09-01T18:34:23Z</time>
      </trkpt>
      <trkpt lat="43.98988" lon="1.92565">
        <ele>209.4</ele>
        <time>2022-09-01T18:34:24Z</time>
      </trkpt>
      <trkpt lat="43.98987" lon="1.92561">
        <ele>209.8</ele>
        <time>2022-09-01T18:34:25Z</time>
      </trkpt>
      <trkpt lat="43.98986" lon="1.92559">
        <ele>210.2</ele>
        <time>2022-09-01T18:34:26Z</time>
      </trkpt>
      <trkpt lat="43.98984" lon="1.92556">
        <ele>210.6</ele>
        <time>2022-09-01T18:34:27Z</time>
      </trkpt>
      <trkpt lat="43.98983" lon="1.92552">
        <ele>211.2</ele>
        <time>2022-09-01T18:34:28Z</time>
      </trkpt>
      <trkpt lat="43.9898" lon="1.92544">
        <ele>212</ele>
        <time>2022-09-01T18:34:30Z</time>
      </trkpt>
      <trkpt lat="43.98978" lon="1.92532">
        <ele>213.4</ele>
        <time>2022-09-01T18:34:33Z</time>
      </trkpt>
      <trkpt lat="43.98977" lon="1.92529">
        <ele>214</ele>
        <time>2022-09-01T18:34:34Z</time>
      </trkpt>
      <trkpt lat="43.98976" lon="1.92523">
        <ele>215.6</ele>
        <time>2022-09-01T18:34:35Z</time>
      </trkpt>
      <trkpt lat="43.98974" lon="1.9252">
        <ele>216</ele>
        <time>2022-09-01T18:34:36Z</time>
      </trkpt>
      <trkpt lat="43.98973" lon="1.92516">
        <ele>216.6</ele>
        <time>2022-09-01T18:34:37Z</time>
      </trkpt>
      <trkpt lat="43.98972" lon="1.92513">
        <ele>216.8</ele>
        <time>2022-09-01T18:34:38Z</time>
      </trkpt>
      <trkpt lat="43.98971" lon="1.92509">
        <ele>217.2</ele>
        <time>2022-09-01T18:34:39Z</time>
      </trkpt>
      <trkpt lat="43.9897" lon="1.92506">
        <ele>217.4</ele>
        <time>2022-09-01T18:34:40Z</time>
      </trkpt>
      <trkpt lat="43.98969" lon="1.92503">
        <ele>217.6</ele>
        <time>2022-09-01T18:34:41Z</time>
      </trkpt>
      <trkpt lat="43.98968" lon="1.92497">
        <ele>218.2</ele>
        <time>2022-09-01T18:34:42Z</time>
      </trkpt>
      <trkpt lat="43.98968" lon="1.92493">
        <ele>218.4</ele>
        <time>2022-09-01T18:34:43Z</time>
      </trkpt>
      <trkpt lat="43.98968" lon="1.92488">
        <ele>219.2</ele>
        <time>2022-09-01T18:34:44Z</time>
      </trkpt>
      <trkpt lat="43.98967" lon="1.92485">
        <ele>219.6</ele>
        <time>2022-09-01T18:34:45Z</time>
      </trkpt>
      <trkpt lat="43.98967" lon="1.9248">
        <ele>220.2</ele>
        <time>2022-09-01T18:34:46Z</time>
      </trkpt>
      <trkpt lat="43.98967" lon="1.92476">
        <ele>220.6</ele>
        <time>2022-09-01T18:34:47Z</time>
      </trkpt>
      <trkpt lat="43.98967" lon="1.92472">
        <ele>220.8</ele>
        <time>2022-09-01T18:34:48Z</time>
      </trkpt>
      <trkpt lat="43.98966" lon="1.92468">
        <ele>221.2</ele>
        <time>2022-09-01T18:34:49Z</time>
      </trkpt>
      <trkpt lat="43.98966" lon="1.92465">
        <ele>221.4</ele>
        <time>2022-09-01T18:34:50Z</time>
      </trkpt>
      <trkpt lat="43.98964" lon="1.92459">
        <ele>222</ele>
        <time>2022-09-01T18:34:51Z</time>
      </trkpt>
      <trkpt lat="43.98964" lon="1.92455">
        <ele>222.4</ele>
        <time>2022-09-01T18:34:52Z</time>
      </trkpt>
      <trkpt lat="43.98963" lon="1.9245">
        <ele>223</ele>
        <time>2022-09-01T18:34:53Z</time>
      </trkpt>
      <trkpt lat="43.98962" lon="1.92447">
        <ele>223.2</ele>
        <time>2022-09-01T18:34:54Z</time>
      </trkpt>
      <trkpt lat="43.98961" lon="1.92444">
        <ele>223.4</ele>
        <time>2022-09-01T18:34:55Z</time>
      </trkpt>
      <trkpt lat="43.98961" lon="1.9244">
        <ele>223.8</ele>
        <time>2022-09-01T18:34:56Z</time>
      </trkpt>
      <trkpt lat="43.98961" lon="1.92437">
        <ele>224.2</ele>
        <time>2022-09-01T18:34:57Z</time>
      </trkpt>
      <trkpt lat="43.98961" lon="1.92435">
        <ele>224.6</ele>
        <time>2022-09-01T18:34:58Z</time>
      </trkpt>
      <trkpt lat="43.98962" lon="1.92433">
        <ele>225</ele>
        <time>2022-09-01T18:34:59Z</time>
      </trkpt>
      <trkpt lat="43.98962" lon="1.9243">
        <ele>225.4</ele>
        <time>2022-09-01T18:35:00Z</time>
      </trkpt>
      <trkpt lat="43.98962" lon="1.92426">
        <ele>225.6</ele>
        <time>2022-09-01T18:35:01Z</time>
      </trkpt>
      <trkpt lat="43.98963" lon="1.92423">
        <ele>225.8</ele>
        <time>2022-09-01T18:35:02Z</time>
      </trkpt>
      <trkpt lat="43.98963" lon="1.92419">
        <ele>226</ele>
        <time>2022-09-01T18:35:03Z</time>
      </trkpt>
      <trkpt lat="43.98964" lon="1.92417">
        <ele>226.2</ele>
        <time>2022-09-01T18:35:04Z</time>
      </trkpt>
      <trkpt lat="43.98964" lon="1.92414">
        <ele>226.4</ele>
        <time>2022-09-01T18:35:05Z</time>
      </trkpt>
      <trkpt lat="43.98964" lon="1.92411">
        <ele>226.4</ele>
        <time>2022-09-01T18:35:06Z</time>
      </trkpt>
      <trkpt lat="43.98963" lon="1.92408">
        <ele>226.6</ele>
        <time>2022-09-01T18:35:07Z</time>
      </trkpt>
      <trkpt lat="43.98963" lon="1.92405">
        <ele>226.6</ele>
        <time>2022-09-01T18:35:08Z</time>
      </trkpt>
      <trkpt lat="43.98963" lon="1.92402">
        <ele>226.8</ele>
        <time>2022-09-01T18:35:09Z</time>
      </trkpt>
      <trkpt lat="43.98963" lon="1.92399">
        <ele>226.8</ele>
        <time>2022-09-01T18:35:10Z</time>
      </trkpt>
      <trkpt lat="43.98963" lon="1.92396">
        <ele>227</ele>
        <time>2022-09-01T18:35:11Z</time>
      </trkpt>
      <trkpt lat="43.98963" lon="1.92393">
        <ele>227</ele>
        <time>2022-09-01T18:35:12Z</time>
      </trkpt>
      <trkpt lat="43.98963" lon="1.92389">
        <ele>227</ele>
        <time>2022-09-01T18:35:13Z</time>
      </trkpt>
      <trkpt lat="43.98963" lon="1.92387">
        <ele>227</ele>
        <time>2022-09-01T18:35:14Z</time>
      </trkpt>
      <trkpt lat="43.98963" lon="1.92384">
        <ele>227.2</ele>
        <time>2022-09-01T18:35:15Z</time>
      </trkpt>
      <trkpt lat="43.98963" lon="1.92381">
        <ele>227.2</ele>
        <time>2022-09-01T18:35:16Z</time>
      </trkpt>
      <trkpt lat="43.98963" lon="1.92377">
        <ele>227.2</ele>
        <time>2022-09-01T18:35:17Z</time>
      </trkpt>
      <trkpt lat="43.98963" lon="1.92374">
        <ele>227.4</ele>
        <time>2022-09-01T18:35:18Z</time>
      </trkpt>
      <trkpt lat="43.98963" lon="1.92371">
        <ele>227.4</ele>
        <time>2022-09-01T18:35:19Z</time>
      </trkpt>
      <trkpt lat="43.98963" lon="1.92368">
        <ele>227.4</ele>
        <time>2022-09-01T18:35:20Z</time>
      </trkpt>
      <trkpt lat="43.98964" lon="1.92365">
        <ele>227.6</ele>
        <time>2022-09-01T18:35:21Z</time>
      </trkpt>
      <trkpt lat="43.98964" lon="1.92361">
        <ele>227.6</ele>
        <time>2022-09-01T18:35:22Z</time>
      </trkpt>
      <trkpt lat="43.98964" lon="1.92357">
        <ele>227.8</ele>
        <time>2022-09-01T18:35:23Z</time>
      </trkpt>
      <trkpt lat="43.98964" lon="1.92354">
        <ele>227.8</ele>
        <time>2022-09-01T18:35:24Z</time>
      </trkpt>
      <trkpt lat="43.98964" lon="1.9235">
        <ele>227.8</ele>
        <time>2022-09-01T18:35:25Z</time>
      </trkpt>
      <trkpt lat="43.98965" lon="1.92347">
        <ele>228</ele>
        <time>2022-09-01T18:35:26Z</time>
      </trkpt>
      <trkpt lat="43.98965" lon="1.92344">
        <ele>228</ele>
        <time>2022-09-01T18:35:27Z</time>
      </trkpt>
      <trkpt lat="43.98965" lon="1.92341">
        <ele>228.2</ele>
        <time>2022-09-01T18:35:28Z</time>
      </trkpt>
      <trkpt lat="43.98965" lon="1.92337">
        <ele>228.2</ele>
        <time>2022-09-01T18:35:29Z</time>
      </trkpt>
      <trkpt lat="43.98965" lon="1.92334">
        <ele>228.4</ele>
        <time>2022-09-01T18:35:30Z</time>
      </trkpt>
      <trkpt lat="43.98965" lon="1.92331">
        <ele>228.4</ele>
        <time>2022-09-01T18:35:31Z</time>
      </trkpt>
      <trkpt lat="43.98965" lon="1.92327">
        <ele>228.4</ele>
        <time>2022-09-01T18:35:32Z</time>
      </trkpt>
      <trkpt lat="43.98966" lon="1.92324">
        <ele>228.4</ele>
        <time>2022-09-01T18:35:33Z</time>
      </trkpt>
      <trkpt lat="43.98966" lon="1.9232">
        <ele>228.6</ele>
        <time>2022-09-01T18:35:34Z</time>
      </trkpt>
      <trkpt lat="43.98966" lon="1.92317">
        <ele>228.6</ele>
        <time>2022-09-01T18:35:35Z</time>
      </trkpt>
      <trkpt lat="43.98966" lon="1.92314">
        <ele>228.8</ele>
        <time>2022-09-01T18:35:36Z</time>
      </trkpt>
      <trkpt lat="43.98966" lon="1.9231">
        <ele>228.8</ele>
        <time>2022-09-01T18:35:37Z</time>
      </trkpt>
      <trkpt lat="43.98966" lon="1.92307">
        <ele>228.8</ele>
        <time>2022-09-01T18:35:38Z</time>
      </trkpt>
      <trkpt lat="43.98966" lon="1.923">
        <ele>229</ele>
        <time>2022-09-01T18:35:40Z</time>
      </trkpt>
      <trkpt lat="43.98967" lon="1.92293">
        <ele>229.2</ele>
        <time>2022-09-01T18:35:42Z</time>
      </trkpt>
      <trkpt lat="43.98967" lon="1.92286">
        <ele>229.4</ele>
        <time>2022-09-01T18:35:44Z</time>
      </trkpt>
      <trkpt lat="43.98968" lon="1.92272">
        <ele>229.8</ele>
        <time>2022-09-01T18:35:48Z</time>
      </trkpt>
      <trkpt lat="43.98968" lon="1.92253">
        <ele>230</ele>
        <time>2022-09-01T18:35:53Z</time>
      </trkpt>
      <trkpt lat="43.98965" lon="1.92219">
        <ele>230.2</ele>
        <time>2022-09-01T18:36:01Z</time>
      </trkpt>
      <trkpt lat="43.98963" lon="1.92211">
        <ele>230.4</ele>
        <time>2022-09-01T18:36:03Z</time>
      </trkpt>
      <trkpt lat="43.98962" lon="1.92208">
        <ele>230.4</ele>
        <time>2022-09-01T18:36:04Z</time>
      </trkpt>
      <trkpt lat="43.98959" lon="1.92202">
        <ele>230.8</ele>
        <time>2022-09-01T18:36:06Z</time>
      </trkpt>
      <trkpt lat="43.98957" lon="1.92198">
        <ele>231</ele>
        <time>2022-09-01T18:36:07Z</time>
      </trkpt>
      <trkpt lat="43.98949" lon="1.92181">
        <ele>231.4</ele>
        <time>2022-09-01T18:36:12Z</time>
      </trkpt>
      <trkpt lat="43.98947" lon="1.92178">
        <ele>231.6</ele>
        <time>2022-09-01T18:36:13Z</time>
      </trkpt>
      <trkpt lat="43.98946" lon="1.92175">
        <ele>231.8</ele>
        <time>2022-09-01T18:36:14Z</time>
      </trkpt>
      <trkpt lat="43.98944" lon="1.92171">
        <ele>231.8</ele>
        <time>2022-09-01T18:36:15Z</time>
      </trkpt>
      <trkpt lat="43.98939" lon="1.92161">
        <ele>232.2</ele>
        <time>2022-09-01T18:36:18Z</time>
      </trkpt>
      <trkpt lat="43.98933" lon="1.92152">
        <ele>232.6</ele>
        <time>2022-09-01T18:36:21Z</time>
      </trkpt>
      <trkpt lat="43.98932" lon="1.92148">
        <ele>232.6</ele>
        <time>2022-09-01T18:36:22Z</time>
      </trkpt>
      <trkpt lat="43.9893" lon="1.92145">
        <ele>232.8</ele>
        <time>2022-09-01T18:36:23Z</time>
      </trkpt>
      <trkpt lat="43.98929" lon="1.92142">
        <ele>233</ele>
        <time>2022-09-01T18:36:24Z</time>
      </trkpt>
      <trkpt lat="43.98928" lon="1.92138">
        <ele>233.2</ele>
        <time>2022-09-01T18:36:25Z</time>
      </trkpt>
      <trkpt lat="43.98926" lon="1.92135">
        <ele>233.4</ele>
        <time>2022-09-01T18:36:26Z</time>
      </trkpt>
      <trkpt lat="43.98925" lon="1.92132">
        <ele>233.6</ele>
        <time>2022-09-01T18:36:27Z</time>
      </trkpt>
      <trkpt lat="43.98923" lon="1.92129">
        <ele>233.6</ele>
        <time>2022-09-01T18:36:28Z</time>
      </trkpt>
      <trkpt lat="43.98922" lon="1.92126">
        <ele>233.8</ele>
        <time>2022-09-01T18:36:29Z</time>
      </trkpt>
      <trkpt lat="43.9892" lon="1.92122">
        <ele>234</ele>
        <time>2022-09-01T18:36:30Z</time>
      </trkpt>
      <trkpt lat="43.98918" lon="1.92119">
        <ele>234</ele>
        <time>2022-09-01T18:36:31Z</time>
      </trkpt>
      <trkpt lat="43.98917" lon="1.92116">
        <ele>234.2</ele>
        <time>2022-09-01T18:36:32Z</time>
      </trkpt>
      <trkpt lat="43.98915" lon="1.92113">
        <ele>234.2</ele>
        <time>2022-09-01T18:36:33Z</time>
      </trkpt>
      <trkpt lat="43.98913" lon="1.92109">
        <ele>234.4</ele>
        <time>2022-09-01T18:36:34Z</time>
      </trkpt>
      <trkpt lat="43.98912" lon="1.92107">
        <ele>234.4</ele>
        <time>2022-09-01T18:36:35Z</time>
      </trkpt>
      <trkpt lat="43.9891" lon="1.92104">
        <ele>234.4</ele>
        <time>2022-09-01T18:36:36Z</time>
      </trkpt>
      <trkpt lat="43.98909" lon="1.92101">
        <ele>234.4</ele>
        <time>2022-09-01T18:36:37Z</time>
      </trkpt>
      <trkpt lat="43.98907" lon="1.92098">
        <ele>234.6</ele>
        <time>2022-09-01T18:36:38Z</time>
      </trkpt>
      <trkpt lat="43.98905" lon="1.92094">
        <ele>234.6</ele>
        <time>2022-09-01T18:36:39Z</time>
      </trkpt>
      <trkpt lat="43.98904" lon="1.92091">
        <ele>234.8</ele>
        <time>2022-09-01T18:36:40Z</time>
      </trkpt>
      <trkpt lat="43.98903" lon="1.92088">
        <ele>235</ele>
        <time>2022-09-01T18:36:41Z</time>
      </trkpt>
      <trkpt lat="43.98901" lon="1.92085">
        <ele>235</ele>
        <time>2022-09-01T18:36:42Z</time>
      </trkpt>
      <trkpt lat="43.989" lon="1.92081">
        <ele>235</ele>
        <time>2022-09-01T18:36:43Z</time>
      </trkpt>
      <trkpt lat="43.98898" lon="1.92078">
        <ele>235</ele>
        <time>2022-09-01T18:36:44Z</time>
      </trkpt>
      <trkpt lat="43.98896" lon="1.92074">
        <ele>235</ele>
        <time>2022-09-01T18:36:45Z</time>
      </trkpt>
      <trkpt lat="43.98894" lon="1.9207">
        <ele>235</ele>
        <time>2022-09-01T18:36:46Z</time>
      </trkpt>
      <trkpt lat="43.98892" lon="1.92066">
        <ele>235</ele>
        <time>2022-09-01T18:36:47Z</time>
      </trkpt>
      <trkpt lat="43.9889" lon="1.92061">
        <ele>235</ele>
        <time>2022-09-01T18:36:48Z</time>
      </trkpt>
      <trkpt lat="43.98887" lon="1.92057">
        <ele>235</ele>
        <time>2022-09-01T18:36:49Z</time>
      </trkpt>
      <trkpt lat="43.98881" lon="1.92049">
        <ele>235</ele>
        <time>2022-09-01T18:36:51Z</time>
      </trkpt>
      <trkpt lat="43.98871" lon="1.92031">
        <ele>234.8</ele>
        <time>2022-09-01T18:36:55Z</time>
      </trkpt>
      <trkpt lat="43.98857" lon="1.92009">
        <ele>234.6</ele>
        <time>2022-09-01T18:37:00Z</time>
      </trkpt>
      <trkpt lat="43.98847" lon="1.91992">
        <ele>234.4</ele>
        <time>2022-09-01T18:37:04Z</time>
      </trkpt>
      <trkpt lat="43.98844" lon="1.91988">
        <ele>234.4</ele>
        <time>2022-09-01T18:37:05Z</time>
      </trkpt>
      <trkpt lat="43.98842" lon="1.91983">
        <ele>234.4</ele>
        <time>2022-09-01T18:37:06Z</time>
      </trkpt>
      <trkpt lat="43.98835" lon="1.91968">
        <ele>234</ele>
        <time>2022-09-01T18:37:09Z</time>
      </trkpt>
      <trkpt lat="43.98829" lon="1.91954">
        <ele>234</ele>
        <time>2022-09-01T18:37:12Z</time>
      </trkpt>
      <trkpt lat="43.98821" lon="1.91934">
        <ele>233.8</ele>
        <time>2022-09-01T18:37:16Z</time>
      </trkpt>
      <trkpt lat="43.98819" lon="1.91929">
        <ele>233.8</ele>
        <time>2022-09-01T18:37:17Z</time>
      </trkpt>
      <trkpt lat="43.98817" lon="1.91924">
        <ele>233.8</ele>
        <time>2022-09-01T18:37:18Z</time>
      </trkpt>
      <trkpt lat="43.98816" lon="1.9192">
        <ele>233.8</ele>
        <time>2022-09-01T18:37:19Z</time>
      </trkpt>
      <trkpt lat="43.98815" lon="1.91916">
        <ele>233.8</ele>
        <time>2022-09-01T18:37:20Z</time>
      </trkpt>
      <trkpt lat="43.98814" lon="1.91912">
        <ele>233.8</ele>
        <time>2022-09-01T18:37:21Z</time>
      </trkpt>
      <trkpt lat="43.98813" lon="1.91908">
        <ele>234</ele>
        <time>2022-09-01T18:37:22Z</time>
      </trkpt>
      <trkpt lat="43.98813" lon="1.91904">
        <ele>234</ele>
        <time>2022-09-01T18:37:23Z</time>
      </trkpt>
      <trkpt lat="43.98812" lon="1.91901">
        <ele>234</ele>
        <time>2022-09-01T18:37:24Z</time>
      </trkpt>
      <trkpt lat="43.9881" lon="1.91889">
        <ele>233.8</ele>
        <time>2022-09-01T18:37:27Z</time>
      </trkpt>
      <trkpt lat="43.9881" lon="1.91886">
        <ele>233.8</ele>
        <time>2022-09-01T18:37:28Z</time>
      </trkpt>
      <trkpt lat="43.9881" lon="1.91883">
        <ele>234</ele>
        <time>2022-09-01T18:37:29Z</time>
      </trkpt>
      <trkpt lat="43.9881" lon="1.9188">
        <ele>233.8</ele>
        <time>2022-09-01T18:37:30Z</time>
      </trkpt>
      <trkpt lat="43.98809" lon="1.91879">
        <ele>234</ele>
        <time>2022-09-01T18:37:31Z</time>
      </trkpt>
      <trkpt lat="43.98808" lon="1.91872">
        <ele>233.2</ele>
        <time>2022-09-01T18:40:17Z</time>
      </trkpt>
      <trkpt lat="43.98807" lon="1.91868">
        <ele>233.2</ele>
        <time>2022-09-01T18:40:19Z</time>
      </trkpt>
      <trkpt lat="43.98802" lon="1.9186">
        <ele>233.4</ele>
        <time>2022-09-01T18:40:22Z</time>
      </trkpt>
      <trkpt lat="43.98789" lon="1.91849">
        <ele>233.4</ele>
        <time>2022-09-01T18:40:27Z</time>
      </trkpt>
      <trkpt lat="43.98768" lon="1.9183">
        <ele>233</ele>
        <time>2022-09-01T18:40:34Z</time>
      </trkpt>
      <trkpt lat="43.98743" lon="1.91806">
        <ele>232.6</ele>
        <time>2022-09-01T18:40:42Z</time>
      </trkpt>
      <trkpt lat="43.98736" lon="1.91799">
        <ele>232.2</ele>
        <time>2022-09-01T18:40:44Z</time>
      </trkpt>
      <trkpt lat="43.98733" lon="1.91791">
        <ele>232.2</ele>
        <time>2022-09-01T18:40:46Z</time>
      </trkpt>
      <trkpt lat="43.98731" lon="1.91785">
        <ele>232</ele>
        <time>2022-09-01T18:40:47Z</time>
      </trkpt>
      <trkpt lat="43.98729" lon="1.91781">
        <ele>232</ele>
        <time>2022-09-01T18:40:48Z</time>
      </trkpt>
      <trkpt lat="43.98726" lon="1.91778">
        <ele>232</ele>
        <time>2022-09-01T18:40:49Z</time>
      </trkpt>
      <trkpt lat="43.98725" lon="1.91776">
        <ele>232</ele>
        <time>2022-09-01T18:40:50Z</time>
      </trkpt>
      <trkpt lat="43.98724" lon="1.91774">
        <ele>231.6</ele>
        <time>2022-09-01T18:40:51Z</time>
      </trkpt>
      <trkpt lat="43.98722" lon="1.91773">
        <ele>231.6</ele>
        <time>2022-09-01T18:40:52Z</time>
      </trkpt>
      <trkpt lat="43.98721" lon="1.91772">
        <ele>231.4</ele>
        <time>2022-09-01T18:40:53Z</time>
      </trkpt>
      <trkpt lat="43.98721" lon="1.91771">
        <ele>231.4</ele>
        <time>2022-09-01T18:40:54Z</time>
      </trkpt>
      <trkpt lat="43.9872" lon="1.9177">
        <ele>231</ele>
        <time>2022-09-01T18:40:55Z</time>
      </trkpt>
      <trkpt lat="43.98719" lon="1.91766">
        <ele>230.8</ele>
        <time>2022-09-01T18:40:57Z</time>
      </trkpt>
      <trkpt lat="43.98718" lon="1.91765">
        <ele>230.8</ele>
        <time>2022-09-01T18:40:58Z</time>
      </trkpt>
      <trkpt lat="43.98718" lon="1.91765">
        <ele>230.8</ele>
        <time>2022-09-01T18:40:59Z</time>
      </trkpt>
      <trkpt lat="43.98717" lon="1.91763">
        <ele>230.4</ele>
        <time>2022-09-01T18:41:00Z</time>
      </trkpt>
      <trkpt lat="43.98715" lon="1.9176">
        <ele>230.4</ele>
        <time>2022-09-01T18:41:02Z</time>
      </trkpt>
      <trkpt lat="43.98708" lon="1.91744">
        <ele>230.2</ele>
        <time>2022-09-01T18:41:07Z</time>
      </trkpt>
      <trkpt lat="43.98702" lon="1.91726">
        <ele>229.8</ele>
        <time>2022-09-01T18:41:11Z</time>
      </trkpt>
      <trkpt lat="43.98704" lon="1.91721">
        <ele>229.6</ele>
        <time>2022-09-01T18:41:12Z</time>
      </trkpt>
      <trkpt lat="43.98707" lon="1.91719">
        <ele>229.6</ele>
        <time>2022-09-01T18:41:13Z</time>
      </trkpt>
      <trkpt lat="43.98717" lon="1.91709">
        <ele>229.4</ele>
        <time>2022-09-01T18:41:16Z</time>
      </trkpt>
      <trkpt lat="43.98721" lon="1.91706">
        <ele>229</ele>
        <time>2022-09-01T18:41:17Z</time>
      </trkpt>
      <trkpt lat="43.98723" lon="1.91704">
        <ele>228.8</ele>
        <time>2022-09-01T18:41:18Z</time>
      </trkpt>
      <trkpt lat="43.98727" lon="1.91701">
        <ele>228.8</ele>
        <time>2022-09-01T18:41:19Z</time>
      </trkpt>
      <trkpt lat="43.98734" lon="1.91695">
        <ele>228.8</ele>
        <time>2022-09-01T18:41:21Z</time>
      </trkpt>
      <trkpt lat="43.98747" lon="1.91684">
        <ele>228.2</ele>
        <time>2022-09-01T18:41:25Z</time>
      </trkpt>
      <trkpt lat="43.9875" lon="1.91681">
        <ele>228.2</ele>
        <time>2022-09-01T18:41:26Z</time>
      </trkpt>
      <trkpt lat="43.98753" lon="1.91678">
        <ele>228.2</ele>
        <time>2022-09-01T18:41:27Z</time>
      </trkpt>
      <trkpt lat="43.98756" lon="1.91675">
        <ele>228.2</ele>
        <time>2022-09-01T18:41:28Z</time>
      </trkpt>
      <trkpt lat="43.98759" lon="1.91672">
        <ele>228.2</ele>
        <time>2022-09-01T18:41:29Z</time>
      </trkpt>
      <trkpt lat="43.98771" lon="1.91652">
        <ele>228.2</ele>
        <time>2022-09-01T18:41:34Z</time>
      </trkpt>
      <trkpt lat="43.98773" lon="1.91647">
        <ele>228.2</ele>
        <time>2022-09-01T18:41:35Z</time>
      </trkpt>
      <trkpt lat="43.98775" lon="1.91635">
        <ele>228.2</ele>
        <time>2022-09-01T18:41:37Z</time>
      </trkpt>
      <trkpt lat="43.98775" lon="1.91628">
        <ele>228.4</ele>
        <time>2022-09-01T18:41:38Z</time>
      </trkpt>
      <trkpt lat="43.98776" lon="1.91622">
        <ele>228.4</ele>
        <time>2022-09-01T18:41:39Z</time>
      </trkpt>
      <trkpt lat="43.9878" lon="1.91572">
        <ele>228.2</ele>
        <time>2022-09-01T18:41:46Z</time>
      </trkpt>
      <trkpt lat="43.98782" lon="1.91563">
        <ele>228.2</ele>
        <time>2022-09-01T18:41:47Z</time>
      </trkpt>
      <trkpt lat="43.98783" lon="1.91556">
        <ele>227.8</ele>
        <time>2022-09-01T18:41:48Z</time>
      </trkpt>
      <trkpt lat="43.98785" lon="1.91549">
        <ele>227.6</ele>
        <time>2022-09-01T18:41:49Z</time>
      </trkpt>
      <trkpt lat="43.98788" lon="1.91543">
        <ele>227.6</ele>
        <time>2022-09-01T18:41:50Z</time>
      </trkpt>
      <trkpt lat="43.9879" lon="1.91537">
        <ele>227.6</ele>
        <time>2022-09-01T18:41:51Z</time>
      </trkpt>
      <trkpt lat="43.98792" lon="1.91531">
        <ele>227.6</ele>
        <time>2022-09-01T18:41:52Z</time>
      </trkpt>
      <trkpt lat="43.98794" lon="1.91525">
        <ele>227.6</ele>
        <time>2022-09-01T18:41:53Z</time>
      </trkpt>
      <trkpt lat="43.98795" lon="1.9152">
        <ele>227.6</ele>
        <time>2022-09-01T18:41:54Z</time>
      </trkpt>
      <trkpt lat="43.98797" lon="1.91514">
        <ele>227.6</ele>
        <time>2022-09-01T18:41:55Z</time>
      </trkpt>
      <trkpt lat="43.98799" lon="1.91508">
        <ele>227.6</ele>
        <time>2022-09-01T18:41:56Z</time>
      </trkpt>
      <trkpt lat="43.98808" lon="1.91485">
        <ele>228.2</ele>
        <time>2022-09-01T18:42:00Z</time>
      </trkpt>
      <trkpt lat="43.98809" lon="1.91479">
        <ele>228.2</ele>
        <time>2022-09-01T18:42:01Z</time>
      </trkpt>
      <trkpt lat="43.98815" lon="1.91463">
        <ele>228.4</ele>
        <time>2022-09-01T18:42:04Z</time>
      </trkpt>
      <trkpt lat="43.98822" lon="1.91444">
        <ele>228.8</ele>
        <time>2022-09-01T18:42:07Z</time>
      </trkpt>
      <trkpt lat="43.98824" lon="1.91439">
        <ele>228.8</ele>
        <time>2022-09-01T18:42:08Z</time>
      </trkpt>
      <trkpt lat="43.98826" lon="1.91433">
        <ele>228.8</ele>
        <time>2022-09-01T18:42:09Z</time>
      </trkpt>
      <trkpt lat="43.98826" lon="1.9142">
        <ele>228.8</ele>
        <time>2022-09-01T18:42:11Z</time>
      </trkpt>
      <trkpt lat="43.98824" lon="1.91414">
        <ele>228.8</ele>
        <time>2022-09-01T18:42:12Z</time>
      </trkpt>
      <trkpt lat="43.98822" lon="1.91409">
        <ele>228.8</ele>
        <time>2022-09-01T18:42:13Z</time>
      </trkpt>
      <trkpt lat="43.98815" lon="1.91396">
        <ele>228.8</ele>
        <time>2022-09-01T18:42:15Z</time>
      </trkpt>
      <trkpt lat="43.98813" lon="1.91389">
        <ele>228.6</ele>
        <time>2022-09-01T18:42:16Z</time>
      </trkpt>
      <trkpt lat="43.98812" lon="1.91381">
        <ele>228.6</ele>
        <time>2022-09-01T18:42:17Z</time>
      </trkpt>
      <trkpt lat="43.98813" lon="1.91374">
        <ele>228.4</ele>
        <time>2022-09-01T18:42:18Z</time>
      </trkpt>
      <trkpt lat="43.98814" lon="1.91367">
        <ele>228.2</ele>
        <time>2022-09-01T18:42:19Z</time>
      </trkpt>
      <trkpt lat="43.98817" lon="1.91361">
        <ele>228.2</ele>
        <time>2022-09-01T18:42:20Z</time>
      </trkpt>
      <trkpt lat="43.9882" lon="1.91356">
        <ele>228</ele>
        <time>2022-09-01T18:42:21Z</time>
      </trkpt>
      <trkpt lat="43.98823" lon="1.91351">
        <ele>227.8</ele>
        <time>2022-09-01T18:42:22Z</time>
      </trkpt>
      <trkpt lat="43.98828" lon="1.91346">
        <ele>227.6</ele>
        <time>2022-09-01T18:42:23Z</time>
      </trkpt>
      <trkpt lat="43.98832" lon="1.91343">
        <ele>227.6</ele>
        <time>2022-09-01T18:42:24Z</time>
      </trkpt>
      <trkpt lat="43.98836" lon="1.9134">
        <ele>227.4</ele>
        <time>2022-09-01T18:42:25Z</time>
      </trkpt>
      <trkpt lat="43.9884" lon="1.91338">
        <ele>227.2</ele>
        <time>2022-09-01T18:42:26Z</time>
      </trkpt>
      <trkpt lat="43.98857" lon="1.91332">
        <ele>227</ele>
        <time>2022-09-01T18:42:30Z</time>
      </trkpt>
      <trkpt lat="43.9887" lon="1.91327">
        <ele>227</ele>
        <time>2022-09-01T18:42:33Z</time>
      </trkpt>
      <trkpt lat="43.98875" lon="1.91326">
        <ele>227</ele>
        <time>2022-09-01T18:42:34Z</time>
      </trkpt>
      <trkpt lat="43.98879" lon="1.91324">
        <ele>227.2</ele>
        <time>2022-09-01T18:42:35Z</time>
      </trkpt>
      <trkpt lat="43.98883" lon="1.91322">
        <ele>227.2</ele>
        <time>2022-09-01T18:42:36Z</time>
      </trkpt>
      <trkpt lat="43.98887" lon="1.9132">
        <ele>227.2</ele>
        <time>2022-09-01T18:42:37Z</time>
      </trkpt>
      <trkpt lat="43.98891" lon="1.91318">
        <ele>227.2</ele>
        <time>2022-09-01T18:42:38Z</time>
      </trkpt>
      <trkpt lat="43.98895" lon="1.91316">
        <ele>227.2</ele>
        <time>2022-09-01T18:42:39Z</time>
      </trkpt>
      <trkpt lat="43.98898" lon="1.91312">
        <ele>227.4</ele>
        <time>2022-09-01T18:42:40Z</time>
      </trkpt>
      <trkpt lat="43.989" lon="1.91308">
        <ele>227.4</ele>
        <time>2022-09-01T18:42:41Z</time>
      </trkpt>
      <trkpt lat="43.98901" lon="1.91304">
        <ele>227.4</ele>
        <time>2022-09-01T18:42:42Z</time>
      </trkpt>
      <trkpt lat="43.989" lon="1.913">
        <ele>227.4</ele>
        <time>2022-09-01T18:42:43Z</time>
      </trkpt>
      <trkpt lat="43.98898" lon="1.91298">
        <ele>227.4</ele>
        <time>2022-09-01T18:42:44Z</time>
      </trkpt>
      <trkpt lat="43.98892" lon="1.91292">
        <ele>227.2</ele>
        <time>2022-09-01T18:42:46Z</time>
      </trkpt>
      <trkpt lat="43.9889" lon="1.91288">
        <ele>227.2</ele>
        <time>2022-09-01T18:42:47Z</time>
      </trkpt>
      <trkpt lat="43.9889" lon="1.91285">
        <ele>227</ele>
        <time>2022-09-01T18:42:48Z</time>
      </trkpt>
      <trkpt lat="43.98891" lon="1.91282">
        <ele>226.8</ele>
        <time>2022-09-01T18:42:49Z</time>
      </trkpt>
      <trkpt lat="43.98891" lon="1.9128">
        <ele>226.8</ele>
        <time>2022-09-01T18:42:50Z</time>
      </trkpt>
      <trkpt lat="43.98892" lon="1.91278">
        <ele>226.8</ele>
        <time>2022-09-01T18:42:51Z</time>
      </trkpt>
      <trkpt lat="43.98892" lon="1.91276">
        <ele>226.8</ele>
        <time>2022-09-01T18:42:52Z</time>
      </trkpt>
      <trkpt lat="43.98892" lon="1.91273">
        <ele>226.8</ele>
        <time>2022-09-01T18:42:53Z</time>
      </trkpt>
      <trkpt lat="43.98893" lon="1.91267">
        <ele>226.8</ele>
        <time>2022-09-01T18:42:55Z</time>
      </trkpt>
      <trkpt lat="43.98895" lon="1.91239">
        <ele>227.4</ele>
        <time>2022-09-01T18:43:02Z</time>
      </trkpt>
      <trkpt lat="43.98896" lon="1.91236">
        <ele>227.6</ele>
        <time>2022-09-01T18:43:03Z</time>
      </trkpt>
      <trkpt lat="43.98896" lon="1.91231">
        <ele>228.2</ele>
        <time>2022-09-01T18:43:04Z</time>
      </trkpt>
      <trkpt lat="43.98897" lon="1.91227">
        <ele>228.8</ele>
        <time>2022-09-01T18:43:05Z</time>
      </trkpt>
      <trkpt lat="43.98897" lon="1.91223">
        <ele>228.8</ele>
        <time>2022-09-01T18:43:06Z</time>
      </trkpt>
      <trkpt lat="43.98898" lon="1.9122">
        <ele>229</ele>
        <time>2022-09-01T18:43:07Z</time>
      </trkpt>
      <trkpt lat="43.98898" lon="1.91217">
        <ele>229</ele>
        <time>2022-09-01T18:43:08Z</time>
      </trkpt>
      <trkpt lat="43.98898" lon="1.91214">
        <ele>229.6</ele>
        <time>2022-09-01T18:43:09Z</time>
      </trkpt>
      <trkpt lat="43.98898" lon="1.91212">
        <ele>229.8</ele>
        <time>2022-09-01T18:43:10Z</time>
      </trkpt>
      <trkpt lat="43.98898" lon="1.91209">
        <ele>230.2</ele>
        <time>2022-09-01T18:43:11Z</time>
      </trkpt>
      <trkpt lat="43.98898" lon="1.91207">
        <ele>230.8</ele>
        <time>2022-09-01T18:43:12Z</time>
      </trkpt>
      <trkpt lat="43.98898" lon="1.91206">
        <ele>231</ele>
        <time>2022-09-01T18:43:13Z</time>
      </trkpt>
      <trkpt lat="43.98899" lon="1.91205">
        <ele>231.4</ele>
        <time>2022-09-01T18:43:14Z</time>
      </trkpt>
      <trkpt lat="43.98899" lon="1.91201">
        <ele>232</ele>
        <time>2022-09-01T18:43:38Z</time>
      </trkpt>
      <trkpt lat="43.989" lon="1.91198">
        <ele>232</ele>
        <time>2022-09-01T18:43:39Z</time>
      </trkpt>
      <trkpt lat="43.98901" lon="1.91193">
        <ele>232.2</ele>
        <time>2022-09-01T18:43:41Z</time>
      </trkpt>
      <trkpt lat="43.98909" lon="1.91181">
        <ele>232.4</ele>
        <time>2022-09-01T18:43:46Z</time>
      </trkpt>
      <trkpt lat="43.9891" lon="1.9118">
        <ele>232.6</ele>
        <time>2022-09-01T18:43:47Z</time>
      </trkpt>
      <trkpt lat="43.98912" lon="1.9118">
        <ele>232.6</ele>
        <time>2022-09-01T18:43:48Z</time>
      </trkpt>
      <trkpt lat="43.98914" lon="1.91179">
        <ele>232.8</ele>
        <time>2022-09-01T18:43:49Z</time>
      </trkpt>
      <trkpt lat="43.98917" lon="1.91179">
        <ele>232.8</ele>
        <time>2022-09-01T18:43:50Z</time>
      </trkpt>
      <trkpt lat="43.9892" lon="1.91178">
        <ele>233</ele>
        <time>2022-09-01T18:43:51Z</time>
      </trkpt>
      <trkpt lat="43.98925" lon="1.91178">
        <ele>233.2</ele>
        <time>2022-09-01T18:43:53Z</time>
      </trkpt>
      <trkpt lat="43.98927" lon="1.91177">
        <ele>233.4</ele>
        <time>2022-09-01T18:43:54Z</time>
      </trkpt>
      <trkpt lat="43.98933" lon="1.91176">
        <ele>233.6</ele>
        <time>2022-09-01T18:43:56Z</time>
      </trkpt>
      <trkpt lat="43.98941" lon="1.91175">
        <ele>234.2</ele>
        <time>2022-09-01T18:43:59Z</time>
      </trkpt>
      <trkpt lat="43.98946" lon="1.91173">
        <ele>234.6</ele>
        <time>2022-09-01T18:44:01Z</time>
      </trkpt>
      <trkpt lat="43.98948" lon="1.9117">
        <ele>235</ele>
        <time>2022-09-01T18:44:02Z</time>
      </trkpt>
      <trkpt lat="43.98948" lon="1.91168">
        <ele>235</ele>
        <time>2022-09-01T18:44:03Z</time>
      </trkpt>
      <trkpt lat="43.98949" lon="1.91164">
        <ele>235.2</ele>
        <time>2022-09-01T18:44:04Z</time>
      </trkpt>
      <trkpt lat="43.98949" lon="1.91161">
        <ele>235.4</ele>
        <time>2022-09-01T18:44:05Z</time>
      </trkpt>
      <trkpt lat="43.98949" lon="1.91159">
        <ele>235.6</ele>
        <time>2022-09-01T18:44:06Z</time>
      </trkpt>
      <trkpt lat="43.9895" lon="1.91156">
        <ele>236</ele>
        <time>2022-09-01T18:44:07Z</time>
      </trkpt>
      <trkpt lat="43.9895" lon="1.91154">
        <ele>236.2</ele>
        <time>2022-09-01T18:44:08Z</time>
      </trkpt>
      <trkpt lat="43.98951" lon="1.9115">
        <ele>236.4</ele>
        <time>2022-09-01T18:44:09Z</time>
      </trkpt>
      <trkpt lat="43.98951" lon="1.91147">
        <ele>236.6</ele>
        <time>2022-09-01T18:44:10Z</time>
      </trkpt>
      <trkpt lat="43.98952" lon="1.91144">
        <ele>237</ele>
        <time>2022-09-01T18:44:11Z</time>
      </trkpt>
      <trkpt lat="43.98953" lon="1.91142">
        <ele>237</ele>
        <time>2022-09-01T18:44:12Z</time>
      </trkpt>
      <trkpt lat="43.98954" lon="1.91139">
        <ele>237.2</ele>
        <time>2022-09-01T18:44:13Z</time>
      </trkpt>
      <trkpt lat="43.98955" lon="1.91135">
        <ele>237.4</ele>
        <time>2022-09-01T18:44:14Z</time>
      </trkpt>
      <trkpt lat="43.98956" lon="1.91131">
        <ele>237.4</ele>
        <time>2022-09-01T18:44:15Z</time>
      </trkpt>
      <trkpt lat="43.98956" lon="1.91128">
        <ele>237.4</ele>
        <time>2022-09-01T18:44:16Z</time>
      </trkpt>
      <trkpt lat="43.98957" lon="1.91125">
        <ele>237.6</ele>
        <time>2022-09-01T18:44:17Z</time>
      </trkpt>
      <trkpt lat="43.98958" lon="1.9112">
        <ele>237.6</ele>
        <time>2022-09-01T18:44:18Z</time>
      </trkpt>
      <trkpt lat="43.98959" lon="1.91116">
        <ele>237.6</ele>
        <time>2022-09-01T18:44:19Z</time>
      </trkpt>
      <trkpt lat="43.9896" lon="1.91112">
        <ele>237.6</ele>
        <time>2022-09-01T18:44:20Z</time>
      </trkpt>
      <trkpt lat="43.98962" lon="1.91108">
        <ele>237.6</ele>
        <time>2022-09-01T18:44:21Z</time>
      </trkpt>
      <trkpt lat="43.98963" lon="1.91105">
        <ele>237.6</ele>
        <time>2022-09-01T18:44:22Z</time>
      </trkpt>
      <trkpt lat="43.98964" lon="1.91101">
        <ele>237.6</ele>
        <time>2022-09-01T18:44:23Z</time>
      </trkpt>
      <trkpt lat="43.98965" lon="1.91097">
        <ele>237.4</ele>
        <time>2022-09-01T18:44:24Z</time>
      </trkpt>
      <trkpt lat="43.98966" lon="1.91093">
        <ele>237.4</ele>
        <time>2022-09-01T18:44:25Z</time>
      </trkpt>
      <trkpt lat="43.98967" lon="1.9109">
        <ele>237.6</ele>
        <time>2022-09-01T18:44:26Z</time>
      </trkpt>
      <trkpt lat="43.98969" lon="1.91085">
        <ele>237.4</ele>
        <time>2022-09-01T18:44:27Z</time>
      </trkpt>
      <trkpt lat="43.9897" lon="1.91081">
        <ele>237.6</ele>
        <time>2022-09-01T18:44:28Z</time>
      </trkpt>
      <trkpt lat="43.98971" lon="1.91077">
        <ele>237.6</ele>
        <time>2022-09-01T18:44:29Z</time>
      </trkpt>
      <trkpt lat="43.98972" lon="1.91074">
        <ele>237.6</ele>
        <time>2022-09-01T18:44:30Z</time>
      </trkpt>
      <trkpt lat="43.98973" lon="1.9107">
        <ele>237.8</ele>
        <time>2022-09-01T18:44:31Z</time>
      </trkpt>
      <trkpt lat="43.98975" lon="1.91065">
        <ele>237.8</ele>
        <time>2022-09-01T18:44:32Z</time>
      </trkpt>
      <trkpt lat="43.98979" lon="1.91052">
        <ele>237.8</ele>
        <time>2022-09-01T18:44:35Z</time>
      </trkpt>
      <trkpt lat="43.98989" lon="1.91025">
        <ele>238.4</ele>
        <time>2022-09-01T18:44:41Z</time>
      </trkpt>
      <trkpt lat="43.98992" lon="1.91014">
        <ele>238.4</ele>
        <time>2022-09-01T18:44:43Z</time>
      </trkpt>
      <trkpt lat="43.99003" lon="1.9098">
        <ele>238.4</ele>
        <time>2022-09-01T18:44:49Z</time>
      </trkpt>
      <trkpt lat="43.99005" lon="1.90974">
        <ele>238.4</ele>
        <time>2022-09-01T18:44:50Z</time>
      </trkpt>
      <trkpt lat="43.99007" lon="1.90969">
        <ele>238.4</ele>
        <time>2022-09-01T18:44:51Z</time>
      </trkpt>
      <trkpt lat="43.99008" lon="1.90963">
        <ele>238.2</ele>
        <time>2022-09-01T18:44:52Z</time>
      </trkpt>
      <trkpt lat="43.9901" lon="1.90957">
        <ele>238</ele>
        <time>2022-09-01T18:44:53Z</time>
      </trkpt>
      <trkpt lat="43.99011" lon="1.90953">
        <ele>238</ele>
        <time>2022-09-01T18:44:54Z</time>
      </trkpt>
      <trkpt lat="43.99012" lon="1.90946">
        <ele>237.8</ele>
        <time>2022-09-01T18:44:55Z</time>
      </trkpt>
      <trkpt lat="43.99015" lon="1.90934">
        <ele>237.8</ele>
        <time>2022-09-01T18:44:57Z</time>
      </trkpt>
      <trkpt lat="43.99015" lon="1.9093">
        <ele>237.8</ele>
        <time>2022-09-01T18:44:58Z</time>
      </trkpt>
      <trkpt lat="43.99017" lon="1.90923">
        <ele>237.8</ele>
        <time>2022-09-01T18:44:59Z</time>
      </trkpt>
      <trkpt lat="43.99018" lon="1.90918">
        <ele>237.8</ele>
        <time>2022-09-01T18:45:00Z</time>
      </trkpt>
      <trkpt lat="43.99019" lon="1.90906">
        <ele>238</ele>
        <time>2022-09-01T18:45:02Z</time>
      </trkpt>
      <trkpt lat="43.9902" lon="1.90902">
        <ele>238</ele>
        <time>2022-09-01T18:45:03Z</time>
      </trkpt>
      <trkpt lat="43.99021" lon="1.90895">
        <ele>238</ele>
        <time>2022-09-01T18:45:04Z</time>
      </trkpt>
      <trkpt lat="43.99021" lon="1.90889">
        <ele>238.2</ele>
        <time>2022-09-01T18:45:05Z</time>
      </trkpt>
      <trkpt lat="43.99019" lon="1.9084">
        <ele>238.2</ele>
        <time>2022-09-01T18:45:13Z</time>
      </trkpt>
      <trkpt lat="43.99018" lon="1.90834">
        <ele>238.2</ele>
        <time>2022-09-01T18:45:14Z</time>
      </trkpt>
      <trkpt lat="43.99016" lon="1.90822">
        <ele>238.2</ele>
        <time>2022-09-01T18:45:16Z</time>
      </trkpt>
      <trkpt lat="43.99015" lon="1.90816">
        <ele>238.4</ele>
        <time>2022-09-01T18:45:17Z</time>
      </trkpt>
      <trkpt lat="43.99015" lon="1.9081">
        <ele>238.4</ele>
        <time>2022-09-01T18:45:18Z</time>
      </trkpt>
      <trkpt lat="43.99013" lon="1.90791">
        <ele>238.4</ele>
        <time>2022-09-01T18:45:21Z</time>
      </trkpt>
      <trkpt lat="43.99013" lon="1.90785">
        <ele>238.4</ele>
        <time>2022-09-01T18:45:22Z</time>
      </trkpt>
      <trkpt lat="43.99015" lon="1.90768">
        <ele>238.2</ele>
        <time>2022-09-01T18:45:24Z</time>
      </trkpt>
      <trkpt lat="43.99019" lon="1.90759">
        <ele>238</ele>
        <time>2022-09-01T18:45:25Z</time>
      </trkpt>
      <trkpt lat="43.99022" lon="1.90754">
        <ele>238</ele>
        <time>2022-09-01T18:45:26Z</time>
      </trkpt>
      <trkpt lat="43.99026" lon="1.90748">
        <ele>237.6</ele>
        <time>2022-09-01T18:45:27Z</time>
      </trkpt>
      <trkpt lat="43.9903" lon="1.90741">
        <ele>237.6</ele>
        <time>2022-09-01T18:45:28Z</time>
      </trkpt>
      <trkpt lat="43.99032" lon="1.90736">
        <ele>237.2</ele>
        <time>2022-09-01T18:45:29Z</time>
      </trkpt>
      <trkpt lat="43.99036" lon="1.9073">
        <ele>236.6</ele>
        <time>2022-09-01T18:45:30Z</time>
      </trkpt>
      <trkpt lat="43.99038" lon="1.90726">
        <ele>236.4</ele>
        <time>2022-09-01T18:45:31Z</time>
      </trkpt>
      <trkpt lat="43.99041" lon="1.90721">
        <ele>236</ele>
        <time>2022-09-01T18:45:32Z</time>
      </trkpt>
      <trkpt lat="43.99043" lon="1.90717">
        <ele>236</ele>
        <time>2022-09-01T18:45:33Z</time>
      </trkpt>
      <trkpt lat="43.99044" lon="1.90713">
        <ele>235.8</ele>
        <time>2022-09-01T18:45:34Z</time>
      </trkpt>
      <trkpt lat="43.99044" lon="1.90708">
        <ele>235.8</ele>
        <time>2022-09-01T18:45:35Z</time>
      </trkpt>
      <trkpt lat="43.99042" lon="1.90705">
        <ele>235.8</ele>
        <time>2022-09-01T18:45:36Z</time>
      </trkpt>
      <trkpt lat="43.9904" lon="1.90702">
        <ele>235.8</ele>
        <time>2022-09-01T18:45:37Z</time>
      </trkpt>
      <trkpt lat="43.99037" lon="1.907">
        <ele>235.8</ele>
        <time>2022-09-01T18:45:38Z</time>
      </trkpt>
      <trkpt lat="43.99034" lon="1.90698">
        <ele>235.8</ele>
        <time>2022-09-01T18:45:39Z</time>
      </trkpt>
      <trkpt lat="43.99032" lon="1.90697">
        <ele>235.6</ele>
        <time>2022-09-01T18:45:40Z</time>
      </trkpt>
      <trkpt lat="43.9903" lon="1.90696">
        <ele>235.6</ele>
        <time>2022-09-01T18:45:41Z</time>
      </trkpt>
      <trkpt lat="43.99028" lon="1.90695">
        <ele>235.6</ele>
        <time>2022-09-01T18:45:42Z</time>
      </trkpt>
      <trkpt lat="43.99026" lon="1.90695">
        <ele>235.6</ele>
        <time>2022-09-01T18:45:43Z</time>
      </trkpt>
      <trkpt lat="43.99024" lon="1.90695">
        <ele>235.4</ele>
        <time>2022-09-01T18:45:44Z</time>
      </trkpt>
      <trkpt lat="43.99023" lon="1.90695">
        <ele>235.2</ele>
        <time>2022-09-01T18:45:45Z</time>
      </trkpt>
      <trkpt lat="43.99022" lon="1.90694">
        <ele>235.2</ele>
        <time>2022-09-01T18:45:46Z</time>
      </trkpt>
      <trkpt lat="43.9902" lon="1.90693">
        <ele>235.2</ele>
        <time>2022-09-01T18:45:47Z</time>
      </trkpt>
      <trkpt lat="43.99019" lon="1.90692">
        <ele>235</ele>
        <time>2022-09-01T18:45:48Z</time>
      </trkpt>
      <trkpt lat="43.99006" lon="1.90687">
        <ele>234.4</ele>
        <time>2022-09-01T18:45:54Z</time>
      </trkpt>
      <trkpt lat="43.99005" lon="1.90687">
        <ele>234.2</ele>
        <time>2022-09-01T18:45:55Z</time>
      </trkpt>
      <trkpt lat="43.99003" lon="1.90686">
        <ele>234</ele>
        <time>2022-09-01T18:45:56Z</time>
      </trkpt>
      <trkpt lat="43.99001" lon="1.90686">
        <ele>233.6</ele>
        <time>2022-09-01T18:45:57Z</time>
      </trkpt>
      <trkpt lat="43.99" lon="1.90686">
        <ele>233.4</ele>
        <time>2022-09-01T18:45:58Z</time>
      </trkpt>
      <trkpt lat="43.98999" lon="1.90686">
        <ele>233.2</ele>
        <time>2022-09-01T18:45:59Z</time>
      </trkpt>
      <trkpt lat="43.98996" lon="1.90684">
        <ele>232.4</ele>
        <time>2022-09-01T18:46:38Z</time>
      </trkpt>
      <trkpt lat="43.98975" lon="1.90676">
        <ele>232.2</ele>
        <time>2022-09-01T18:46:43Z</time>
      </trkpt>
      <trkpt lat="43.98942" lon="1.90662">
        <ele>231.6</ele>
        <time>2022-09-01T18:46:49Z</time>
      </trkpt>
      <trkpt lat="43.98936" lon="1.90659">
        <ele>231</ele>
        <time>2022-09-01T18:46:50Z</time>
      </trkpt>
      <trkpt lat="43.98904" lon="1.90645">
        <ele>230</ele>
        <time>2022-09-01T18:46:55Z</time>
      </trkpt>
      <trkpt lat="43.98893" lon="1.9064">
        <ele>229.2</ele>
        <time>2022-09-01T18:46:57Z</time>
      </trkpt>
      <trkpt lat="43.98887" lon="1.90638">
        <ele>229</ele>
        <time>2022-09-01T18:46:58Z</time>
      </trkpt>
      <trkpt lat="43.98875" lon="1.90633">
        <ele>228.4</ele>
        <time>2022-09-01T18:47:00Z</time>
      </trkpt>
      <trkpt lat="43.98868" lon="1.9063">
        <ele>228.2</ele>
        <time>2022-09-01T18:47:01Z</time>
      </trkpt>
      <trkpt lat="43.98863" lon="1.90628">
        <ele>228.2</ele>
        <time>2022-09-01T18:47:02Z</time>
      </trkpt>
      <trkpt lat="43.98857" lon="1.90625">
        <ele>228</ele>
        <time>2022-09-01T18:47:03Z</time>
      </trkpt>
      <trkpt lat="43.98845" lon="1.90619">
        <ele>227.4</ele>
        <time>2022-09-01T18:47:05Z</time>
      </trkpt>
      <trkpt lat="43.9884" lon="1.90617">
        <ele>227.4</ele>
        <time>2022-09-01T18:47:06Z</time>
      </trkpt>
      <trkpt lat="43.98834" lon="1.90615">
        <ele>227.2</ele>
        <time>2022-09-01T18:47:07Z</time>
      </trkpt>
      <trkpt lat="43.98828" lon="1.90613">
        <ele>227.2</ele>
        <time>2022-09-01T18:47:08Z</time>
      </trkpt>
      <trkpt lat="43.98817" lon="1.90608">
        <ele>226.8</ele>
        <time>2022-09-01T18:47:10Z</time>
      </trkpt>
      <trkpt lat="43.98812" lon="1.90606">
        <ele>226.6</ele>
        <time>2022-09-01T18:47:11Z</time>
      </trkpt>
      <trkpt lat="43.98806" lon="1.90603">
        <ele>226.4</ele>
        <time>2022-09-01T18:47:12Z</time>
      </trkpt>
      <trkpt lat="43.98788" lon="1.90596">
        <ele>225.8</ele>
        <time>2022-09-01T18:47:15Z</time>
      </trkpt>
      <trkpt lat="43.98784" lon="1.90593">
        <ele>225.6</ele>
        <time>2022-09-01T18:47:16Z</time>
      </trkpt>
      <trkpt lat="43.98779" lon="1.9059">
        <ele>225.2</ele>
        <time>2022-09-01T18:47:17Z</time>
      </trkpt>
      <trkpt lat="43.98769" lon="1.90581">
        <ele>225</ele>
        <time>2022-09-01T18:47:19Z</time>
      </trkpt>
      <trkpt lat="43.98764" lon="1.90575">
        <ele>224.8</ele>
        <time>2022-09-01T18:47:20Z</time>
      </trkpt>
      <trkpt lat="43.98761" lon="1.90569">
        <ele>224.6</ele>
        <time>2022-09-01T18:47:21Z</time>
      </trkpt>
      <trkpt lat="43.98758" lon="1.9056">
        <ele>224.6</ele>
        <time>2022-09-01T18:47:22Z</time>
      </trkpt>
      <trkpt lat="43.98756" lon="1.90553">
        <ele>224.4</ele>
        <time>2022-09-01T18:47:23Z</time>
      </trkpt>
      <trkpt lat="43.98756" lon="1.90548">
        <ele>224.2</ele>
        <time>2022-09-01T18:47:24Z</time>
      </trkpt>
      <trkpt lat="43.98755" lon="1.90541">
        <ele>224.2</ele>
        <time>2022-09-01T18:47:25Z</time>
      </trkpt>
      <trkpt lat="43.98755" lon="1.90533">
        <ele>223.8</ele>
        <time>2022-09-01T18:47:26Z</time>
      </trkpt>
      <trkpt lat="43.98755" lon="1.90522">
        <ele>223.4</ele>
        <time>2022-09-01T18:47:27Z</time>
      </trkpt>
      <trkpt lat="43.98753" lon="1.90487">
        <ele>222.4</ele>
        <time>2022-09-01T18:47:31Z</time>
      </trkpt>
      <trkpt lat="43.9875" lon="1.90478">
        <ele>222.2</ele>
        <time>2022-09-01T18:47:32Z</time>
      </trkpt>
      <trkpt lat="43.98734" lon="1.90444">
        <ele>221</ele>
        <time>2022-09-01T18:47:36Z</time>
      </trkpt>
      <trkpt lat="43.98729" lon="1.90435">
        <ele>220.8</ele>
        <time>2022-09-01T18:47:37Z</time>
      </trkpt>
      <trkpt lat="43.98726" lon="1.90429">
        <ele>220.4</ele>
        <time>2022-09-01T18:47:38Z</time>
      </trkpt>
      <trkpt lat="43.98722" lon="1.90421">
        <ele>219.8</ele>
        <time>2022-09-01T18:47:39Z</time>
      </trkpt>
      <trkpt lat="43.98717" lon="1.90412">
        <ele>218.8</ele>
        <time>2022-09-01T18:47:40Z</time>
      </trkpt>
      <trkpt lat="43.98714" lon="1.90406">
        <ele>218.2</ele>
        <time>2022-09-01T18:47:41Z</time>
      </trkpt>
      <trkpt lat="43.98709" lon="1.90399">
        <ele>217.6</ele>
        <time>2022-09-01T18:47:42Z</time>
      </trkpt>
      <trkpt lat="43.98705" lon="1.90395">
        <ele>216.8</ele>
        <time>2022-09-01T18:47:43Z</time>
      </trkpt>
      <trkpt lat="43.987" lon="1.90391">
        <ele>216.4</ele>
        <time>2022-09-01T18:47:44Z</time>
      </trkpt>
      <trkpt lat="43.98684" lon="1.90387">
        <ele>215.2</ele>
        <time>2022-09-01T18:47:46Z</time>
      </trkpt>
      <trkpt lat="43.98678" lon="1.90386">
        <ele>214.6</ele>
        <time>2022-09-01T18:47:47Z</time>
      </trkpt>
      <trkpt lat="43.9867" lon="1.90386">
        <ele>214.2</ele>
        <time>2022-09-01T18:47:48Z</time>
      </trkpt>
      <trkpt lat="43.98661" lon="1.90387">
        <ele>213.6</ele>
        <time>2022-09-01T18:47:49Z</time>
      </trkpt>
      <trkpt lat="43.98645" lon="1.90387">
        <ele>212.6</ele>
        <time>2022-09-01T18:47:51Z</time>
      </trkpt>
      <trkpt lat="43.98639" lon="1.90388">
        <ele>211.4</ele>
        <time>2022-09-01T18:47:52Z</time>
      </trkpt>
      <trkpt lat="43.98631" lon="1.90388">
        <ele>211</ele>
        <time>2022-09-01T18:47:53Z</time>
      </trkpt>
      <trkpt lat="43.98622" lon="1.9039">
        <ele>210.6</ele>
        <time>2022-09-01T18:47:54Z</time>
      </trkpt>
      <trkpt lat="43.98617" lon="1.90391">
        <ele>210</ele>
        <time>2022-09-01T18:47:55Z</time>
      </trkpt>
      <trkpt lat="43.9861" lon="1.90394">
        <ele>209.2</ele>
        <time>2022-09-01T18:47:56Z</time>
      </trkpt>
      <trkpt lat="43.98604" lon="1.90399">
        <ele>208.8</ele>
        <time>2022-09-01T18:47:57Z</time>
      </trkpt>
      <trkpt lat="43.98598" lon="1.90405">
        <ele>208.4</ele>
        <time>2022-09-01T18:47:58Z</time>
      </trkpt>
      <trkpt lat="43.98592" lon="1.90412">
        <ele>207.4</ele>
        <time>2022-09-01T18:47:59Z</time>
      </trkpt>
      <trkpt lat="43.98587" lon="1.90421">
        <ele>206.8</ele>
        <time>2022-09-01T18:48:00Z</time>
      </trkpt>
      <trkpt lat="43.98583" lon="1.9043">
        <ele>206</ele>
        <time>2022-09-01T18:48:01Z</time>
      </trkpt>
      <trkpt lat="43.98579" lon="1.90441">
        <ele>205.6</ele>
        <time>2022-09-01T18:48:02Z</time>
      </trkpt>
      <trkpt lat="43.98574" lon="1.90455">
        <ele>204.8</ele>
        <time>2022-09-01T18:48:03Z</time>
      </trkpt>
      <trkpt lat="43.98571" lon="1.90463">
        <ele>204.4</ele>
        <time>2022-09-01T18:48:04Z</time>
      </trkpt>
      <trkpt lat="43.98567" lon="1.90475">
        <ele>203.8</ele>
        <time>2022-09-01T18:48:05Z</time>
      </trkpt>
      <trkpt lat="43.98565" lon="1.90487">
        <ele>203.4</ele>
        <time>2022-09-01T18:48:06Z</time>
      </trkpt>
      <trkpt lat="43.98564" lon="1.90499">
        <ele>203</ele>
        <time>2022-09-01T18:48:07Z</time>
      </trkpt>
      <trkpt lat="43.98563" lon="1.90523">
        <ele>202</ele>
        <time>2022-09-01T18:48:09Z</time>
      </trkpt>
      <trkpt lat="43.98562" lon="1.90534">
        <ele>201</ele>
        <time>2022-09-01T18:48:10Z</time>
      </trkpt>
      <trkpt lat="43.98561" lon="1.90545">
        <ele>200.6</ele>
        <time>2022-09-01T18:48:11Z</time>
      </trkpt>
      <trkpt lat="43.98558" lon="1.90553">
        <ele>199.6</ele>
        <time>2022-09-01T18:48:12Z</time>
      </trkpt>
      <trkpt lat="43.98552" lon="1.9056">
        <ele>198.2</ele>
        <time>2022-09-01T18:48:13Z</time>
      </trkpt>
      <trkpt lat="43.98545" lon="1.90563">
        <ele>198</ele>
        <time>2022-09-01T18:48:14Z</time>
      </trkpt>
      <trkpt lat="43.98538" lon="1.90564">
        <ele>196.8</ele>
        <time>2022-09-01T18:48:15Z</time>
      </trkpt>
      <trkpt lat="43.98532" lon="1.90563">
        <ele>196.6</ele>
        <time>2022-09-01T18:48:16Z</time>
      </trkpt>
      <trkpt lat="43.98526" lon="1.9056">
        <ele>195.8</ele>
        <time>2022-09-01T18:48:17Z</time>
      </trkpt>
      <trkpt lat="43.9852" lon="1.90554">
        <ele>195.4</ele>
        <time>2022-09-01T18:48:18Z</time>
      </trkpt>
      <trkpt lat="43.98514" lon="1.90548">
        <ele>195</ele>
        <time>2022-09-01T18:48:19Z</time>
      </trkpt>
      <trkpt lat="43.98508" lon="1.90542">
        <ele>194.6</ele>
        <time>2022-09-01T18:48:20Z</time>
      </trkpt>
      <trkpt lat="43.98502" lon="1.90536">
        <ele>194</ele>
        <time>2022-09-01T18:48:21Z</time>
      </trkpt>
      <trkpt lat="43.98497" lon="1.9053">
        <ele>193.4</ele>
        <time>2022-09-01T18:48:22Z</time>
      </trkpt>
      <trkpt lat="43.98492" lon="1.90525">
        <ele>193.2</ele>
        <time>2022-09-01T18:48:23Z</time>
      </trkpt>
      <trkpt lat="43.98488" lon="1.9052">
        <ele>192.6</ele>
        <time>2022-09-01T18:48:24Z</time>
      </trkpt>
      <trkpt lat="43.98487" lon="1.90515">
        <ele>192.4</ele>
        <time>2022-09-01T18:48:25Z</time>
      </trkpt>
      <trkpt lat="43.98485" lon="1.9051">
        <ele>192</ele>
        <time>2022-09-01T18:48:26Z</time>
      </trkpt>
      <trkpt lat="43.98485" lon="1.90505">
        <ele>191.8</ele>
        <time>2022-09-01T18:48:27Z</time>
      </trkpt>
      <trkpt lat="43.98486" lon="1.905">
        <ele>191.4</ele>
        <time>2022-09-01T18:48:28Z</time>
      </trkpt>
      <trkpt lat="43.98487" lon="1.90496">
        <ele>191.2</ele>
        <time>2022-09-01T18:48:29Z</time>
      </trkpt>
      <trkpt lat="43.98487" lon="1.90491">
        <ele>191</ele>
        <time>2022-09-01T18:48:30Z</time>
      </trkpt>
      <trkpt lat="43.98487" lon="1.90486">
        <ele>191</ele>
        <time>2022-09-01T18:48:31Z</time>
      </trkpt>
      <trkpt lat="43.98486" lon="1.90482">
        <ele>190.8</ele>
        <time>2022-09-01T18:48:32Z</time>
      </trkpt>
      <trkpt lat="43.98484" lon="1.90479">
        <ele>190.8</ele>
        <time>2022-09-01T18:48:33Z</time>
      </trkpt>
      <trkpt lat="43.98481" lon="1.90475">
        <ele>190.6</ele>
        <time>2022-09-01T18:48:34Z</time>
      </trkpt>
      <trkpt lat="43.98475" lon="1.90469">
        <ele>190.6</ele>
        <time>2022-09-01T18:48:36Z</time>
      </trkpt>
      <trkpt lat="43.98473" lon="1.90465">
        <ele>190.6</ele>
        <time>2022-09-01T18:48:37Z</time>
      </trkpt>
      <trkpt lat="43.98472" lon="1.90463">
        <ele>190.6</ele>
        <time>2022-09-01T18:48:38Z</time>
      </trkpt>
      <trkpt lat="43.98471" lon="1.90461">
        <ele>190.4</ele>
        <time>2022-09-01T18:48:39Z</time>
      </trkpt>
      <trkpt lat="43.98471" lon="1.9046">
        <ele>190.4</ele>
        <time>2022-09-01T18:48:40Z</time>
      </trkpt>
      <trkpt lat="43.9847" lon="1.9046">
        <ele>190.2</ele>
        <time>2022-09-01T18:48:41Z</time>
      </trkpt>
      <trkpt lat="43.98469" lon="1.9046">
        <ele>189.8</ele>
        <time>2022-09-01T18:48:42Z</time>
      </trkpt>
      <trkpt lat="43.98468" lon="1.90459">
        <ele>189.8</ele>
        <time>2022-09-01T18:48:43Z</time>
      </trkpt>
      <trkpt lat="43.98466" lon="1.90458">
        <ele>189.6</ele>
        <time>2022-09-01T18:48:44Z</time>
      </trkpt>
      <trkpt lat="43.98464" lon="1.90457">
        <ele>189.4</ele>
        <time>2022-09-01T18:48:45Z</time>
      </trkpt>
      <trkpt lat="43.98459" lon="1.90455">
        <ele>189.2</ele>
        <time>2022-09-01T18:48:47Z</time>
      </trkpt>
      <trkpt lat="43.98457" lon="1.90456">
        <ele>189.2</ele>
        <time>2022-09-01T18:48:48Z</time>
      </trkpt>
      <trkpt lat="43.98455" lon="1.90457">
        <ele>189.2</ele>
        <time>2022-09-01T18:48:49Z</time>
      </trkpt>
      <trkpt lat="43.98452" lon="1.90458">
        <ele>189.2</ele>
        <time>2022-09-01T18:48:50Z</time>
      </trkpt>
      <trkpt lat="43.98443" lon="1.9046">
        <ele>189.2</ele>
        <time>2022-09-01T18:48:53Z</time>
      </trkpt>
      <trkpt lat="43.9844" lon="1.90459">
        <ele>189.2</ele>
        <time>2022-09-01T18:48:54Z</time>
      </trkpt>
      <trkpt lat="43.98438" lon="1.90459">
        <ele>189.2</ele>
        <time>2022-09-01T18:48:55Z</time>
      </trkpt>
      <trkpt lat="43.98436" lon="1.90458">
        <ele>189.4</ele>
        <time>2022-09-01T18:48:56Z</time>
      </trkpt>
      <trkpt lat="43.98434" lon="1.90458">
        <ele>189.4</ele>
        <time>2022-09-01T18:48:57Z</time>
      </trkpt>
      <trkpt lat="43.98433" lon="1.90458">
        <ele>189.6</ele>
        <time>2022-09-01T18:48:58Z</time>
      </trkpt>
      <trkpt lat="43.98432" lon="1.90458">
        <ele>189.8</ele>
        <time>2022-09-01T18:48:59Z</time>
      </trkpt>
      <trkpt lat="43.98431" lon="1.90458">
        <ele>189.8</ele>
        <time>2022-09-01T18:49:00Z</time>
      </trkpt>
      <trkpt lat="43.9843" lon="1.90458">
        <ele>189.8</ele>
        <time>2022-09-01T18:49:01Z</time>
      </trkpt>
      <trkpt lat="43.98429" lon="1.90458">
        <ele>190</ele>
        <time>2022-09-01T18:49:02Z</time>
      </trkpt>
      <trkpt lat="43.98427" lon="1.90458">
        <ele>190</ele>
        <time>2022-09-01T18:49:03Z</time>
      </trkpt>
      <trkpt lat="43.98424" lon="1.90454">
        <ele>190</ele>
        <time>2022-09-01T18:49:05Z</time>
      </trkpt>
      <trkpt lat="43.98423" lon="1.90451">
        <ele>190</ele>
        <time>2022-09-01T18:49:06Z</time>
      </trkpt>
      <trkpt lat="43.98426" lon="1.90424">
        <ele>189.8</ele>
        <time>2022-09-01T18:49:12Z</time>
      </trkpt>
      <trkpt lat="43.98426" lon="1.9042">
        <ele>189.8</ele>
        <time>2022-09-01T18:49:13Z</time>
      </trkpt>
      <trkpt lat="43.98427" lon="1.90417">
        <ele>189.6</ele>
        <time>2022-09-01T18:49:14Z</time>
      </trkpt>
      <trkpt lat="43.98427" lon="1.90413">
        <ele>189.6</ele>
        <time>2022-09-01T18:49:15Z</time>
      </trkpt>
      <trkpt lat="43.98428" lon="1.90402">
        <ele>189.6</ele>
        <time>2022-09-01T18:49:18Z</time>
      </trkpt>
      <trkpt lat="43.98432" lon="1.90368">
        <ele>189.4</ele>
        <time>2022-09-01T18:49:25Z</time>
      </trkpt>
      <trkpt lat="43.98441" lon="1.90325">
        <ele>189.2</ele>
        <time>2022-09-01T18:49:32Z</time>
      </trkpt>
      <trkpt lat="43.98441" lon="1.90319">
        <ele>189.2</ele>
        <time>2022-09-01T18:49:33Z</time>
      </trkpt>
      <trkpt lat="43.98444" lon="1.90303">
        <ele>189.2</ele>
        <time>2022-09-01T18:49:36Z</time>
      </trkpt>
      <trkpt lat="43.98446" lon="1.90297">
        <ele>189.2</ele>
        <time>2022-09-01T18:49:37Z</time>
      </trkpt>
      <trkpt lat="43.98447" lon="1.90292">
        <ele>189.2</ele>
        <time>2022-09-01T18:49:38Z</time>
      </trkpt>
      <trkpt lat="43.98448" lon="1.90286">
        <ele>189.2</ele>
        <time>2022-09-01T18:49:39Z</time>
      </trkpt>
      <trkpt lat="43.9845" lon="1.90279">
        <ele>189</ele>
        <time>2022-09-01T18:49:40Z</time>
      </trkpt>
      <trkpt lat="43.98454" lon="1.90259">
        <ele>189</ele>
        <time>2022-09-01T18:49:43Z</time>
      </trkpt>
      <trkpt lat="43.98456" lon="1.90247">
        <ele>189</ele>
        <time>2022-09-01T18:49:45Z</time>
      </trkpt>
      <trkpt lat="43.98457" lon="1.9024">
        <ele>189</ele>
        <time>2022-09-01T18:49:46Z</time>
      </trkpt>
      <trkpt lat="43.98462" lon="1.90202">
        <ele>189</ele>
        <time>2022-09-01T18:49:52Z</time>
      </trkpt>
      <trkpt lat="43.98463" lon="1.90195">
        <ele>189</ele>
        <time>2022-09-01T18:49:53Z</time>
      </trkpt>
      <trkpt lat="43.98468" lon="1.90175">
        <ele>189</ele>
        <time>2022-09-01T18:49:56Z</time>
      </trkpt>
      <trkpt lat="43.98469" lon="1.90169">
        <ele>189</ele>
        <time>2022-09-01T18:49:57Z</time>
      </trkpt>
      <trkpt lat="43.98472" lon="1.90149">
        <ele>189</ele>
        <time>2022-09-01T18:50:00Z</time>
      </trkpt>
      <trkpt lat="43.9848" lon="1.90092">
        <ele>189</ele>
        <time>2022-09-01T18:50:08Z</time>
      </trkpt>
      <trkpt lat="43.9849" lon="1.90036">
        <ele>189</ele>
        <time>2022-09-01T18:50:15Z</time>
      </trkpt>
      <trkpt lat="43.98491" lon="1.9003">
        <ele>189</ele>
        <time>2022-09-01T18:50:16Z</time>
      </trkpt>
      <trkpt lat="43.98497" lon="1.90007">
        <ele>188.8</ele>
        <time>2022-09-01T18:50:19Z</time>
      </trkpt>
      <trkpt lat="43.98507" lon="1.89971">
        <ele>188.6</ele>
        <time>2022-09-01T18:50:24Z</time>
      </trkpt>
      <trkpt lat="43.98509" lon="1.89964">
        <ele>188.4</ele>
        <time>2022-09-01T18:50:25Z</time>
      </trkpt>
      <trkpt lat="43.98512" lon="1.89956">
        <ele>188.4</ele>
        <time>2022-09-01T18:50:26Z</time>
      </trkpt>
      <trkpt lat="43.98517" lon="1.89942">
        <ele>188.2</ele>
        <time>2022-09-01T18:50:28Z</time>
      </trkpt>
      <trkpt lat="43.9852" lon="1.89935">
        <ele>188.2</ele>
        <time>2022-09-01T18:50:29Z</time>
      </trkpt>
      <trkpt lat="43.98532" lon="1.89904">
        <ele>188.2</ele>
        <time>2022-09-01T18:50:33Z</time>
      </trkpt>
      <trkpt lat="43.98536" lon="1.89896">
        <ele>188.2</ele>
        <time>2022-09-01T18:50:34Z</time>
      </trkpt>
      <trkpt lat="43.98539" lon="1.89889">
        <ele>188.2</ele>
        <time>2022-09-01T18:50:35Z</time>
      </trkpt>
      <trkpt lat="43.98566" lon="1.8983">
        <ele>187.8</ele>
        <time>2022-09-01T18:50:43Z</time>
      </trkpt>
      <trkpt lat="43.98575" lon="1.8981">
        <ele>187.8</ele>
        <time>2022-09-01T18:50:45Z</time>
      </trkpt>
      <trkpt lat="43.98583" lon="1.89793">
        <ele>187.8</ele>
        <time>2022-09-01T18:50:47Z</time>
      </trkpt>
      <trkpt lat="43.98612" lon="1.89728">
        <ele>187.4</ele>
        <time>2022-09-01T18:50:53Z</time>
      </trkpt>
      <trkpt lat="43.98634" lon="1.89682">
        <ele>187.2</ele>
        <time>2022-09-01T18:50:57Z</time>
      </trkpt>
      <trkpt lat="43.9864" lon="1.8967">
        <ele>187</ele>
        <time>2022-09-01T18:50:58Z</time>
      </trkpt>
      <trkpt lat="43.98646" lon="1.89656">
        <ele>187</ele>
        <time>2022-09-01T18:50:59Z</time>
      </trkpt>
      <trkpt lat="43.98651" lon="1.89645">
        <ele>187</ele>
        <time>2022-09-01T18:51:00Z</time>
      </trkpt>
      <trkpt lat="43.98654" lon="1.89636">
        <ele>187</ele>
        <time>2022-09-01T18:51:01Z</time>
      </trkpt>
      <trkpt lat="43.98659" lon="1.89626">
        <ele>186.8</ele>
        <time>2022-09-01T18:51:02Z</time>
      </trkpt>
      <trkpt lat="43.98665" lon="1.89613">
        <ele>186.8</ele>
        <time>2022-09-01T18:51:03Z</time>
      </trkpt>
      <trkpt lat="43.98668" lon="1.89605">
        <ele>186.8</ele>
        <time>2022-09-01T18:51:04Z</time>
      </trkpt>
      <trkpt lat="43.98673" lon="1.89594">
        <ele>186.8</ele>
        <time>2022-09-01T18:51:05Z</time>
      </trkpt>
      <trkpt lat="43.98678" lon="1.89585">
        <ele>186.8</ele>
        <time>2022-09-01T18:51:06Z</time>
      </trkpt>
      <trkpt lat="43.98682" lon="1.89575">
        <ele>186.8</ele>
        <time>2022-09-01T18:51:07Z</time>
      </trkpt>
      <trkpt lat="43.98687" lon="1.89566">
        <ele>186.6</ele>
        <time>2022-09-01T18:51:08Z</time>
      </trkpt>
      <trkpt lat="43.98691" lon="1.89556">
        <ele>186.6</ele>
        <time>2022-09-01T18:51:09Z</time>
      </trkpt>
      <trkpt lat="43.98694" lon="1.89546">
        <ele>186.6</ele>
        <time>2022-09-01T18:51:10Z</time>
      </trkpt>
      <trkpt lat="43.98697" lon="1.89535">
        <ele>186.4</ele>
        <time>2022-09-01T18:51:11Z</time>
      </trkpt>
      <trkpt lat="43.98699" lon="1.89524">
        <ele>186.4</ele>
        <time>2022-09-01T18:51:12Z</time>
      </trkpt>
      <trkpt lat="43.98701" lon="1.895">
        <ele>186.4</ele>
        <time>2022-09-01T18:51:14Z</time>
      </trkpt>
      <trkpt lat="43.98703" lon="1.89445">
        <ele>186.2</ele>
        <time>2022-09-01T18:51:19Z</time>
      </trkpt>
      <trkpt lat="43.98704" lon="1.89425">
        <ele>186.2</ele>
        <time>2022-09-01T18:51:21Z</time>
      </trkpt>
      <trkpt lat="43.98705" lon="1.89415">
        <ele>186.2</ele>
        <time>2022-09-01T18:51:22Z</time>
      </trkpt>
      <trkpt lat="43.98706" lon="1.89402">
        <ele>186.2</ele>
        <time>2022-09-01T18:51:23Z</time>
      </trkpt>
      <trkpt lat="43.98706" lon="1.89391">
        <ele>186.2</ele>
        <time>2022-09-01T18:51:24Z</time>
      </trkpt>
      <trkpt lat="43.98707" lon="1.89381">
        <ele>186.2</ele>
        <time>2022-09-01T18:51:25Z</time>
      </trkpt>
      <trkpt lat="43.98711" lon="1.89349">
        <ele>186.2</ele>
        <time>2022-09-01T18:51:28Z</time>
      </trkpt>
      <trkpt lat="43.98712" lon="1.89339">
        <ele>186.2</ele>
        <time>2022-09-01T18:51:29Z</time>
      </trkpt>
      <trkpt lat="43.98714" lon="1.89331">
        <ele>186.2</ele>
        <time>2022-09-01T18:51:30Z</time>
      </trkpt>
      <trkpt lat="43.98715" lon="1.89321">
        <ele>186.2</ele>
        <time>2022-09-01T18:51:31Z</time>
      </trkpt>
      <trkpt lat="43.98716" lon="1.89312">
        <ele>186.2</ele>
        <time>2022-09-01T18:51:32Z</time>
      </trkpt>
      <trkpt lat="43.98718" lon="1.89303">
        <ele>186.2</ele>
        <time>2022-09-01T18:51:33Z</time>
      </trkpt>
      <trkpt lat="43.98719" lon="1.89294">
        <ele>186.2</ele>
        <time>2022-09-01T18:51:34Z</time>
      </trkpt>
      <trkpt lat="43.9872" lon="1.89285">
        <ele>186.2</ele>
        <time>2022-09-01T18:51:35Z</time>
      </trkpt>
      <trkpt lat="43.98722" lon="1.89278">
        <ele>186.2</ele>
        <time>2022-09-01T18:51:36Z</time>
      </trkpt>
      <trkpt lat="43.98723" lon="1.89271">
        <ele>186.2</ele>
        <time>2022-09-01T18:51:37Z</time>
      </trkpt>
      <trkpt lat="43.98724" lon="1.89264">
        <ele>186.2</ele>
        <time>2022-09-01T18:51:38Z</time>
      </trkpt>
      <trkpt lat="43.98725" lon="1.89257">
        <ele>186.2</ele>
        <time>2022-09-01T18:51:39Z</time>
      </trkpt>
      <trkpt lat="43.98726" lon="1.89251">
        <ele>186.2</ele>
        <time>2022-09-01T18:51:40Z</time>
      </trkpt>
      <trkpt lat="43.98727" lon="1.89244">
        <ele>186.2</ele>
        <time>2022-09-01T18:51:41Z</time>
      </trkpt>
      <trkpt lat="43.98728" lon="1.89238">
        <ele>186.2</ele>
        <time>2022-09-01T18:51:42Z</time>
      </trkpt>
      <trkpt lat="43.9873" lon="1.8923">
        <ele>186.2</ele>
        <time>2022-09-01T18:51:43Z</time>
      </trkpt>
      <trkpt lat="43.98733" lon="1.89208">
        <ele>186</ele>
        <time>2022-09-01T18:51:46Z</time>
      </trkpt>
      <trkpt lat="43.98734" lon="1.89201">
        <ele>186</ele>
        <time>2022-09-01T18:51:47Z</time>
      </trkpt>
      <trkpt lat="43.98735" lon="1.89193">
        <ele>185.8</ele>
        <time>2022-09-01T18:51:48Z</time>
      </trkpt>
      <trkpt lat="43.98737" lon="1.89186">
        <ele>185.8</ele>
        <time>2022-09-01T18:51:49Z</time>
      </trkpt>
      <trkpt lat="43.98738" lon="1.89179">
        <ele>185.8</ele>
        <time>2022-09-01T18:51:50Z</time>
      </trkpt>
      <trkpt lat="43.98739" lon="1.89172">
        <ele>185.8</ele>
        <time>2022-09-01T18:51:51Z</time>
      </trkpt>
      <trkpt lat="43.9874" lon="1.89165">
        <ele>185.8</ele>
        <time>2022-09-01T18:51:52Z</time>
      </trkpt>
      <trkpt lat="43.98741" lon="1.89158">
        <ele>185.8</ele>
        <time>2022-09-01T18:51:53Z</time>
      </trkpt>
      <trkpt lat="43.98742" lon="1.89152">
        <ele>185.8</ele>
        <time>2022-09-01T18:51:54Z</time>
      </trkpt>
      <trkpt lat="43.98745" lon="1.89129">
        <ele>185.8</ele>
        <time>2022-09-01T18:51:57Z</time>
      </trkpt>
      <trkpt lat="43.98746" lon="1.89124">
        <ele>185.8</ele>
        <time>2022-09-01T18:51:58Z</time>
      </trkpt>
      <trkpt lat="43.98748" lon="1.89117">
        <ele>185.8</ele>
        <time>2022-09-01T18:51:59Z</time>
      </trkpt>
      <trkpt lat="43.98749" lon="1.89111">
        <ele>185.8</ele>
        <time>2022-09-01T18:52:00Z</time>
      </trkpt>
      <trkpt lat="43.9875" lon="1.89104">
        <ele>185.8</ele>
        <time>2022-09-01T18:52:01Z</time>
      </trkpt>
      <trkpt lat="43.9875" lon="1.89098">
        <ele>185.8</ele>
        <time>2022-09-01T18:52:02Z</time>
      </trkpt>
      <trkpt lat="43.98755" lon="1.89064">
        <ele>185.8</ele>
        <time>2022-09-01T18:52:07Z</time>
      </trkpt>
      <trkpt lat="43.98755" lon="1.89059">
        <ele>185.8</ele>
        <time>2022-09-01T18:52:08Z</time>
      </trkpt>
      <trkpt lat="43.98753" lon="1.89053">
        <ele>185.6</ele>
        <time>2022-09-01T18:52:09Z</time>
      </trkpt>
      <trkpt lat="43.9875" lon="1.8905">
        <ele>185.8</ele>
        <time>2022-09-01T18:52:10Z</time>
      </trkpt>
      <trkpt lat="43.98747" lon="1.89048">
        <ele>185.8</ele>
        <time>2022-09-01T18:52:11Z</time>
      </trkpt>
      <trkpt lat="43.98743" lon="1.89047">
        <ele>185.6</ele>
        <time>2022-09-01T18:52:12Z</time>
      </trkpt>
      <trkpt lat="43.98735" lon="1.89044">
        <ele>185.8</ele>
        <time>2022-09-01T18:52:14Z</time>
      </trkpt>
      <trkpt lat="43.98731" lon="1.89043">
        <ele>185.6</ele>
        <time>2022-09-01T18:52:15Z</time>
      </trkpt>
      <trkpt lat="43.98711" lon="1.89038">
        <ele>185.4</ele>
        <time>2022-09-01T18:52:19Z</time>
      </trkpt>
      <trkpt lat="43.98684" lon="1.89031">
        <ele>185.4</ele>
        <time>2022-09-01T18:52:24Z</time>
      </trkpt>
      <trkpt lat="43.98668" lon="1.89027">
        <ele>185.4</ele>
        <time>2022-09-01T18:52:27Z</time>
      </trkpt>
      <trkpt lat="43.98652" lon="1.89022">
        <ele>185.4</ele>
        <time>2022-09-01T18:52:30Z</time>
      </trkpt>
      <trkpt lat="43.98642" lon="1.89019">
        <ele>185.8</ele>
        <time>2022-09-01T18:52:32Z</time>
      </trkpt>
      <trkpt lat="43.98637" lon="1.89018">
        <ele>185.8</ele>
        <time>2022-09-01T18:52:33Z</time>
      </trkpt>
      <trkpt lat="43.98632" lon="1.89016">
        <ele>186</ele>
        <time>2022-09-01T18:52:34Z</time>
      </trkpt>
      <trkpt lat="43.98628" lon="1.89015">
        <ele>186</ele>
        <time>2022-09-01T18:52:35Z</time>
      </trkpt>
      <trkpt lat="43.98624" lon="1.89013">
        <ele>186</ele>
        <time>2022-09-01T18:52:36Z</time>
      </trkpt>
      <trkpt lat="43.9862" lon="1.89012">
        <ele>186.2</ele>
        <time>2022-09-01T18:52:37Z</time>
      </trkpt>
      <trkpt lat="43.98617" lon="1.89011">
        <ele>186.2</ele>
        <time>2022-09-01T18:52:38Z</time>
      </trkpt>
      <trkpt lat="43.98613" lon="1.8901">
        <ele>186.4</ele>
        <time>2022-09-01T18:52:39Z</time>
      </trkpt>
      <trkpt lat="43.9861" lon="1.89009">
        <ele>186.6</ele>
        <time>2022-09-01T18:52:40Z</time>
      </trkpt>
      <trkpt lat="43.98607" lon="1.89009">
        <ele>186.8</ele>
        <time>2022-09-01T18:52:41Z</time>
      </trkpt>
      <trkpt lat="43.98605" lon="1.89008">
        <ele>186.8</ele>
        <time>2022-09-01T18:52:42Z</time>
      </trkpt>
      <trkpt lat="43.98602" lon="1.89008">
        <ele>187.2</ele>
        <time>2022-09-01T18:52:43Z</time>
      </trkpt>
      <trkpt lat="43.98599" lon="1.89007">
        <ele>187.4</ele>
        <time>2022-09-01T18:52:44Z</time>
      </trkpt>
      <trkpt lat="43.98597" lon="1.89006">
        <ele>187.6</ele>
        <time>2022-09-01T18:52:45Z</time>
      </trkpt>
      <trkpt lat="43.98594" lon="1.89005">
        <ele>188</ele>
        <time>2022-09-01T18:52:46Z</time>
      </trkpt>
      <trkpt lat="43.98592" lon="1.89004">
        <ele>188.2</ele>
        <time>2022-09-01T18:52:47Z</time>
      </trkpt>
      <trkpt lat="43.9859" lon="1.89003">
        <ele>188.4</ele>
        <time>2022-09-01T18:52:48Z</time>
      </trkpt>
      <trkpt lat="43.98587" lon="1.89001">
        <ele>188.6</ele>
        <time>2022-09-01T18:52:49Z</time>
      </trkpt>
      <trkpt lat="43.98585" lon="1.89">
        <ele>189</ele>
        <time>2022-09-01T18:52:50Z</time>
      </trkpt>
      <trkpt lat="43.98583" lon="1.88999">
        <ele>189.6</ele>
        <time>2022-09-01T18:52:51Z</time>
      </trkpt>
      <trkpt lat="43.98581" lon="1.88997">
        <ele>189.8</ele>
        <time>2022-09-01T18:52:52Z</time>
      </trkpt>
      <trkpt lat="43.98578" lon="1.88996">
        <ele>190.2</ele>
        <time>2022-09-01T18:52:53Z</time>
      </trkpt>
      <trkpt lat="43.98576" lon="1.88995">
        <ele>190.2</ele>
        <time>2022-09-01T18:52:54Z</time>
      </trkpt>
      <trkpt lat="43.98574" lon="1.88993">
        <ele>190.6</ele>
        <time>2022-09-01T18:52:55Z</time>
      </trkpt>
      <trkpt lat="43.98573" lon="1.88992">
        <ele>190.8</ele>
        <time>2022-09-01T18:52:56Z</time>
      </trkpt>
      <trkpt lat="43.98571" lon="1.88991">
        <ele>191.2</ele>
        <time>2022-09-01T18:52:57Z</time>
      </trkpt>
      <trkpt lat="43.98568" lon="1.88991">
        <ele>191.2</ele>
        <time>2022-09-01T18:52:58Z</time>
      </trkpt>
      <trkpt lat="43.98566" lon="1.8899">
        <ele>191.8</ele>
        <time>2022-09-01T18:52:59Z</time>
      </trkpt>
      <trkpt lat="43.98564" lon="1.8899">
        <ele>192.2</ele>
        <time>2022-09-01T18:53:00Z</time>
      </trkpt>
      <trkpt lat="43.98562" lon="1.88989">
        <ele>192.4</ele>
        <time>2022-09-01T18:53:01Z</time>
      </trkpt>
      <trkpt lat="43.98561" lon="1.88988">
        <ele>192.8</ele>
        <time>2022-09-01T18:53:02Z</time>
      </trkpt>
      <trkpt lat="43.98559" lon="1.88988">
        <ele>192.8</ele>
        <time>2022-09-01T18:53:03Z</time>
      </trkpt>
      <trkpt lat="43.98558" lon="1.88987">
        <ele>193</ele>
        <time>2022-09-01T18:53:04Z</time>
      </trkpt>
      <trkpt lat="43.98556" lon="1.88986">
        <ele>193.2</ele>
        <time>2022-09-01T18:53:05Z</time>
      </trkpt>
      <trkpt lat="43.98554" lon="1.88986">
        <ele>193.4</ele>
        <time>2022-09-01T18:53:06Z</time>
      </trkpt>
      <trkpt lat="43.98553" lon="1.88985">
        <ele>193.6</ele>
        <time>2022-09-01T18:53:07Z</time>
      </trkpt>
      <trkpt lat="43.9855" lon="1.88984">
        <ele>193.8</ele>
        <time>2022-09-01T18:53:08Z</time>
      </trkpt>
      <trkpt lat="43.98549" lon="1.88983">
        <ele>194.2</ele>
        <time>2022-09-01T18:53:09Z</time>
      </trkpt>
      <trkpt lat="43.98547" lon="1.88982">
        <ele>194.2</ele>
        <time>2022-09-01T18:53:10Z</time>
      </trkpt>
      <trkpt lat="43.98545" lon="1.88982">
        <ele>194.4</ele>
        <time>2022-09-01T18:53:11Z</time>
      </trkpt>
      <trkpt lat="43.98543" lon="1.88981">
        <ele>194.6</ele>
        <time>2022-09-01T18:53:12Z</time>
      </trkpt>
      <trkpt lat="43.98541" lon="1.88981">
        <ele>194.8</ele>
        <time>2022-09-01T18:53:13Z</time>
      </trkpt>
      <trkpt lat="43.9854" lon="1.8898">
        <ele>195</ele>
        <time>2022-09-01T18:53:14Z</time>
      </trkpt>
      <trkpt lat="43.98538" lon="1.88979">
        <ele>195.4</ele>
        <time>2022-09-01T18:53:15Z</time>
      </trkpt>
      <trkpt lat="43.98535" lon="1.88978">
        <ele>195.6</ele>
        <time>2022-09-01T18:53:16Z</time>
      </trkpt>
      <trkpt lat="43.98533" lon="1.88978">
        <ele>195.8</ele>
        <time>2022-09-01T18:53:17Z</time>
      </trkpt>
      <trkpt lat="43.98531" lon="1.88977">
        <ele>196</ele>
        <time>2022-09-01T18:53:18Z</time>
      </trkpt>
      <trkpt lat="43.98529" lon="1.88976">
        <ele>196.2</ele>
        <time>2022-09-01T18:53:19Z</time>
      </trkpt>
      <trkpt lat="43.98528" lon="1.88976">
        <ele>196.4</ele>
        <time>2022-09-01T18:53:20Z</time>
      </trkpt>
      <trkpt lat="43.98526" lon="1.88975">
        <ele>196.4</ele>
        <time>2022-09-01T18:53:21Z</time>
      </trkpt>
      <trkpt lat="43.98525" lon="1.88973">
        <ele>196.8</ele>
        <time>2022-09-01T18:53:22Z</time>
      </trkpt>
      <trkpt lat="43.98523" lon="1.88972">
        <ele>197.2</ele>
        <time>2022-09-01T18:53:23Z</time>
      </trkpt>
      <trkpt lat="43.98521" lon="1.88971">
        <ele>197.2</ele>
        <time>2022-09-01T18:53:24Z</time>
      </trkpt>
      <trkpt lat="43.98519" lon="1.88971">
        <ele>197.4</ele>
        <time>2022-09-01T18:53:25Z</time>
      </trkpt>
      <trkpt lat="43.98517" lon="1.8897">
        <ele>197.6</ele>
        <time>2022-09-01T18:53:26Z</time>
      </trkpt>
      <trkpt lat="43.98515" lon="1.88969">
        <ele>198</ele>
        <time>2022-09-01T18:53:27Z</time>
      </trkpt>
      <trkpt lat="43.98512" lon="1.88969">
        <ele>198</ele>
        <time>2022-09-01T18:53:28Z</time>
      </trkpt>
      <trkpt lat="43.9851" lon="1.88968">
        <ele>198.2</ele>
        <time>2022-09-01T18:53:29Z</time>
      </trkpt>
      <trkpt lat="43.98508" lon="1.88967">
        <ele>198.2</ele>
        <time>2022-09-01T18:53:30Z</time>
      </trkpt>
      <trkpt lat="43.98506" lon="1.88966">
        <ele>198.2</ele>
        <time>2022-09-01T18:53:31Z</time>
      </trkpt>
      <trkpt lat="43.98504" lon="1.88966">
        <ele>198.4</ele>
        <time>2022-09-01T18:53:32Z</time>
      </trkpt>
      <trkpt lat="43.98502" lon="1.88965">
        <ele>198.4</ele>
        <time>2022-09-01T18:53:33Z</time>
      </trkpt>
      <trkpt lat="43.985" lon="1.88964">
        <ele>198.6</ele>
        <time>2022-09-01T18:53:34Z</time>
      </trkpt>
      <trkpt lat="43.98497" lon="1.88963">
        <ele>198.6</ele>
        <time>2022-09-01T18:53:35Z</time>
      </trkpt>
      <trkpt lat="43.98495" lon="1.88962">
        <ele>198.8</ele>
        <time>2022-09-01T18:53:36Z</time>
      </trkpt>
      <trkpt lat="43.98492" lon="1.88961">
        <ele>198.8</ele>
        <time>2022-09-01T18:53:37Z</time>
      </trkpt>
      <trkpt lat="43.98489" lon="1.88961">
        <ele>198.8</ele>
        <time>2022-09-01T18:53:38Z</time>
      </trkpt>
      <trkpt lat="43.98487" lon="1.8896">
        <ele>199</ele>
        <time>2022-09-01T18:53:39Z</time>
      </trkpt>
      <trkpt lat="43.98484" lon="1.88959">
        <ele>199</ele>
        <time>2022-09-01T18:53:40Z</time>
      </trkpt>
      <trkpt lat="43.98482" lon="1.88958">
        <ele>199</ele>
        <time>2022-09-01T18:53:41Z</time>
      </trkpt>
      <trkpt lat="43.98479" lon="1.88957">
        <ele>199</ele>
        <time>2022-09-01T18:53:42Z</time>
      </trkpt>
      <trkpt lat="43.98476" lon="1.88956">
        <ele>199.2</ele>
        <time>2022-09-01T18:53:43Z</time>
      </trkpt>
      <trkpt lat="43.98473" lon="1.88956">
        <ele>199.2</ele>
        <time>2022-09-01T18:53:44Z</time>
      </trkpt>
      <trkpt lat="43.9847" lon="1.88955">
        <ele>199.4</ele>
        <time>2022-09-01T18:53:45Z</time>
      </trkpt>
      <trkpt lat="43.98468" lon="1.88954">
        <ele>199.4</ele>
        <time>2022-09-01T18:53:46Z</time>
      </trkpt>
      <trkpt lat="43.98466" lon="1.88954">
        <ele>199.6</ele>
        <time>2022-09-01T18:53:47Z</time>
      </trkpt>
      <trkpt lat="43.98464" lon="1.88952">
        <ele>199.8</ele>
        <time>2022-09-01T18:53:48Z</time>
      </trkpt>
      <trkpt lat="43.98462" lon="1.88951">
        <ele>199.8</ele>
        <time>2022-09-01T18:53:49Z</time>
      </trkpt>
      <trkpt lat="43.9846" lon="1.8895">
        <ele>200</ele>
        <time>2022-09-01T18:53:50Z</time>
      </trkpt>
      <trkpt lat="43.98457" lon="1.88949">
        <ele>200.2</ele>
        <time>2022-09-01T18:53:51Z</time>
      </trkpt>
      <trkpt lat="43.98455" lon="1.88948">
        <ele>200.2</ele>
        <time>2022-09-01T18:53:52Z</time>
      </trkpt>
      <trkpt lat="43.98453" lon="1.88946">
        <ele>200.4</ele>
        <time>2022-09-01T18:53:53Z</time>
      </trkpt>
      <trkpt lat="43.9845" lon="1.88945">
        <ele>200.4</ele>
        <time>2022-09-01T18:53:54Z</time>
      </trkpt>
      <trkpt lat="43.98448" lon="1.88943">
        <ele>200.6</ele>
        <time>2022-09-01T18:53:55Z</time>
      </trkpt>
      <trkpt lat="43.98445" lon="1.88942">
        <ele>200.6</ele>
        <time>2022-09-01T18:53:56Z</time>
      </trkpt>
      <trkpt lat="43.98443" lon="1.8894">
        <ele>200.8</ele>
        <time>2022-09-01T18:53:57Z</time>
      </trkpt>
      <trkpt lat="43.98441" lon="1.88938">
        <ele>200.8</ele>
        <time>2022-09-01T18:53:58Z</time>
      </trkpt>
      <trkpt lat="43.98438" lon="1.88936">
        <ele>201</ele>
        <time>2022-09-01T18:53:59Z</time>
      </trkpt>
      <trkpt lat="43.98435" lon="1.88935">
        <ele>201</ele>
        <time>2022-09-01T18:54:00Z</time>
      </trkpt>
      <trkpt lat="43.98433" lon="1.88933">
        <ele>201.4</ele>
        <time>2022-09-01T18:54:01Z</time>
      </trkpt>
      <trkpt lat="43.9843" lon="1.88931">
        <ele>201.6</ele>
        <time>2022-09-01T18:54:02Z</time>
      </trkpt>
      <trkpt lat="43.98427" lon="1.88929">
        <ele>201.6</ele>
        <time>2022-09-01T18:54:03Z</time>
      </trkpt>
      <trkpt lat="43.98423" lon="1.88927">
        <ele>201.8</ele>
        <time>2022-09-01T18:54:04Z</time>
      </trkpt>
      <trkpt lat="43.9842" lon="1.88925">
        <ele>201.8</ele>
        <time>2022-09-01T18:54:05Z</time>
      </trkpt>
      <trkpt lat="43.98417" lon="1.88924">
        <ele>202</ele>
        <time>2022-09-01T18:54:06Z</time>
      </trkpt>
      <trkpt lat="43.98414" lon="1.88922">
        <ele>202</ele>
        <time>2022-09-01T18:54:07Z</time>
      </trkpt>
      <trkpt lat="43.98411" lon="1.8892">
        <ele>202.2</ele>
        <time>2022-09-01T18:54:08Z</time>
      </trkpt>
      <trkpt lat="43.98407" lon="1.88919">
        <ele>202.4</ele>
        <time>2022-09-01T18:54:09Z</time>
      </trkpt>
      <trkpt lat="43.98404" lon="1.88918">
        <ele>202.4</ele>
        <time>2022-09-01T18:54:10Z</time>
      </trkpt>
      <trkpt lat="43.984" lon="1.88917">
        <ele>202.4</ele>
        <time>2022-09-01T18:54:11Z</time>
      </trkpt>
      <trkpt lat="43.98397" lon="1.88916">
        <ele>202.4</ele>
        <time>2022-09-01T18:54:12Z</time>
      </trkpt>
      <trkpt lat="43.98394" lon="1.88914">
        <ele>202.4</ele>
        <time>2022-09-01T18:54:13Z</time>
      </trkpt>
      <trkpt lat="43.98391" lon="1.88913">
        <ele>202.4</ele>
        <time>2022-09-01T18:54:14Z</time>
      </trkpt>
      <trkpt lat="43.98387" lon="1.88912">
        <ele>202.6</ele>
        <time>2022-09-01T18:54:15Z</time>
      </trkpt>
      <trkpt lat="43.98384" lon="1.88911">
        <ele>202.6</ele>
        <time>2022-09-01T18:54:16Z</time>
      </trkpt>
      <trkpt lat="43.98381" lon="1.8891">
        <ele>202.8</ele>
        <time>2022-09-01T18:54:17Z</time>
      </trkpt>
      <trkpt lat="43.98379" lon="1.88908">
        <ele>203</ele>
        <time>2022-09-01T18:54:18Z</time>
      </trkpt>
      <trkpt lat="43.98376" lon="1.88906">
        <ele>203</ele>
        <time>2022-09-01T18:54:19Z</time>
      </trkpt>
      <trkpt lat="43.98373" lon="1.88904">
        <ele>203.2</ele>
        <time>2022-09-01T18:54:20Z</time>
      </trkpt>
      <trkpt lat="43.9837" lon="1.88902">
        <ele>203.4</ele>
        <time>2022-09-01T18:54:21Z</time>
      </trkpt>
      <trkpt lat="43.98368" lon="1.88899">
        <ele>203.6</ele>
        <time>2022-09-01T18:54:22Z</time>
      </trkpt>
      <trkpt lat="43.98365" lon="1.88897">
        <ele>203.6</ele>
        <time>2022-09-01T18:54:23Z</time>
      </trkpt>
      <trkpt lat="43.98363" lon="1.88895">
        <ele>203.6</ele>
        <time>2022-09-01T18:54:24Z</time>
      </trkpt>
      <trkpt lat="43.98361" lon="1.88893">
        <ele>203.8</ele>
        <time>2022-09-01T18:54:25Z</time>
      </trkpt>
      <trkpt lat="43.98358" lon="1.88891">
        <ele>204</ele>
        <time>2022-09-01T18:54:26Z</time>
      </trkpt>
      <trkpt lat="43.98356" lon="1.88889">
        <ele>204.4</ele>
        <time>2022-09-01T18:54:27Z</time>
      </trkpt>
      <trkpt lat="43.98354" lon="1.88887">
        <ele>204.8</ele>
        <time>2022-09-01T18:54:28Z</time>
      </trkpt>
      <trkpt lat="43.98352" lon="1.88886">
        <ele>205.4</ele>
        <time>2022-09-01T18:54:29Z</time>
      </trkpt>
      <trkpt lat="43.98349" lon="1.88884">
        <ele>205.6</ele>
        <time>2022-09-01T18:54:30Z</time>
      </trkpt>
      <trkpt lat="43.98346" lon="1.88882">
        <ele>205.8</ele>
        <time>2022-09-01T18:54:31Z</time>
      </trkpt>
      <trkpt lat="43.98344" lon="1.8888">
        <ele>206</ele>
        <time>2022-09-01T18:54:32Z</time>
      </trkpt>
      <trkpt lat="43.98341" lon="1.88878">
        <ele>206</ele>
        <time>2022-09-01T18:54:33Z</time>
      </trkpt>
      <trkpt lat="43.98338" lon="1.88877">
        <ele>206</ele>
        <time>2022-09-01T18:54:34Z</time>
      </trkpt>
      <trkpt lat="43.98335" lon="1.88875">
        <ele>206.2</ele>
        <time>2022-09-01T18:54:35Z</time>
      </trkpt>
      <trkpt lat="43.98333" lon="1.88873">
        <ele>206.2</ele>
        <time>2022-09-01T18:54:36Z</time>
      </trkpt>
      <trkpt lat="43.9833" lon="1.88872">
        <ele>206.2</ele>
        <time>2022-09-01T18:54:37Z</time>
      </trkpt>
      <trkpt lat="43.98327" lon="1.8887">
        <ele>206.4</ele>
        <time>2022-09-01T18:54:38Z</time>
      </trkpt>
      <trkpt lat="43.98324" lon="1.88869">
        <ele>206.6</ele>
        <time>2022-09-01T18:54:39Z</time>
      </trkpt>
      <trkpt lat="43.98321" lon="1.88867">
        <ele>206.8</ele>
        <time>2022-09-01T18:54:40Z</time>
      </trkpt>
      <trkpt lat="43.98317" lon="1.88866">
        <ele>206.8</ele>
        <time>2022-09-01T18:54:41Z</time>
      </trkpt>
      <trkpt lat="43.98314" lon="1.88865">
        <ele>206.8</ele>
        <time>2022-09-01T18:54:42Z</time>
      </trkpt>
      <trkpt lat="43.98311" lon="1.88863">
        <ele>207</ele>
        <time>2022-09-01T18:54:43Z</time>
      </trkpt>
      <trkpt lat="43.98307" lon="1.88861">
        <ele>207</ele>
        <time>2022-09-01T18:54:44Z</time>
      </trkpt>
      <trkpt lat="43.98304" lon="1.8886">
        <ele>207</ele>
        <time>2022-09-01T18:54:45Z</time>
      </trkpt>
      <trkpt lat="43.983" lon="1.88859">
        <ele>207.2</ele>
        <time>2022-09-01T18:54:46Z</time>
      </trkpt>
      <trkpt lat="43.98297" lon="1.88857">
        <ele>207.2</ele>
        <time>2022-09-01T18:54:47Z</time>
      </trkpt>
      <trkpt lat="43.98293" lon="1.88856">
        <ele>207.4</ele>
        <time>2022-09-01T18:54:48Z</time>
      </trkpt>
      <trkpt lat="43.9829" lon="1.88854">
        <ele>207.4</ele>
        <time>2022-09-01T18:54:49Z</time>
      </trkpt>
      <trkpt lat="43.98287" lon="1.88852">
        <ele>207.6</ele>
        <time>2022-09-01T18:54:50Z</time>
      </trkpt>
      <trkpt lat="43.98283" lon="1.88851">
        <ele>207.6</ele>
        <time>2022-09-01T18:54:51Z</time>
      </trkpt>
      <trkpt lat="43.9828" lon="1.88851">
        <ele>207.6</ele>
        <time>2022-09-01T18:54:52Z</time>
      </trkpt>
      <trkpt lat="43.98277" lon="1.88851">
        <ele>207.6</ele>
        <time>2022-09-01T18:54:53Z</time>
      </trkpt>
      <trkpt lat="43.98274" lon="1.88851">
        <ele>207.6</ele>
        <time>2022-09-01T18:54:54Z</time>
      </trkpt>
      <trkpt lat="43.98272" lon="1.88851">
        <ele>207.6</ele>
        <time>2022-09-01T18:54:55Z</time>
      </trkpt>
      <trkpt lat="43.98269" lon="1.88851">
        <ele>207.8</ele>
        <time>2022-09-01T18:54:56Z</time>
      </trkpt>
      <trkpt lat="43.98267" lon="1.88851">
        <ele>208</ele>
        <time>2022-09-01T18:54:57Z</time>
      </trkpt>
      <trkpt lat="43.98264" lon="1.88851">
        <ele>208</ele>
        <time>2022-09-01T18:54:58Z</time>
      </trkpt>
      <trkpt lat="43.98261" lon="1.88852">
        <ele>208</ele>
        <time>2022-09-01T18:54:59Z</time>
      </trkpt>
      <trkpt lat="43.98258" lon="1.88851">
        <ele>208.2</ele>
        <time>2022-09-01T18:55:00Z</time>
      </trkpt>
      <trkpt lat="43.98254" lon="1.88851">
        <ele>208.2</ele>
        <time>2022-09-01T18:55:01Z</time>
      </trkpt>
      <trkpt lat="43.98251" lon="1.88851">
        <ele>208.4</ele>
        <time>2022-09-01T18:55:02Z</time>
      </trkpt>
      <trkpt lat="43.98248" lon="1.8885">
        <ele>208.6</ele>
        <time>2022-09-01T18:55:03Z</time>
      </trkpt>
      <trkpt lat="43.98246" lon="1.88849">
        <ele>208.8</ele>
        <time>2022-09-01T18:55:04Z</time>
      </trkpt>
      <trkpt lat="43.98243" lon="1.88849">
        <ele>208.8</ele>
        <time>2022-09-01T18:55:05Z</time>
      </trkpt>
      <trkpt lat="43.98241" lon="1.88848">
        <ele>209</ele>
        <time>2022-09-01T18:55:06Z</time>
      </trkpt>
      <trkpt lat="43.98239" lon="1.88846">
        <ele>209.2</ele>
        <time>2022-09-01T18:55:07Z</time>
      </trkpt>
      <trkpt lat="43.98238" lon="1.88845">
        <ele>209.2</ele>
        <time>2022-09-01T18:55:08Z</time>
      </trkpt>
      <trkpt lat="43.98238" lon="1.88843">
        <ele>209.4</ele>
        <time>2022-09-01T18:55:09Z</time>
      </trkpt>
      <trkpt lat="43.98239" lon="1.88842">
        <ele>209.8</ele>
        <time>2022-09-01T18:55:10Z</time>
      </trkpt>
      <trkpt lat="43.9824" lon="1.88841">
        <ele>210.2</ele>
        <time>2022-09-01T18:55:11Z</time>
      </trkpt>
      <trkpt lat="43.98242" lon="1.88841">
        <ele>210.2</ele>
        <time>2022-09-01T18:55:12Z</time>
      </trkpt>
      <trkpt lat="43.98243" lon="1.88841">
        <ele>210.4</ele>
        <time>2022-09-01T18:55:13Z</time>
      </trkpt>
      <trkpt lat="43.98244" lon="1.88842">
        <ele>210.6</ele>
        <time>2022-09-01T18:55:14Z</time>
      </trkpt>
      <trkpt lat="43.98246" lon="1.88841">
        <ele>210.8</ele>
        <time>2022-09-01T18:55:15Z</time>
      </trkpt>
      <trkpt lat="43.98248" lon="1.88841">
        <ele>210.8</ele>
        <time>2022-09-01T18:55:16Z</time>
      </trkpt>
      <trkpt lat="43.98249" lon="1.88841">
        <ele>211</ele>
        <time>2022-09-01T18:55:17Z</time>
      </trkpt>
      <trkpt lat="43.98251" lon="1.88841">
        <ele>211.2</ele>
        <time>2022-09-01T18:55:18Z</time>
      </trkpt>
      <trkpt lat="43.98252" lon="1.88841">
        <ele>211.2</ele>
        <time>2022-09-01T18:55:19Z</time>
      </trkpt>
      <trkpt lat="43.98254" lon="1.8884">
        <ele>211.6</ele>
        <time>2022-09-01T18:55:20Z</time>
      </trkpt>
      <trkpt lat="43.98255" lon="1.8884">
        <ele>211.6</ele>
        <time>2022-09-01T18:55:21Z</time>
      </trkpt>
      <trkpt lat="43.98256" lon="1.8884">
        <ele>212</ele>
        <time>2022-09-01T18:55:22Z</time>
      </trkpt>
      <trkpt lat="43.98258" lon="1.88838">
        <ele>212</ele>
        <time>2022-09-01T18:55:23Z</time>
      </trkpt>
      <trkpt lat="43.9826" lon="1.88837">
        <ele>212.2</ele>
        <time>2022-09-01T18:55:24Z</time>
      </trkpt>
      <trkpt lat="43.98261" lon="1.88836">
        <ele>212.4</ele>
        <time>2022-09-01T18:55:25Z</time>
      </trkpt>
      <trkpt lat="43.98262" lon="1.88836">
        <ele>212.8</ele>
        <time>2022-09-01T18:55:26Z</time>
      </trkpt>
      <trkpt lat="43.98264" lon="1.88836">
        <ele>213</ele>
        <time>2022-09-01T18:55:27Z</time>
      </trkpt>
      <trkpt lat="43.98266" lon="1.88835">
        <ele>213.2</ele>
        <time>2022-09-01T18:55:28Z</time>
      </trkpt>
      <trkpt lat="43.98268" lon="1.88834">
        <ele>213.4</ele>
        <time>2022-09-01T18:55:29Z</time>
      </trkpt>
      <trkpt lat="43.98269" lon="1.88834">
        <ele>213.4</ele>
        <time>2022-09-01T18:55:30Z</time>
      </trkpt>
      <trkpt lat="43.98272" lon="1.88832">
        <ele>213.6</ele>
        <time>2022-09-01T18:55:31Z</time>
      </trkpt>
      <trkpt lat="43.98274" lon="1.88831">
        <ele>213.6</ele>
        <time>2022-09-01T18:55:32Z</time>
      </trkpt>
      <trkpt lat="43.98276" lon="1.88828">
        <ele>213.8</ele>
        <time>2022-09-01T18:55:33Z</time>
      </trkpt>
      <trkpt lat="43.98277" lon="1.88826">
        <ele>214.2</ele>
        <time>2022-09-01T18:55:34Z</time>
      </trkpt>
      <trkpt lat="43.98279" lon="1.88824">
        <ele>214.4</ele>
        <time>2022-09-01T18:55:35Z</time>
      </trkpt>
      <trkpt lat="43.9828" lon="1.88823">
        <ele>214.4</ele>
        <time>2022-09-01T18:55:36Z</time>
      </trkpt>
      <trkpt lat="43.98282" lon="1.88821">
        <ele>214.8</ele>
        <time>2022-09-01T18:55:37Z</time>
      </trkpt>
      <trkpt lat="43.98283" lon="1.88819">
        <ele>215.2</ele>
        <time>2022-09-01T18:55:38Z</time>
      </trkpt>
      <trkpt lat="43.98285" lon="1.88816">
        <ele>215.2</ele>
        <time>2022-09-01T18:55:39Z</time>
      </trkpt>
      <trkpt lat="43.98286" lon="1.88814">
        <ele>215.4</ele>
        <time>2022-09-01T18:55:40Z</time>
      </trkpt>
      <trkpt lat="43.98289" lon="1.88811">
        <ele>215.6</ele>
        <time>2022-09-01T18:55:41Z</time>
      </trkpt>
      <trkpt lat="43.98291" lon="1.88808">
        <ele>215.8</ele>
        <time>2022-09-01T18:55:42Z</time>
      </trkpt>
      <trkpt lat="43.98292" lon="1.88806">
        <ele>215.8</ele>
        <time>2022-09-01T18:55:43Z</time>
      </trkpt>
      <trkpt lat="43.98294" lon="1.88804">
        <ele>216</ele>
        <time>2022-09-01T18:55:44Z</time>
      </trkpt>
      <trkpt lat="43.98295" lon="1.88801">
        <ele>216.2</ele>
        <time>2022-09-01T18:55:45Z</time>
      </trkpt>
      <trkpt lat="43.98296" lon="1.88799">
        <ele>216.4</ele>
        <time>2022-09-01T18:55:46Z</time>
      </trkpt>
      <trkpt lat="43.98297" lon="1.88797">
        <ele>216.6</ele>
        <time>2022-09-01T18:55:47Z</time>
      </trkpt>
      <trkpt lat="43.98298" lon="1.88796">
        <ele>216.8</ele>
        <time>2022-09-01T18:55:48Z</time>
      </trkpt>
      <trkpt lat="43.983" lon="1.88791">
        <ele>217</ele>
        <time>2022-09-01T18:55:49Z</time>
      </trkpt>
      <trkpt lat="43.98302" lon="1.88789">
        <ele>217.4</ele>
        <time>2022-09-01T18:55:50Z</time>
      </trkpt>
      <trkpt lat="43.98303" lon="1.88787">
        <ele>217.4</ele>
        <time>2022-09-01T18:55:51Z</time>
      </trkpt>
      <trkpt lat="43.98305" lon="1.88785">
        <ele>217.8</ele>
        <time>2022-09-01T18:55:52Z</time>
      </trkpt>
      <trkpt lat="43.98306" lon="1.88783">
        <ele>218</ele>
        <time>2022-09-01T18:55:53Z</time>
      </trkpt>
      <trkpt lat="43.98307" lon="1.88781">
        <ele>218.4</ele>
        <time>2022-09-01T18:55:54Z</time>
      </trkpt>
      <trkpt lat="43.98309" lon="1.88779">
        <ele>218.6</ele>
        <time>2022-09-01T18:55:55Z</time>
      </trkpt>
      <trkpt lat="43.9831" lon="1.88777">
        <ele>218.8</ele>
        <time>2022-09-01T18:55:56Z</time>
      </trkpt>
      <trkpt lat="43.98311" lon="1.88775">
        <ele>219</ele>
        <time>2022-09-01T18:55:57Z</time>
      </trkpt>
      <trkpt lat="43.98312" lon="1.88773">
        <ele>219</ele>
        <time>2022-09-01T18:55:58Z</time>
      </trkpt>
      <trkpt lat="43.98314" lon="1.88772">
        <ele>219.4</ele>
        <time>2022-09-01T18:55:59Z</time>
      </trkpt>
      <trkpt lat="43.98315" lon="1.8877">
        <ele>219.6</ele>
        <time>2022-09-01T18:56:00Z</time>
      </trkpt>
      <trkpt lat="43.98316" lon="1.88769">
        <ele>219.8</ele>
        <time>2022-09-01T18:56:01Z</time>
      </trkpt>
      <trkpt lat="43.98318" lon="1.88767">
        <ele>220</ele>
        <time>2022-09-01T18:56:02Z</time>
      </trkpt>
      <trkpt lat="43.9832" lon="1.88766">
        <ele>220.2</ele>
        <time>2022-09-01T18:56:03Z</time>
      </trkpt>
      <trkpt lat="43.98322" lon="1.88765">
        <ele>220.4</ele>
        <time>2022-09-01T18:56:04Z</time>
      </trkpt>
      <trkpt lat="43.98324" lon="1.88765">
        <ele>220.6</ele>
        <time>2022-09-01T18:56:05Z</time>
      </trkpt>
      <trkpt lat="43.98326" lon="1.88765">
        <ele>220.8</ele>
        <time>2022-09-01T18:56:06Z</time>
      </trkpt>
      <trkpt lat="43.98328" lon="1.88764">
        <ele>221</ele>
        <time>2022-09-01T18:56:07Z</time>
      </trkpt>
      <trkpt lat="43.9833" lon="1.88764">
        <ele>221.2</ele>
        <time>2022-09-01T18:56:08Z</time>
      </trkpt>
      <trkpt lat="43.98331" lon="1.88765">
        <ele>221.4</ele>
        <time>2022-09-01T18:56:09Z</time>
      </trkpt>
      <trkpt lat="43.98333" lon="1.88766">
        <ele>221.8</ele>
        <time>2022-09-01T18:56:10Z</time>
      </trkpt>
      <trkpt lat="43.98334" lon="1.88768">
        <ele>221.8</ele>
        <time>2022-09-01T18:56:11Z</time>
      </trkpt>
      <trkpt lat="43.98336" lon="1.8877">
        <ele>222</ele>
        <time>2022-09-01T18:56:12Z</time>
      </trkpt>
      <trkpt lat="43.98337" lon="1.88771">
        <ele>222.2</ele>
        <time>2022-09-01T18:56:13Z</time>
      </trkpt>
      <trkpt lat="43.98339" lon="1.88773">
        <ele>222.2</ele>
        <time>2022-09-01T18:56:14Z</time>
      </trkpt>
      <trkpt lat="43.9834" lon="1.88775">
        <ele>222.4</ele>
        <time>2022-09-01T18:56:15Z</time>
      </trkpt>
      <trkpt lat="43.98342" lon="1.88776">
        <ele>222.6</ele>
        <time>2022-09-01T18:56:16Z</time>
      </trkpt>
      <trkpt lat="43.98343" lon="1.88776">
        <ele>222.6</ele>
        <time>2022-09-01T18:56:17Z</time>
      </trkpt>
      <trkpt lat="43.98343" lon="1.88774">
        <ele>222.8</ele>
        <time>2022-09-01T18:56:18Z</time>
      </trkpt>
      <trkpt lat="43.98344" lon="1.88772">
        <ele>222.8</ele>
        <time>2022-09-01T18:56:19Z</time>
      </trkpt>
      <trkpt lat="43.98344" lon="1.8877">
        <ele>223</ele>
        <time>2022-09-01T18:56:20Z</time>
      </trkpt>
      <trkpt lat="43.98343" lon="1.88768">
        <ele>223</ele>
        <time>2022-09-01T18:56:21Z</time>
      </trkpt>
      <trkpt lat="43.98343" lon="1.88767">
        <ele>223.2</ele>
        <time>2022-09-01T18:56:22Z</time>
      </trkpt>
      <trkpt lat="43.98341" lon="1.88764">
        <ele>224</ele>
        <time>2022-09-01T18:57:46Z</time>
      </trkpt>
      <trkpt lat="43.98339" lon="1.8876">
        <ele>224</ele>
        <time>2022-09-01T18:57:48Z</time>
      </trkpt>
      <trkpt lat="43.98338" lon="1.88759">
        <ele>224</ele>
        <time>2022-09-01T18:57:49Z</time>
      </trkpt>
      <trkpt lat="43.98337" lon="1.88757">
        <ele>224</ele>
        <time>2022-09-01T18:57:50Z</time>
      </trkpt>
      <trkpt lat="43.98334" lon="1.88754">
        <ele>224</ele>
        <time>2022-09-01T18:57:53Z</time>
      </trkpt>
      <trkpt lat="43.98333" lon="1.88753">
        <ele>224.2</ele>
        <time>2022-09-01T18:57:54Z</time>
      </trkpt>
      <trkpt lat="43.98331" lon="1.88751">
        <ele>224.2</ele>
        <time>2022-09-01T18:57:55Z</time>
      </trkpt>
      <trkpt lat="43.9833" lon="1.8875">
        <ele>224.2</ele>
        <time>2022-09-01T18:57:56Z</time>
      </trkpt>
      <trkpt lat="43.98324" lon="1.88747">
        <ele>224.2</ele>
        <time>2022-09-01T18:58:00Z</time>
      </trkpt>
      <trkpt lat="43.98323" lon="1.88747">
        <ele>224.2</ele>
        <time>2022-09-01T18:58:01Z</time>
      </trkpt>
      <trkpt lat="43.98316" lon="1.88745">
        <ele>224.2</ele>
        <time>2022-09-01T18:58:04Z</time>
      </trkpt>
      <trkpt lat="43.98314" lon="1.88745">
        <ele>224.2</ele>
        <time>2022-09-01T18:58:05Z</time>
      </trkpt>
      <trkpt lat="43.98312" lon="1.88746">
        <ele>224.2</ele>
        <time>2022-09-01T18:58:06Z</time>
      </trkpt>
      <trkpt lat="43.98309" lon="1.88746">
        <ele>224.4</ele>
        <time>2022-09-01T18:58:07Z</time>
      </trkpt>
      <trkpt lat="43.98305" lon="1.88746">
        <ele>224.6</ele>
        <time>2022-09-01T18:58:09Z</time>
      </trkpt>
      <trkpt lat="43.98303" lon="1.88746">
        <ele>224.6</ele>
        <time>2022-09-01T18:58:10Z</time>
      </trkpt>
      <trkpt lat="43.983" lon="1.88746">
        <ele>224.8</ele>
        <time>2022-09-01T18:58:11Z</time>
      </trkpt>
      <trkpt lat="43.98298" lon="1.88745">
        <ele>225</ele>
        <time>2022-09-01T18:58:12Z</time>
      </trkpt>
      <trkpt lat="43.98296" lon="1.88745">
        <ele>225</ele>
        <time>2022-09-01T18:58:13Z</time>
      </trkpt>
      <trkpt lat="43.98292" lon="1.88744">
        <ele>225.4</ele>
        <time>2022-09-01T18:58:15Z</time>
      </trkpt>
      <trkpt lat="43.98289" lon="1.88743">
        <ele>225.8</ele>
        <time>2022-09-01T18:58:16Z</time>
      </trkpt>
      <trkpt lat="43.98285" lon="1.88743">
        <ele>226.2</ele>
        <time>2022-09-01T18:58:18Z</time>
      </trkpt>
      <trkpt lat="43.98283" lon="1.88742">
        <ele>226.2</ele>
        <time>2022-09-01T18:58:19Z</time>
      </trkpt>
      <trkpt lat="43.98281" lon="1.88741">
        <ele>226.4</ele>
        <time>2022-09-01T18:58:20Z</time>
      </trkpt>
      <trkpt lat="43.98279" lon="1.88741">
        <ele>226.6</ele>
        <time>2022-09-01T18:58:21Z</time>
      </trkpt>
      <trkpt lat="43.98277" lon="1.8874">
        <ele>226.6</ele>
        <time>2022-09-01T18:58:22Z</time>
      </trkpt>
      <trkpt lat="43.98275" lon="1.88739">
        <ele>227</ele>
        <time>2022-09-01T18:58:23Z</time>
      </trkpt>
      <trkpt lat="43.98273" lon="1.88737">
        <ele>227</ele>
        <time>2022-09-01T18:58:24Z</time>
      </trkpt>
      <trkpt lat="43.98271" lon="1.88736">
        <ele>227.4</ele>
        <time>2022-09-01T18:58:25Z</time>
      </trkpt>
      <trkpt lat="43.98269" lon="1.88734">
        <ele>227.8</ele>
        <time>2022-09-01T18:58:26Z</time>
      </trkpt>
      <trkpt lat="43.98268" lon="1.88732">
        <ele>227.8</ele>
        <time>2022-09-01T18:58:27Z</time>
      </trkpt>
      <trkpt lat="43.98266" lon="1.8873">
        <ele>228.2</ele>
        <time>2022-09-01T18:58:28Z</time>
      </trkpt>
      <trkpt lat="43.98264" lon="1.88728">
        <ele>228.2</ele>
        <time>2022-09-01T18:58:29Z</time>
      </trkpt>
      <trkpt lat="43.98263" lon="1.88726">
        <ele>228.6</ele>
        <time>2022-09-01T18:58:30Z</time>
      </trkpt>
      <trkpt lat="43.98262" lon="1.88724">
        <ele>228.8</ele>
        <time>2022-09-01T18:58:31Z</time>
      </trkpt>
      <trkpt lat="43.9826" lon="1.88721">
        <ele>229.2</ele>
        <time>2022-09-01T18:58:32Z</time>
      </trkpt>
      <trkpt lat="43.98259" lon="1.88719">
        <ele>229.4</ele>
        <time>2022-09-01T18:58:33Z</time>
      </trkpt>
      <trkpt lat="43.98258" lon="1.88716">
        <ele>229.4</ele>
        <time>2022-09-01T18:58:34Z</time>
      </trkpt>
      <trkpt lat="43.98257" lon="1.88714">
        <ele>229.6</ele>
        <time>2022-09-01T18:58:35Z</time>
      </trkpt>
      <trkpt lat="43.98256" lon="1.88712">
        <ele>229.6</ele>
        <time>2022-09-01T18:58:36Z</time>
      </trkpt>
      <trkpt lat="43.98256" lon="1.88709">
        <ele>229.8</ele>
        <time>2022-09-01T18:58:37Z</time>
      </trkpt>
      <trkpt lat="43.98255" lon="1.88707">
        <ele>230</ele>
        <time>2022-09-01T18:58:38Z</time>
      </trkpt>
      <trkpt lat="43.98254" lon="1.88704">
        <ele>230.2</ele>
        <time>2022-09-01T18:58:39Z</time>
      </trkpt>
      <trkpt lat="43.98253" lon="1.88701">
        <ele>230.4</ele>
        <time>2022-09-01T18:58:40Z</time>
      </trkpt>
      <trkpt lat="43.98252" lon="1.88698">
        <ele>230.4</ele>
        <time>2022-09-01T18:58:41Z</time>
      </trkpt>
      <trkpt lat="43.98251" lon="1.88695">
        <ele>230.4</ele>
        <time>2022-09-01T18:58:42Z</time>
      </trkpt>
      <trkpt lat="43.98249" lon="1.88692">
        <ele>230.4</ele>
        <time>2022-09-01T18:58:43Z</time>
      </trkpt>
      <trkpt lat="43.98248" lon="1.88689">
        <ele>230.6</ele>
        <time>2022-09-01T18:58:44Z</time>
      </trkpt>
      <trkpt lat="43.98247" lon="1.88685">
        <ele>230.8</ele>
        <time>2022-09-01T18:58:45Z</time>
      </trkpt>
      <trkpt lat="43.98245" lon="1.88682">
        <ele>231</ele>
        <time>2022-09-01T18:58:46Z</time>
      </trkpt>
      <trkpt lat="43.98244" lon="1.88679">
        <ele>231</ele>
        <time>2022-09-01T18:58:47Z</time>
      </trkpt>
      <trkpt lat="43.98243" lon="1.88676">
        <ele>231.2</ele>
        <time>2022-09-01T18:58:48Z</time>
      </trkpt>
      <trkpt lat="43.98242" lon="1.88673">
        <ele>231.8</ele>
        <time>2022-09-01T18:58:49Z</time>
      </trkpt>
      <trkpt lat="43.98241" lon="1.8867">
        <ele>232</ele>
        <time>2022-09-01T18:58:50Z</time>
      </trkpt>
      <trkpt lat="43.9824" lon="1.88667">
        <ele>232.4</ele>
        <time>2022-09-01T18:58:51Z</time>
      </trkpt>
      <trkpt lat="43.98238" lon="1.88664">
        <ele>232.4</ele>
        <time>2022-09-01T18:58:52Z</time>
      </trkpt>
      <trkpt lat="43.98237" lon="1.88661">
        <ele>232.8</ele>
        <time>2022-09-01T18:58:53Z</time>
      </trkpt>
      <trkpt lat="43.98235" lon="1.88658">
        <ele>233</ele>
        <time>2022-09-01T18:58:54Z</time>
      </trkpt>
      <trkpt lat="43.98234" lon="1.88654">
        <ele>233</ele>
        <time>2022-09-01T18:58:55Z</time>
      </trkpt>
      <trkpt lat="43.98232" lon="1.88651">
        <ele>233.2</ele>
        <time>2022-09-01T18:58:56Z</time>
      </trkpt>
      <trkpt lat="43.98231" lon="1.88648">
        <ele>233.2</ele>
        <time>2022-09-01T18:58:57Z</time>
      </trkpt>
      <trkpt lat="43.9823" lon="1.88645">
        <ele>233.6</ele>
        <time>2022-09-01T18:58:58Z</time>
      </trkpt>
      <trkpt lat="43.98228" lon="1.88642">
        <ele>233.8</ele>
        <time>2022-09-01T18:58:59Z</time>
      </trkpt>
      <trkpt lat="43.98227" lon="1.88639">
        <ele>234.2</ele>
        <time>2022-09-01T18:59:00Z</time>
      </trkpt>
      <trkpt lat="43.98225" lon="1.88636">
        <ele>234.4</ele>
        <time>2022-09-01T18:59:01Z</time>
      </trkpt>
      <trkpt lat="43.98223" lon="1.88633">
        <ele>234.8</ele>
        <time>2022-09-01T18:59:02Z</time>
      </trkpt>
      <trkpt lat="43.98222" lon="1.8863">
        <ele>235</ele>
        <time>2022-09-01T18:59:03Z</time>
      </trkpt>
      <trkpt lat="43.9822" lon="1.88626">
        <ele>235.4</ele>
        <time>2022-09-01T18:59:04Z</time>
      </trkpt>
      <trkpt lat="43.98219" lon="1.88623">
        <ele>235.8</ele>
        <time>2022-09-01T18:59:05Z</time>
      </trkpt>
      <trkpt lat="43.98217" lon="1.8862">
        <ele>236</ele>
        <time>2022-09-01T18:59:06Z</time>
      </trkpt>
      <trkpt lat="43.98215" lon="1.88616">
        <ele>236.2</ele>
        <time>2022-09-01T18:59:07Z</time>
      </trkpt>
      <trkpt lat="43.98214" lon="1.88613">
        <ele>236.2</ele>
        <time>2022-09-01T18:59:08Z</time>
      </trkpt>
      <trkpt lat="43.98212" lon="1.8861">
        <ele>236.4</ele>
        <time>2022-09-01T18:59:09Z</time>
      </trkpt>
      <trkpt lat="43.9821" lon="1.88607">
        <ele>236.6</ele>
        <time>2022-09-01T18:59:10Z</time>
      </trkpt>
      <trkpt lat="43.98209" lon="1.88603">
        <ele>236.6</ele>
        <time>2022-09-01T18:59:11Z</time>
      </trkpt>
      <trkpt lat="43.98207" lon="1.886">
        <ele>236.8</ele>
        <time>2022-09-01T18:59:12Z</time>
      </trkpt>
      <trkpt lat="43.98205" lon="1.88596">
        <ele>236.8</ele>
        <time>2022-09-01T18:59:13Z</time>
      </trkpt>
      <trkpt lat="43.98203" lon="1.88593">
        <ele>237</ele>
        <time>2022-09-01T18:59:14Z</time>
      </trkpt>
      <trkpt lat="43.98201" lon="1.8859">
        <ele>237</ele>
        <time>2022-09-01T18:59:15Z</time>
      </trkpt>
      <trkpt lat="43.98199" lon="1.88588">
        <ele>237.6</ele>
        <time>2022-09-01T18:59:16Z</time>
      </trkpt>
      <trkpt lat="43.98197" lon="1.88585">
        <ele>237.8</ele>
        <time>2022-09-01T18:59:17Z</time>
      </trkpt>
      <trkpt lat="43.98195" lon="1.88583">
        <ele>238</ele>
        <time>2022-09-01T18:59:18Z</time>
      </trkpt>
      <trkpt lat="43.98193" lon="1.8858">
        <ele>238.4</ele>
        <time>2022-09-01T18:59:19Z</time>
      </trkpt>
      <trkpt lat="43.98191" lon="1.88577">
        <ele>238.4</ele>
        <time>2022-09-01T18:59:20Z</time>
      </trkpt>
      <trkpt lat="43.98189" lon="1.88575">
        <ele>238.6</ele>
        <time>2022-09-01T18:59:21Z</time>
      </trkpt>
      <trkpt lat="43.98187" lon="1.88573">
        <ele>238.6</ele>
        <time>2022-09-01T18:59:22Z</time>
      </trkpt>
      <trkpt lat="43.98184" lon="1.88571">
        <ele>238.8</ele>
        <time>2022-09-01T18:59:23Z</time>
      </trkpt>
      <trkpt lat="43.98182" lon="1.88568">
        <ele>238.8</ele>
        <time>2022-09-01T18:59:24Z</time>
      </trkpt>
      <trkpt lat="43.9818" lon="1.88566">
        <ele>239</ele>
        <time>2022-09-01T18:59:25Z</time>
      </trkpt>
      <trkpt lat="43.98177" lon="1.88564">
        <ele>239.2</ele>
        <time>2022-09-01T18:59:26Z</time>
      </trkpt>
      <trkpt lat="43.98175" lon="1.88561">
        <ele>239.4</ele>
        <time>2022-09-01T18:59:27Z</time>
      </trkpt>
      <trkpt lat="43.98173" lon="1.88559">
        <ele>239.4</ele>
        <time>2022-09-01T18:59:28Z</time>
      </trkpt>
      <trkpt lat="43.9817" lon="1.88557">
        <ele>239.6</ele>
        <time>2022-09-01T18:59:29Z</time>
      </trkpt>
      <trkpt lat="43.98167" lon="1.88555">
        <ele>239.6</ele>
        <time>2022-09-01T18:59:30Z</time>
      </trkpt>
      <trkpt lat="43.98164" lon="1.88553">
        <ele>239.8</ele>
        <time>2022-09-01T18:59:31Z</time>
      </trkpt>
      <trkpt lat="43.98162" lon="1.88551">
        <ele>240</ele>
        <time>2022-09-01T18:59:32Z</time>
      </trkpt>
      <trkpt lat="43.98159" lon="1.88548">
        <ele>240.2</ele>
        <time>2022-09-01T18:59:33Z</time>
      </trkpt>
      <trkpt lat="43.98156" lon="1.88546">
        <ele>240.4</ele>
        <time>2022-09-01T18:59:34Z</time>
      </trkpt>
      <trkpt lat="43.98154" lon="1.88543">
        <ele>240.6</ele>
        <time>2022-09-01T18:59:35Z</time>
      </trkpt>
      <trkpt lat="43.98151" lon="1.88541">
        <ele>240.6</ele>
        <time>2022-09-01T18:59:36Z</time>
      </trkpt>
      <trkpt lat="43.98149" lon="1.88539">
        <ele>240.8</ele>
        <time>2022-09-01T18:59:37Z</time>
      </trkpt>
      <trkpt lat="43.98147" lon="1.88537">
        <ele>241</ele>
        <time>2022-09-01T18:59:38Z</time>
      </trkpt>
      <trkpt lat="43.98144" lon="1.88534">
        <ele>241.2</ele>
        <time>2022-09-01T18:59:39Z</time>
      </trkpt>
      <trkpt lat="43.98142" lon="1.88532">
        <ele>241.4</ele>
        <time>2022-09-01T18:59:40Z</time>
      </trkpt>
      <trkpt lat="43.9814" lon="1.8853">
        <ele>241.8</ele>
        <time>2022-09-01T18:59:41Z</time>
      </trkpt>
      <trkpt lat="43.98137" lon="1.88528">
        <ele>242</ele>
        <time>2022-09-01T18:59:42Z</time>
      </trkpt>
      <trkpt lat="43.98135" lon="1.88525">
        <ele>242.2</ele>
        <time>2022-09-01T18:59:43Z</time>
      </trkpt>
      <trkpt lat="43.98132" lon="1.88523">
        <ele>242.4</ele>
        <time>2022-09-01T18:59:44Z</time>
      </trkpt>
      <trkpt lat="43.9813" lon="1.8852">
        <ele>242.6</ele>
        <time>2022-09-01T18:59:45Z</time>
      </trkpt>
      <trkpt lat="43.98128" lon="1.88518">
        <ele>242.8</ele>
        <time>2022-09-01T18:59:46Z</time>
      </trkpt>
      <trkpt lat="43.98127" lon="1.88515">
        <ele>243</ele>
        <time>2022-09-01T18:59:47Z</time>
      </trkpt>
      <trkpt lat="43.98126" lon="1.88511">
        <ele>243.2</ele>
        <time>2022-09-01T18:59:48Z</time>
      </trkpt>
      <trkpt lat="43.98125" lon="1.88508">
        <ele>243.4</ele>
        <time>2022-09-01T18:59:49Z</time>
      </trkpt>
      <trkpt lat="43.98125" lon="1.88505">
        <ele>243.6</ele>
        <time>2022-09-01T18:59:50Z</time>
      </trkpt>
      <trkpt lat="43.98124" lon="1.88502">
        <ele>243.8</ele>
        <time>2022-09-01T18:59:51Z</time>
      </trkpt>
      <trkpt lat="43.98123" lon="1.88499">
        <ele>244</ele>
        <time>2022-09-01T18:59:52Z</time>
      </trkpt>
      <trkpt lat="43.98123" lon="1.88497">
        <ele>244.2</ele>
        <time>2022-09-01T18:59:53Z</time>
      </trkpt>
      <trkpt lat="43.98123" lon="1.88495">
        <ele>244.4</ele>
        <time>2022-09-01T18:59:54Z</time>
      </trkpt>
      <trkpt lat="43.98123" lon="1.88492">
        <ele>244.6</ele>
        <time>2022-09-01T18:59:55Z</time>
      </trkpt>
      <trkpt lat="43.98123" lon="1.88489">
        <ele>245</ele>
        <time>2022-09-01T18:59:56Z</time>
      </trkpt>
      <trkpt lat="43.98123" lon="1.88487">
        <ele>245.4</ele>
        <time>2022-09-01T18:59:57Z</time>
      </trkpt>
      <trkpt lat="43.98122" lon="1.88485">
        <ele>245.8</ele>
        <time>2022-09-01T18:59:58Z</time>
      </trkpt>
      <trkpt lat="43.98122" lon="1.88482">
        <ele>246</ele>
        <time>2022-09-01T18:59:59Z</time>
      </trkpt>
      <trkpt lat="43.98122" lon="1.8848">
        <ele>246</ele>
        <time>2022-09-01T19:00:00Z</time>
      </trkpt>
      <trkpt lat="43.98122" lon="1.88477">
        <ele>246.2</ele>
        <time>2022-09-01T19:00:01Z</time>
      </trkpt>
      <trkpt lat="43.98121" lon="1.88475">
        <ele>246.2</ele>
        <time>2022-09-01T19:00:02Z</time>
      </trkpt>
      <trkpt lat="43.98121" lon="1.88472">
        <ele>246.6</ele>
        <time>2022-09-01T19:00:03Z</time>
      </trkpt>
      <trkpt lat="43.9812" lon="1.88471">
        <ele>246.8</ele>
        <time>2022-09-01T19:00:04Z</time>
      </trkpt>
      <trkpt lat="43.98119" lon="1.88468">
        <ele>246.8</ele>
        <time>2022-09-01T19:00:05Z</time>
      </trkpt>
      <trkpt lat="43.98118" lon="1.88466">
        <ele>247.2</ele>
        <time>2022-09-01T19:00:06Z</time>
      </trkpt>
      <trkpt lat="43.98116" lon="1.88464">
        <ele>247.6</ele>
        <time>2022-09-01T19:00:07Z</time>
      </trkpt>
      <trkpt lat="43.98114" lon="1.88463">
        <ele>247.8</ele>
        <time>2022-09-01T19:00:08Z</time>
      </trkpt>
      <trkpt lat="43.98112" lon="1.88462">
        <ele>248.2</ele>
        <time>2022-09-01T19:00:09Z</time>
      </trkpt>
      <trkpt lat="43.9811" lon="1.8846">
        <ele>248.4</ele>
        <time>2022-09-01T19:00:10Z</time>
      </trkpt>
      <trkpt lat="43.98107" lon="1.88458">
        <ele>248.6</ele>
        <time>2022-09-01T19:00:11Z</time>
      </trkpt>
      <trkpt lat="43.98105" lon="1.88456">
        <ele>248.6</ele>
        <time>2022-09-01T19:00:12Z</time>
      </trkpt>
      <trkpt lat="43.98102" lon="1.88455">
        <ele>248.8</ele>
        <time>2022-09-01T19:00:13Z</time>
      </trkpt>
      <trkpt lat="43.98099" lon="1.88453">
        <ele>249</ele>
        <time>2022-09-01T19:00:14Z</time>
      </trkpt>
      <trkpt lat="43.98097" lon="1.88451">
        <ele>249.2</ele>
        <time>2022-09-01T19:00:15Z</time>
      </trkpt>
      <trkpt lat="43.98094" lon="1.8845">
        <ele>249.4</ele>
        <time>2022-09-01T19:00:16Z</time>
      </trkpt>
      <trkpt lat="43.98091" lon="1.88448">
        <ele>249.4</ele>
        <time>2022-09-01T19:00:17Z</time>
      </trkpt>
      <trkpt lat="43.98088" lon="1.88446">
        <ele>249.6</ele>
        <time>2022-09-01T19:00:18Z</time>
      </trkpt>
      <trkpt lat="43.98085" lon="1.88445">
        <ele>249.8</ele>
        <time>2022-09-01T19:00:19Z</time>
      </trkpt>
      <trkpt lat="43.98083" lon="1.88443">
        <ele>250.2</ele>
        <time>2022-09-01T19:00:20Z</time>
      </trkpt>
      <trkpt lat="43.9808" lon="1.88441">
        <ele>250.2</ele>
        <time>2022-09-01T19:00:21Z</time>
      </trkpt>
      <trkpt lat="43.98077" lon="1.88439">
        <ele>250.4</ele>
        <time>2022-09-01T19:00:22Z</time>
      </trkpt>
      <trkpt lat="43.98075" lon="1.88437">
        <ele>251.4</ele>
        <time>2022-09-01T19:00:23Z</time>
      </trkpt>
      <trkpt lat="43.98072" lon="1.88435">
        <ele>251.8</ele>
        <time>2022-09-01T19:00:24Z</time>
      </trkpt>
      <trkpt lat="43.98069" lon="1.88433">
        <ele>252.2</ele>
        <time>2022-09-01T19:00:25Z</time>
      </trkpt>
      <trkpt lat="43.98066" lon="1.88431">
        <ele>252.4</ele>
        <time>2022-09-01T19:00:26Z</time>
      </trkpt>
      <trkpt lat="43.98064" lon="1.8843">
        <ele>252.8</ele>
        <time>2022-09-01T19:00:27Z</time>
      </trkpt>
      <trkpt lat="43.98062" lon="1.88428">
        <ele>253</ele>
        <time>2022-09-01T19:00:28Z</time>
      </trkpt>
      <trkpt lat="43.9806" lon="1.88426">
        <ele>253.4</ele>
        <time>2022-09-01T19:00:29Z</time>
      </trkpt>
      <trkpt lat="43.98057" lon="1.88425">
        <ele>253.6</ele>
        <time>2022-09-01T19:00:30Z</time>
      </trkpt>
      <trkpt lat="43.98055" lon="1.88423">
        <ele>253.8</ele>
        <time>2022-09-01T19:00:31Z</time>
      </trkpt>
      <trkpt lat="43.98053" lon="1.88421">
        <ele>254.2</ele>
        <time>2022-09-01T19:00:32Z</time>
      </trkpt>
      <trkpt lat="43.9805" lon="1.8842">
        <ele>254.4</ele>
        <time>2022-09-01T19:00:33Z</time>
      </trkpt>
      <trkpt lat="43.98048" lon="1.88419">
        <ele>254.6</ele>
        <time>2022-09-01T19:00:34Z</time>
      </trkpt>
      <trkpt lat="43.98046" lon="1.88417">
        <ele>254.8</ele>
        <time>2022-09-01T19:00:35Z</time>
      </trkpt>
      <trkpt lat="43.98044" lon="1.88416">
        <ele>255</ele>
        <time>2022-09-01T19:00:36Z</time>
      </trkpt>
      <trkpt lat="43.98042" lon="1.88414">
        <ele>255.2</ele>
        <time>2022-09-01T19:00:37Z</time>
      </trkpt>
      <trkpt lat="43.9804" lon="1.88412">
        <ele>255.4</ele>
        <time>2022-09-01T19:00:38Z</time>
      </trkpt>
      <trkpt lat="43.98039" lon="1.8841">
        <ele>255.4</ele>
        <time>2022-09-01T19:00:39Z</time>
      </trkpt>
      <trkpt lat="43.98037" lon="1.88409">
        <ele>255.4</ele>
        <time>2022-09-01T19:00:40Z</time>
      </trkpt>
      <trkpt lat="43.98035" lon="1.88406">
        <ele>255.6</ele>
        <time>2022-09-01T19:00:41Z</time>
      </trkpt>
      <trkpt lat="43.98034" lon="1.88404">
        <ele>255.6</ele>
        <time>2022-09-01T19:00:42Z</time>
      </trkpt>
      <trkpt lat="43.98033" lon="1.88402">
        <ele>255.8</ele>
        <time>2022-09-01T19:00:43Z</time>
      </trkpt>
      <trkpt lat="43.98032" lon="1.88399">
        <ele>255.8</ele>
        <time>2022-09-01T19:00:44Z</time>
      </trkpt>
      <trkpt lat="43.98033" lon="1.88397">
        <ele>256</ele>
        <time>2022-09-01T19:00:45Z</time>
      </trkpt>
      <trkpt lat="43.98034" lon="1.88394">
        <ele>256.2</ele>
        <time>2022-09-01T19:00:46Z</time>
      </trkpt>
      <trkpt lat="43.98035" lon="1.88391">
        <ele>256.2</ele>
        <time>2022-09-01T19:00:47Z</time>
      </trkpt>
      <trkpt lat="43.98036" lon="1.88388">
        <ele>256.2</ele>
        <time>2022-09-01T19:00:48Z</time>
      </trkpt>
      <trkpt lat="43.98038" lon="1.88385">
        <ele>256.4</ele>
        <time>2022-09-01T19:00:49Z</time>
      </trkpt>
      <trkpt lat="43.9804" lon="1.88382">
        <ele>256.4</ele>
        <time>2022-09-01T19:00:50Z</time>
      </trkpt>
      <trkpt lat="43.98041" lon="1.88379">
        <ele>256.4</ele>
        <time>2022-09-01T19:00:51Z</time>
      </trkpt>
      <trkpt lat="43.98042" lon="1.88376">
        <ele>256.4</ele>
        <time>2022-09-01T19:00:52Z</time>
      </trkpt>
      <trkpt lat="43.98043" lon="1.88372">
        <ele>256.4</ele>
        <time>2022-09-01T19:00:53Z</time>
      </trkpt>
      <trkpt lat="43.98045" lon="1.88368">
        <ele>256.4</ele>
        <time>2022-09-01T19:00:54Z</time>
      </trkpt>
      <trkpt lat="43.98046" lon="1.88363">
        <ele>256.4</ele>
        <time>2022-09-01T19:00:55Z</time>
      </trkpt>
      <trkpt lat="43.98048" lon="1.88359">
        <ele>256.4</ele>
        <time>2022-09-01T19:00:56Z</time>
      </trkpt>
      <trkpt lat="43.98049" lon="1.88354">
        <ele>256.4</ele>
        <time>2022-09-01T19:00:57Z</time>
      </trkpt>
      <trkpt lat="43.98051" lon="1.88348">
        <ele>256.4</ele>
        <time>2022-09-01T19:00:58Z</time>
      </trkpt>
      <trkpt lat="43.98052" lon="1.88342">
        <ele>256.4</ele>
        <time>2022-09-01T19:00:59Z</time>
      </trkpt>
      <trkpt lat="43.98054" lon="1.88336">
        <ele>256.2</ele>
        <time>2022-09-01T19:01:00Z</time>
      </trkpt>
      <trkpt lat="43.98056" lon="1.8833">
        <ele>256</ele>
        <time>2022-09-01T19:01:01Z</time>
      </trkpt>
      <trkpt lat="43.98057" lon="1.88323">
        <ele>255.8</ele>
        <time>2022-09-01T19:01:02Z</time>
      </trkpt>
      <trkpt lat="43.98067" lon="1.8828">
        <ele>254.6</ele>
        <time>2022-09-01T19:01:08Z</time>
      </trkpt>
      <trkpt lat="43.98069" lon="1.88272">
        <ele>254.2</ele>
        <time>2022-09-01T19:01:09Z</time>
      </trkpt>
      <trkpt lat="43.98071" lon="1.88266">
        <ele>254</ele>
        <time>2022-09-01T19:01:10Z</time>
      </trkpt>
      <trkpt lat="43.98073" lon="1.88259">
        <ele>253.8</ele>
        <time>2022-09-01T19:01:11Z</time>
      </trkpt>
      <trkpt lat="43.98074" lon="1.88254">
        <ele>253.8</ele>
        <time>2022-09-01T19:01:12Z</time>
      </trkpt>
      <trkpt lat="43.98074" lon="1.8825">
        <ele>253.4</ele>
        <time>2022-09-01T19:01:13Z</time>
      </trkpt>
      <trkpt lat="43.98074" lon="1.88247">
        <ele>253</ele>
        <time>2022-09-01T19:01:14Z</time>
      </trkpt>
      <trkpt lat="43.98073" lon="1.88245">
        <ele>252.6</ele>
        <time>2022-09-01T19:01:15Z</time>
      </trkpt>
      <trkpt lat="43.98073" lon="1.88245">
        <ele>252.4</ele>
        <time>2022-09-01T19:01:16Z</time>
      </trkpt>
      <trkpt lat="43.98073" lon="1.88245">
        <ele>251.4</ele>
        <time>2022-09-01T19:02:44Z</time>
      </trkpt>
      <trkpt lat="43.98072" lon="1.88245">
        <ele>251.2</ele>
        <time>2022-09-01T19:02:47Z</time>
      </trkpt>
      <trkpt lat="43.9807" lon="1.88246">
        <ele>251.2</ele>
        <time>2022-09-01T19:02:48Z</time>
      </trkpt>
      <trkpt lat="43.98062" lon="1.88251">
        <ele>251</ele>
        <time>2022-09-01T19:02:52Z</time>
      </trkpt>
      <trkpt lat="43.98056" lon="1.88254">
        <ele>251</ele>
        <time>2022-09-01T19:02:54Z</time>
      </trkpt>
      <trkpt lat="43.98036" lon="1.88261">
        <ele>250.2</ele>
        <time>2022-09-01T19:02:59Z</time>
      </trkpt>
      <trkpt lat="43.98032" lon="1.88263">
        <ele>250</ele>
        <time>2022-09-01T19:03:00Z</time>
      </trkpt>
      <trkpt lat="43.98018" lon="1.88268">
        <ele>249.4</ele>
        <time>2022-09-01T19:03:03Z</time>
      </trkpt>
      <trkpt lat="43.98014" lon="1.8827">
        <ele>249.4</ele>
        <time>2022-09-01T19:03:04Z</time>
      </trkpt>
      <trkpt lat="43.9801" lon="1.88272">
        <ele>249.2</ele>
        <time>2022-09-01T19:03:05Z</time>
      </trkpt>
      <trkpt lat="43.97992" lon="1.88279">
        <ele>248.6</ele>
        <time>2022-09-01T19:03:09Z</time>
      </trkpt>
      <trkpt lat="43.97987" lon="1.8828">
        <ele>248.4</ele>
        <time>2022-09-01T19:03:10Z</time>
      </trkpt>
      <trkpt lat="43.97973" lon="1.88284">
        <ele>248.2</ele>
        <time>2022-09-01T19:03:13Z</time>
      </trkpt>
      <trkpt lat="43.97963" lon="1.88285">
        <ele>248</ele>
        <time>2022-09-01T19:03:15Z</time>
      </trkpt>
      <trkpt lat="43.97954" lon="1.88287">
        <ele>247.8</ele>
        <time>2022-09-01T19:03:17Z</time>
      </trkpt>
      <trkpt lat="43.97945" lon="1.88288">
        <ele>247.6</ele>
        <time>2022-09-01T19:03:19Z</time>
      </trkpt>
      <trkpt lat="43.97914" lon="1.88291">
        <ele>247.6</ele>
        <time>2022-09-01T19:03:25Z</time>
      </trkpt>
      <trkpt lat="43.97884" lon="1.8829">
        <ele>247.6</ele>
        <time>2022-09-01T19:03:29Z</time>
      </trkpt>
      <trkpt lat="43.97845" lon="1.88286">
        <ele>246.4</ele>
        <time>2022-09-01T19:03:33Z</time>
      </trkpt>
      <trkpt lat="43.97834" lon="1.88285">
        <ele>246.2</ele>
        <time>2022-09-01T19:03:34Z</time>
      </trkpt>
      <trkpt lat="43.97822" lon="1.88285">
        <ele>245.2</ele>
        <time>2022-09-01T19:03:35Z</time>
      </trkpt>
      <trkpt lat="43.9781" lon="1.88285">
        <ele>244</ele>
        <time>2022-09-01T19:03:36Z</time>
      </trkpt>
      <trkpt lat="43.97786" lon="1.88286">
        <ele>241.6</ele>
        <time>2022-09-01T19:03:38Z</time>
      </trkpt>
      <trkpt lat="43.97772" lon="1.88288">
        <ele>240.6</ele>
        <time>2022-09-01T19:03:39Z</time>
      </trkpt>
      <trkpt lat="43.9776" lon="1.88289">
        <ele>239.4</ele>
        <time>2022-09-01T19:03:40Z</time>
      </trkpt>
      <trkpt lat="43.97752" lon="1.8829">
        <ele>239</ele>
        <time>2022-09-01T19:03:41Z</time>
      </trkpt>
      <trkpt lat="43.97742" lon="1.8829">
        <ele>238.2</ele>
        <time>2022-09-01T19:03:42Z</time>
      </trkpt>
      <trkpt lat="43.97731" lon="1.88291">
        <ele>237.8</ele>
        <time>2022-09-01T19:03:43Z</time>
      </trkpt>
      <trkpt lat="43.97723" lon="1.88294">
        <ele>237.6</ele>
        <time>2022-09-01T19:03:44Z</time>
      </trkpt>
      <trkpt lat="43.97717" lon="1.88296">
        <ele>237</ele>
        <time>2022-09-01T19:03:45Z</time>
      </trkpt>
      <trkpt lat="43.97711" lon="1.88299">
        <ele>236.8</ele>
        <time>2022-09-01T19:03:46Z</time>
      </trkpt>
      <trkpt lat="43.97706" lon="1.88303">
        <ele>236.4</ele>
        <time>2022-09-01T19:03:47Z</time>
      </trkpt>
      <trkpt lat="43.97702" lon="1.88307">
        <ele>236.4</ele>
        <time>2022-09-01T19:03:48Z</time>
      </trkpt>
      <trkpt lat="43.97698" lon="1.88312">
        <ele>236.2</ele>
        <time>2022-09-01T19:03:49Z</time>
      </trkpt>
      <trkpt lat="43.97695" lon="1.88317">
        <ele>236.2</ele>
        <time>2022-09-01T19:03:50Z</time>
      </trkpt>
      <trkpt lat="43.97692" lon="1.8832">
        <ele>236.2</ele>
        <time>2022-09-01T19:03:51Z</time>
      </trkpt>
      <trkpt lat="43.97688" lon="1.88324">
        <ele>236</ele>
        <time>2022-09-01T19:03:52Z</time>
      </trkpt>
      <trkpt lat="43.97685" lon="1.88326">
        <ele>236.2</ele>
        <time>2022-09-01T19:03:53Z</time>
      </trkpt>
      <trkpt lat="43.97682" lon="1.88327">
        <ele>236.2</ele>
        <time>2022-09-01T19:03:54Z</time>
      </trkpt>
      <trkpt lat="43.97678" lon="1.88328">
        <ele>236.4</ele>
        <time>2022-09-01T19:03:55Z</time>
      </trkpt>
      <trkpt lat="43.97673" lon="1.88329">
        <ele>236.6</ele>
        <time>2022-09-01T19:03:56Z</time>
      </trkpt>
      <trkpt lat="43.97653" lon="1.88336">
        <ele>237</ele>
        <time>2022-09-01T19:04:00Z</time>
      </trkpt>
      <trkpt lat="43.9762" lon="1.88349">
        <ele>237</ele>
        <time>2022-09-01T19:04:05Z</time>
      </trkpt>
      <trkpt lat="43.97574" lon="1.88367">
        <ele>235.6</ele>
        <time>2022-09-01T19:04:10Z</time>
      </trkpt>
      <trkpt lat="43.97553" lon="1.88372">
        <ele>234.2</ele>
        <time>2022-09-01T19:04:12Z</time>
      </trkpt>
      <trkpt lat="43.9753" lon="1.88373">
        <ele>233</ele>
        <time>2022-09-01T19:04:14Z</time>
      </trkpt>
      <trkpt lat="43.97518" lon="1.88373">
        <ele>231.6</ele>
        <time>2022-09-01T19:04:15Z</time>
      </trkpt>
      <trkpt lat="43.97493" lon="1.88373">
        <ele>230.2</ele>
        <time>2022-09-01T19:04:17Z</time>
      </trkpt>
      <trkpt lat="43.97473" lon="1.88373">
        <ele>228.8</ele>
        <time>2022-09-01T19:04:19Z</time>
      </trkpt>
      <trkpt lat="43.97461" lon="1.88373">
        <ele>228.4</ele>
        <time>2022-09-01T19:04:20Z</time>
      </trkpt>
      <trkpt lat="43.97448" lon="1.88372">
        <ele>227.4</ele>
        <time>2022-09-01T19:04:21Z</time>
      </trkpt>
      <trkpt lat="43.97438" lon="1.88372">
        <ele>226.6</ele>
        <time>2022-09-01T19:04:22Z</time>
      </trkpt>
      <trkpt lat="43.97428" lon="1.88371">
        <ele>226.2</ele>
        <time>2022-09-01T19:04:23Z</time>
      </trkpt>
      <trkpt lat="43.97421" lon="1.8837">
        <ele>225</ele>
        <time>2022-09-01T19:04:24Z</time>
      </trkpt>
      <trkpt lat="43.97412" lon="1.88369">
        <ele>224.4</ele>
        <time>2022-09-01T19:04:25Z</time>
      </trkpt>
      <trkpt lat="43.97406" lon="1.88367">
        <ele>223.6</ele>
        <time>2022-09-01T19:04:26Z</time>
      </trkpt>
      <trkpt lat="43.97401" lon="1.88365">
        <ele>223.4</ele>
        <time>2022-09-01T19:04:27Z</time>
      </trkpt>
      <trkpt lat="43.97397" lon="1.88363">
        <ele>223</ele>
        <time>2022-09-01T19:04:28Z</time>
      </trkpt>
      <trkpt lat="43.97393" lon="1.88361">
        <ele>222.2</ele>
        <time>2022-09-01T19:04:29Z</time>
      </trkpt>
      <trkpt lat="43.9739" lon="1.8836">
        <ele>222</ele>
        <time>2022-09-01T19:04:30Z</time>
      </trkpt>
      <trkpt lat="43.97387" lon="1.8836">
        <ele>221.4</ele>
        <time>2022-09-01T19:04:31Z</time>
      </trkpt>
      <trkpt lat="43.97385" lon="1.88361">
        <ele>221.2</ele>
        <time>2022-09-01T19:04:32Z</time>
      </trkpt>
      <trkpt lat="43.97383" lon="1.88363">
        <ele>220.8</ele>
        <time>2022-09-01T19:04:33Z</time>
      </trkpt>
      <trkpt lat="43.97382" lon="1.88365">
        <ele>220.8</ele>
        <time>2022-09-01T19:04:34Z</time>
      </trkpt>
      <trkpt lat="43.97381" lon="1.88367">
        <ele>220.6</ele>
        <time>2022-09-01T19:04:35Z</time>
      </trkpt>
      <trkpt lat="43.9738" lon="1.8837">
        <ele>220.4</ele>
        <time>2022-09-01T19:04:36Z</time>
      </trkpt>
      <trkpt lat="43.97379" lon="1.88372">
        <ele>220.2</ele>
        <time>2022-09-01T19:04:37Z</time>
      </trkpt>
      <trkpt lat="43.97378" lon="1.88374">
        <ele>220.2</ele>
        <time>2022-09-01T19:04:38Z</time>
      </trkpt>
      <trkpt lat="43.97377" lon="1.88376">
        <ele>220</ele>
        <time>2022-09-01T19:04:39Z</time>
      </trkpt>
      <trkpt lat="43.97376" lon="1.88378">
        <ele>220</ele>
        <time>2022-09-01T19:04:40Z</time>
      </trkpt>
      <trkpt lat="43.97376" lon="1.88378">
        <ele>220</ele>
        <time>2022-09-01T19:04:41Z</time>
      </trkpt>
      <trkpt lat="43.97375" lon="1.8838">
        <ele>220</ele>
        <time>2022-09-01T19:05:50Z</time>
      </trkpt>
      <trkpt lat="43.97374" lon="1.88382">
        <ele>220</ele>
        <time>2022-09-01T19:05:51Z</time>
      </trkpt>
      <trkpt lat="43.97373" lon="1.88384">
        <ele>220</ele>
        <time>2022-09-01T19:05:52Z</time>
      </trkpt>
      <trkpt lat="43.97372" lon="1.88387">
        <ele>220</ele>
        <time>2022-09-01T19:05:53Z</time>
      </trkpt>
      <trkpt lat="43.9737" lon="1.8839">
        <ele>220</ele>
        <time>2022-09-01T19:05:54Z</time>
      </trkpt>
      <trkpt lat="43.97364" lon="1.88401">
        <ele>219.8</ele>
        <time>2022-09-01T19:05:58Z</time>
      </trkpt>
      <trkpt lat="43.97354" lon="1.8842">
        <ele>219.8</ele>
        <time>2022-09-01T19:06:04Z</time>
      </trkpt>
      <trkpt lat="43.97346" lon="1.88431">
        <ele>219.8</ele>
        <time>2022-09-01T19:06:08Z</time>
      </trkpt>
      <trkpt lat="43.97344" lon="1.88435">
        <ele>219.8</ele>
        <time>2022-09-01T19:06:09Z</time>
      </trkpt>
      <trkpt lat="43.97342" lon="1.88437">
        <ele>219.8</ele>
        <time>2022-09-01T19:06:10Z</time>
      </trkpt>
      <trkpt lat="43.9734" lon="1.88439">
        <ele>219.8</ele>
        <time>2022-09-01T19:06:11Z</time>
      </trkpt>
      <trkpt lat="43.97338" lon="1.88442">
        <ele>219.8</ele>
        <time>2022-09-01T19:06:12Z</time>
      </trkpt>
      <trkpt lat="43.97337" lon="1.88443">
        <ele>219.8</ele>
        <time>2022-09-01T19:06:13Z</time>
      </trkpt>
      <trkpt lat="43.97335" lon="1.88446">
        <ele>219.8</ele>
        <time>2022-09-01T19:06:14Z</time>
      </trkpt>
      <trkpt lat="43.97334" lon="1.88447">
        <ele>220</ele>
        <time>2022-09-01T19:06:15Z</time>
      </trkpt>
      <trkpt lat="43.97333" lon="1.88449">
        <ele>220</ele>
        <time>2022-09-01T19:06:16Z</time>
      </trkpt>
      <trkpt lat="43.97331" lon="1.88451">
        <ele>220</ele>
        <time>2022-09-01T19:06:17Z</time>
      </trkpt>
      <trkpt lat="43.97331" lon="1.88452">
        <ele>220</ele>
        <time>2022-09-01T19:06:18Z</time>
      </trkpt>
      <trkpt lat="43.9733" lon="1.88452">
        <ele>219.8</ele>
        <time>2022-09-01T19:06:19Z</time>
      </trkpt>
      <trkpt lat="43.9733" lon="1.88452">
        <ele>220</ele>
        <time>2022-09-01T19:09:46Z</time>
      </trkpt>
      <trkpt lat="43.97329" lon="1.88452">
        <ele>220</ele>
        <time>2022-09-01T19:09:47Z</time>
      </trkpt>
      <trkpt lat="43.97327" lon="1.88455">
        <ele>220</ele>
        <time>2022-09-01T19:09:49Z</time>
      </trkpt>
      <trkpt lat="43.97326" lon="1.88456">
        <ele>220</ele>
        <time>2022-09-01T19:09:50Z</time>
      </trkpt>
      <trkpt lat="43.97325" lon="1.88458">
        <ele>220</ele>
        <time>2022-09-01T19:09:51Z</time>
      </trkpt>
      <trkpt lat="43.97324" lon="1.88459">
        <ele>220</ele>
        <time>2022-09-01T19:09:52Z</time>
      </trkpt>
      <trkpt lat="43.97322" lon="1.88462">
        <ele>220</ele>
        <time>2022-09-01T19:09:53Z</time>
      </trkpt>
      <trkpt lat="43.97319" lon="1.88466">
        <ele>219.6</ele>
        <time>2022-09-01T19:09:55Z</time>
      </trkpt>
      <trkpt lat="43.97311" lon="1.88476">
        <ele>219.8</ele>
        <time>2022-09-01T19:09:59Z</time>
      </trkpt>
      <trkpt lat="43.9731" lon="1.88477">
        <ele>219.8</ele>
        <time>2022-09-01T19:10:00Z</time>
      </trkpt>
      <trkpt lat="43.97306" lon="1.88483">
        <ele>219.8</ele>
        <time>2022-09-01T19:10:02Z</time>
      </trkpt>
      <trkpt lat="43.97296" lon="1.88497">
        <ele>219.8</ele>
        <time>2022-09-01T19:10:07Z</time>
      </trkpt>
      <trkpt lat="43.97294" lon="1.885">
        <ele>219.8</ele>
        <time>2022-09-01T19:10:08Z</time>
      </trkpt>
      <trkpt lat="43.97292" lon="1.88503">
        <ele>220</ele>
        <time>2022-09-01T19:10:09Z</time>
      </trkpt>
      <trkpt lat="43.97282" lon="1.88517">
        <ele>220</ele>
        <time>2022-09-01T19:10:14Z</time>
      </trkpt>
      <trkpt lat="43.9728" lon="1.8852">
        <ele>220</ele>
        <time>2022-09-01T19:10:15Z</time>
      </trkpt>
      <trkpt lat="43.97277" lon="1.88523">
        <ele>220.2</ele>
        <time>2022-09-01T19:10:16Z</time>
      </trkpt>
      <trkpt lat="43.97264" lon="1.88541">
        <ele>220.4</ele>
        <time>2022-09-01T19:10:22Z</time>
      </trkpt>
      <trkpt lat="43.97257" lon="1.88551">
        <ele>220.8</ele>
        <time>2022-09-01T19:10:25Z</time>
      </trkpt>
      <trkpt lat="43.97255" lon="1.88554">
        <ele>220.8</ele>
        <time>2022-09-01T19:10:26Z</time>
      </trkpt>
      <trkpt lat="43.97252" lon="1.88557">
        <ele>220.8</ele>
        <time>2022-09-01T19:10:27Z</time>
      </trkpt>
      <trkpt lat="43.9725" lon="1.88559">
        <ele>220.8</ele>
        <time>2022-09-01T19:10:28Z</time>
      </trkpt>
      <trkpt lat="43.97232" lon="1.88583">
        <ele>220.8</ele>
        <time>2022-09-01T19:10:35Z</time>
      </trkpt>
      <trkpt lat="43.97227" lon="1.88591">
        <ele>221</ele>
        <time>2022-09-01T19:10:37Z</time>
      </trkpt>
      <trkpt lat="43.97224" lon="1.88593">
        <ele>221.2</ele>
        <time>2022-09-01T19:10:38Z</time>
      </trkpt>
      <trkpt lat="43.97222" lon="1.88597">
        <ele>221.4</ele>
        <time>2022-09-01T19:10:39Z</time>
      </trkpt>
      <trkpt lat="43.97219" lon="1.88601">
        <ele>221.4</ele>
        <time>2022-09-01T19:10:40Z</time>
      </trkpt>
      <trkpt lat="43.97212" lon="1.88611">
        <ele>221.8</ele>
        <time>2022-09-01T19:10:43Z</time>
      </trkpt>
      <trkpt lat="43.97209" lon="1.88615">
        <ele>222</ele>
        <time>2022-09-01T19:10:44Z</time>
      </trkpt>
      <trkpt lat="43.97206" lon="1.88619">
        <ele>222</ele>
        <time>2022-09-01T19:10:45Z</time>
      </trkpt>
      <trkpt lat="43.97204" lon="1.88622">
        <ele>222</ele>
        <time>2022-09-01T19:10:46Z</time>
      </trkpt>
      <trkpt lat="43.97202" lon="1.88625">
        <ele>222</ele>
        <time>2022-09-01T19:10:47Z</time>
      </trkpt>
      <trkpt lat="43.972" lon="1.88627">
        <ele>222</ele>
        <time>2022-09-01T19:10:48Z</time>
      </trkpt>
      <trkpt lat="43.97198" lon="1.8863">
        <ele>222</ele>
        <time>2022-09-01T19:10:49Z</time>
      </trkpt>
      <trkpt lat="43.97197" lon="1.88632">
        <ele>222</ele>
        <time>2022-09-01T19:10:50Z</time>
      </trkpt>
      <trkpt lat="43.97196" lon="1.88634">
        <ele>222</ele>
        <time>2022-09-01T19:10:51Z</time>
      </trkpt>
      <trkpt lat="43.97195" lon="1.88636">
        <ele>222</ele>
        <time>2022-09-01T19:10:52Z</time>
      </trkpt>
      <trkpt lat="43.97192" lon="1.88641">
        <ele>222</ele>
        <time>2022-09-01T19:10:54Z</time>
      </trkpt>
      <trkpt lat="43.97187" lon="1.88648">
        <ele>222</ele>
        <time>2022-09-01T19:10:57Z</time>
      </trkpt>
      <trkpt lat="43.97185" lon="1.88652">
        <ele>222</ele>
        <time>2022-09-01T19:10:58Z</time>
      </trkpt>
      <trkpt lat="43.97183" lon="1.88654">
        <ele>222.2</ele>
        <time>2022-09-01T19:10:59Z</time>
      </trkpt>
      <trkpt lat="43.97181" lon="1.88656">
        <ele>222.2</ele>
        <time>2022-09-01T19:11:00Z</time>
      </trkpt>
      <trkpt lat="43.9718" lon="1.88658">
        <ele>222.2</ele>
        <time>2022-09-01T19:11:01Z</time>
      </trkpt>
      <trkpt lat="43.97178" lon="1.88661">
        <ele>222.4</ele>
        <time>2022-09-01T19:11:02Z</time>
      </trkpt>
      <trkpt lat="43.97176" lon="1.88662">
        <ele>222.4</ele>
        <time>2022-09-01T19:11:03Z</time>
      </trkpt>
      <trkpt lat="43.97174" lon="1.88663">
        <ele>222.4</ele>
        <time>2022-09-01T19:11:04Z</time>
      </trkpt>
      <trkpt lat="43.97173" lon="1.88662">
        <ele>222.4</ele>
        <time>2022-09-01T19:11:05Z</time>
      </trkpt>
      <trkpt lat="43.97172" lon="1.8866">
        <ele>222.6</ele>
        <time>2022-09-01T19:11:06Z</time>
      </trkpt>
      <trkpt lat="43.97172" lon="1.88657">
        <ele>222.6</ele>
        <time>2022-09-01T19:11:07Z</time>
      </trkpt>
      <trkpt lat="43.97172" lon="1.8864">
        <ele>222.8</ele>
        <time>2022-09-01T19:11:12Z</time>
      </trkpt>
      <trkpt lat="43.97172" lon="1.88636">
        <ele>222.8</ele>
        <time>2022-09-01T19:11:13Z</time>
      </trkpt>
      <trkpt lat="43.97172" lon="1.88632">
        <ele>222.8</ele>
        <time>2022-09-01T19:11:14Z</time>
      </trkpt>
      <trkpt lat="43.97172" lon="1.88616">
        <ele>222.8</ele>
        <time>2022-09-01T19:11:18Z</time>
      </trkpt>
      <trkpt lat="43.97173" lon="1.88599">
        <ele>222.8</ele>
        <time>2022-09-01T19:11:22Z</time>
      </trkpt>
      <trkpt lat="43.97173" lon="1.88595">
        <ele>222.6</ele>
        <time>2022-09-01T19:11:23Z</time>
      </trkpt>
      <trkpt lat="43.97173" lon="1.88591">
        <ele>222.6</ele>
        <time>2022-09-01T19:11:24Z</time>
      </trkpt>
      <trkpt lat="43.97173" lon="1.88588">
        <ele>222.4</ele>
        <time>2022-09-01T19:11:25Z</time>
      </trkpt>
      <trkpt lat="43.97173" lon="1.88584">
        <ele>222.4</ele>
        <time>2022-09-01T19:11:26Z</time>
      </trkpt>
      <trkpt lat="43.97174" lon="1.88562">
        <ele>222.6</ele>
        <time>2022-09-01T19:11:31Z</time>
      </trkpt>
      <trkpt lat="43.97173" lon="1.88524">
        <ele>222.8</ele>
        <time>2022-09-01T19:11:39Z</time>
      </trkpt>
      <trkpt lat="43.97173" lon="1.88512">
        <ele>222.8</ele>
        <time>2022-09-01T19:11:41Z</time>
      </trkpt>
      <trkpt lat="43.97172" lon="1.88496">
        <ele>223</ele>
        <time>2022-09-01T19:11:44Z</time>
      </trkpt>
      <trkpt lat="43.97171" lon="1.8849">
        <ele>223</ele>
        <time>2022-09-01T19:11:45Z</time>
      </trkpt>
      <trkpt lat="43.97168" lon="1.8848">
        <ele>223</ele>
        <time>2022-09-01T19:11:47Z</time>
      </trkpt>
      <trkpt lat="43.97168" lon="1.88475">
        <ele>223</ele>
        <time>2022-09-01T19:11:48Z</time>
      </trkpt>
      <trkpt lat="43.97165" lon="1.88457">
        <ele>223</ele>
        <time>2022-09-01T19:11:51Z</time>
      </trkpt>
      <trkpt lat="43.97164" lon="1.88453">
        <ele>223</ele>
        <time>2022-09-01T19:11:52Z</time>
      </trkpt>
      <trkpt lat="43.97163" lon="1.88448">
        <ele>223</ele>
        <time>2022-09-01T19:11:53Z</time>
      </trkpt>
      <trkpt lat="43.97162" lon="1.88442">
        <ele>223</ele>
        <time>2022-09-01T19:11:54Z</time>
      </trkpt>
      <trkpt lat="43.97161" lon="1.88438">
        <ele>223.2</ele>
        <time>2022-09-01T19:11:55Z</time>
      </trkpt>
      <trkpt lat="43.97159" lon="1.88433">
        <ele>223.2</ele>
        <time>2022-09-01T19:11:56Z</time>
      </trkpt>
      <trkpt lat="43.97158" lon="1.88429">
        <ele>223.2</ele>
        <time>2022-09-01T19:11:57Z</time>
      </trkpt>
      <trkpt lat="43.97156" lon="1.88424">
        <ele>223.2</ele>
        <time>2022-09-01T19:11:58Z</time>
      </trkpt>
      <trkpt lat="43.97154" lon="1.8842">
        <ele>223.2</ele>
        <time>2022-09-01T19:11:59Z</time>
      </trkpt>
      <trkpt lat="43.9715" lon="1.88408">
        <ele>223.4</ele>
        <time>2022-09-01T19:12:02Z</time>
      </trkpt>
      <trkpt lat="43.97146" lon="1.88398">
        <ele>223.6</ele>
        <time>2022-09-01T19:12:04Z</time>
      </trkpt>
      <trkpt lat="43.97141" lon="1.88386">
        <ele>223.6</ele>
        <time>2022-09-01T19:12:07Z</time>
      </trkpt>
      <trkpt lat="43.9714" lon="1.88381">
        <ele>223.6</ele>
        <time>2022-09-01T19:12:08Z</time>
      </trkpt>
      <trkpt lat="43.97138" lon="1.88377">
        <ele>223.8</ele>
        <time>2022-09-01T19:12:09Z</time>
      </trkpt>
      <trkpt lat="43.97134" lon="1.88363">
        <ele>223.8</ele>
        <time>2022-09-01T19:12:12Z</time>
      </trkpt>
      <trkpt lat="43.97131" lon="1.88351">
        <ele>224</ele>
        <time>2022-09-01T19:12:15Z</time>
      </trkpt>
      <trkpt lat="43.9713" lon="1.88347">
        <ele>224</ele>
        <time>2022-09-01T19:12:16Z</time>
      </trkpt>
      <trkpt lat="43.97128" lon="1.88341">
        <ele>224.2</ele>
        <time>2022-09-01T19:12:17Z</time>
      </trkpt>
      <trkpt lat="43.97127" lon="1.88337">
        <ele>224.2</ele>
        <time>2022-09-01T19:12:18Z</time>
      </trkpt>
      <trkpt lat="43.97126" lon="1.88333">
        <ele>224.4</ele>
        <time>2022-09-01T19:12:19Z</time>
      </trkpt>
      <trkpt lat="43.97114" lon="1.88293">
        <ele>225.4</ele>
        <time>2022-09-01T19:12:28Z</time>
      </trkpt>
      <trkpt lat="43.97113" lon="1.88289">
        <ele>225.6</ele>
        <time>2022-09-01T19:12:29Z</time>
      </trkpt>
      <trkpt lat="43.97112" lon="1.88285">
        <ele>225.8</ele>
        <time>2022-09-01T19:12:30Z</time>
      </trkpt>
      <trkpt lat="43.97109" lon="1.88275">
        <ele>226</ele>
        <time>2022-09-01T19:12:32Z</time>
      </trkpt>
      <trkpt lat="43.97106" lon="1.88261">
        <ele>226.4</ele>
        <time>2022-09-01T19:12:35Z</time>
      </trkpt>
      <trkpt lat="43.97105" lon="1.88256">
        <ele>226.8</ele>
        <time>2022-09-01T19:12:36Z</time>
      </trkpt>
      <trkpt lat="43.97103" lon="1.88248">
        <ele>227.2</ele>
        <time>2022-09-01T19:12:38Z</time>
      </trkpt>
      <trkpt lat="43.97103" lon="1.88243">
        <ele>227.2</ele>
        <time>2022-09-01T19:12:39Z</time>
      </trkpt>
      <trkpt lat="43.97102" lon="1.88237">
        <ele>227.4</ele>
        <time>2022-09-01T19:12:40Z</time>
      </trkpt>
      <trkpt lat="43.97102" lon="1.88232">
        <ele>227.6</ele>
        <time>2022-09-01T19:12:41Z</time>
      </trkpt>
      <trkpt lat="43.97101" lon="1.88227">
        <ele>227.8</ele>
        <time>2022-09-01T19:12:42Z</time>
      </trkpt>
      <trkpt lat="43.97101" lon="1.88223">
        <ele>228.2</ele>
        <time>2022-09-01T19:12:43Z</time>
      </trkpt>
      <trkpt lat="43.97101" lon="1.88217">
        <ele>228.4</ele>
        <time>2022-09-01T19:12:44Z</time>
      </trkpt>
      <trkpt lat="43.971" lon="1.88212">
        <ele>228.6</ele>
        <time>2022-09-01T19:12:45Z</time>
      </trkpt>
      <trkpt lat="43.971" lon="1.88207">
        <ele>228.8</ele>
        <time>2022-09-01T19:12:46Z</time>
      </trkpt>
      <trkpt lat="43.971" lon="1.88201">
        <ele>229</ele>
        <time>2022-09-01T19:12:47Z</time>
      </trkpt>
      <trkpt lat="43.971" lon="1.88197">
        <ele>229.2</ele>
        <time>2022-09-01T19:12:48Z</time>
      </trkpt>
      <trkpt lat="43.97099" lon="1.8819">
        <ele>229.6</ele>
        <time>2022-09-01T19:12:49Z</time>
      </trkpt>
      <trkpt lat="43.97099" lon="1.88185">
        <ele>229.8</ele>
        <time>2022-09-01T19:12:50Z</time>
      </trkpt>
      <trkpt lat="43.97099" lon="1.88179">
        <ele>229.8</ele>
        <time>2022-09-01T19:12:51Z</time>
      </trkpt>
      <trkpt lat="43.97098" lon="1.88173">
        <ele>230</ele>
        <time>2022-09-01T19:12:52Z</time>
      </trkpt>
      <trkpt lat="43.97098" lon="1.88168">
        <ele>230.2</ele>
        <time>2022-09-01T19:12:53Z</time>
      </trkpt>
      <trkpt lat="43.97097" lon="1.88162">
        <ele>230.2</ele>
        <time>2022-09-01T19:12:54Z</time>
      </trkpt>
      <trkpt lat="43.97097" lon="1.88156">
        <ele>230.4</ele>
        <time>2022-09-01T19:12:55Z</time>
      </trkpt>
      <trkpt lat="43.97097" lon="1.88151">
        <ele>230.6</ele>
        <time>2022-09-01T19:12:56Z</time>
      </trkpt>
      <trkpt lat="43.97096" lon="1.88146">
        <ele>230.6</ele>
        <time>2022-09-01T19:12:57Z</time>
      </trkpt>
      <trkpt lat="43.97096" lon="1.88139">
        <ele>230.8</ele>
        <time>2022-09-01T19:12:58Z</time>
      </trkpt>
      <trkpt lat="43.97096" lon="1.88134">
        <ele>230.8</ele>
        <time>2022-09-01T19:12:59Z</time>
      </trkpt>
      <trkpt lat="43.97096" lon="1.88129">
        <ele>231</ele>
        <time>2022-09-01T19:13:00Z</time>
      </trkpt>
      <trkpt lat="43.97096" lon="1.88124">
        <ele>231.4</ele>
        <time>2022-09-01T19:13:01Z</time>
      </trkpt>
      <trkpt lat="43.97096" lon="1.88118">
        <ele>231.4</ele>
        <time>2022-09-01T19:13:02Z</time>
      </trkpt>
      <trkpt lat="43.97095" lon="1.88114">
        <ele>231.6</ele>
        <time>2022-09-01T19:13:03Z</time>
      </trkpt>
      <trkpt lat="43.97094" lon="1.88108">
        <ele>231.4</ele>
        <time>2022-09-01T19:13:04Z</time>
      </trkpt>
      <trkpt lat="43.97094" lon="1.88103">
        <ele>232</ele>
        <time>2022-09-01T19:13:05Z</time>
      </trkpt>
      <trkpt lat="43.97094" lon="1.88099">
        <ele>232</ele>
        <time>2022-09-01T19:13:06Z</time>
      </trkpt>
      <trkpt lat="43.97093" lon="1.88093">
        <ele>232.2</ele>
        <time>2022-09-01T19:13:07Z</time>
      </trkpt>
      <trkpt lat="43.97093" lon="1.88087">
        <ele>232.4</ele>
        <time>2022-09-01T19:13:08Z</time>
      </trkpt>
      <trkpt lat="43.97092" lon="1.88083">
        <ele>232.4</ele>
        <time>2022-09-01T19:13:09Z</time>
      </trkpt>
      <trkpt lat="43.97092" lon="1.88079">
        <ele>232.6</ele>
        <time>2022-09-01T19:13:10Z</time>
      </trkpt>
      <trkpt lat="43.97091" lon="1.88074">
        <ele>232.6</ele>
        <time>2022-09-01T19:13:11Z</time>
      </trkpt>
      <trkpt lat="43.97091" lon="1.88069">
        <ele>232.6</ele>
        <time>2022-09-01T19:13:12Z</time>
      </trkpt>
      <trkpt lat="43.9709" lon="1.88065">
        <ele>233</ele>
        <time>2022-09-01T19:13:13Z</time>
      </trkpt>
      <trkpt lat="43.97089" lon="1.8806">
        <ele>233</ele>
        <time>2022-09-01T19:13:14Z</time>
      </trkpt>
      <trkpt lat="43.97088" lon="1.88057">
        <ele>233.2</ele>
        <time>2022-09-01T19:13:15Z</time>
      </trkpt>
      <trkpt lat="43.97088" lon="1.88053">
        <ele>233.4</ele>
        <time>2022-09-01T19:13:16Z</time>
      </trkpt>
      <trkpt lat="43.97087" lon="1.88048">
        <ele>233.6</ele>
        <time>2022-09-01T19:13:17Z</time>
      </trkpt>
      <trkpt lat="43.97087" lon="1.88043">
        <ele>233.8</ele>
        <time>2022-09-01T19:13:18Z</time>
      </trkpt>
      <trkpt lat="43.97086" lon="1.88039">
        <ele>233.8</ele>
        <time>2022-09-01T19:13:19Z</time>
      </trkpt>
      <trkpt lat="43.97085" lon="1.88035">
        <ele>234</ele>
        <time>2022-09-01T19:13:20Z</time>
      </trkpt>
      <trkpt lat="43.97084" lon="1.88031">
        <ele>234.4</ele>
        <time>2022-09-01T19:13:21Z</time>
      </trkpt>
      <trkpt lat="43.97084" lon="1.88027">
        <ele>234.6</ele>
        <time>2022-09-01T19:13:22Z</time>
      </trkpt>
      <trkpt lat="43.97083" lon="1.88023">
        <ele>234.8</ele>
        <time>2022-09-01T19:13:23Z</time>
      </trkpt>
      <trkpt lat="43.97083" lon="1.88019">
        <ele>235</ele>
        <time>2022-09-01T19:13:24Z</time>
      </trkpt>
      <trkpt lat="43.97082" lon="1.88014">
        <ele>235.2</ele>
        <time>2022-09-01T19:13:25Z</time>
      </trkpt>
      <trkpt lat="43.97082" lon="1.88009">
        <ele>235.4</ele>
        <time>2022-09-01T19:13:26Z</time>
      </trkpt>
      <trkpt lat="43.97081" lon="1.88004">
        <ele>235.6</ele>
        <time>2022-09-01T19:13:27Z</time>
      </trkpt>
      <trkpt lat="43.97081" lon="1.88">
        <ele>235.8</ele>
        <time>2022-09-01T19:13:28Z</time>
      </trkpt>
      <trkpt lat="43.9708" lon="1.87996">
        <ele>236</ele>
        <time>2022-09-01T19:13:29Z</time>
      </trkpt>
      <trkpt lat="43.97079" lon="1.87992">
        <ele>236.2</ele>
        <time>2022-09-01T19:13:30Z</time>
      </trkpt>
      <trkpt lat="43.97078" lon="1.87987">
        <ele>236.6</ele>
        <time>2022-09-01T19:13:31Z</time>
      </trkpt>
      <trkpt lat="43.97077" lon="1.87983">
        <ele>236.8</ele>
        <time>2022-09-01T19:13:32Z</time>
      </trkpt>
      <trkpt lat="43.97077" lon="1.87979">
        <ele>237.2</ele>
        <time>2022-09-01T19:13:33Z</time>
      </trkpt>
      <trkpt lat="43.97076" lon="1.87975">
        <ele>237.2</ele>
        <time>2022-09-01T19:13:34Z</time>
      </trkpt>
      <trkpt lat="43.97076" lon="1.87971">
        <ele>237.4</ele>
        <time>2022-09-01T19:13:35Z</time>
      </trkpt>
      <trkpt lat="43.97074" lon="1.87966">
        <ele>238</ele>
        <time>2022-09-01T19:13:36Z</time>
      </trkpt>
      <trkpt lat="43.97074" lon="1.87962">
        <ele>238.2</ele>
        <time>2022-09-01T19:13:37Z</time>
      </trkpt>
      <trkpt lat="43.97073" lon="1.87958">
        <ele>238.4</ele>
        <time>2022-09-01T19:13:38Z</time>
      </trkpt>
      <trkpt lat="43.97072" lon="1.87954">
        <ele>238.6</ele>
        <time>2022-09-01T19:13:39Z</time>
      </trkpt>
      <trkpt lat="43.9707" lon="1.87949">
        <ele>238.8</ele>
        <time>2022-09-01T19:13:40Z</time>
      </trkpt>
      <trkpt lat="43.97068" lon="1.87945">
        <ele>238.8</ele>
        <time>2022-09-01T19:13:41Z</time>
      </trkpt>
      <trkpt lat="43.97067" lon="1.87941">
        <ele>239</ele>
        <time>2022-09-01T19:13:42Z</time>
      </trkpt>
      <trkpt lat="43.97065" lon="1.87938">
        <ele>239</ele>
        <time>2022-09-01T19:13:43Z</time>
      </trkpt>
      <trkpt lat="43.97063" lon="1.87933">
        <ele>239.4</ele>
        <time>2022-09-01T19:13:44Z</time>
      </trkpt>
      <trkpt lat="43.97061" lon="1.8793">
        <ele>239.6</ele>
        <time>2022-09-01T19:13:45Z</time>
      </trkpt>
      <trkpt lat="43.97059" lon="1.87926">
        <ele>239.8</ele>
        <time>2022-09-01T19:13:46Z</time>
      </trkpt>
      <trkpt lat="43.97057" lon="1.87923">
        <ele>240.2</ele>
        <time>2022-09-01T19:13:47Z</time>
      </trkpt>
      <trkpt lat="43.97055" lon="1.8792">
        <ele>240.2</ele>
        <time>2022-09-01T19:13:48Z</time>
      </trkpt>
      <trkpt lat="43.97052" lon="1.87916">
        <ele>240.6</ele>
        <time>2022-09-01T19:13:49Z</time>
      </trkpt>
      <trkpt lat="43.9705" lon="1.87913">
        <ele>240.8</ele>
        <time>2022-09-01T19:13:50Z</time>
      </trkpt>
      <trkpt lat="43.97049" lon="1.87911">
        <ele>241</ele>
        <time>2022-09-01T19:13:51Z</time>
      </trkpt>
      <trkpt lat="43.97048" lon="1.8791">
        <ele>241.4</ele>
        <time>2022-09-01T19:13:52Z</time>
      </trkpt>
      <trkpt lat="43.97047" lon="1.87909">
        <ele>241.6</ele>
        <time>2022-09-01T19:13:53Z</time>
      </trkpt>
      <trkpt lat="43.97045" lon="1.87908">
        <ele>242</ele>
        <time>2022-09-01T19:13:54Z</time>
      </trkpt>
      <trkpt lat="43.97044" lon="1.87907">
        <ele>242.2</ele>
        <time>2022-09-01T19:13:55Z</time>
      </trkpt>
      <trkpt lat="43.97043" lon="1.87907">
        <ele>242.4</ele>
        <time>2022-09-01T19:13:56Z</time>
      </trkpt>
      <trkpt lat="43.97041" lon="1.87906">
        <ele>242.4</ele>
        <time>2022-09-01T19:13:57Z</time>
      </trkpt>
      <trkpt lat="43.97039" lon="1.87904">
        <ele>242.6</ele>
        <time>2022-09-01T19:13:58Z</time>
      </trkpt>
      <trkpt lat="43.97038" lon="1.87904">
        <ele>242.8</ele>
        <time>2022-09-01T19:13:59Z</time>
      </trkpt>
      <trkpt lat="43.97037" lon="1.87903">
        <ele>242.8</ele>
        <time>2022-09-01T19:14:00Z</time>
      </trkpt>
      <trkpt lat="43.97036" lon="1.87902">
        <ele>242.8</ele>
        <time>2022-09-01T19:14:01Z</time>
      </trkpt>
      <trkpt lat="43.97035" lon="1.87901">
        <ele>242.8</ele>
        <time>2022-09-01T19:14:02Z</time>
      </trkpt>
      <trkpt lat="43.97033" lon="1.87899">
        <ele>242.8</ele>
        <time>2022-09-01T19:14:03Z</time>
      </trkpt>
      <trkpt lat="43.97032" lon="1.87898">
        <ele>243</ele>
        <time>2022-09-01T19:14:04Z</time>
      </trkpt>
      <trkpt lat="43.97032" lon="1.87896">
        <ele>242.8</ele>
        <time>2022-09-01T19:16:30Z</time>
      </trkpt>
      <trkpt lat="43.9703" lon="1.87895">
        <ele>242.8</ele>
        <time>2022-09-01T19:16:31Z</time>
      </trkpt>
      <trkpt lat="43.97018" lon="1.87883">
        <ele>242.8</ele>
        <time>2022-09-01T19:16:36Z</time>
      </trkpt>
      <trkpt lat="43.97003" lon="1.87868">
        <ele>242.6</ele>
        <time>2022-09-01T19:16:41Z</time>
      </trkpt>
      <trkpt lat="43.96982" lon="1.87843">
        <ele>242</ele>
        <time>2022-09-01T19:16:48Z</time>
      </trkpt>
      <trkpt lat="43.96979" lon="1.87839">
        <ele>242</ele>
        <time>2022-09-01T19:16:49Z</time>
      </trkpt>
      <trkpt lat="43.96975" lon="1.87834">
        <ele>242</ele>
        <time>2022-09-01T19:16:50Z</time>
      </trkpt>
      <trkpt lat="43.96972" lon="1.87831">
        <ele>241.8</ele>
        <time>2022-09-01T19:16:51Z</time>
      </trkpt>
      <trkpt lat="43.9697" lon="1.87828">
        <ele>241.6</ele>
        <time>2022-09-01T19:16:52Z</time>
      </trkpt>
      <trkpt lat="43.96968" lon="1.87824">
        <ele>241.8</ele>
        <time>2022-09-01T19:16:53Z</time>
      </trkpt>
      <trkpt lat="43.96957" lon="1.87809">
        <ele>241.6</ele>
        <time>2022-09-01T19:16:57Z</time>
      </trkpt>
      <trkpt lat="43.96955" lon="1.87805">
        <ele>241.4</ele>
        <time>2022-09-01T19:16:58Z</time>
      </trkpt>
      <trkpt lat="43.96952" lon="1.87801">
        <ele>241.4</ele>
        <time>2022-09-01T19:16:59Z</time>
      </trkpt>
      <trkpt lat="43.9695" lon="1.87797">
        <ele>241.6</ele>
        <time>2022-09-01T19:17:00Z</time>
      </trkpt>
      <trkpt lat="43.96947" lon="1.87794">
        <ele>241.6</ele>
        <time>2022-09-01T19:17:01Z</time>
      </trkpt>
      <trkpt lat="43.96938" lon="1.87777">
        <ele>241.8</ele>
        <time>2022-09-01T19:17:05Z</time>
      </trkpt>
      <trkpt lat="43.96935" lon="1.87774">
        <ele>242</ele>
        <time>2022-09-01T19:17:06Z</time>
      </trkpt>
      <trkpt lat="43.96933" lon="1.87771">
        <ele>242.2</ele>
        <time>2022-09-01T19:17:07Z</time>
      </trkpt>
      <trkpt lat="43.96931" lon="1.87768">
        <ele>242.2</ele>
        <time>2022-09-01T19:17:08Z</time>
      </trkpt>
      <trkpt lat="43.96929" lon="1.87765">
        <ele>242.2</ele>
        <time>2022-09-01T19:17:09Z</time>
      </trkpt>
      <trkpt lat="43.96927" lon="1.87762">
        <ele>242.4</ele>
        <time>2022-09-01T19:17:10Z</time>
      </trkpt>
      <trkpt lat="43.96925" lon="1.8776">
        <ele>242.4</ele>
        <time>2022-09-01T19:17:11Z</time>
      </trkpt>
      <trkpt lat="43.96924" lon="1.87758">
        <ele>242.6</ele>
        <time>2022-09-01T19:17:12Z</time>
      </trkpt>
      <trkpt lat="43.96921" lon="1.87756">
        <ele>242.8</ele>
        <time>2022-09-01T19:17:13Z</time>
      </trkpt>
      <trkpt lat="43.96919" lon="1.87754">
        <ele>243</ele>
        <time>2022-09-01T19:17:14Z</time>
      </trkpt>
      <trkpt lat="43.96917" lon="1.87753">
        <ele>243.2</ele>
        <time>2022-09-01T19:17:15Z</time>
      </trkpt>
      <trkpt lat="43.96915" lon="1.87753">
        <ele>243.2</ele>
        <time>2022-09-01T19:17:16Z</time>
      </trkpt>
      <trkpt lat="43.96912" lon="1.87752">
        <ele>243.4</ele>
        <time>2022-09-01T19:17:17Z</time>
      </trkpt>
      <trkpt lat="43.96908" lon="1.87752">
        <ele>243.6</ele>
        <time>2022-09-01T19:17:19Z</time>
      </trkpt>
      <trkpt lat="43.96905" lon="1.87752">
        <ele>243.6</ele>
        <time>2022-09-01T19:17:20Z</time>
      </trkpt>
      <trkpt lat="43.96904" lon="1.87752">
        <ele>243.8</ele>
        <time>2022-09-01T19:17:21Z</time>
      </trkpt>
      <trkpt lat="43.96901" lon="1.87753">
        <ele>243.8</ele>
        <time>2022-09-01T19:17:22Z</time>
      </trkpt>
      <trkpt lat="43.96899" lon="1.87754">
        <ele>243.8</ele>
        <time>2022-09-01T19:17:23Z</time>
      </trkpt>
      <trkpt lat="43.96897" lon="1.87756">
        <ele>243.8</ele>
        <time>2022-09-01T19:17:24Z</time>
      </trkpt>
      <trkpt lat="43.96896" lon="1.87757">
        <ele>243.8</ele>
        <time>2022-09-01T19:17:25Z</time>
      </trkpt>
      <trkpt lat="43.96895" lon="1.87757">
        <ele>243.8</ele>
        <time>2022-09-01T19:17:26Z</time>
      </trkpt>
      <trkpt lat="43.96894" lon="1.8776">
        <ele>243.6</ele>
        <time>2022-09-01T19:17:38Z</time>
      </trkpt>
      <trkpt lat="43.96895" lon="1.87763">
        <ele>243.6</ele>
        <time>2022-09-01T19:17:40Z</time>
      </trkpt>
      <trkpt lat="43.96901" lon="1.87756">
        <ele>243.6</ele>
        <time>2022-09-01T19:17:44Z</time>
      </trkpt>
      <trkpt lat="43.96904" lon="1.8775">
        <ele>243.6</ele>
        <time>2022-09-01T19:17:46Z</time>
      </trkpt>
      <trkpt lat="43.96906" lon="1.87748">
        <ele>243.8</ele>
        <time>2022-09-01T19:17:47Z</time>
      </trkpt>
      <trkpt lat="43.96906" lon="1.87746">
        <ele>243.8</ele>
        <time>2022-09-01T19:17:48Z</time>
      </trkpt>
      <trkpt lat="43.96907" lon="1.87744">
        <ele>243.8</ele>
        <time>2022-09-01T19:17:49Z</time>
      </trkpt>
      <trkpt lat="43.96907" lon="1.87742">
        <ele>243.8</ele>
        <time>2022-09-01T19:17:50Z</time>
      </trkpt>
      <trkpt lat="43.96907" lon="1.87739">
        <ele>244</ele>
        <time>2022-09-01T19:17:51Z</time>
      </trkpt>
      <trkpt lat="43.96906" lon="1.87737">
        <ele>244</ele>
        <time>2022-09-01T19:17:52Z</time>
      </trkpt>
      <trkpt lat="43.96905" lon="1.87735">
        <ele>244</ele>
        <time>2022-09-01T19:17:53Z</time>
      </trkpt>
      <trkpt lat="43.96904" lon="1.87732">
        <ele>244</ele>
        <time>2022-09-01T19:17:54Z</time>
      </trkpt>
      <trkpt lat="43.96902" lon="1.8773">
        <ele>244</ele>
        <time>2022-09-01T19:17:55Z</time>
      </trkpt>
      <trkpt lat="43.96901" lon="1.87729">
        <ele>243.8</ele>
        <time>2022-09-01T19:17:56Z</time>
      </trkpt>
      <trkpt lat="43.969" lon="1.87727">
        <ele>243.8</ele>
        <time>2022-09-01T19:17:57Z</time>
      </trkpt>
      <trkpt lat="43.96887" lon="1.8771">
        <ele>243.2</ele>
        <time>2022-09-01T19:18:03Z</time>
      </trkpt>
      <trkpt lat="43.96871" lon="1.87685">
        <ele>242.4</ele>
        <time>2022-09-01T19:18:08Z</time>
      </trkpt>
      <trkpt lat="43.96868" lon="1.87679">
        <ele>242.2</ele>
        <time>2022-09-01T19:18:09Z</time>
      </trkpt>
      <trkpt lat="43.96857" lon="1.87662">
        <ele>241.4</ele>
        <time>2022-09-01T19:18:12Z</time>
      </trkpt>
      <trkpt lat="43.96853" lon="1.87656">
        <ele>241.4</ele>
        <time>2022-09-01T19:18:13Z</time>
      </trkpt>
      <trkpt lat="43.9685" lon="1.87651">
        <ele>241</ele>
        <time>2022-09-01T19:18:14Z</time>
      </trkpt>
      <trkpt lat="43.96847" lon="1.87647">
        <ele>240.8</ele>
        <time>2022-09-01T19:18:15Z</time>
      </trkpt>
      <trkpt lat="43.96836" lon="1.87626">
        <ele>240</ele>
        <time>2022-09-01T19:18:18Z</time>
      </trkpt>
      <trkpt lat="43.96822" lon="1.87595">
        <ele>238.8</ele>
        <time>2022-09-01T19:18:22Z</time>
      </trkpt>
      <trkpt lat="43.96816" lon="1.87579">
        <ele>237.6</ele>
        <time>2022-09-01T19:18:24Z</time>
      </trkpt>
      <trkpt lat="43.96802" lon="1.87549">
        <ele>236.4</ele>
        <time>2022-09-01T19:18:27Z</time>
      </trkpt>
      <trkpt lat="43.96798" lon="1.8754">
        <ele>236</ele>
        <time>2022-09-01T19:18:28Z</time>
      </trkpt>
      <trkpt lat="43.96793" lon="1.87531">
        <ele>235.6</ele>
        <time>2022-09-01T19:18:29Z</time>
      </trkpt>
      <trkpt lat="43.96789" lon="1.87522">
        <ele>235.2</ele>
        <time>2022-09-01T19:18:30Z</time>
      </trkpt>
      <trkpt lat="43.96785" lon="1.87514">
        <ele>235</ele>
        <time>2022-09-01T19:18:31Z</time>
      </trkpt>
      <trkpt lat="43.96782" lon="1.87505">
        <ele>234.4</ele>
        <time>2022-09-01T19:18:32Z</time>
      </trkpt>
      <trkpt lat="43.96779" lon="1.87496">
        <ele>233.8</ele>
        <time>2022-09-01T19:18:33Z</time>
      </trkpt>
      <trkpt lat="43.96776" lon="1.87487">
        <ele>233.4</ele>
        <time>2022-09-01T19:18:34Z</time>
      </trkpt>
      <trkpt lat="43.96774" lon="1.87478">
        <ele>232.6</ele>
        <time>2022-09-01T19:18:35Z</time>
      </trkpt>
      <trkpt lat="43.96772" lon="1.87469">
        <ele>232</ele>
        <time>2022-09-01T19:18:36Z</time>
      </trkpt>
      <trkpt lat="43.9677" lon="1.87462">
        <ele>230.6</ele>
        <time>2022-09-01T19:18:37Z</time>
      </trkpt>
      <trkpt lat="43.96765" lon="1.87442">
        <ele>229.2</ele>
        <time>2022-09-01T19:18:39Z</time>
      </trkpt>
      <trkpt lat="43.96758" lon="1.87411">
        <ele>227.8</ele>
        <time>2022-09-01T19:18:42Z</time>
      </trkpt>
      <trkpt lat="43.96755" lon="1.8738">
        <ele>226.4</ele>
        <time>2022-09-01T19:18:45Z</time>
      </trkpt>
      <trkpt lat="43.96755" lon="1.8737">
        <ele>226.2</ele>
        <time>2022-09-01T19:18:46Z</time>
      </trkpt>
      <trkpt lat="43.96754" lon="1.8735">
        <ele>225.6</ele>
        <time>2022-09-01T19:18:48Z</time>
      </trkpt>
      <trkpt lat="43.96754" lon="1.8734">
        <ele>225</ele>
        <time>2022-09-01T19:18:49Z</time>
      </trkpt>
      <trkpt lat="43.96752" lon="1.87311">
        <ele>224</ele>
        <time>2022-09-01T19:18:52Z</time>
      </trkpt>
      <trkpt lat="43.9675" lon="1.87298">
        <ele>223.8</ele>
        <time>2022-09-01T19:18:53Z</time>
      </trkpt>
      <trkpt lat="43.96747" lon="1.87288">
        <ele>223.4</ele>
        <time>2022-09-01T19:18:54Z</time>
      </trkpt>
      <trkpt lat="43.96744" lon="1.87278">
        <ele>222.8</ele>
        <time>2022-09-01T19:18:55Z</time>
      </trkpt>
      <trkpt lat="43.96738" lon="1.87258">
        <ele>222</ele>
        <time>2022-09-01T19:18:57Z</time>
      </trkpt>
      <trkpt lat="43.96735" lon="1.87249">
        <ele>221.4</ele>
        <time>2022-09-01T19:18:58Z</time>
      </trkpt>
      <trkpt lat="43.96733" lon="1.87241">
        <ele>221.4</ele>
        <time>2022-09-01T19:18:59Z</time>
      </trkpt>
      <trkpt lat="43.96731" lon="1.87235">
        <ele>220.8</ele>
        <time>2022-09-01T19:19:00Z</time>
      </trkpt>
      <trkpt lat="43.96729" lon="1.87229">
        <ele>220.6</ele>
        <time>2022-09-01T19:19:01Z</time>
      </trkpt>
      <trkpt lat="43.96726" lon="1.87223">
        <ele>220</ele>
        <time>2022-09-01T19:19:02Z</time>
      </trkpt>
      <trkpt lat="43.96723" lon="1.8722">
        <ele>219.6</ele>
        <time>2022-09-01T19:19:03Z</time>
      </trkpt>
      <trkpt lat="43.9672" lon="1.87217">
        <ele>219.4</ele>
        <time>2022-09-01T19:19:04Z</time>
      </trkpt>
      <trkpt lat="43.96717" lon="1.87214">
        <ele>219.2</ele>
        <time>2022-09-01T19:19:05Z</time>
      </trkpt>
      <trkpt lat="43.96715" lon="1.87211">
        <ele>219</ele>
        <time>2022-09-01T19:19:06Z</time>
      </trkpt>
      <trkpt lat="43.96713" lon="1.87209">
        <ele>218.6</ele>
        <time>2022-09-01T19:19:07Z</time>
      </trkpt>
      <trkpt lat="43.96711" lon="1.87208">
        <ele>218.4</ele>
        <time>2022-09-01T19:19:08Z</time>
      </trkpt>
      <trkpt lat="43.96709" lon="1.87206">
        <ele>218.2</ele>
        <time>2022-09-01T19:19:09Z</time>
      </trkpt>
      <trkpt lat="43.96708" lon="1.87205">
        <ele>218</ele>
        <time>2022-09-01T19:19:10Z</time>
      </trkpt>
      <trkpt lat="43.96705" lon="1.87203">
        <ele>218</ele>
        <time>2022-09-01T19:19:11Z</time>
      </trkpt>
      <trkpt lat="43.96704" lon="1.87201">
        <ele>218</ele>
        <time>2022-09-01T19:19:12Z</time>
      </trkpt>
      <trkpt lat="43.96702" lon="1.87199">
        <ele>218</ele>
        <time>2022-09-01T19:19:13Z</time>
      </trkpt>
      <trkpt lat="43.96701" lon="1.87198">
        <ele>218</ele>
        <time>2022-09-01T19:19:14Z</time>
      </trkpt>
      <trkpt lat="43.967" lon="1.87196">
        <ele>218</ele>
        <time>2022-09-01T19:19:15Z</time>
      </trkpt>
      <trkpt lat="43.967" lon="1.87196">
        <ele>217.2</ele>
        <time>2022-09-01T19:21:48Z</time>
      </trkpt>
      <trkpt lat="43.967" lon="1.87196">
        <ele>217.2</ele>
        <time>2022-09-01T19:21:49Z</time>
      </trkpt>
      <trkpt lat="43.96695" lon="1.87193">
        <ele>217</ele>
        <time>2022-09-01T19:21:52Z</time>
      </trkpt>
      <trkpt lat="43.96686" lon="1.8719">
        <ele>217.2</ele>
        <time>2022-09-01T19:21:56Z</time>
      </trkpt>
      <trkpt lat="43.96683" lon="1.87189">
        <ele>217.4</ele>
        <time>2022-09-01T19:21:57Z</time>
      </trkpt>
      <trkpt lat="43.96676" lon="1.87188">
        <ele>217.6</ele>
        <time>2022-09-01T19:21:59Z</time>
      </trkpt>
      <trkpt lat="43.96673" lon="1.87187">
        <ele>217.6</ele>
        <time>2022-09-01T19:22:00Z</time>
      </trkpt>
      <trkpt lat="43.9667" lon="1.87188">
        <ele>217.8</ele>
        <time>2022-09-01T19:22:01Z</time>
      </trkpt>
      <trkpt lat="43.96667" lon="1.87188">
        <ele>218</ele>
        <time>2022-09-01T19:22:02Z</time>
      </trkpt>
      <trkpt lat="43.96664" lon="1.87188">
        <ele>218</ele>
        <time>2022-09-01T19:22:03Z</time>
      </trkpt>
      <trkpt lat="43.9666" lon="1.87188">
        <ele>218.2</ele>
        <time>2022-09-01T19:22:04Z</time>
      </trkpt>
      <trkpt lat="43.96658" lon="1.87189">
        <ele>218.2</ele>
        <time>2022-09-01T19:22:05Z</time>
      </trkpt>
      <trkpt lat="43.96656" lon="1.87191">
        <ele>218.4</ele>
        <time>2022-09-01T19:22:06Z</time>
      </trkpt>
      <trkpt lat="43.96654" lon="1.87194">
        <ele>218.6</ele>
        <time>2022-09-01T19:22:07Z</time>
      </trkpt>
      <trkpt lat="43.96653" lon="1.87197">
        <ele>218.6</ele>
        <time>2022-09-01T19:22:08Z</time>
      </trkpt>
      <trkpt lat="43.96651" lon="1.872">
        <ele>218.6</ele>
        <time>2022-09-01T19:22:09Z</time>
      </trkpt>
      <trkpt lat="43.9665" lon="1.87203">
        <ele>218.8</ele>
        <time>2022-09-01T19:22:10Z</time>
      </trkpt>
      <trkpt lat="43.96646" lon="1.87214">
        <ele>219.4</ele>
        <time>2022-09-01T19:22:13Z</time>
      </trkpt>
      <trkpt lat="43.96644" lon="1.87217">
        <ele>219.4</ele>
        <time>2022-09-01T19:22:14Z</time>
      </trkpt>
      <trkpt lat="43.96642" lon="1.8722">
        <ele>219.6</ele>
        <time>2022-09-01T19:22:15Z</time>
      </trkpt>
      <trkpt lat="43.9664" lon="1.87226">
        <ele>220</ele>
        <time>2022-09-01T19:22:17Z</time>
      </trkpt>
      <trkpt lat="43.96634" lon="1.87239">
        <ele>219.8</ele>
        <time>2022-09-01T19:22:20Z</time>
      </trkpt>
      <trkpt lat="43.9663" lon="1.87249">
        <ele>219.8</ele>
        <time>2022-09-01T19:22:23Z</time>
      </trkpt>
      <trkpt lat="43.96629" lon="1.87253">
        <ele>219.8</ele>
        <time>2022-09-01T19:22:24Z</time>
      </trkpt>
      <trkpt lat="43.96627" lon="1.87262">
        <ele>219.6</ele>
        <time>2022-09-01T19:22:26Z</time>
      </trkpt>
      <trkpt lat="43.96627" lon="1.87266">
        <ele>219.6</ele>
        <time>2022-09-01T19:22:27Z</time>
      </trkpt>
      <trkpt lat="43.96626" lon="1.87268">
        <ele>219.6</ele>
        <time>2022-09-01T19:22:28Z</time>
      </trkpt>
      <trkpt lat="43.96625" lon="1.87271">
        <ele>219.6</ele>
        <time>2022-09-01T19:22:29Z</time>
      </trkpt>
      <trkpt lat="43.96624" lon="1.87274">
        <ele>219.6</ele>
        <time>2022-09-01T19:22:30Z</time>
      </trkpt>
      <trkpt lat="43.96623" lon="1.87276">
        <ele>219.6</ele>
        <time>2022-09-01T19:22:31Z</time>
      </trkpt>
      <trkpt lat="43.96621" lon="1.8728">
        <ele>219.6</ele>
        <time>2022-09-01T19:22:32Z</time>
      </trkpt>
      <trkpt lat="43.96621" lon="1.87282">
        <ele>219.6</ele>
        <time>2022-09-01T19:22:33Z</time>
      </trkpt>
      <trkpt lat="43.9662" lon="1.87286">
        <ele>219.4</ele>
        <time>2022-09-01T19:22:34Z</time>
      </trkpt>
      <trkpt lat="43.96619" lon="1.87288">
        <ele>219.4</ele>
        <time>2022-09-01T19:22:35Z</time>
      </trkpt>
      <trkpt lat="43.96618" lon="1.87292">
        <ele>219.4</ele>
        <time>2022-09-01T19:22:36Z</time>
      </trkpt>
      <trkpt lat="43.96617" lon="1.87292">
        <ele>219.4</ele>
        <time>2022-09-01T19:23:40Z</time>
      </trkpt>
      <trkpt lat="43.96617" lon="1.87292">
        <ele>219.2</ele>
        <time>2022-09-01T19:23:41Z</time>
      </trkpt>
      <trkpt lat="43.96615" lon="1.87297">
        <ele>219.2</ele>
        <time>2022-09-01T19:26:38Z</time>
      </trkpt>
      <trkpt lat="43.96615" lon="1.87297">
        <ele>219.2</ele>
        <time>2022-09-01T19:26:39Z</time>
      </trkpt>
      <trkpt lat="43.96613" lon="1.87303">
        <ele>219.2</ele>
        <time>2022-09-01T19:26:44Z</time>
      </trkpt>
      <trkpt lat="43.96612" lon="1.87304">
        <ele>219.4</ele>
        <time>2022-09-01T19:26:56Z</time>
      </trkpt>
      <trkpt lat="43.9661" lon="1.87315">
        <ele>219.6</ele>
        <time>2022-09-01T19:27:01Z</time>
      </trkpt>
      <trkpt lat="43.96606" lon="1.87325">
        <ele>219.6</ele>
        <time>2022-09-01T19:27:04Z</time>
      </trkpt>
      <trkpt lat="43.96604" lon="1.87332">
        <ele>219.8</ele>
        <time>2022-09-01T19:27:06Z</time>
      </trkpt>
      <trkpt lat="43.96603" lon="1.87336">
        <ele>219.8</ele>
        <time>2022-09-01T19:27:07Z</time>
      </trkpt>
      <trkpt lat="43.96602" lon="1.87339">
        <ele>219.8</ele>
        <time>2022-09-01T19:27:08Z</time>
      </trkpt>
      <trkpt lat="43.966" lon="1.87342">
        <ele>219.8</ele>
        <time>2022-09-01T19:27:09Z</time>
      </trkpt>
      <trkpt lat="43.96599" lon="1.87345">
        <ele>220</ele>
        <time>2022-09-01T19:27:10Z</time>
      </trkpt>
      <trkpt lat="43.96597" lon="1.87348">
        <ele>220</ele>
        <time>2022-09-01T19:27:11Z</time>
      </trkpt>
      <trkpt lat="43.96595" lon="1.8735">
        <ele>220.2</ele>
        <time>2022-09-01T19:27:12Z</time>
      </trkpt>
      <trkpt lat="43.96593" lon="1.87355">
        <ele>220.6</ele>
        <time>2022-09-01T19:27:14Z</time>
      </trkpt>
      <trkpt lat="43.96591" lon="1.87358">
        <ele>220.8</ele>
        <time>2022-09-01T19:27:15Z</time>
      </trkpt>
      <trkpt lat="43.96586" lon="1.87368">
        <ele>221</ele>
        <time>2022-09-01T19:27:18Z</time>
      </trkpt>
      <trkpt lat="43.96584" lon="1.8737">
        <ele>221</ele>
        <time>2022-09-01T19:27:19Z</time>
      </trkpt>
      <trkpt lat="43.96583" lon="1.87372">
        <ele>221.2</ele>
        <time>2022-09-01T19:27:20Z</time>
      </trkpt>
      <trkpt lat="43.96582" lon="1.87375">
        <ele>221.4</ele>
        <time>2022-09-01T19:27:21Z</time>
      </trkpt>
      <trkpt lat="43.96579" lon="1.87382">
        <ele>221.8</ele>
        <time>2022-09-01T19:27:23Z</time>
      </trkpt>
      <trkpt lat="43.96569" lon="1.87402">
        <ele>222.6</ele>
        <time>2022-09-01T19:27:29Z</time>
      </trkpt>
      <trkpt lat="43.96565" lon="1.87406">
        <ele>222.6</ele>
        <time>2022-09-01T19:27:30Z</time>
      </trkpt>
      <trkpt lat="43.96563" lon="1.8741">
        <ele>222.8</ele>
        <time>2022-09-01T19:27:31Z</time>
      </trkpt>
      <trkpt lat="43.96561" lon="1.87412">
        <ele>223</ele>
        <time>2022-09-01T19:27:32Z</time>
      </trkpt>
      <trkpt lat="43.96559" lon="1.87415">
        <ele>223</ele>
        <time>2022-09-01T19:27:33Z</time>
      </trkpt>
      <trkpt lat="43.96558" lon="1.87417">
        <ele>223</ele>
        <time>2022-09-01T19:27:34Z</time>
      </trkpt>
      <trkpt lat="43.96558" lon="1.87417">
        <ele>223.4</ele>
        <time>2022-09-01T19:27:35Z</time>
      </trkpt>
      <trkpt lat="43.96558" lon="1.87418">
        <ele>223.8</ele>
        <time>2022-09-01T19:27:36Z</time>
      </trkpt>
      <trkpt lat="43.96557" lon="1.87418">
        <ele>223.8</ele>
        <time>2022-09-01T19:27:37Z</time>
      </trkpt>
      <trkpt lat="43.96557" lon="1.87418">
        <ele>224</ele>
        <time>2022-09-01T19:27:38Z</time>
      </trkpt>
      <trkpt lat="43.96557" lon="1.87418">
        <ele>224.2</ele>
        <time>2022-09-01T19:27:40Z</time>
      </trkpt>
      <trkpt lat="43.96557" lon="1.87418">
        <ele>224.4</ele>
        <time>2022-09-01T19:27:41Z</time>
      </trkpt>
      <trkpt lat="43.96557" lon="1.87418">
        <ele>224.6</ele>
        <time>2022-09-01T19:27:42Z</time>
      </trkpt>
      <trkpt lat="43.96556" lon="1.87418">
        <ele>224.8</ele>
        <time>2022-09-01T19:27:44Z</time>
      </trkpt>
      <trkpt lat="43.96556" lon="1.87419">
        <ele>224.8</ele>
        <time>2022-09-01T19:27:45Z</time>
      </trkpt>
      <trkpt lat="43.96556" lon="1.87419">
        <ele>224.8</ele>
        <time>2022-09-01T19:27:46Z</time>
      </trkpt>
      <trkpt lat="43.96555" lon="1.87419">
        <ele>225</ele>
        <time>2022-09-01T19:27:47Z</time>
      </trkpt>
      <trkpt lat="43.96552" lon="1.8742">
        <ele>225</ele>
        <time>2022-09-01T19:27:48Z</time>
      </trkpt>
      <trkpt lat="43.96552" lon="1.8742">
        <ele>225.4</ele>
        <time>2022-09-01T19:27:52Z</time>
      </trkpt>
      <trkpt lat="43.96552" lon="1.8742">
        <ele>225.6</ele>
        <time>2022-09-01T19:27:53Z</time>
      </trkpt>
      <trkpt lat="43.96552" lon="1.8742">
        <ele>225.6</ele>
        <time>2022-09-01T19:27:54Z</time>
      </trkpt>
      <trkpt lat="43.96552" lon="1.8742">
        <ele>225.8</ele>
        <time>2022-09-01T19:27:55Z</time>
      </trkpt>
      <trkpt lat="43.96552" lon="1.8742">
        <ele>225.8</ele>
        <time>2022-09-01T19:27:56Z</time>
      </trkpt>
      <trkpt lat="43.96552" lon="1.8742">
        <ele>226</ele>
        <time>2022-09-01T19:27:57Z</time>
      </trkpt>
      <trkpt lat="43.96551" lon="1.87419">
        <ele>226</ele>
        <time>2022-09-01T19:27:58Z</time>
      </trkpt>
      <trkpt lat="43.9655" lon="1.8742">
        <ele>226.2</ele>
        <time>2022-09-01T19:27:59Z</time>
      </trkpt>
      <trkpt lat="43.96547" lon="1.8742">
        <ele>226.2</ele>
        <time>2022-09-01T19:28:00Z</time>
      </trkpt>
      <trkpt lat="43.96545" lon="1.87421">
        <ele>226.4</ele>
        <time>2022-09-01T19:28:01Z</time>
      </trkpt>
      <trkpt lat="43.96544" lon="1.87421">
        <ele>226.6</ele>
        <time>2022-09-01T19:28:02Z</time>
      </trkpt>
      <trkpt lat="43.96542" lon="1.87422">
        <ele>226.8</ele>
        <time>2022-09-01T19:28:03Z</time>
      </trkpt>
      <trkpt lat="43.9654" lon="1.87424">
        <ele>227</ele>
        <time>2022-09-01T19:28:04Z</time>
      </trkpt>
      <trkpt lat="43.96539" lon="1.87425">
        <ele>227</ele>
        <time>2022-09-01T19:28:05Z</time>
      </trkpt>
      <trkpt lat="43.96537" lon="1.87426">
        <ele>227.4</ele>
        <time>2022-09-01T19:28:06Z</time>
      </trkpt>
      <trkpt lat="43.96536" lon="1.87428">
        <ele>227.4</ele>
        <time>2022-09-01T19:28:07Z</time>
      </trkpt>
      <trkpt lat="43.96534" lon="1.8743">
        <ele>227.6</ele>
        <time>2022-09-01T19:28:08Z</time>
      </trkpt>
      <trkpt lat="43.96533" lon="1.87431">
        <ele>227.8</ele>
        <time>2022-09-01T19:28:09Z</time>
      </trkpt>
      <trkpt lat="43.96532" lon="1.87432">
        <ele>228.2</ele>
        <time>2022-09-01T19:28:10Z</time>
      </trkpt>
      <trkpt lat="43.96531" lon="1.87434">
        <ele>228.2</ele>
        <time>2022-09-01T19:28:11Z</time>
      </trkpt>
      <trkpt lat="43.9653" lon="1.87437">
        <ele>228.4</ele>
        <time>2022-09-01T19:28:12Z</time>
      </trkpt>
      <trkpt lat="43.96529" lon="1.87439">
        <ele>228.6</ele>
        <time>2022-09-01T19:28:13Z</time>
      </trkpt>
      <trkpt lat="43.96527" lon="1.8744">
        <ele>228.8</ele>
        <time>2022-09-01T19:28:14Z</time>
      </trkpt>
      <trkpt lat="43.96526" lon="1.87442">
        <ele>229</ele>
        <time>2022-09-01T19:28:15Z</time>
      </trkpt>
      <trkpt lat="43.96524" lon="1.87444">
        <ele>229</ele>
        <time>2022-09-01T19:28:16Z</time>
      </trkpt>
      <trkpt lat="43.96523" lon="1.87446">
        <ele>229.2</ele>
        <time>2022-09-01T19:28:17Z</time>
      </trkpt>
      <trkpt lat="43.96522" lon="1.87447">
        <ele>229.4</ele>
        <time>2022-09-01T19:28:18Z</time>
      </trkpt>
      <trkpt lat="43.96521" lon="1.87448">
        <ele>229.4</ele>
        <time>2022-09-01T19:28:19Z</time>
      </trkpt>
      <trkpt lat="43.96519" lon="1.8745">
        <ele>229.6</ele>
        <time>2022-09-01T19:28:20Z</time>
      </trkpt>
      <trkpt lat="43.96517" lon="1.87452">
        <ele>229.6</ele>
        <time>2022-09-01T19:28:21Z</time>
      </trkpt>
      <trkpt lat="43.96516" lon="1.87453">
        <ele>229.8</ele>
        <time>2022-09-01T19:28:22Z</time>
      </trkpt>
      <trkpt lat="43.96514" lon="1.87455">
        <ele>229.8</ele>
        <time>2022-09-01T19:28:23Z</time>
      </trkpt>
      <trkpt lat="43.96511" lon="1.87456">
        <ele>230</ele>
        <time>2022-09-01T19:28:24Z</time>
      </trkpt>
      <trkpt lat="43.96509" lon="1.87458">
        <ele>230.2</ele>
        <time>2022-09-01T19:28:25Z</time>
      </trkpt>
      <trkpt lat="43.96506" lon="1.8746">
        <ele>230.4</ele>
        <time>2022-09-01T19:28:26Z</time>
      </trkpt>
      <trkpt lat="43.96503" lon="1.87462">
        <ele>230.4</ele>
        <time>2022-09-01T19:28:27Z</time>
      </trkpt>
      <trkpt lat="43.965" lon="1.87464">
        <ele>230.6</ele>
        <time>2022-09-01T19:28:28Z</time>
      </trkpt>
      <trkpt lat="43.96496" lon="1.87466">
        <ele>231</ele>
        <time>2022-09-01T19:28:29Z</time>
      </trkpt>
      <trkpt lat="43.96494" lon="1.87467">
        <ele>231</ele>
        <time>2022-09-01T19:28:30Z</time>
      </trkpt>
      <trkpt lat="43.96491" lon="1.87468">
        <ele>231</ele>
        <time>2022-09-01T19:28:31Z</time>
      </trkpt>
      <trkpt lat="43.96488" lon="1.8747">
        <ele>231.2</ele>
        <time>2022-09-01T19:28:32Z</time>
      </trkpt>
      <trkpt lat="43.96485" lon="1.87472">
        <ele>231.4</ele>
        <time>2022-09-01T19:28:33Z</time>
      </trkpt>
      <trkpt lat="43.96482" lon="1.87474">
        <ele>231.6</ele>
        <time>2022-09-01T19:28:34Z</time>
      </trkpt>
      <trkpt lat="43.9648" lon="1.87475">
        <ele>231.8</ele>
        <time>2022-09-01T19:28:35Z</time>
      </trkpt>
      <trkpt lat="43.96476" lon="1.87476">
        <ele>231.8</ele>
        <time>2022-09-01T19:28:36Z</time>
      </trkpt>
      <trkpt lat="43.96473" lon="1.87478">
        <ele>232</ele>
        <time>2022-09-01T19:28:37Z</time>
      </trkpt>
      <trkpt lat="43.9647" lon="1.87479">
        <ele>232.2</ele>
        <time>2022-09-01T19:28:38Z</time>
      </trkpt>
      <trkpt lat="43.96468" lon="1.8748">
        <ele>232.2</ele>
        <time>2022-09-01T19:28:39Z</time>
      </trkpt>
      <trkpt lat="43.96465" lon="1.87483">
        <ele>232.2</ele>
        <time>2022-09-01T19:28:40Z</time>
      </trkpt>
      <trkpt lat="43.96461" lon="1.87485">
        <ele>232.4</ele>
        <time>2022-09-01T19:28:41Z</time>
      </trkpt>
      <trkpt lat="43.96457" lon="1.87487">
        <ele>232.6</ele>
        <time>2022-09-01T19:28:42Z</time>
      </trkpt>
      <trkpt lat="43.96454" lon="1.87488">
        <ele>232.6</ele>
        <time>2022-09-01T19:28:43Z</time>
      </trkpt>
      <trkpt lat="43.96451" lon="1.87489">
        <ele>232.8</ele>
        <time>2022-09-01T19:28:44Z</time>
      </trkpt>
      <trkpt lat="43.96446" lon="1.87492">
        <ele>232.8</ele>
        <time>2022-09-01T19:28:45Z</time>
      </trkpt>
      <trkpt lat="43.96443" lon="1.87493">
        <ele>232.8</ele>
        <time>2022-09-01T19:28:46Z</time>
      </trkpt>
      <trkpt lat="43.96439" lon="1.87495">
        <ele>233</ele>
        <time>2022-09-01T19:28:47Z</time>
      </trkpt>
      <trkpt lat="43.96435" lon="1.87496">
        <ele>233</ele>
        <time>2022-09-01T19:28:48Z</time>
      </trkpt>
      <trkpt lat="43.96431" lon="1.87498">
        <ele>233</ele>
        <time>2022-09-01T19:28:49Z</time>
      </trkpt>
      <trkpt lat="43.96428" lon="1.87499">
        <ele>233</ele>
        <time>2022-09-01T19:28:50Z</time>
      </trkpt>
      <trkpt lat="43.96426" lon="1.875">
        <ele>233.2</ele>
        <time>2022-09-01T19:28:51Z</time>
      </trkpt>
      <trkpt lat="43.96424" lon="1.87502">
        <ele>233.2</ele>
        <time>2022-09-01T19:28:52Z</time>
      </trkpt>
      <trkpt lat="43.96419" lon="1.87504">
        <ele>233.2</ele>
        <time>2022-09-01T19:28:53Z</time>
      </trkpt>
      <trkpt lat="43.96414" lon="1.87506">
        <ele>233.2</ele>
        <time>2022-09-01T19:28:54Z</time>
      </trkpt>
      <trkpt lat="43.96411" lon="1.87507">
        <ele>233.2</ele>
        <time>2022-09-01T19:28:55Z</time>
      </trkpt>
      <trkpt lat="43.96408" lon="1.87509">
        <ele>233.2</ele>
        <time>2022-09-01T19:28:56Z</time>
      </trkpt>
      <trkpt lat="43.96404" lon="1.87511">
        <ele>233.2</ele>
        <time>2022-09-01T19:28:57Z</time>
      </trkpt>
      <trkpt lat="43.964" lon="1.87512">
        <ele>233.2</ele>
        <time>2022-09-01T19:28:58Z</time>
      </trkpt>
      <trkpt lat="43.96398" lon="1.87513">
        <ele>233.2</ele>
        <time>2022-09-01T19:28:59Z</time>
      </trkpt>
      <trkpt lat="43.96396" lon="1.87513">
        <ele>233.2</ele>
        <time>2022-09-01T19:29:00Z</time>
      </trkpt>
      <trkpt lat="43.96395" lon="1.87513">
        <ele>233.2</ele>
        <time>2022-09-01T19:29:01Z</time>
      </trkpt>
      <trkpt lat="43.96394" lon="1.87512">
        <ele>233.2</ele>
        <time>2022-09-01T19:29:02Z</time>
      </trkpt>
      <trkpt lat="43.96394" lon="1.8751">
        <ele>233.2</ele>
        <time>2022-09-01T19:29:03Z</time>
      </trkpt>
      <trkpt lat="43.96393" lon="1.87508">
        <ele>233.2</ele>
        <time>2022-09-01T19:29:04Z</time>
      </trkpt>
      <trkpt lat="43.96391" lon="1.87508">
        <ele>233.2</ele>
        <time>2022-09-01T19:29:05Z</time>
      </trkpt>
      <trkpt lat="43.9639" lon="1.87508">
        <ele>233.2</ele>
        <time>2022-09-01T19:29:06Z</time>
      </trkpt>
      <trkpt lat="43.96389" lon="1.87508">
        <ele>233.4</ele>
        <time>2022-09-01T19:29:07Z</time>
      </trkpt>
      <trkpt lat="43.96387" lon="1.87508">
        <ele>233.4</ele>
        <time>2022-09-01T19:29:08Z</time>
      </trkpt>
      <trkpt lat="43.96383" lon="1.87506">
        <ele>233.8</ele>
        <time>2022-09-01T19:29:10Z</time>
      </trkpt>
      <trkpt lat="43.96382" lon="1.87505">
        <ele>234</ele>
        <time>2022-09-01T19:29:11Z</time>
      </trkpt>
      <trkpt lat="43.96379" lon="1.87505">
        <ele>234</ele>
        <time>2022-09-01T19:29:12Z</time>
      </trkpt>
      <trkpt lat="43.96374" lon="1.87504">
        <ele>234.2</ele>
        <time>2022-09-01T19:29:14Z</time>
      </trkpt>
      <trkpt lat="43.96367" lon="1.87504">
        <ele>234.6</ele>
        <time>2022-09-01T19:29:17Z</time>
      </trkpt>
      <trkpt lat="43.96364" lon="1.87504">
        <ele>234.8</ele>
        <time>2022-09-01T19:29:18Z</time>
      </trkpt>
      <trkpt lat="43.96361" lon="1.87504">
        <ele>235</ele>
        <time>2022-09-01T19:29:19Z</time>
      </trkpt>
      <trkpt lat="43.96356" lon="1.87504">
        <ele>235.2</ele>
        <time>2022-09-01T19:29:21Z</time>
      </trkpt>
      <trkpt lat="43.96354" lon="1.87505">
        <ele>235.4</ele>
        <time>2022-09-01T19:29:22Z</time>
      </trkpt>
      <trkpt lat="43.96352" lon="1.87505">
        <ele>235.4</ele>
        <time>2022-09-01T19:29:23Z</time>
      </trkpt>
      <trkpt lat="43.9635" lon="1.87505">
        <ele>235.6</ele>
        <time>2022-09-01T19:29:24Z</time>
      </trkpt>
      <trkpt lat="43.96346" lon="1.87506">
        <ele>235.8</ele>
        <time>2022-09-01T19:29:25Z</time>
      </trkpt>
      <trkpt lat="43.96343" lon="1.87506">
        <ele>236</ele>
        <time>2022-09-01T19:29:26Z</time>
      </trkpt>
      <trkpt lat="43.96334" lon="1.87509">
        <ele>236.2</ele>
        <time>2022-09-01T19:29:29Z</time>
      </trkpt>
      <trkpt lat="43.96332" lon="1.87509">
        <ele>236.4</ele>
        <time>2022-09-01T19:29:30Z</time>
      </trkpt>
      <trkpt lat="43.96331" lon="1.87509">
        <ele>236.4</ele>
        <time>2022-09-01T19:29:31Z</time>
      </trkpt>
      <trkpt lat="43.96329" lon="1.8751">
        <ele>236.6</ele>
        <time>2022-09-01T19:29:32Z</time>
      </trkpt>
      <trkpt lat="43.96328" lon="1.87511">
        <ele>236.6</ele>
        <time>2022-09-01T19:29:33Z</time>
      </trkpt>
      <trkpt lat="43.96327" lon="1.87511">
        <ele>236.6</ele>
        <time>2022-09-01T19:29:34Z</time>
      </trkpt>
      <trkpt lat="43.96325" lon="1.87512">
        <ele>236.6</ele>
        <time>2022-09-01T19:29:35Z</time>
      </trkpt>
      <trkpt lat="43.96323" lon="1.87512">
        <ele>236.8</ele>
        <time>2022-09-01T19:29:36Z</time>
      </trkpt>
      <trkpt lat="43.96321" lon="1.87511">
        <ele>237</ele>
        <time>2022-09-01T19:29:37Z</time>
      </trkpt>
      <trkpt lat="43.9632" lon="1.87508">
        <ele>237</ele>
        <time>2022-09-01T19:29:38Z</time>
      </trkpt>
      <trkpt lat="43.96317" lon="1.87508">
        <ele>237</ele>
        <time>2022-09-01T19:29:39Z</time>
      </trkpt>
      <trkpt lat="43.96316" lon="1.87507">
        <ele>237.4</ele>
        <time>2022-09-01T19:29:40Z</time>
      </trkpt>
      <trkpt lat="43.96316" lon="1.87505">
        <ele>237.6</ele>
        <time>2022-09-01T19:29:41Z</time>
      </trkpt>
      <trkpt lat="43.96315" lon="1.87505">
        <ele>237.8</ele>
        <time>2022-09-01T19:29:42Z</time>
      </trkpt>
      <trkpt lat="43.96313" lon="1.87503">
        <ele>238</ele>
        <time>2022-09-01T19:29:43Z</time>
      </trkpt>
      <trkpt lat="43.96311" lon="1.87501">
        <ele>238.2</ele>
        <time>2022-09-01T19:29:44Z</time>
      </trkpt>
      <trkpt lat="43.9631" lon="1.87501">
        <ele>238.6</ele>
        <time>2022-09-01T19:29:45Z</time>
      </trkpt>
      <trkpt lat="43.96307" lon="1.87501">
        <ele>238.6</ele>
        <time>2022-09-01T19:29:46Z</time>
      </trkpt>
      <trkpt lat="43.96306" lon="1.875">
        <ele>239</ele>
        <time>2022-09-01T19:29:47Z</time>
      </trkpt>
      <trkpt lat="43.96304" lon="1.875">
        <ele>239</ele>
        <time>2022-09-01T19:29:48Z</time>
      </trkpt>
      <trkpt lat="43.96302" lon="1.87499">
        <ele>239.2</ele>
        <time>2022-09-01T19:29:49Z</time>
      </trkpt>
      <trkpt lat="43.963" lon="1.87498">
        <ele>239.2</ele>
        <time>2022-09-01T19:29:50Z</time>
      </trkpt>
      <trkpt lat="43.96298" lon="1.87497">
        <ele>239.4</ele>
        <time>2022-09-01T19:29:51Z</time>
      </trkpt>
      <trkpt lat="43.96296" lon="1.87497">
        <ele>239.4</ele>
        <time>2022-09-01T19:29:52Z</time>
      </trkpt>
      <trkpt lat="43.96294" lon="1.87496">
        <ele>239.8</ele>
        <time>2022-09-01T19:29:53Z</time>
      </trkpt>
      <trkpt lat="43.96293" lon="1.87495">
        <ele>240.4</ele>
        <time>2022-09-01T19:29:54Z</time>
      </trkpt>
      <trkpt lat="43.96292" lon="1.87494">
        <ele>240.4</ele>
        <time>2022-09-01T19:29:55Z</time>
      </trkpt>
      <trkpt lat="43.96291" lon="1.87494">
        <ele>240.8</ele>
        <time>2022-09-01T19:29:56Z</time>
      </trkpt>
      <trkpt lat="43.96289" lon="1.87492">
        <ele>241</ele>
        <time>2022-09-01T19:29:57Z</time>
      </trkpt>
      <trkpt lat="43.96287" lon="1.87491">
        <ele>241</ele>
        <time>2022-09-01T19:29:58Z</time>
      </trkpt>
      <trkpt lat="43.96284" lon="1.8749">
        <ele>241.4</ele>
        <time>2022-09-01T19:29:59Z</time>
      </trkpt>
      <trkpt lat="43.96283" lon="1.87488">
        <ele>241.8</ele>
        <time>2022-09-01T19:30:00Z</time>
      </trkpt>
      <trkpt lat="43.96282" lon="1.87486">
        <ele>242.2</ele>
        <time>2022-09-01T19:30:01Z</time>
      </trkpt>
      <trkpt lat="43.96282" lon="1.87484">
        <ele>242.2</ele>
        <time>2022-09-01T19:30:02Z</time>
      </trkpt>
      <trkpt lat="43.96281" lon="1.87483">
        <ele>242.6</ele>
        <time>2022-09-01T19:30:03Z</time>
      </trkpt>
      <trkpt lat="43.96281" lon="1.87482">
        <ele>242.6</ele>
        <time>2022-09-01T19:30:04Z</time>
      </trkpt>
      <trkpt lat="43.96279" lon="1.87481">
        <ele>243.2</ele>
        <time>2022-09-01T19:30:05Z</time>
      </trkpt>
      <trkpt lat="43.96278" lon="1.8748">
        <ele>243.4</ele>
        <time>2022-09-01T19:30:06Z</time>
      </trkpt>
      <trkpt lat="43.96276" lon="1.8748">
        <ele>243.6</ele>
        <time>2022-09-01T19:30:07Z</time>
      </trkpt>
      <trkpt lat="43.96273" lon="1.87479">
        <ele>243.8</ele>
        <time>2022-09-01T19:30:08Z</time>
      </trkpt>
      <trkpt lat="43.96272" lon="1.87477">
        <ele>244</ele>
        <time>2022-09-01T19:30:09Z</time>
      </trkpt>
      <trkpt lat="43.9627" lon="1.87477">
        <ele>244.2</ele>
        <time>2022-09-01T19:30:10Z</time>
      </trkpt>
      <trkpt lat="43.96267" lon="1.87476">
        <ele>244.4</ele>
        <time>2022-09-01T19:30:11Z</time>
      </trkpt>
      <trkpt lat="43.96266" lon="1.87476">
        <ele>244.6</ele>
        <time>2022-09-01T19:30:12Z</time>
      </trkpt>
      <trkpt lat="43.96264" lon="1.87474">
        <ele>244.8</ele>
        <time>2022-09-01T19:30:13Z</time>
      </trkpt>
      <trkpt lat="43.96262" lon="1.87473">
        <ele>244.8</ele>
        <time>2022-09-01T19:30:14Z</time>
      </trkpt>
      <trkpt lat="43.96259" lon="1.87471">
        <ele>245</ele>
        <time>2022-09-01T19:30:15Z</time>
      </trkpt>
      <trkpt lat="43.96258" lon="1.87469">
        <ele>245.2</ele>
        <time>2022-09-01T19:30:16Z</time>
      </trkpt>
      <trkpt lat="43.96257" lon="1.87467">
        <ele>245.2</ele>
        <time>2022-09-01T19:30:17Z</time>
      </trkpt>
      <trkpt lat="43.96255" lon="1.87468">
        <ele>245.4</ele>
        <time>2022-09-01T19:30:18Z</time>
      </trkpt>
      <trkpt lat="43.96254" lon="1.87468">
        <ele>245.4</ele>
        <time>2022-09-01T19:30:19Z</time>
      </trkpt>
      <trkpt lat="43.96251" lon="1.87469">
        <ele>245.4</ele>
        <time>2022-09-01T19:30:20Z</time>
      </trkpt>
      <trkpt lat="43.96249" lon="1.87469">
        <ele>245.6</ele>
        <time>2022-09-01T19:30:21Z</time>
      </trkpt>
      <trkpt lat="43.96248" lon="1.87468">
        <ele>245.6</ele>
        <time>2022-09-01T19:30:22Z</time>
      </trkpt>
      <trkpt lat="43.96247" lon="1.87467">
        <ele>245.8</ele>
        <time>2022-09-01T19:30:23Z</time>
      </trkpt>
      <trkpt lat="43.96245" lon="1.87465">
        <ele>246</ele>
        <time>2022-09-01T19:30:24Z</time>
      </trkpt>
      <trkpt lat="43.96243" lon="1.87462">
        <ele>246</ele>
        <time>2022-09-01T19:30:25Z</time>
      </trkpt>
      <trkpt lat="43.9624" lon="1.8746">
        <ele>246.2</ele>
        <time>2022-09-01T19:30:26Z</time>
      </trkpt>
      <trkpt lat="43.96238" lon="1.87459">
        <ele>246.2</ele>
        <time>2022-09-01T19:30:27Z</time>
      </trkpt>
      <trkpt lat="43.96236" lon="1.87456">
        <ele>246.4</ele>
        <time>2022-09-01T19:30:28Z</time>
      </trkpt>
      <trkpt lat="43.96236" lon="1.87453">
        <ele>246.4</ele>
        <time>2022-09-01T19:30:29Z</time>
      </trkpt>
      <trkpt lat="43.96236" lon="1.87449">
        <ele>246.6</ele>
        <time>2022-09-01T19:30:30Z</time>
      </trkpt>
      <trkpt lat="43.96235" lon="1.87448">
        <ele>246.6</ele>
        <time>2022-09-01T19:30:31Z</time>
      </trkpt>
      <trkpt lat="43.96234" lon="1.87447">
        <ele>246.8</ele>
        <time>2022-09-01T19:30:32Z</time>
      </trkpt>
      <trkpt lat="43.96232" lon="1.87448">
        <ele>247.2</ele>
        <time>2022-09-01T19:30:33Z</time>
      </trkpt>
      <trkpt lat="43.9623" lon="1.87449">
        <ele>247.2</ele>
        <time>2022-09-01T19:30:34Z</time>
      </trkpt>
      <trkpt lat="43.96227" lon="1.87448">
        <ele>247.4</ele>
        <time>2022-09-01T19:30:35Z</time>
      </trkpt>
      <trkpt lat="43.96227" lon="1.87447">
        <ele>247.4</ele>
        <time>2022-09-01T19:30:36Z</time>
      </trkpt>
      <trkpt lat="43.96225" lon="1.87447">
        <ele>247.6</ele>
        <time>2022-09-01T19:30:37Z</time>
      </trkpt>
      <trkpt lat="43.96224" lon="1.87447">
        <ele>247.6</ele>
        <time>2022-09-01T19:30:38Z</time>
      </trkpt>
      <trkpt lat="43.96222" lon="1.87448">
        <ele>247.8</ele>
        <time>2022-09-01T19:30:39Z</time>
      </trkpt>
      <trkpt lat="43.96221" lon="1.87448">
        <ele>248.2</ele>
        <time>2022-09-01T19:30:40Z</time>
      </trkpt>
      <trkpt lat="43.96221" lon="1.87448">
        <ele>248.2</ele>
        <time>2022-09-01T19:30:41Z</time>
      </trkpt>
      <trkpt lat="43.9622" lon="1.87445">
        <ele>248.4</ele>
        <time>2022-09-01T19:30:42Z</time>
      </trkpt>
      <trkpt lat="43.96217" lon="1.87444">
        <ele>248.4</ele>
        <time>2022-09-01T19:30:43Z</time>
      </trkpt>
      <trkpt lat="43.96215" lon="1.87444">
        <ele>248.6</ele>
        <time>2022-09-01T19:30:44Z</time>
      </trkpt>
      <trkpt lat="43.96214" lon="1.87444">
        <ele>248.8</ele>
        <time>2022-09-01T19:30:45Z</time>
      </trkpt>
      <trkpt lat="43.96213" lon="1.87445">
        <ele>249.2</ele>
        <time>2022-09-01T19:30:46Z</time>
      </trkpt>
      <trkpt lat="43.96211" lon="1.87445">
        <ele>249.4</ele>
        <time>2022-09-01T19:30:47Z</time>
      </trkpt>
      <trkpt lat="43.96209" lon="1.87444">
        <ele>249.6</ele>
        <time>2022-09-01T19:30:48Z</time>
      </trkpt>
      <trkpt lat="43.96206" lon="1.87446">
        <ele>250.2</ele>
        <time>2022-09-01T19:30:49Z</time>
      </trkpt>
      <trkpt lat="43.96203" lon="1.87447">
        <ele>250.4</ele>
        <time>2022-09-01T19:30:50Z</time>
      </trkpt>
      <trkpt lat="43.962" lon="1.87447">
        <ele>250.6</ele>
        <time>2022-09-01T19:30:51Z</time>
      </trkpt>
      <trkpt lat="43.96197" lon="1.87446">
        <ele>250.8</ele>
        <time>2022-09-01T19:30:52Z</time>
      </trkpt>
      <trkpt lat="43.96195" lon="1.87446">
        <ele>251</ele>
        <time>2022-09-01T19:30:53Z</time>
      </trkpt>
      <trkpt lat="43.96193" lon="1.87445">
        <ele>251</ele>
        <time>2022-09-01T19:30:54Z</time>
      </trkpt>
      <trkpt lat="43.96191" lon="1.87447">
        <ele>251.2</ele>
        <time>2022-09-01T19:30:55Z</time>
      </trkpt>
      <trkpt lat="43.9619" lon="1.87448">
        <ele>251.4</ele>
        <time>2022-09-01T19:30:56Z</time>
      </trkpt>
      <trkpt lat="43.96188" lon="1.87448">
        <ele>251.6</ele>
        <time>2022-09-01T19:30:57Z</time>
      </trkpt>
      <trkpt lat="43.96187" lon="1.87447">
        <ele>251.8</ele>
        <time>2022-09-01T19:30:58Z</time>
      </trkpt>
      <trkpt lat="43.96186" lon="1.87447">
        <ele>252</ele>
        <time>2022-09-01T19:30:59Z</time>
      </trkpt>
      <trkpt lat="43.96185" lon="1.87449">
        <ele>252.2</ele>
        <time>2022-09-01T19:31:00Z</time>
      </trkpt>
      <trkpt lat="43.96183" lon="1.87449">
        <ele>252.2</ele>
        <time>2022-09-01T19:31:01Z</time>
      </trkpt>
      <trkpt lat="43.96181" lon="1.8745">
        <ele>252.4</ele>
        <time>2022-09-01T19:31:02Z</time>
      </trkpt>
      <trkpt lat="43.9618" lon="1.8745">
        <ele>252.8</ele>
        <time>2022-09-01T19:31:03Z</time>
      </trkpt>
      <trkpt lat="43.96179" lon="1.8745">
        <ele>252.8</ele>
        <time>2022-09-01T19:31:04Z</time>
      </trkpt>
      <trkpt lat="43.96177" lon="1.87451">
        <ele>253</ele>
        <time>2022-09-01T19:31:05Z</time>
      </trkpt>
      <trkpt lat="43.96176" lon="1.8745">
        <ele>253.2</ele>
        <time>2022-09-01T19:31:06Z</time>
      </trkpt>
      <trkpt lat="43.96176" lon="1.8745">
        <ele>253.4</ele>
        <time>2022-09-01T19:31:07Z</time>
      </trkpt>
      <trkpt lat="43.96175" lon="1.8745">
        <ele>253.6</ele>
        <time>2022-09-01T19:31:08Z</time>
      </trkpt>
      <trkpt lat="43.96174" lon="1.8745">
        <ele>254</ele>
        <time>2022-09-01T19:31:09Z</time>
      </trkpt>
      <trkpt lat="43.96174" lon="1.8745">
        <ele>254.2</ele>
        <time>2022-09-01T19:31:10Z</time>
      </trkpt>
      <trkpt lat="43.96174" lon="1.8745">
        <ele>254.2</ele>
        <time>2022-09-01T19:31:11Z</time>
      </trkpt>
      <trkpt lat="43.96174" lon="1.8745">
        <ele>254.4</ele>
        <time>2022-09-01T19:31:12Z</time>
      </trkpt>
      <trkpt lat="43.96174" lon="1.8745">
        <ele>254.4</ele>
        <time>2022-09-01T19:31:13Z</time>
      </trkpt>
      <trkpt lat="43.96174" lon="1.8745">
        <ele>254.6</ele>
        <time>2022-09-01T19:31:14Z</time>
      </trkpt>
      <trkpt lat="43.96173" lon="1.8745">
        <ele>254.8</ele>
        <time>2022-09-01T19:31:15Z</time>
      </trkpt>
      <trkpt lat="43.96172" lon="1.87451">
        <ele>254.8</ele>
        <time>2022-09-01T19:31:16Z</time>
      </trkpt>
      <trkpt lat="43.96171" lon="1.87451">
        <ele>255</ele>
        <time>2022-09-01T19:31:17Z</time>
      </trkpt>
      <trkpt lat="43.9617" lon="1.87451">
        <ele>255.2</ele>
        <time>2022-09-01T19:31:18Z</time>
      </trkpt>
      <trkpt lat="43.96169" lon="1.8745">
        <ele>255.2</ele>
        <time>2022-09-01T19:31:19Z</time>
      </trkpt>
      <trkpt lat="43.96167" lon="1.87451">
        <ele>255.2</ele>
        <time>2022-09-01T19:31:20Z</time>
      </trkpt>
      <trkpt lat="43.96166" lon="1.87451">
        <ele>255.4</ele>
        <time>2022-09-01T19:31:21Z</time>
      </trkpt>
      <trkpt lat="43.96165" lon="1.87451">
        <ele>255.4</ele>
        <time>2022-09-01T19:31:22Z</time>
      </trkpt>
      <trkpt lat="43.96163" lon="1.87452">
        <ele>255.6</ele>
        <time>2022-09-01T19:31:23Z</time>
      </trkpt>
      <trkpt lat="43.96162" lon="1.87452">
        <ele>255.8</ele>
        <time>2022-09-01T19:31:24Z</time>
      </trkpt>
      <trkpt lat="43.96162" lon="1.87453">
        <ele>256.2</ele>
        <time>2022-09-01T19:31:25Z</time>
      </trkpt>
      <trkpt lat="43.9616" lon="1.87454">
        <ele>256.4</ele>
        <time>2022-09-01T19:31:26Z</time>
      </trkpt>
      <trkpt lat="43.96157" lon="1.87455">
        <ele>256.4</ele>
        <time>2022-09-01T19:31:27Z</time>
      </trkpt>
      <trkpt lat="43.96156" lon="1.87456">
        <ele>256.6</ele>
        <time>2022-09-01T19:31:28Z</time>
      </trkpt>
      <trkpt lat="43.96155" lon="1.87456">
        <ele>256.8</ele>
        <time>2022-09-01T19:31:29Z</time>
      </trkpt>
      <trkpt lat="43.96153" lon="1.87455">
        <ele>257.6</ele>
        <time>2022-09-01T19:31:30Z</time>
      </trkpt>
      <trkpt lat="43.9615" lon="1.87457">
        <ele>257.8</ele>
        <time>2022-09-01T19:31:31Z</time>
      </trkpt>
      <trkpt lat="43.96147" lon="1.87458">
        <ele>258.2</ele>
        <time>2022-09-01T19:31:32Z</time>
      </trkpt>
      <trkpt lat="43.96145" lon="1.87459">
        <ele>258.6</ele>
        <time>2022-09-01T19:31:33Z</time>
      </trkpt>
      <trkpt lat="43.96142" lon="1.8746">
        <ele>258.8</ele>
        <time>2022-09-01T19:31:34Z</time>
      </trkpt>
      <trkpt lat="43.96141" lon="1.87461">
        <ele>259.4</ele>
        <time>2022-09-01T19:31:35Z</time>
      </trkpt>
      <trkpt lat="43.9614" lon="1.87462">
        <ele>259.4</ele>
        <time>2022-09-01T19:31:36Z</time>
      </trkpt>
      <trkpt lat="43.96139" lon="1.87462">
        <ele>259.6</ele>
        <time>2022-09-01T19:31:37Z</time>
      </trkpt>
      <trkpt lat="43.96139" lon="1.87462">
        <ele>259.8</ele>
        <time>2022-09-01T19:31:38Z</time>
      </trkpt>
      <trkpt lat="43.96137" lon="1.87462">
        <ele>260</ele>
        <time>2022-09-01T19:31:39Z</time>
      </trkpt>
      <trkpt lat="43.96136" lon="1.87462">
        <ele>260.2</ele>
        <time>2022-09-01T19:31:40Z</time>
      </trkpt>
      <trkpt lat="43.96135" lon="1.87463">
        <ele>260.6</ele>
        <time>2022-09-01T19:31:41Z</time>
      </trkpt>
      <trkpt lat="43.96134" lon="1.87465">
        <ele>261</ele>
        <time>2022-09-01T19:31:42Z</time>
      </trkpt>
      <trkpt lat="43.96133" lon="1.87466">
        <ele>261.2</ele>
        <time>2022-09-01T19:31:43Z</time>
      </trkpt>
      <trkpt lat="43.96132" lon="1.87468">
        <ele>261.6</ele>
        <time>2022-09-01T19:31:44Z</time>
      </trkpt>
      <trkpt lat="43.96132" lon="1.87469">
        <ele>261.8</ele>
        <time>2022-09-01T19:31:45Z</time>
      </trkpt>
      <trkpt lat="43.96132" lon="1.8747">
        <ele>262.2</ele>
        <time>2022-09-01T19:31:46Z</time>
      </trkpt>
      <trkpt lat="43.9613" lon="1.87472">
        <ele>262.4</ele>
        <time>2022-09-01T19:31:47Z</time>
      </trkpt>
      <trkpt lat="43.96128" lon="1.87474">
        <ele>262.6</ele>
        <time>2022-09-01T19:31:48Z</time>
      </trkpt>
      <trkpt lat="43.96128" lon="1.87475">
        <ele>263</ele>
        <time>2022-09-01T19:31:49Z</time>
      </trkpt>
      <trkpt lat="43.96128" lon="1.87475">
        <ele>263.2</ele>
        <time>2022-09-01T19:31:50Z</time>
      </trkpt>
      <trkpt lat="43.96128" lon="1.87475">
        <ele>263.6</ele>
        <time>2022-09-01T19:31:51Z</time>
      </trkpt>
      <trkpt lat="43.96127" lon="1.87477">
        <ele>263.6</ele>
        <time>2022-09-01T19:31:52Z</time>
      </trkpt>
      <trkpt lat="43.96127" lon="1.87478">
        <ele>264</ele>
        <time>2022-09-01T19:31:53Z</time>
      </trkpt>
      <trkpt lat="43.96125" lon="1.87481">
        <ele>264</ele>
        <time>2022-09-01T19:31:54Z</time>
      </trkpt>
      <trkpt lat="43.96123" lon="1.87484">
        <ele>264.2</ele>
        <time>2022-09-01T19:31:55Z</time>
      </trkpt>
      <trkpt lat="43.96123" lon="1.87487">
        <ele>264.6</ele>
        <time>2022-09-01T19:31:56Z</time>
      </trkpt>
      <trkpt lat="43.96123" lon="1.87488">
        <ele>264.6</ele>
        <time>2022-09-01T19:31:57Z</time>
      </trkpt>
      <trkpt lat="43.96123" lon="1.8749">
        <ele>265</ele>
        <time>2022-09-01T19:31:58Z</time>
      </trkpt>
      <trkpt lat="43.96123" lon="1.8749">
        <ele>265.2</ele>
        <time>2022-09-01T19:31:59Z</time>
      </trkpt>
      <trkpt lat="43.96123" lon="1.87491">
        <ele>265.6</ele>
        <time>2022-09-01T19:32:00Z</time>
      </trkpt>
      <trkpt lat="43.96121" lon="1.87491">
        <ele>265.6</ele>
        <time>2022-09-01T19:32:01Z</time>
      </trkpt>
      <trkpt lat="43.9612" lon="1.87492">
        <ele>265.8</ele>
        <time>2022-09-01T19:32:02Z</time>
      </trkpt>
      <trkpt lat="43.96119" lon="1.87494">
        <ele>265.8</ele>
        <time>2022-09-01T19:32:03Z</time>
      </trkpt>
      <trkpt lat="43.96118" lon="1.87495">
        <ele>266.2</ele>
        <time>2022-09-01T19:32:04Z</time>
      </trkpt>
      <trkpt lat="43.96117" lon="1.87497">
        <ele>266.6</ele>
        <time>2022-09-01T19:32:05Z</time>
      </trkpt>
      <trkpt lat="43.96116" lon="1.87498">
        <ele>266.8</ele>
        <time>2022-09-01T19:32:06Z</time>
      </trkpt>
      <trkpt lat="43.96115" lon="1.87498">
        <ele>266.8</ele>
        <time>2022-09-01T19:32:07Z</time>
      </trkpt>
      <trkpt lat="43.96115" lon="1.87498">
        <ele>267</ele>
        <time>2022-09-01T19:32:08Z</time>
      </trkpt>
      <trkpt lat="43.96115" lon="1.87499">
        <ele>267.2</ele>
        <time>2022-09-01T19:32:09Z</time>
      </trkpt>
      <trkpt lat="43.96114" lon="1.875">
        <ele>267.2</ele>
        <time>2022-09-01T19:32:10Z</time>
      </trkpt>
      <trkpt lat="43.96112" lon="1.87502">
        <ele>267.6</ele>
        <time>2022-09-01T19:32:11Z</time>
      </trkpt>
      <trkpt lat="43.96111" lon="1.87503">
        <ele>268</ele>
        <time>2022-09-01T19:32:12Z</time>
      </trkpt>
      <trkpt lat="43.96109" lon="1.87505">
        <ele>268</ele>
        <time>2022-09-01T19:32:13Z</time>
      </trkpt>
      <trkpt lat="43.96107" lon="1.87506">
        <ele>268.4</ele>
        <time>2022-09-01T19:32:14Z</time>
      </trkpt>
      <trkpt lat="43.96106" lon="1.87508">
        <ele>268.4</ele>
        <time>2022-09-01T19:32:15Z</time>
      </trkpt>
      <trkpt lat="43.96104" lon="1.8751">
        <ele>268.6</ele>
        <time>2022-09-01T19:32:16Z</time>
      </trkpt>
      <trkpt lat="43.96104" lon="1.87511">
        <ele>268.8</ele>
        <time>2022-09-01T19:32:17Z</time>
      </trkpt>
      <trkpt lat="43.96102" lon="1.87513">
        <ele>269</ele>
        <time>2022-09-01T19:32:18Z</time>
      </trkpt>
      <trkpt lat="43.96102" lon="1.87516">
        <ele>269.4</ele>
        <time>2022-09-01T19:32:19Z</time>
      </trkpt>
      <trkpt lat="43.96101" lon="1.87518">
        <ele>269.6</ele>
        <time>2022-09-01T19:32:20Z</time>
      </trkpt>
      <trkpt lat="43.961" lon="1.87519">
        <ele>269.8</ele>
        <time>2022-09-01T19:32:21Z</time>
      </trkpt>
      <trkpt lat="43.96099" lon="1.87521">
        <ele>270</ele>
        <time>2022-09-01T19:32:22Z</time>
      </trkpt>
      <trkpt lat="43.96098" lon="1.87524">
        <ele>270.2</ele>
        <time>2022-09-01T19:32:23Z</time>
      </trkpt>
      <trkpt lat="43.96097" lon="1.87526">
        <ele>270.4</ele>
        <time>2022-09-01T19:32:24Z</time>
      </trkpt>
      <trkpt lat="43.96097" lon="1.87528">
        <ele>270.8</ele>
        <time>2022-09-01T19:32:25Z</time>
      </trkpt>
      <trkpt lat="43.96095" lon="1.8753">
        <ele>270.8</ele>
        <time>2022-09-01T19:32:26Z</time>
      </trkpt>
      <trkpt lat="43.96095" lon="1.87532">
        <ele>271</ele>
        <time>2022-09-01T19:32:27Z</time>
      </trkpt>
      <trkpt lat="43.96093" lon="1.87534">
        <ele>271.2</ele>
        <time>2022-09-01T19:32:28Z</time>
      </trkpt>
      <trkpt lat="43.96092" lon="1.87536">
        <ele>271.4</ele>
        <time>2022-09-01T19:32:29Z</time>
      </trkpt>
      <trkpt lat="43.9609" lon="1.87538">
        <ele>271.6</ele>
        <time>2022-09-01T19:32:30Z</time>
      </trkpt>
      <trkpt lat="43.96088" lon="1.87542">
        <ele>271.6</ele>
        <time>2022-09-01T19:32:31Z</time>
      </trkpt>
      <trkpt lat="43.96087" lon="1.87544">
        <ele>271.8</ele>
        <time>2022-09-01T19:32:32Z</time>
      </trkpt>
      <trkpt lat="43.96085" lon="1.87547">
        <ele>272</ele>
        <time>2022-09-01T19:32:33Z</time>
      </trkpt>
      <trkpt lat="43.96082" lon="1.87551">
        <ele>272</ele>
        <time>2022-09-01T19:32:34Z</time>
      </trkpt>
      <trkpt lat="43.9608" lon="1.87553">
        <ele>272</ele>
        <time>2022-09-01T19:32:35Z</time>
      </trkpt>
      <trkpt lat="43.96076" lon="1.87558">
        <ele>272.2</ele>
        <time>2022-09-01T19:32:36Z</time>
      </trkpt>
      <trkpt lat="43.96074" lon="1.87559">
        <ele>272.2</ele>
        <time>2022-09-01T19:32:37Z</time>
      </trkpt>
      <trkpt lat="43.96072" lon="1.87562">
        <ele>272.4</ele>
        <time>2022-09-01T19:32:38Z</time>
      </trkpt>
      <trkpt lat="43.96071" lon="1.87563">
        <ele>272.4</ele>
        <time>2022-09-01T19:32:39Z</time>
      </trkpt>
      <trkpt lat="43.96069" lon="1.87565">
        <ele>272.4</ele>
        <time>2022-09-01T19:32:40Z</time>
      </trkpt>
      <trkpt lat="43.96069" lon="1.87567">
        <ele>272.6</ele>
        <time>2022-09-01T19:32:41Z</time>
      </trkpt>
      <trkpt lat="43.96069" lon="1.87568">
        <ele>272.6</ele>
        <time>2022-09-01T19:32:42Z</time>
      </trkpt>
      <trkpt lat="43.96068" lon="1.8757">
        <ele>272.8</ele>
        <time>2022-09-01T19:32:43Z</time>
      </trkpt>
      <trkpt lat="43.96067" lon="1.87573">
        <ele>272.8</ele>
        <time>2022-09-01T19:32:44Z</time>
      </trkpt>
      <trkpt lat="43.96067" lon="1.87575">
        <ele>272.8</ele>
        <time>2022-09-01T19:32:45Z</time>
      </trkpt>
      <trkpt lat="43.96065" lon="1.87578">
        <ele>273</ele>
        <time>2022-09-01T19:32:46Z</time>
      </trkpt>
      <trkpt lat="43.96061" lon="1.87579">
        <ele>273</ele>
        <time>2022-09-01T19:32:47Z</time>
      </trkpt>
      <trkpt lat="43.9606" lon="1.8758">
        <ele>273.4</ele>
        <time>2022-09-01T19:32:48Z</time>
      </trkpt>
      <trkpt lat="43.96057" lon="1.87581">
        <ele>273.4</ele>
        <time>2022-09-01T19:32:49Z</time>
      </trkpt>
      <trkpt lat="43.96056" lon="1.87583">
        <ele>273.6</ele>
        <time>2022-09-01T19:32:50Z</time>
      </trkpt>
      <trkpt lat="43.96052" lon="1.87587">
        <ele>273.8</ele>
        <time>2022-09-01T19:32:51Z</time>
      </trkpt>
      <trkpt lat="43.96049" lon="1.87589">
        <ele>273.8</ele>
        <time>2022-09-01T19:32:52Z</time>
      </trkpt>
      <trkpt lat="43.96047" lon="1.8759">
        <ele>274</ele>
        <time>2022-09-01T19:32:53Z</time>
      </trkpt>
      <trkpt lat="43.96045" lon="1.87591">
        <ele>274</ele>
        <time>2022-09-01T19:32:54Z</time>
      </trkpt>
      <trkpt lat="43.96043" lon="1.8759">
        <ele>274.2</ele>
        <time>2022-09-01T19:32:55Z</time>
      </trkpt>
      <trkpt lat="43.96042" lon="1.87589">
        <ele>274.4</ele>
        <time>2022-09-01T19:32:56Z</time>
      </trkpt>
      <trkpt lat="43.9604" lon="1.87588">
        <ele>274.4</ele>
        <time>2022-09-01T19:32:57Z</time>
      </trkpt>
      <trkpt lat="43.96037" lon="1.87588">
        <ele>274.6</ele>
        <time>2022-09-01T19:32:58Z</time>
      </trkpt>
      <trkpt lat="43.96035" lon="1.87588">
        <ele>274.6</ele>
        <time>2022-09-01T19:32:59Z</time>
      </trkpt>
      <trkpt lat="43.96033" lon="1.87588">
        <ele>274.8</ele>
        <time>2022-09-01T19:33:00Z</time>
      </trkpt>
      <trkpt lat="43.96031" lon="1.87587">
        <ele>274.8</ele>
        <time>2022-09-01T19:33:01Z</time>
      </trkpt>
      <trkpt lat="43.96029" lon="1.87586">
        <ele>274.8</ele>
        <time>2022-09-01T19:33:02Z</time>
      </trkpt>
      <trkpt lat="43.96027" lon="1.87585">
        <ele>275</ele>
        <time>2022-09-01T19:33:03Z</time>
      </trkpt>
      <trkpt lat="43.96025" lon="1.87584">
        <ele>275</ele>
        <time>2022-09-01T19:33:04Z</time>
      </trkpt>
      <trkpt lat="43.96023" lon="1.87584">
        <ele>275.2</ele>
        <time>2022-09-01T19:33:05Z</time>
      </trkpt>
      <trkpt lat="43.96022" lon="1.87584">
        <ele>275.2</ele>
        <time>2022-09-01T19:33:06Z</time>
      </trkpt>
      <trkpt lat="43.9602" lon="1.87583">
        <ele>275.4</ele>
        <time>2022-09-01T19:33:07Z</time>
      </trkpt>
      <trkpt lat="43.96019" lon="1.87584">
        <ele>275.4</ele>
        <time>2022-09-01T19:33:08Z</time>
      </trkpt>
      <trkpt lat="43.96017" lon="1.87584">
        <ele>275.6</ele>
        <time>2022-09-01T19:33:09Z</time>
      </trkpt>
      <trkpt lat="43.96014" lon="1.87584">
        <ele>275.8</ele>
        <time>2022-09-01T19:33:10Z</time>
      </trkpt>
      <trkpt lat="43.96012" lon="1.87584">
        <ele>275.8</ele>
        <time>2022-09-01T19:33:11Z</time>
      </trkpt>
      <trkpt lat="43.9601" lon="1.87585">
        <ele>276</ele>
        <time>2022-09-01T19:33:12Z</time>
      </trkpt>
      <trkpt lat="43.96008" lon="1.87586">
        <ele>276</ele>
        <time>2022-09-01T19:33:13Z</time>
      </trkpt>
      <trkpt lat="43.96007" lon="1.87587">
        <ele>276</ele>
        <time>2022-09-01T19:33:14Z</time>
      </trkpt>
      <trkpt lat="43.96006" lon="1.87587">
        <ele>276</ele>
        <time>2022-09-01T19:33:15Z</time>
      </trkpt>
      <trkpt lat="43.96005" lon="1.87588">
        <ele>276.2</ele>
        <time>2022-09-01T19:33:16Z</time>
      </trkpt>
      <trkpt lat="43.96004" lon="1.87589">
        <ele>276.2</ele>
        <time>2022-09-01T19:33:17Z</time>
      </trkpt>
      <trkpt lat="43.96003" lon="1.8759">
        <ele>276.4</ele>
        <time>2022-09-01T19:33:18Z</time>
      </trkpt>
      <trkpt lat="43.96002" lon="1.87591">
        <ele>276.4</ele>
        <time>2022-09-01T19:33:19Z</time>
      </trkpt>
      <trkpt lat="43.96001" lon="1.87592">
        <ele>276.6</ele>
        <time>2022-09-01T19:33:20Z</time>
      </trkpt>
      <trkpt lat="43.96" lon="1.87593">
        <ele>276.6</ele>
        <time>2022-09-01T19:33:21Z</time>
      </trkpt>
      <trkpt lat="43.95998" lon="1.87594">
        <ele>276.8</ele>
        <time>2022-09-01T19:33:22Z</time>
      </trkpt>
      <trkpt lat="43.95995" lon="1.87594">
        <ele>276.8</ele>
        <time>2022-09-01T19:33:24Z</time>
      </trkpt>
      <trkpt lat="43.95993" lon="1.87593">
        <ele>277</ele>
        <time>2022-09-01T19:33:25Z</time>
      </trkpt>
      <trkpt lat="43.95993" lon="1.87591">
        <ele>277</ele>
        <time>2022-09-01T19:33:26Z</time>
      </trkpt>
      <trkpt lat="43.95992" lon="1.8759">
        <ele>277.2</ele>
        <time>2022-09-01T19:33:27Z</time>
      </trkpt>
      <trkpt lat="43.95991" lon="1.87589">
        <ele>277.4</ele>
        <time>2022-09-01T19:33:28Z</time>
      </trkpt>
      <trkpt lat="43.95991" lon="1.87587">
        <ele>277.4</ele>
        <time>2022-09-01T19:33:29Z</time>
      </trkpt>
      <trkpt lat="43.95991" lon="1.87585">
        <ele>277.6</ele>
        <time>2022-09-01T19:33:30Z</time>
      </trkpt>
      <trkpt lat="43.9599" lon="1.87584">
        <ele>277.6</ele>
        <time>2022-09-01T19:33:31Z</time>
      </trkpt>
      <trkpt lat="43.9599" lon="1.87583">
        <ele>277.8</ele>
        <time>2022-09-01T19:33:32Z</time>
      </trkpt>
      <trkpt lat="43.9599" lon="1.87579">
        <ele>277.8</ele>
        <time>2022-09-01T19:33:41Z</time>
      </trkpt>
      <trkpt lat="43.9599" lon="1.87575">
        <ele>277.8</ele>
        <time>2022-09-01T19:33:43Z</time>
      </trkpt>
      <trkpt lat="43.9599" lon="1.87573">
        <ele>277.8</ele>
        <time>2022-09-01T19:33:44Z</time>
      </trkpt>
      <trkpt lat="43.95988" lon="1.87559">
        <ele>277.8</ele>
        <time>2022-09-01T19:33:49Z</time>
      </trkpt>
      <trkpt lat="43.95987" lon="1.87553">
        <ele>277.8</ele>
        <time>2022-09-01T19:33:51Z</time>
      </trkpt>
      <trkpt lat="43.95986" lon="1.87537">
        <ele>277.8</ele>
        <time>2022-09-01T19:33:55Z</time>
      </trkpt>
      <trkpt lat="43.95982" lon="1.87504">
        <ele>278</ele>
        <time>2022-09-01T19:34:01Z</time>
      </trkpt>
      <trkpt lat="43.9598" lon="1.8748">
        <ele>278.2</ele>
        <time>2022-09-01T19:34:05Z</time>
      </trkpt>
      <trkpt lat="43.95977" lon="1.87461">
        <ele>278.4</ele>
        <time>2022-09-01T19:34:08Z</time>
      </trkpt>
      <trkpt lat="43.95969" lon="1.87412">
        <ele>278.4</ele>
        <time>2022-09-01T19:34:15Z</time>
      </trkpt>
      <trkpt lat="43.95968" lon="1.87404">
        <ele>278.4</ele>
        <time>2022-09-01T19:34:16Z</time>
      </trkpt>
      <trkpt lat="43.95966" lon="1.87397">
        <ele>278.4</ele>
        <time>2022-09-01T19:34:17Z</time>
      </trkpt>
      <trkpt lat="43.95955" lon="1.87352">
        <ele>278</ele>
        <time>2022-09-01T19:34:23Z</time>
      </trkpt>
      <trkpt lat="43.9594" lon="1.87286">
        <ele>276.6</ele>
        <time>2022-09-01T19:34:31Z</time>
      </trkpt>
      <trkpt lat="43.95938" lon="1.87277">
        <ele>276.6</ele>
        <time>2022-09-01T19:34:32Z</time>
      </trkpt>
      <trkpt lat="43.95933" lon="1.87251">
        <ele>276.2</ele>
        <time>2022-09-01T19:34:35Z</time>
      </trkpt>
      <trkpt lat="43.9593" lon="1.87242">
        <ele>276.2</ele>
        <time>2022-09-01T19:34:36Z</time>
      </trkpt>
      <trkpt lat="43.95928" lon="1.87234">
        <ele>276</ele>
        <time>2022-09-01T19:34:37Z</time>
      </trkpt>
      <trkpt lat="43.95923" lon="1.87218">
        <ele>275.6</ele>
        <time>2022-09-01T19:34:39Z</time>
      </trkpt>
      <trkpt lat="43.95919" lon="1.8721">
        <ele>275.4</ele>
        <time>2022-09-01T19:34:40Z</time>
      </trkpt>
      <trkpt lat="43.95915" lon="1.87203">
        <ele>275.2</ele>
        <time>2022-09-01T19:34:41Z</time>
      </trkpt>
      <trkpt lat="43.95911" lon="1.87197">
        <ele>275.2</ele>
        <time>2022-09-01T19:34:42Z</time>
      </trkpt>
      <trkpt lat="43.95907" lon="1.87192">
        <ele>275.2</ele>
        <time>2022-09-01T19:34:43Z</time>
      </trkpt>
      <trkpt lat="43.95897" lon="1.87181">
        <ele>275</ele>
        <time>2022-09-01T19:34:45Z</time>
      </trkpt>
      <trkpt lat="43.95881" lon="1.87169">
        <ele>274.8</ele>
        <time>2022-09-01T19:34:48Z</time>
      </trkpt>
      <trkpt lat="43.9587" lon="1.87161">
        <ele>274.6</ele>
        <time>2022-09-01T19:34:50Z</time>
      </trkpt>
      <trkpt lat="43.95865" lon="1.87158">
        <ele>274.6</ele>
        <time>2022-09-01T19:34:51Z</time>
      </trkpt>
      <trkpt lat="43.9586" lon="1.87154">
        <ele>274.6</ele>
        <time>2022-09-01T19:34:52Z</time>
      </trkpt>
      <trkpt lat="43.95837" lon="1.87142">
        <ele>274.6</ele>
        <time>2022-09-01T19:34:56Z</time>
      </trkpt>
      <trkpt lat="43.95812" lon="1.87133">
        <ele>275</ele>
        <time>2022-09-01T19:35:00Z</time>
      </trkpt>
      <trkpt lat="43.958" lon="1.8713">
        <ele>275.2</ele>
        <time>2022-09-01T19:35:02Z</time>
      </trkpt>
      <trkpt lat="43.95794" lon="1.87128">
        <ele>275.2</ele>
        <time>2022-09-01T19:35:03Z</time>
      </trkpt>
      <trkpt lat="43.95789" lon="1.87127">
        <ele>275.2</ele>
        <time>2022-09-01T19:35:04Z</time>
      </trkpt>
      <trkpt lat="43.95784" lon="1.87125">
        <ele>275.4</ele>
        <time>2022-09-01T19:35:05Z</time>
      </trkpt>
      <trkpt lat="43.95778" lon="1.87123">
        <ele>275.4</ele>
        <time>2022-09-01T19:35:06Z</time>
      </trkpt>
      <trkpt lat="43.95773" lon="1.8712">
        <ele>275.4</ele>
        <time>2022-09-01T19:35:07Z</time>
      </trkpt>
      <trkpt lat="43.95768" lon="1.87118">
        <ele>275.4</ele>
        <time>2022-09-01T19:35:08Z</time>
      </trkpt>
      <trkpt lat="43.95743" lon="1.8711">
        <ele>275.6</ele>
        <time>2022-09-01T19:35:13Z</time>
      </trkpt>
      <trkpt lat="43.95733" lon="1.87115">
        <ele>275.6</ele>
        <time>2022-09-01T19:35:15Z</time>
      </trkpt>
      <trkpt lat="43.95728" lon="1.87119">
        <ele>275.6</ele>
        <time>2022-09-01T19:35:16Z</time>
      </trkpt>
      <trkpt lat="43.95725" lon="1.87124">
        <ele>275.6</ele>
        <time>2022-09-01T19:35:17Z</time>
      </trkpt>
      <trkpt lat="43.95722" lon="1.87131">
        <ele>275.6</ele>
        <time>2022-09-01T19:35:18Z</time>
      </trkpt>
      <trkpt lat="43.95719" lon="1.87137">
        <ele>275.6</ele>
        <time>2022-09-01T19:35:19Z</time>
      </trkpt>
      <trkpt lat="43.95716" lon="1.87143">
        <ele>275.6</ele>
        <time>2022-09-01T19:35:20Z</time>
      </trkpt>
      <trkpt lat="43.95713" lon="1.87149">
        <ele>275.6</ele>
        <time>2022-09-01T19:35:21Z</time>
      </trkpt>
      <trkpt lat="43.95704" lon="1.87166">
        <ele>275.8</ele>
        <time>2022-09-01T19:35:24Z</time>
      </trkpt>
      <trkpt lat="43.95696" lon="1.87177">
        <ele>276</ele>
        <time>2022-09-01T19:35:26Z</time>
      </trkpt>
      <trkpt lat="43.95692" lon="1.87182">
        <ele>276.4</ele>
        <time>2022-09-01T19:35:27Z</time>
      </trkpt>
      <trkpt lat="43.95689" lon="1.87187">
        <ele>276.4</ele>
        <time>2022-09-01T19:35:28Z</time>
      </trkpt>
      <trkpt lat="43.95685" lon="1.87192">
        <ele>276.6</ele>
        <time>2022-09-01T19:35:29Z</time>
      </trkpt>
      <trkpt lat="43.95668" lon="1.8721">
        <ele>277.6</ele>
        <time>2022-09-01T19:35:33Z</time>
      </trkpt>
      <trkpt lat="43.95662" lon="1.87215">
        <ele>278</ele>
        <time>2022-09-01T19:35:34Z</time>
      </trkpt>
      <trkpt lat="43.9564" lon="1.87238">
        <ele>278.8</ele>
        <time>2022-09-01T19:35:39Z</time>
      </trkpt>
      <trkpt lat="43.95634" lon="1.87242">
        <ele>279</ele>
        <time>2022-09-01T19:35:40Z</time>
      </trkpt>
      <trkpt lat="43.95629" lon="1.87247">
        <ele>279.4</ele>
        <time>2022-09-01T19:35:41Z</time>
      </trkpt>
      <trkpt lat="43.95624" lon="1.8725">
        <ele>279.6</ele>
        <time>2022-09-01T19:35:42Z</time>
      </trkpt>
      <trkpt lat="43.9562" lon="1.87254">
        <ele>279.8</ele>
        <time>2022-09-01T19:35:43Z</time>
      </trkpt>
      <trkpt lat="43.95614" lon="1.87258">
        <ele>280</ele>
        <time>2022-09-01T19:35:44Z</time>
      </trkpt>
      <trkpt lat="43.95609" lon="1.87262">
        <ele>280.4</ele>
        <time>2022-09-01T19:35:45Z</time>
      </trkpt>
      <trkpt lat="43.95604" lon="1.87265">
        <ele>280.4</ele>
        <time>2022-09-01T19:35:46Z</time>
      </trkpt>
      <trkpt lat="43.95598" lon="1.87268">
        <ele>280.6</ele>
        <time>2022-09-01T19:35:47Z</time>
      </trkpt>
      <trkpt lat="43.95593" lon="1.8727">
        <ele>280.8</ele>
        <time>2022-09-01T19:35:48Z</time>
      </trkpt>
      <trkpt lat="43.95588" lon="1.87272">
        <ele>280.8</ele>
        <time>2022-09-01T19:35:49Z</time>
      </trkpt>
      <trkpt lat="43.95583" lon="1.87274">
        <ele>281.2</ele>
        <time>2022-09-01T19:35:50Z</time>
      </trkpt>
      <trkpt lat="43.95578" lon="1.87276">
        <ele>281.2</ele>
        <time>2022-09-01T19:35:51Z</time>
      </trkpt>
      <trkpt lat="43.95573" lon="1.87277">
        <ele>281.4</ele>
        <time>2022-09-01T19:35:52Z</time>
      </trkpt>
      <trkpt lat="43.95568" lon="1.87279">
        <ele>281.4</ele>
        <time>2022-09-01T19:35:53Z</time>
      </trkpt>
      <trkpt lat="43.95563" lon="1.87281">
        <ele>281.4</ele>
        <time>2022-09-01T19:35:54Z</time>
      </trkpt>
      <trkpt lat="43.95559" lon="1.87282">
        <ele>281.4</ele>
        <time>2022-09-01T19:35:55Z</time>
      </trkpt>
      <trkpt lat="43.95554" lon="1.87284">
        <ele>281.4</ele>
        <time>2022-09-01T19:35:56Z</time>
      </trkpt>
      <trkpt lat="43.95549" lon="1.87285">
        <ele>281.4</ele>
        <time>2022-09-01T19:35:57Z</time>
      </trkpt>
      <trkpt lat="43.95543" lon="1.87287">
        <ele>281.4</ele>
        <time>2022-09-01T19:35:58Z</time>
      </trkpt>
      <trkpt lat="43.95538" lon="1.8729">
        <ele>281.4</ele>
        <time>2022-09-01T19:35:59Z</time>
      </trkpt>
      <trkpt lat="43.95532" lon="1.87292">
        <ele>281.2</ele>
        <time>2022-09-01T19:36:00Z</time>
      </trkpt>
      <trkpt lat="43.95527" lon="1.87295">
        <ele>281.2</ele>
        <time>2022-09-01T19:36:01Z</time>
      </trkpt>
      <trkpt lat="43.95522" lon="1.87298">
        <ele>281.2</ele>
        <time>2022-09-01T19:36:02Z</time>
      </trkpt>
      <trkpt lat="43.95517" lon="1.87301">
        <ele>281</ele>
        <time>2022-09-01T19:36:03Z</time>
      </trkpt>
      <trkpt lat="43.95513" lon="1.87305">
        <ele>281</ele>
        <time>2022-09-01T19:36:04Z</time>
      </trkpt>
      <trkpt lat="43.95508" lon="1.87309">
        <ele>281</ele>
        <time>2022-09-01T19:36:05Z</time>
      </trkpt>
      <trkpt lat="43.95503" lon="1.87312">
        <ele>281</ele>
        <time>2022-09-01T19:36:06Z</time>
      </trkpt>
      <trkpt lat="43.95499" lon="1.87317">
        <ele>281</ele>
        <time>2022-09-01T19:36:07Z</time>
      </trkpt>
      <trkpt lat="43.95487" lon="1.87331">
        <ele>280.8</ele>
        <time>2022-09-01T19:36:10Z</time>
      </trkpt>
      <trkpt lat="43.95483" lon="1.87336">
        <ele>280.8</ele>
        <time>2022-09-01T19:36:11Z</time>
      </trkpt>
      <trkpt lat="43.95479" lon="1.87341">
        <ele>280.8</ele>
        <time>2022-09-01T19:36:12Z</time>
      </trkpt>
      <trkpt lat="43.95475" lon="1.87346">
        <ele>280.8</ele>
        <time>2022-09-01T19:36:13Z</time>
      </trkpt>
      <trkpt lat="43.95471" lon="1.87351">
        <ele>280.8</ele>
        <time>2022-09-01T19:36:14Z</time>
      </trkpt>
      <trkpt lat="43.95467" lon="1.87355">
        <ele>280.6</ele>
        <time>2022-09-01T19:36:15Z</time>
      </trkpt>
      <trkpt lat="43.95463" lon="1.8736">
        <ele>280.6</ele>
        <time>2022-09-01T19:36:16Z</time>
      </trkpt>
      <trkpt lat="43.9546" lon="1.87365">
        <ele>280.6</ele>
        <time>2022-09-01T19:36:17Z</time>
      </trkpt>
      <trkpt lat="43.95457" lon="1.87369">
        <ele>280.8</ele>
        <time>2022-09-01T19:36:18Z</time>
      </trkpt>
      <trkpt lat="43.95453" lon="1.87373">
        <ele>280.8</ele>
        <time>2022-09-01T19:36:19Z</time>
      </trkpt>
      <trkpt lat="43.9545" lon="1.87377">
        <ele>280.8</ele>
        <time>2022-09-01T19:36:20Z</time>
      </trkpt>
      <trkpt lat="43.95447" lon="1.87381">
        <ele>280.8</ele>
        <time>2022-09-01T19:36:21Z</time>
      </trkpt>
      <trkpt lat="43.95445" lon="1.87385">
        <ele>280.8</ele>
        <time>2022-09-01T19:36:22Z</time>
      </trkpt>
      <trkpt lat="43.95442" lon="1.87388">
        <ele>281</ele>
        <time>2022-09-01T19:36:23Z</time>
      </trkpt>
      <trkpt lat="43.9544" lon="1.87391">
        <ele>281</ele>
        <time>2022-09-01T19:36:24Z</time>
      </trkpt>
      <trkpt lat="43.95437" lon="1.87393">
        <ele>281</ele>
        <time>2022-09-01T19:36:25Z</time>
      </trkpt>
      <trkpt lat="43.95433" lon="1.87393">
        <ele>281.2</ele>
        <time>2022-09-01T19:36:26Z</time>
      </trkpt>
      <trkpt lat="43.9543" lon="1.87391">
        <ele>281.2</ele>
        <time>2022-09-01T19:36:27Z</time>
      </trkpt>
      <trkpt lat="43.9542" lon="1.87376">
        <ele>281.4</ele>
        <time>2022-09-01T19:36:30Z</time>
      </trkpt>
      <trkpt lat="43.95417" lon="1.87371">
        <ele>281.4</ele>
        <time>2022-09-01T19:36:31Z</time>
      </trkpt>
      <trkpt lat="43.95413" lon="1.87365">
        <ele>281.4</ele>
        <time>2022-09-01T19:36:32Z</time>
      </trkpt>
      <trkpt lat="43.95391" lon="1.87326">
        <ele>281</ele>
        <time>2022-09-01T19:36:38Z</time>
      </trkpt>
      <trkpt lat="43.95378" lon="1.87303">
        <ele>280.4</ele>
        <time>2022-09-01T19:36:41Z</time>
      </trkpt>
      <trkpt lat="43.95375" lon="1.87287">
        <ele>280</ele>
        <time>2022-09-01T19:36:43Z</time>
      </trkpt>
      <trkpt lat="43.95374" lon="1.87278">
        <ele>280</ele>
        <time>2022-09-01T19:36:44Z</time>
      </trkpt>
      <trkpt lat="43.95374" lon="1.87269">
        <ele>279.6</ele>
        <time>2022-09-01T19:36:45Z</time>
      </trkpt>
      <trkpt lat="43.95377" lon="1.8725">
        <ele>279.4</ele>
        <time>2022-09-01T19:36:46Z</time>
      </trkpt>
      <trkpt lat="43.95377" lon="1.8725">
        <ele>279.2</ele>
        <time>2022-09-01T19:36:47Z</time>
      </trkpt>
      <trkpt lat="43.95381" lon="1.87234">
        <ele>278.8</ele>
        <time>2022-09-01T19:36:49Z</time>
      </trkpt>
      <trkpt lat="43.9539" lon="1.87189">
        <ele>277.6</ele>
        <time>2022-09-01T19:36:54Z</time>
      </trkpt>
      <trkpt lat="43.954" lon="1.87142">
        <ele>276.8</ele>
        <time>2022-09-01T19:36:59Z</time>
      </trkpt>
      <trkpt lat="43.95402" lon="1.87132">
        <ele>276.6</ele>
        <time>2022-09-01T19:37:00Z</time>
      </trkpt>
      <trkpt lat="43.95404" lon="1.87121">
        <ele>276.2</ele>
        <time>2022-09-01T19:37:01Z</time>
      </trkpt>
      <trkpt lat="43.9541" lon="1.87093">
        <ele>275.6</ele>
        <time>2022-09-01T19:37:04Z</time>
      </trkpt>
      <trkpt lat="43.95412" lon="1.87082">
        <ele>275.4</ele>
        <time>2022-09-01T19:37:05Z</time>
      </trkpt>
      <trkpt lat="43.95414" lon="1.87073">
        <ele>275.2</ele>
        <time>2022-09-01T19:37:06Z</time>
      </trkpt>
      <trkpt lat="43.95416" lon="1.87067">
        <ele>275</ele>
        <time>2022-09-01T19:37:07Z</time>
      </trkpt>
      <trkpt lat="43.95418" lon="1.87059">
        <ele>274.8</ele>
        <time>2022-09-01T19:37:08Z</time>
      </trkpt>
      <trkpt lat="43.9542" lon="1.8705">
        <ele>274.6</ele>
        <time>2022-09-01T19:37:09Z</time>
      </trkpt>
      <trkpt lat="43.95421" lon="1.87042">
        <ele>274.4</ele>
        <time>2022-09-01T19:37:10Z</time>
      </trkpt>
      <trkpt lat="43.9542" lon="1.87034">
        <ele>274.2</ele>
        <time>2022-09-01T19:37:11Z</time>
      </trkpt>
      <trkpt lat="43.95418" lon="1.87026">
        <ele>274</ele>
        <time>2022-09-01T19:37:12Z</time>
      </trkpt>
      <trkpt lat="43.95415" lon="1.87019">
        <ele>273.6</ele>
        <time>2022-09-01T19:37:13Z</time>
      </trkpt>
      <trkpt lat="43.9541" lon="1.87014">
        <ele>273.4</ele>
        <time>2022-09-01T19:37:14Z</time>
      </trkpt>
      <trkpt lat="43.95406" lon="1.87008">
        <ele>273.2</ele>
        <time>2022-09-01T19:37:15Z</time>
      </trkpt>
      <trkpt lat="43.95401" lon="1.87004">
        <ele>273.2</ele>
        <time>2022-09-01T19:37:16Z</time>
      </trkpt>
      <trkpt lat="43.95396" lon="1.86999">
        <ele>273</ele>
        <time>2022-09-01T19:37:17Z</time>
      </trkpt>
      <trkpt lat="43.95391" lon="1.86995">
        <ele>272.8</ele>
        <time>2022-09-01T19:37:18Z</time>
      </trkpt>
      <trkpt lat="43.95386" lon="1.86991">
        <ele>272.8</ele>
        <time>2022-09-01T19:37:19Z</time>
      </trkpt>
      <trkpt lat="43.95382" lon="1.86986">
        <ele>272.6</ele>
        <time>2022-09-01T19:37:20Z</time>
      </trkpt>
      <trkpt lat="43.95377" lon="1.86982">
        <ele>272.6</ele>
        <time>2022-09-01T19:37:21Z</time>
      </trkpt>
      <trkpt lat="43.95372" lon="1.86978">
        <ele>272.2</ele>
        <time>2022-09-01T19:37:22Z</time>
      </trkpt>
      <trkpt lat="43.95368" lon="1.86974">
        <ele>272.2</ele>
        <time>2022-09-01T19:37:23Z</time>
      </trkpt>
      <trkpt lat="43.95364" lon="1.8697">
        <ele>272</ele>
        <time>2022-09-01T19:37:24Z</time>
      </trkpt>
      <trkpt lat="43.95359" lon="1.86966">
        <ele>272</ele>
        <time>2022-09-01T19:37:25Z</time>
      </trkpt>
      <trkpt lat="43.95355" lon="1.86962">
        <ele>271.8</ele>
        <time>2022-09-01T19:37:26Z</time>
      </trkpt>
      <trkpt lat="43.95351" lon="1.86958">
        <ele>271.8</ele>
        <time>2022-09-01T19:37:27Z</time>
      </trkpt>
      <trkpt lat="43.95347" lon="1.86955">
        <ele>271.6</ele>
        <time>2022-09-01T19:37:28Z</time>
      </trkpt>
      <trkpt lat="43.95343" lon="1.86951">
        <ele>271.4</ele>
        <time>2022-09-01T19:37:29Z</time>
      </trkpt>
      <trkpt lat="43.9534" lon="1.86948">
        <ele>271.2</ele>
        <time>2022-09-01T19:37:30Z</time>
      </trkpt>
      <trkpt lat="43.95339" lon="1.86945">
        <ele>271.2</ele>
        <time>2022-09-01T19:37:31Z</time>
      </trkpt>
      <trkpt lat="43.95338" lon="1.86943">
        <ele>271</ele>
        <time>2022-09-01T19:37:32Z</time>
      </trkpt>
      <trkpt lat="43.95338" lon="1.8694">
        <ele>271</ele>
        <time>2022-09-01T19:37:33Z</time>
      </trkpt>
      <trkpt lat="43.95339" lon="1.86936">
        <ele>271</ele>
        <time>2022-09-01T19:37:34Z</time>
      </trkpt>
      <trkpt lat="43.9534" lon="1.86933">
        <ele>271</ele>
        <time>2022-09-01T19:37:35Z</time>
      </trkpt>
      <trkpt lat="43.9534" lon="1.8693">
        <ele>271</ele>
        <time>2022-09-01T19:37:36Z</time>
      </trkpt>
      <trkpt lat="43.95338" lon="1.86924">
        <ele>271</ele>
        <time>2022-09-01T19:37:38Z</time>
      </trkpt>
      <trkpt lat="43.95337" lon="1.86919">
        <ele>271</ele>
        <time>2022-09-01T19:37:39Z</time>
      </trkpt>
      <trkpt lat="43.95337" lon="1.86915">
        <ele>270.8</ele>
        <time>2022-09-01T19:37:40Z</time>
      </trkpt>
      <trkpt lat="43.95343" lon="1.86903">
        <ele>270.8</ele>
        <time>2022-09-01T19:37:43Z</time>
      </trkpt>
      <trkpt lat="43.95345" lon="1.86899">
        <ele>270.8</ele>
        <time>2022-09-01T19:37:44Z</time>
      </trkpt>
      <trkpt lat="43.95347" lon="1.86895">
        <ele>270.6</ele>
        <time>2022-09-01T19:37:45Z</time>
      </trkpt>
      <trkpt lat="43.95349" lon="1.86891">
        <ele>270.6</ele>
        <time>2022-09-01T19:37:46Z</time>
      </trkpt>
      <trkpt lat="43.95351" lon="1.86888">
        <ele>270.4</ele>
        <time>2022-09-01T19:37:47Z</time>
      </trkpt>
      <trkpt lat="43.95352" lon="1.86884">
        <ele>270.4</ele>
        <time>2022-09-01T19:37:48Z</time>
      </trkpt>
      <trkpt lat="43.95354" lon="1.86881">
        <ele>270.2</ele>
        <time>2022-09-01T19:37:49Z</time>
      </trkpt>
      <trkpt lat="43.95355" lon="1.86878">
        <ele>270.2</ele>
        <time>2022-09-01T19:37:50Z</time>
      </trkpt>
      <trkpt lat="43.95357" lon="1.86874">
        <ele>270.2</ele>
        <time>2022-09-01T19:37:51Z</time>
      </trkpt>
      <trkpt lat="43.95361" lon="1.86863">
        <ele>270</ele>
        <time>2022-09-01T19:37:54Z</time>
      </trkpt>
      <trkpt lat="43.95363" lon="1.8686">
        <ele>270</ele>
        <time>2022-09-01T19:37:55Z</time>
      </trkpt>
      <trkpt lat="43.95365" lon="1.86858">
        <ele>270</ele>
        <time>2022-09-01T19:37:56Z</time>
      </trkpt>
      <trkpt lat="43.95364" lon="1.8686">
        <ele>269.4</ele>
        <time>2022-09-01T19:39:24Z</time>
      </trkpt>
      <trkpt lat="43.95363" lon="1.86861">
        <ele>269.4</ele>
        <time>2022-09-01T19:39:25Z</time>
      </trkpt>
      <trkpt lat="43.95362" lon="1.86865">
        <ele>269.6</ele>
        <time>2022-09-01T19:39:28Z</time>
      </trkpt>
      <trkpt lat="43.95361" lon="1.86866">
        <ele>269.6</ele>
        <time>2022-09-01T19:39:29Z</time>
      </trkpt>
      <trkpt lat="43.95359" lon="1.86867">
        <ele>269.6</ele>
        <time>2022-09-01T19:39:30Z</time>
      </trkpt>
      <trkpt lat="43.95357" lon="1.86867">
        <ele>269.8</ele>
        <time>2022-09-01T19:39:32Z</time>
      </trkpt>
      <trkpt lat="43.95356" lon="1.86866">
        <ele>269.8</ele>
        <time>2022-09-01T19:39:33Z</time>
      </trkpt>
      <trkpt lat="43.95355" lon="1.86865">
        <ele>269.8</ele>
        <time>2022-09-01T19:39:34Z</time>
      </trkpt>
      <trkpt lat="43.95353" lon="1.86866">
        <ele>269.8</ele>
        <time>2022-09-01T19:39:35Z</time>
      </trkpt>
      <trkpt lat="43.95353" lon="1.86866">
        <ele>269.8</ele>
        <time>2022-09-01T19:39:36Z</time>
      </trkpt>
      <trkpt lat="43.95347" lon="1.86864">
        <ele>269.6</ele>
        <time>2022-09-01T19:39:38Z</time>
      </trkpt>
      <trkpt lat="43.95345" lon="1.86863">
        <ele>269.6</ele>
        <time>2022-09-01T19:39:39Z</time>
      </trkpt>
      <trkpt lat="43.95342" lon="1.86861">
        <ele>269.6</ele>
        <time>2022-09-01T19:39:40Z</time>
      </trkpt>
      <trkpt lat="43.9534" lon="1.86859">
        <ele>269.6</ele>
        <time>2022-09-01T19:39:41Z</time>
      </trkpt>
      <trkpt lat="43.95336" lon="1.86855">
        <ele>269.4</ele>
        <time>2022-09-01T19:39:43Z</time>
      </trkpt>
      <trkpt lat="43.95334" lon="1.86853">
        <ele>269.2</ele>
        <time>2022-09-01T19:39:44Z</time>
      </trkpt>
      <trkpt lat="43.95331" lon="1.8685">
        <ele>269.2</ele>
        <time>2022-09-01T19:39:46Z</time>
      </trkpt>
      <trkpt lat="43.9533" lon="1.8685">
        <ele>269.2</ele>
        <time>2022-09-01T19:39:47Z</time>
      </trkpt>
      <trkpt lat="43.95329" lon="1.8685">
        <ele>269</ele>
        <time>2022-09-01T19:39:48Z</time>
      </trkpt>
    </trkseg>
  </trk>
</gpx>